<?xml version='1.0' encoding='UTF-8'?><gpx version="1.1" creator="JPX - https://github.com/jenetics/jpx" xmlns="http://www.topografix.com/GPX/1/1"><trk><trkseg><trkpt lat="43.7129093586636" lon="7.074851491142942"><ele>317.0</ele><time>2026-04-26T14:03:53.999Z</time></trkpt><trkpt lat="43.71298336835894" lon="7.074837274469321"><ele>317.0</ele><time>2026-04-26T14:03:55.999Z</time></trkpt><trkpt lat="43.713056731842606" lon="7.074815298958105"><ele>317.0</ele><time>2026-04-26T14:03:57.999Z</time></trkpt><trkpt lat="43.7130845727139" lon="7.074693120231464"><ele>317.0</ele><time>2026-04-26T14:04:00.999Z</time></trkpt><trkpt lat="43.71306673392676" lon="7.074606116948859"><ele>317.0</ele><time>2026-04-26T14:04:02.999Z</time></trkpt><trkpt lat="43.71302941641699" lon="7.074530659493966"><ele>317.0</ele><time>2026-04-26T14:04:08.999Z</time></trkpt><trkpt lat="43.712944776826234" lon="7.074657771119727"><ele>317.0</ele><time>2026-04-26T14:04:30.998Z</time></trkpt><trkpt lat="43.71302045253332" lon="7.074471857727588"><ele>317.0</ele><time>2026-04-26T14:04:32.998Z</time></trkpt><trkpt lat="43.71298105015072" lon="7.0743936984830915"><ele>317.0</ele><time>2026-04-26T14:06:12.999Z</time></trkpt><trkpt lat="43.713021185361356" lon="7.0742569855146185"><ele>317.0</ele><time>2026-04-26T14:06:14.999Z</time></trkpt><trkpt lat="43.7130555804172" lon="7.07417721455748"><ele>317.0</ele><time>2026-04-26T14:06:15.999Z</time></trkpt><trkpt lat="43.71310281875591" lon="7.074087100061464"><ele>316.83333333333337</ele><time>2026-04-26T14:06:16.999Z</time></trkpt><trkpt lat="43.713161615036945" lon="7.074000150925226"><ele>316.6666666666667</ele><time>2026-04-26T14:06:17.999Z</time></trkpt><trkpt lat="43.71323889110051" lon="7.073958141338662"><ele>316.5</ele><time>2026-04-26T14:06:18.999Z</time></trkpt><trkpt lat="43.71329551834838" lon="7.073890227373246"><ele>316.3333333333333</ele><time>2026-04-26T14:06:19.999Z</time></trkpt><trkpt lat="43.713365634803" lon="7.073805758206735"><ele>316.16666666666663</ele><time>2026-04-26T14:06:20.999Z</time></trkpt><trkpt lat="43.71344150684823" lon="7.07374222577893"><ele>316.0</ele><time>2026-04-26T14:06:21.999Z</time></trkpt><trkpt lat="43.713515875998915" lon="7.073675562672047"><ele>318.6</ele><time>2026-04-26T14:06:22.999Z</time></trkpt><trkpt lat="43.71359517364807" lon="7.073598954947164"><ele>321.20000000000005</ele><time>2026-04-26T14:06:23.999Z</time></trkpt><trkpt lat="43.713686266065075" lon="7.073510952555139"><ele>323.79999999999995</ele><time>2026-04-26T14:06:24.999Z</time></trkpt><trkpt lat="43.713782151659046" lon="7.073420953417898"><ele>326.4</ele><time>2026-04-26T14:06:25.999Z</time></trkpt><trkpt lat="43.71387584669829" lon="7.07333457410317"><ele>329.0</ele><time>2026-04-26T14:06:26.999Z</time></trkpt><trkpt lat="43.71394478338898" lon="7.073258061205713"><ele>329.5</ele><time>2026-04-26T14:06:27.999Z</time></trkpt><trkpt lat="43.71400387197778" lon="7.073183314310358"><ele>330.0</ele><time>2026-04-26T14:06:28.999Z</time></trkpt><trkpt lat="43.71406302237966" lon="7.0731002219305035"><ele>330.5</ele><time>2026-04-26T14:06:29.999Z</time></trkpt><trkpt lat="43.71411559534699" lon="7.073027092654636"><ele>331.0</ele><time>2026-04-26T14:06:30.999Z</time></trkpt><trkpt lat="43.714148844882395" lon="7.072949601735682"><ele>331.5</ele><time>2026-04-26T14:06:31.999Z</time></trkpt><trkpt lat="43.714216908814656" lon="7.0728457419523965"><ele>332.0</ele><time>2026-04-26T14:06:33.999Z</time></trkpt><trkpt lat="43.71419175509141" lon="7.072762214270248"><ele>332.0</ele><time>2026-04-26T14:06:34.998Z</time></trkpt><trkpt lat="43.714143557912216" lon="7.072682756150047"><ele>332.0</ele><time>2026-04-26T14:06:35.998Z</time></trkpt><trkpt lat="43.714107637134404" lon="7.072569654910274"><ele>332.0</ele><time>2026-04-26T14:06:38.998Z</time></trkpt><trkpt lat="43.7140518181656" lon="7.072401629214671"><ele>332.0</ele><time>2026-04-26T14:06:41Z</time></trkpt><trkpt lat="43.71401342088328" lon="7.072301238824471"><ele>332.0</ele><time>2026-04-26T14:06:42Z</time></trkpt><trkpt lat="43.71397396456441" lon="7.072193306092779"><ele>332.0</ele><time>2026-04-26T14:06:43Z</time></trkpt><trkpt lat="43.71393628293119" lon="7.0720810085403425"><ele>332.0</ele><time>2026-04-26T14:06:44Z</time></trkpt><trkpt lat="43.713894230489664" lon="7.071964093022888"><ele>332.0</ele><time>2026-04-26T14:06:45Z</time></trkpt><trkpt lat="43.71386216329244" lon="7.071852472499717"><ele>332.0</ele><time>2026-04-26T14:06:46Z</time></trkpt><trkpt lat="43.71383859092904" lon="7.071747359862179"><ele>332.0</ele><time>2026-04-26T14:06:47Z</time></trkpt><trkpt lat="43.713818921271795" lon="7.071651856603388"><ele>332.0</ele><time>2026-04-26T14:06:48Z</time></trkpt><trkpt lat="43.713802939828234" lon="7.071560376856243"><ele>332.1428571428571</ele><time>2026-04-26T14:06:49Z</time></trkpt><trkpt lat="43.71378978051251" lon="7.071464758016763"><ele>332.28571428571433</ele><time>2026-04-26T14:06:50Z</time></trkpt><trkpt lat="43.713784057131264" lon="7.0713628770041534"><ele>332.42857142857144</ele><time>2026-04-26T14:06:51Z</time></trkpt><trkpt lat="43.713776997249774" lon="7.071262588429598"><ele>332.57142857142856</ele><time>2026-04-26T14:06:52Z</time></trkpt><trkpt lat="43.71377478017448" lon="7.0711606493975845"><ele>332.71428571428567</ele><time>2026-04-26T14:06:53Z</time></trkpt><trkpt lat="43.71377319259084" lon="7.071058377028473"><ele>332.8571428571429</ele><time>2026-04-26T14:06:54Z</time></trkpt><trkpt lat="43.71377237471367" lon="7.070964992887848"><ele>333.0</ele><time>2026-04-26T14:06:55Z</time></trkpt><trkpt lat="43.713790116009775" lon="7.07081615318965"><ele>333.0</ele><time>2026-04-26T14:06:57Z</time></trkpt><trkpt lat="43.7138944678175" lon="7.0708340012142035"><ele>333.0</ele><time>2026-04-26T14:06:59Z</time></trkpt><trkpt lat="43.713962575560494" lon="7.0708218753741985"><ele>333.0</ele><time>2026-04-26T14:07:00Z</time></trkpt><trkpt lat="43.714031333628036" lon="7.070843603294691"><ele>333.0</ele><time>2026-04-26T14:07:01Z</time></trkpt><trkpt lat="43.71410357418672" lon="7.070861726450087"><ele>333.0</ele><time>2026-04-26T14:07:02Z</time></trkpt><trkpt lat="43.71418116849553" lon="7.070882756130499"><ele>333.0</ele><time>2026-04-26T14:07:03Z</time></trkpt><trkpt lat="43.71426462974938" lon="7.070901880260346"><ele>333.0</ele><time>2026-04-26T14:07:04Z</time></trkpt><trkpt lat="43.71435285007604" lon="7.070926173137498"><ele>333.0</ele><time>2026-04-26T14:07:05Z</time></trkpt><trkpt lat="43.71444247620474" lon="7.070945300703289"><ele>333.0</ele><time>2026-04-26T14:07:06Z</time></trkpt><trkpt lat="43.71453574845883" lon="7.070957880656357"><ele>333.0</ele><time>2026-04-26T14:07:07Z</time></trkpt><trkpt lat="43.714629902953334" lon="7.070963550677225"><ele>333.0</ele><time>2026-04-26T14:07:08Z</time></trkpt><trkpt lat="43.71472542334363" lon="7.070972779349747"><ele>335.0</ele><time>2026-04-26T14:07:09Z</time></trkpt><trkpt lat="43.7148155725095" lon="7.0709698855801655"><ele>337.0</ele><time>2026-04-26T14:07:10Z</time></trkpt><trkpt lat="43.714910018741904" lon="7.070950991556235"><ele>339.0</ele><time>2026-04-26T14:07:11Z</time></trkpt><trkpt lat="43.71499150802013" lon="7.0708912574833205"><ele>341.0</ele><time>2026-04-26T14:07:12Z</time></trkpt><trkpt lat="43.715064757574574" lon="7.070817901814186"><ele>343.0</ele><time>2026-04-26T14:07:13Z</time></trkpt><trkpt lat="43.71514773126243" lon="7.07078026171841"><ele>343.0</ele><time>2026-04-26T14:07:14Z</time></trkpt><trkpt lat="43.71522221852602" lon="7.070719583918222"><ele>343.0</ele><time>2026-04-26T14:07:15Z</time></trkpt><trkpt lat="43.7152986385511" lon="7.070657522899433"><ele>343.0</ele><time>2026-04-26T14:07:16Z</time></trkpt><trkpt lat="43.71537008329535" lon="7.07058603830705"><ele>343.0</ele><time>2026-04-26T14:07:17Z</time></trkpt><trkpt lat="43.71543920687788" lon="7.070511181942755"><ele>343.0</ele><time>2026-04-26T14:07:18Z</time></trkpt><trkpt lat="43.71550899322948" lon="7.0704452317216715"><ele>343.0</ele><time>2026-04-26T14:07:19Z</time></trkpt><trkpt lat="43.71557756750062" lon="7.070380765906113"><ele>345.0</ele><time>2026-04-26T14:07:20Z</time></trkpt><trkpt lat="43.71564558958516" lon="7.070322728369401"><ele>347.0</ele><time>2026-04-26T14:07:21Z</time></trkpt><trkpt lat="43.71569543687481" lon="7.07026454569278"><ele>349.0</ele><time>2026-04-26T14:07:22Z</time></trkpt><trkpt lat="43.71570876748641" lon="7.070176779516261"><ele>351.0</ele><time>2026-04-26T14:07:23Z</time></trkpt><trkpt lat="43.715689314401594" lon="7.070084101958202"><ele>353.0</ele><time>2026-04-26T14:07:24Z</time></trkpt><trkpt lat="43.71565828988337" lon="7.069923485323943"><ele>355.0</ele><time>2026-04-26T14:07:26Z</time></trkpt><trkpt lat="43.715682867515845" lon="7.069807204699921"><ele>355.3333333333333</ele><time>2026-04-26T14:07:27Z</time></trkpt><trkpt lat="43.71568766491332" lon="7.069689879931144"><ele>355.66666666666663</ele><time>2026-04-26T14:07:28Z</time></trkpt><trkpt lat="43.715693362540605" lon="7.069574692335324"><ele>356.0</ele><time>2026-04-26T14:07:29Z</time></trkpt><trkpt lat="43.71570250013162" lon="7.069455543460436"><ele>356.3333333333333</ele><time>2026-04-26T14:07:30Z</time></trkpt><trkpt lat="43.715715531832075" lon="7.069344413753339"><ele>356.6666666666667</ele><time>2026-04-26T14:07:31Z</time></trkpt><trkpt lat="43.715735212352" lon="7.069229961557598"><ele>357.0</ele><time>2026-04-26T14:07:32Z</time></trkpt><trkpt lat="43.715755057583706" lon="7.069117145755523"><ele>357.1666666666667</ele><time>2026-04-26T14:07:33Z</time></trkpt><trkpt lat="43.71579593852011" lon="7.069016986723751"><ele>357.3333333333333</ele><time>2026-04-26T14:07:34Z</time></trkpt><trkpt lat="43.71582523669128" lon="7.06889947542495"><ele>357.5</ele><time>2026-04-26T14:07:35Z</time></trkpt><trkpt lat="43.7158488974145" lon="7.068777509816071"><ele>357.66666666666663</ele><time>2026-04-26T14:07:36Z</time></trkpt><trkpt lat="43.715857487364026" lon="7.068653459048559"><ele>357.8333333333333</ele><time>2026-04-26T14:07:36.999Z</time></trkpt><trkpt lat="43.71588213992113" lon="7.06852752682444"><ele>358.0</ele><time>2026-04-26T14:07:37.999Z</time></trkpt><trkpt lat="43.71591089671509" lon="7.0684060583031725"><ele>358.0</ele><time>2026-04-26T14:07:38.999Z</time></trkpt><trkpt lat="43.715951846812764" lon="7.068288436938281"><ele>358.0</ele><time>2026-04-26T14:07:39.999Z</time></trkpt><trkpt lat="43.71601541718242" lon="7.068190518949563"><ele>358.0</ele><time>2026-04-26T14:07:40.999Z</time></trkpt><trkpt lat="43.716094131323" lon="7.0681172767649505"><ele>358.0</ele><time>2026-04-26T14:07:41.999Z</time></trkpt><trkpt lat="43.716171859613894" lon="7.0680564219089135"><ele>358.0</ele><time>2026-04-26T14:07:42.999Z</time></trkpt><trkpt lat="43.71623838880693" lon="7.067990085435983"><ele>360.5</ele><time>2026-04-26T14:07:43.999Z</time></trkpt><trkpt lat="43.71629173479321" lon="7.067903894618238"><ele>363.0</ele><time>2026-04-26T14:07:44.999Z</time></trkpt><trkpt lat="43.716338934771144" lon="7.067808970667466"><ele>365.5</ele><time>2026-04-26T14:07:45.999Z</time></trkpt><trkpt lat="43.71637882558565" lon="7.06770730950503"><ele>368.0</ele><time>2026-04-26T14:07:46.999Z</time></trkpt><trkpt lat="43.71641123595484" lon="7.067601577874486"><ele>370.5</ele><time>2026-04-26T14:07:47.999Z</time></trkpt><trkpt lat="43.7164422841935" lon="7.067494516565946"><ele>373.0</ele><time>2026-04-26T14:07:48.999Z</time></trkpt><trkpt lat="43.7164818514305" lon="7.067393191717302"><ele>373.5</ele><time>2026-04-26T14:07:49.999Z</time></trkpt><trkpt lat="43.71653115021188" lon="7.067292075249578"><ele>374.0</ele><time>2026-04-26T14:07:50.999Z</time></trkpt><trkpt lat="43.7165736158167" lon="7.067186639172901"><ele>374.5</ele><time>2026-04-26T14:07:51.999Z</time></trkpt><trkpt lat="43.71661073325472" lon="7.067083424118456"><ele>375.0</ele><time>2026-04-26T14:07:52.999Z</time></trkpt><trkpt lat="43.71663457905444" lon="7.066969972717611"><ele>375.5</ele><time>2026-04-26T14:07:53.999Z</time></trkpt><trkpt lat="43.71663761552987" lon="7.066855174922104"><ele>376.0</ele><time>2026-04-26T14:07:54.999Z</time></trkpt><trkpt lat="43.71662055522691" lon="7.066738384360555"><ele>376.0</ele><time>2026-04-26T14:07:55.999Z</time></trkpt><trkpt lat="43.716598805575074" lon="7.066615046875858"><ele>376.0</ele><time>2026-04-26T14:07:56.999Z</time></trkpt><trkpt lat="43.71660019903985" lon="7.066490883377676"><ele>376.0</ele><time>2026-04-26T14:07:57.999Z</time></trkpt><trkpt lat="43.7165854449466" lon="7.066376828259057"><ele>376.0</ele><time>2026-04-26T14:07:58.999Z</time></trkpt><trkpt lat="43.71656138090373" lon="7.0662767685214884"><ele>376.0</ele><time>2026-04-26T14:07:59.999Z</time></trkpt><trkpt lat="43.71654577070509" lon="7.06617741619191"><ele>376.0</ele><time>2026-04-26T14:08:00.999Z</time></trkpt><trkpt lat="43.71652384029563" lon="7.066074747255044"><ele>377.5</ele><time>2026-04-26T14:08:01.999Z</time></trkpt><trkpt lat="43.716501702388534" lon="7.065967576953808"><ele>379.0</ele><time>2026-04-26T14:08:02.999Z</time></trkpt><trkpt lat="43.716485671994405" lon="7.065856801228923"><ele>380.5</ele><time>2026-04-26T14:08:03.999Z</time></trkpt><trkpt lat="43.71647326103503" lon="7.065745694955304"><ele>382.0</ele><time>2026-04-26T14:08:04.999Z</time></trkpt><trkpt lat="43.7164662445035" lon="7.065631178620688"><ele>383.50000000000006</ele><time>2026-04-26T14:08:05.999Z</time></trkpt><trkpt lat="43.716446993884105" lon="7.065520814813764"><ele>385.0</ele><time>2026-04-26T14:08:06.999Z</time></trkpt><trkpt lat="43.716437920561795" lon="7.065412188248514"><ele>386.1666666666667</ele><time>2026-04-26T14:08:07.999Z</time></trkpt><trkpt lat="43.71642954250763" lon="7.065315106143229"><ele>387.33333333333337</ele><time>2026-04-26T14:08:08.999Z</time></trkpt><trkpt lat="43.71643064965221" lon="7.065226256214037"><ele>388.5</ele><time>2026-04-26T14:08:09.999Z</time></trkpt><trkpt lat="43.7165071498924" lon="7.065128185834838"><ele>389.66666666666663</ele><time>2026-04-26T14:08:11.999Z</time></trkpt><trkpt lat="43.71657733753221" lon="7.0650727371831685"><ele>390.8333333333333</ele><time>2026-04-26T14:08:12.999Z</time></trkpt><trkpt lat="43.71665119935573" lon="7.065026413884876"><ele>392.0</ele><time>2026-04-26T14:08:13.999Z</time></trkpt><trkpt lat="43.71672502701843" lon="7.064956403000455"><ele>392.0</ele><time>2026-04-26T14:08:14.999Z</time></trkpt><trkpt lat="43.71680566480279" lon="7.064895416482946"><ele>392.0</ele><time>2026-04-26T14:08:15.999Z</time></trkpt><trkpt lat="43.716886274517414" lon="7.064833180651159"><ele>392.0</ele><time>2026-04-26T14:08:16.999Z</time></trkpt><trkpt lat="43.71697204417206" lon="7.064778813773747"><ele>392.0</ele><time>2026-04-26T14:08:17.999Z</time></trkpt><trkpt lat="43.71704381322837" lon="7.064717071470267"><ele>392.0</ele><time>2026-04-26T14:08:18.999Z</time></trkpt><trkpt lat="43.71710558216275" lon="7.064631472866129"><ele>393.6</ele><time>2026-04-26T14:08:19.999Z</time></trkpt><trkpt lat="43.71710878556094" lon="7.064495190673054"><ele>395.20000000000005</ele><time>2026-04-26T14:08:20.999Z</time></trkpt><trkpt lat="43.71715782748553" lon="7.064396072413199"><ele>396.8</ele><time>2026-04-26T14:08:22.999Z</time></trkpt><trkpt lat="43.71722663633942" lon="7.0642815259097045"><ele>398.4</ele><time>2026-04-26T14:08:24.999Z</time></trkpt><trkpt lat="43.717266755223925" lon="7.064187092615361"><ele>400.0</ele><time>2026-04-26T14:08:25.999Z</time></trkpt><trkpt lat="43.71730957824991" lon="7.064092583358605"><ele>400.00000000000006</ele><time>2026-04-26T14:08:26.999Z</time></trkpt><trkpt lat="43.717357653292915" lon="7.063998270714659"><ele>400.0</ele><time>2026-04-26T14:08:27.999Z</time></trkpt><trkpt lat="43.71741402446943" lon="7.063904968495844"><ele>400.0</ele><time>2026-04-26T14:08:28.999Z</time></trkpt><trkpt lat="43.717467833078175" lon="7.063809759145448"><ele>400.0</ele><time>2026-04-26T14:08:29.999Z</time></trkpt><trkpt lat="43.71752044703841" lon="7.06371137389402"><ele>400.00000000000006</ele><time>2026-04-26T14:08:30.999Z</time></trkpt><trkpt lat="43.7175767443877" lon="7.0636164035650255"><ele>400.0</ele><time>2026-04-26T14:08:31.999Z</time></trkpt><trkpt lat="43.71763538148811" lon="7.063522297587137"><ele>400.00000000000006</ele><time>2026-04-26T14:08:32.999Z</time></trkpt><trkpt lat="43.71769447104961" lon="7.063435046944135"><ele>400.0</ele><time>2026-04-26T14:08:33.999Z</time></trkpt><trkpt lat="43.71775913523751" lon="7.0633671252593695"><ele>400.0</ele><time>2026-04-26T14:08:34.999Z</time></trkpt><trkpt lat="43.71783660413244" lon="7.063319531344409"><ele>400.0</ele><time>2026-04-26T14:08:35.999Z</time></trkpt><trkpt lat="43.717917606429246" lon="7.063289638004311"><ele>400.00000000000006</ele><time>2026-04-26T14:08:36.999Z</time></trkpt><trkpt lat="43.71800990481749" lon="7.063253677480773"><ele>400.0</ele><time>2026-04-26T14:08:37.999Z</time></trkpt><trkpt lat="43.718106704670866" lon="7.063227235806454"><ele>400.33333333333337</ele><time>2026-04-26T14:08:38.999Z</time></trkpt><trkpt lat="43.71820084850768" lon="7.063222276869211"><ele>400.6666666666667</ele><time>2026-04-26T14:08:39.999Z</time></trkpt><trkpt lat="43.71828705358518" lon="7.0632353883152055"><ele>401.0</ele><time>2026-04-26T14:08:40.999Z</time></trkpt><trkpt lat="43.71836261635974" lon="7.063287599634699"><ele>401.33333333333337</ele><time>2026-04-26T14:08:41.999Z</time></trkpt><trkpt lat="43.71843892969848" lon="7.063320165840089"><ele>401.6666666666667</ele><time>2026-04-26T14:08:42.999Z</time></trkpt><trkpt lat="43.71852518292001" lon="7.063313192137503"><ele>402.0</ele><time>2026-04-26T14:08:43.999Z</time></trkpt><trkpt lat="43.71859610778626" lon="7.063357981418305"><ele>402.5</ele><time>2026-04-26T14:08:44.998Z</time></trkpt><trkpt lat="43.71868976407475" lon="7.063438005630808"><ele>403.0</ele><time>2026-04-26T14:08:46Z</time></trkpt><trkpt lat="43.718719517876615" lon="7.063546969099399"><ele>403.5</ele><time>2026-04-26T14:08:47Z</time></trkpt><trkpt lat="43.718748365681776" lon="7.063646159231567"><ele>404.0</ele><time>2026-04-26T14:08:48Z</time></trkpt><trkpt lat="43.71877580941543" lon="7.063727544272712"><ele>404.5</ele><time>2026-04-26T14:08:49Z</time></trkpt><trkpt lat="43.718824992989674" lon="7.063806508932275"><ele>405.0</ele><time>2026-04-26T14:08:52Z</time></trkpt><trkpt lat="43.71889233899066" lon="7.0639680555091635"><ele>405.0</ele><time>2026-04-26T14:08:54Z</time></trkpt><trkpt lat="43.71892565406635" lon="7.064060104098012"><ele>405.0</ele><time>2026-04-26T14:08:55Z</time></trkpt><trkpt lat="43.71896841689907" lon="7.064159158935709"><ele>405.0</ele><time>2026-04-26T14:08:56Z</time></trkpt><trkpt lat="43.71900713119953" lon="7.064259403595821"><ele>405.0</ele><time>2026-04-26T14:08:57Z</time></trkpt><trkpt lat="43.71904460557593" lon="7.064365674971333"><ele>405.0</ele><time>2026-04-26T14:08:58Z</time></trkpt><trkpt lat="43.7190766413355" lon="7.064475917334364"><ele>405.0</ele><time>2026-04-26T14:08:59Z</time></trkpt><trkpt lat="43.719116121043285" lon="7.0645830786036905"><ele>405.5</ele><time>2026-04-26T14:09:00Z</time></trkpt><trkpt lat="43.719153537237794" lon="7.0646846471147144"><ele>406.0</ele><time>2026-04-26T14:09:01Z</time></trkpt><trkpt lat="43.71919729048376" lon="7.064788767370455"><ele>406.5</ele><time>2026-04-26T14:09:02Z</time></trkpt><trkpt lat="43.71924431640099" lon="7.06489626883551"><ele>407.0</ele><time>2026-04-26T14:09:03Z</time></trkpt><trkpt lat="43.71928863385095" lon="7.065004224405016"><ele>407.5</ele><time>2026-04-26T14:09:04Z</time></trkpt><trkpt lat="43.719330939269376" lon="7.065111064622715"><ele>408.0</ele><time>2026-04-26T14:09:05Z</time></trkpt><trkpt lat="43.71935989500992" lon="7.0652255456530915"><ele>408.79999999999995</ele><time>2026-04-26T14:09:06Z</time></trkpt><trkpt lat="43.71937768945492" lon="7.065346834073256"><ele>409.6</ele><time>2026-04-26T14:09:07Z</time></trkpt><trkpt lat="43.71939015468197" lon="7.065470926261472"><ele>410.4</ele><time>2026-04-26T14:09:08Z</time></trkpt><trkpt lat="43.71941033249882" lon="7.065593919018662"><ele>411.20000000000005</ele><time>2026-04-26T14:09:09Z</time></trkpt><trkpt lat="43.719431356620795" lon="7.065717990842094"><ele>412.0</ele><time>2026-04-26T14:09:10Z</time></trkpt><trkpt lat="43.71945377995963" lon="7.065838588812283"><ele>414.0</ele><time>2026-04-26T14:09:11Z</time></trkpt><trkpt lat="43.71947599574186" lon="7.065953989548767"><ele>416.0</ele><time>2026-04-26T14:09:12Z</time></trkpt><trkpt lat="43.719498492686235" lon="7.066063489906635"><ele>418.0</ele><time>2026-04-26T14:09:13Z</time></trkpt><trkpt lat="43.71950655411694" lon="7.066174498159346"><ele>420.0</ele><time>2026-04-26T14:09:14Z</time></trkpt><trkpt lat="43.7196113123097" lon="7.066245367731409"><ele>422.0</ele><time>2026-04-26T14:09:15Z</time></trkpt><trkpt lat="43.719687715609744" lon="7.0663219461267985"><ele>421.99999999999994</ele><time>2026-04-26T14:09:16Z</time></trkpt><trkpt lat="43.719757632133984" lon="7.066392280855192"><ele>422.0</ele><time>2026-04-26T14:09:17Z</time></trkpt><trkpt lat="43.719828945391896" lon="7.066463629248293"><ele>422.0</ele><time>2026-04-26T14:09:18Z</time></trkpt><trkpt lat="43.71990318618668" lon="7.066524397406095"><ele>422.0</ele><time>2026-04-26T14:09:19Z</time></trkpt><trkpt lat="43.71997878271953" lon="7.066585304395376"><ele>421.99999999999994</ele><time>2026-04-26T14:09:20Z</time></trkpt><trkpt lat="43.72005185472745" lon="7.066651073786536"><ele>422.0</ele><time>2026-04-26T14:09:21Z</time></trkpt><trkpt lat="43.7201212091102" lon="7.066716979590637"><ele>422.16666666666663</ele><time>2026-04-26T14:09:22Z</time></trkpt><trkpt lat="43.720190936095996" lon="7.066778301144265"><ele>422.3333333333333</ele><time>2026-04-26T14:09:23Z</time></trkpt><trkpt lat="43.72026174864137" lon="7.0668310890266905"><ele>422.5</ele><time>2026-04-26T14:09:24Z</time></trkpt><trkpt lat="43.72033598490367" lon="7.066860123097649"><ele>422.66666666666663</ele><time>2026-04-26T14:09:25Z</time></trkpt><trkpt lat="43.72041400698172" lon="7.066855025890637"><ele>422.8333333333333</ele><time>2026-04-26T14:09:26Z</time></trkpt><trkpt lat="43.720495759520965" lon="7.066809964198144"><ele>423.0</ele><time>2026-04-26T14:09:27Z</time></trkpt><trkpt lat="43.72057108790677" lon="7.066821776625418"><ele>424.3333333333333</ele><time>2026-04-26T14:09:28Z</time></trkpt><trkpt lat="43.72064731445644" lon="7.066805000938035"><ele>425.66666666666663</ele><time>2026-04-26T14:09:29Z</time></trkpt><trkpt lat="43.72072969790877" lon="7.066796433614302"><ele>427.0</ele><time>2026-04-26T14:09:30Z</time></trkpt><trkpt lat="43.720807618998066" lon="7.06679476334773"><ele>428.3333333333333</ele><time>2026-04-26T14:09:31Z</time></trkpt><trkpt lat="43.72089066862815" lon="7.0667940989695275"><ele>429.66666666666663</ele><time>2026-04-26T14:09:32Z</time></trkpt><trkpt lat="43.72096892893947" lon="7.06680497761355"><ele>431.0</ele><time>2026-04-26T14:09:33Z</time></trkpt><trkpt lat="43.72105314028083" lon="7.066825594278804"><ele>432.3333333333333</ele><time>2026-04-26T14:09:34Z</time></trkpt><trkpt lat="43.721139298765486" lon="7.06684924113881"><ele>433.66666666666663</ele><time>2026-04-26T14:09:35Z</time></trkpt><trkpt lat="43.721223434288135" lon="7.066878789566734"><ele>435.0</ele><time>2026-04-26T14:09:36Z</time></trkpt><trkpt lat="43.721310588173935" lon="7.066898184285364"><ele>436.33333333333337</ele><time>2026-04-26T14:09:37Z</time></trkpt><trkpt lat="43.7214000942789" lon="7.066927794301571"><ele>437.6666666666667</ele><time>2026-04-26T14:09:38Z</time></trkpt><trkpt lat="43.72148503766191" lon="7.066966346473749"><ele>439.0</ele><time>2026-04-26T14:09:39Z</time></trkpt><trkpt lat="43.72156333022291" lon="7.067018395681483"><ele>439.00000000000006</ele><time>2026-04-26T14:09:40Z</time></trkpt><trkpt lat="43.721639523123976" lon="7.067071386433343"><ele>439.0</ele><time>2026-04-26T14:09:40.999Z</time></trkpt><trkpt lat="43.72171917253235" lon="7.067117322537935"><ele>439.0</ele><time>2026-04-26T14:09:41.999Z</time></trkpt><trkpt lat="43.72179094326029" lon="7.0671600537676325"><ele>439.0</ele><time>2026-04-26T14:09:42.999Z</time></trkpt><trkpt lat="43.72185465610309" lon="7.067199497948042"><ele>439.00000000000006</ele><time>2026-04-26T14:09:44.999Z</time></trkpt><trkpt lat="43.7219584290198" lon="7.067178398905355"><ele>439.0</ele><time>2026-04-26T14:09:47.999Z</time></trkpt><trkpt lat="43.72203410245016" lon="7.067186386299725"><ele>440.6666666666667</ele><time>2026-04-26T14:09:48.999Z</time></trkpt><trkpt lat="43.72210942836818" lon="7.0671964938900205"><ele>442.33333333333337</ele><time>2026-04-26T14:09:49.999Z</time></trkpt><trkpt lat="43.722196258622105" lon="7.067211288217781"><ele>444.0</ele><time>2026-04-26T14:09:50.999Z</time></trkpt><trkpt lat="43.722284281026596" lon="7.067234366703283"><ele>445.66666666666663</ele><time>2026-04-26T14:09:51.999Z</time></trkpt><trkpt lat="43.722372518582326" lon="7.0672626009872745"><ele>447.3333333333333</ele><time>2026-04-26T14:09:52.999Z</time></trkpt><trkpt lat="43.722459546837136" lon="7.067290388741585"><ele>449.0</ele><time>2026-04-26T14:09:53.999Z</time></trkpt><trkpt lat="43.7225377615945" lon="7.067308736712138"><ele>448.99999999999994</ele><time>2026-04-26T14:09:54.999Z</time></trkpt><trkpt lat="43.72262212939049" lon="7.0673241913038956"><ele>449.0</ele><time>2026-04-26T14:09:55.999Z</time></trkpt><trkpt lat="43.72270645378487" lon="7.067333020604536"><ele>449.0</ele><time>2026-04-26T14:09:56.999Z</time></trkpt><trkpt lat="43.722789763918954" lon="7.067324400308621"><ele>449.0</ele><time>2026-04-26T14:09:57.999Z</time></trkpt><trkpt lat="43.722871347036545" lon="7.067316141645248"><ele>448.99999999999994</ele><time>2026-04-26T14:09:58.999Z</time></trkpt><trkpt lat="43.7229570350716" lon="7.067318294473394"><ele>449.0</ele><time>2026-04-26T14:09:59.999Z</time></trkpt><trkpt lat="43.72303921115956" lon="7.06732380877118"><ele>450.8333333333333</ele><time>2026-04-26T14:10:00.999Z</time></trkpt><trkpt lat="43.72311531943796" lon="7.0673226360025945"><ele>452.66666666666663</ele><time>2026-04-26T14:10:01.999Z</time></trkpt><trkpt lat="43.723192647210176" lon="7.067317192912844"><ele>454.5</ele><time>2026-04-26T14:10:02.999Z</time></trkpt><trkpt lat="43.72327062691721" lon="7.067291869191809"><ele>456.33333333333337</ele><time>2026-04-26T14:10:03.999Z</time></trkpt><trkpt lat="43.723351560339815" lon="7.06727895537467"><ele>458.1666666666667</ele><time>2026-04-26T14:10:04.999Z</time></trkpt><trkpt lat="43.72342766741285" lon="7.067242667322288"><ele>460.0</ele><time>2026-04-26T14:10:05.999Z</time></trkpt><trkpt lat="43.72349532281308" lon="7.067195845356816"><ele>461.8571428571428</ele><time>2026-04-26T14:10:06.999Z</time></trkpt><trkpt lat="43.72356542615556" lon="7.067181992770545"><ele>463.71428571428567</ele><time>2026-04-26T14:10:07.999Z</time></trkpt><trkpt lat="43.72362904370506" lon="7.067166576456562"><ele>465.57142857142856</ele><time>2026-04-26T14:10:08.999Z</time></trkpt><trkpt lat="43.72369866525803" lon="7.067158255786252"><ele>467.4285714285714</ele><time>2026-04-26T14:10:09.999Z</time></trkpt><trkpt lat="43.7237641735135" lon="7.06714980570302"><ele>469.2857142857142</ele><time>2026-04-26T14:10:10.999Z</time></trkpt><trkpt lat="43.723830461860665" lon="7.067147998404122"><ele>471.14285714285717</ele><time>2026-04-26T14:10:11.999Z</time></trkpt><trkpt lat="43.723899311679205" lon="7.067150543729934"><ele>473.0</ele><time>2026-04-26T14:10:12.999Z</time></trkpt><trkpt lat="43.723967746593516" lon="7.06716046002371"><ele>473.0</ele><time>2026-04-26T14:10:13.999Z</time></trkpt><trkpt lat="43.724032695658025" lon="7.0671728113215"><ele>473.0</ele><time>2026-04-26T14:10:14.999Z</time></trkpt><trkpt lat="43.72409827127775" lon="7.067174936708728"><ele>473.0</ele><time>2026-04-26T14:10:15.999Z</time></trkpt><trkpt lat="43.724162989860645" lon="7.067180926693079"><ele>473.0</ele><time>2026-04-26T14:10:16.999Z</time></trkpt><trkpt lat="43.724237008863234" lon="7.067183119624364"><ele>473.0</ele><time>2026-04-26T14:10:17.999Z</time></trkpt><trkpt lat="43.72430521367266" lon="7.067197114751406"><ele>473.0</ele><time>2026-04-26T14:10:18.999Z</time></trkpt><trkpt lat="43.724376948369716" lon="7.067206750205828"><ele>473.0</ele><time>2026-04-26T14:10:19.999Z</time></trkpt><trkpt lat="43.72444870593115" lon="7.067216488088908"><ele>475.7142857142857</ele><time>2026-04-26T14:10:20.999Z</time></trkpt><trkpt lat="43.724519235909135" lon="7.067234075583008"><ele>478.42857142857144</ele><time>2026-04-26T14:10:21.999Z</time></trkpt><trkpt lat="43.724586874862915" lon="7.06725883021107"><ele>481.14285714285717</ele><time>2026-04-26T14:10:22.999Z</time></trkpt><trkpt lat="43.72465396411152" lon="7.067282756391736"><ele>483.8571428571429</ele><time>2026-04-26T14:10:23.999Z</time></trkpt><trkpt lat="43.724721912043876" lon="7.067300312524022"><ele>486.57142857142856</ele><time>2026-04-26T14:10:24.999Z</time></trkpt><trkpt lat="43.72478759667812" lon="7.067308988482692"><ele>489.28571428571433</ele><time>2026-04-26T14:10:25.999Z</time></trkpt><trkpt lat="43.72485611896763" lon="7.067304136597877"><ele>492.00000000000006</ele><time>2026-04-26T14:10:26.999Z</time></trkpt><trkpt lat="43.72492359532721" lon="7.067294276922494"><ele>492.0</ele><time>2026-04-26T14:10:27.999Z</time></trkpt><trkpt lat="43.7249882854578" lon="7.06728544451865"><ele>492.0</ele><time>2026-04-26T14:10:28.999Z</time></trkpt><trkpt lat="43.72505636137461" lon="7.0672839693816805"><ele>492.0</ele><time>2026-04-26T14:10:29.999Z</time></trkpt><trkpt lat="43.72512213040866" lon="7.067290653202985"><ele>492.0</ele><time>2026-04-26T14:10:30.999Z</time></trkpt><trkpt lat="43.72518540688695" lon="7.067311006002312"><ele>492.0</ele><time>2026-04-26T14:10:31.999Z</time></trkpt><trkpt lat="43.72529543942026" lon="7.067376768169178"><ele>492.0</ele><time>2026-04-26T14:10:33.999Z</time></trkpt><trkpt lat="43.725386623077576" lon="7.067469754747542"><ele>496.3333333333333</ele><time>2026-04-26T14:10:35.999Z</time></trkpt><trkpt lat="43.72546178256837" lon="7.067593457359075"><ele>500.66666666666663</ele><time>2026-04-26T14:10:37.999Z</time></trkpt><trkpt lat="43.72550098240945" lon="7.067666961865236"><ele>505.0</ele><time>2026-04-26T14:10:38.999Z</time></trkpt><trkpt lat="43.7255533649841" lon="7.067730720487"><ele>509.3333333333333</ele><time>2026-04-26T14:10:39.999Z</time></trkpt><trkpt lat="43.725608113762675" lon="7.067801405045062"><ele>513.6666666666666</ele><time>2026-04-26T14:10:40.999Z</time></trkpt><trkpt lat="43.72566814314599" lon="7.067873299696917"><ele>518.0</ele><time>2026-04-26T14:10:41.999Z</time></trkpt><trkpt lat="43.72572828687768" lon="7.067949203123566"><ele>518.0</ele><time>2026-04-26T14:10:42.999Z</time></trkpt><trkpt lat="43.72578475811422" lon="7.068022848874502"><ele>518.0</ele><time>2026-04-26T14:10:43.999Z</time></trkpt><trkpt lat="43.725849066893296" lon="7.068097155240592"><ele>518.0</ele><time>2026-04-26T14:10:44.999Z</time></trkpt><trkpt lat="43.72591607330123" lon="7.068161908988467"><ele>518.0</ele><time>2026-04-26T14:10:45.999Z</time></trkpt><trkpt lat="43.72599034219114" lon="7.068194776408728"><ele>518.0</ele><time>2026-04-26T14:10:46.999Z</time></trkpt><trkpt lat="43.72607051832858" lon="7.068187598896724"><ele>518.0</ele><time>2026-04-26T14:10:47.998Z</time></trkpt><trkpt lat="43.72615376875934" lon="7.0681541731766115"><ele>519.7142857142857</ele><time>2026-04-26T14:10:48.998Z</time></trkpt><trkpt lat="43.726240060205086" lon="7.068161638347215"><ele>521.4285714285714</ele><time>2026-04-26T14:10:49.998Z</time></trkpt><trkpt lat="43.7263154246673" lon="7.068142394315726"><ele>523.1428571428571</ele><time>2026-04-26T14:10:50.998Z</time></trkpt><trkpt lat="43.7263884593513" lon="7.068157223523659"><ele>524.8571428571429</ele><time>2026-04-26T14:10:52Z</time></trkpt><trkpt lat="43.72644662812028" lon="7.068196514431771"><ele>526.5714285714286</ele><time>2026-04-26T14:10:53Z</time></trkpt><trkpt lat="43.726500252864795" lon="7.068250171205335"><ele>528.2857142857142</ele><time>2026-04-26T14:10:54Z</time></trkpt><trkpt lat="43.726538970507555" lon="7.0683376436778556"><ele>530.0</ele><time>2026-04-26T14:10:55Z</time></trkpt><trkpt lat="43.726567816062996" lon="7.0684202396890905"><ele>530.0</ele><time>2026-04-26T14:10:56Z</time></trkpt><trkpt lat="43.726590773013065" lon="7.068508140288926"><ele>530.0</ele><time>2026-04-26T14:10:57Z</time></trkpt><trkpt lat="43.72665317741514" lon="7.068602360856137"><ele>530.0</ele><time>2026-04-26T14:10:59Z</time></trkpt><trkpt lat="43.7267034791719" lon="7.0684636052712255"><ele>530.0</ele><time>2026-04-26T14:11:01Z</time></trkpt><trkpt lat="43.72673521589941" lon="7.068351507217283"><ele>530.0</ele><time>2026-04-26T14:11:03Z</time></trkpt><trkpt lat="43.72680466846974" lon="7.068437419845778"><ele>530.0</ele><time>2026-04-26T14:11:06Z</time></trkpt><trkpt lat="43.726806467716294" lon="7.068584137892169"><ele>530.0</ele><time>2026-04-26T14:11:08Z</time></trkpt><trkpt lat="43.72681198652999" lon="7.068672803449086"><ele>530.0</ele><time>2026-04-26T14:11:09Z</time></trkpt><trkpt lat="43.72683126103414" lon="7.068757000471016"><ele>530.0</ele><time>2026-04-26T14:11:10Z</time></trkpt><trkpt lat="43.72687833007988" lon="7.068917564956"><ele>530.0</ele><time>2026-04-26T14:11:12Z</time></trkpt><trkpt lat="43.726921666193476" lon="7.068989471734435"><ele>530.0</ele><time>2026-04-26T14:11:13Z</time></trkpt><trkpt lat="43.72697900566312" lon="7.0690495509528875"><ele>534.6666666666666</ele><time>2026-04-26T14:11:14Z</time></trkpt><trkpt lat="43.727035849123155" lon="7.069109828755098"><ele>539.3333333333333</ele><time>2026-04-26T14:11:15Z</time></trkpt><trkpt lat="43.7271593648693" lon="7.069202658724539"><ele>544.0</ele><time>2026-04-26T14:11:17Z</time></trkpt><trkpt lat="43.72722363376406" lon="7.069252747553397"><ele>548.6666666666666</ele><time>2026-04-26T14:11:18Z</time></trkpt><trkpt lat="43.72729204568615" lon="7.069301361407663"><ele>553.3333333333334</ele><time>2026-04-26T14:11:19Z</time></trkpt><trkpt lat="43.72735303171432" lon="7.069334224526562"><ele>558.0</ele><time>2026-04-26T14:11:20Z</time></trkpt><trkpt lat="43.72742263425248" lon="7.0693407207866485"><ele>558.0</ele><time>2026-04-26T14:11:21Z</time></trkpt><trkpt lat="43.72751566868849" lon="7.06934664958637"><ele>558.0</ele><time>2026-04-26T14:11:23Z</time></trkpt><trkpt lat="43.727520062206" lon="7.069461614957604"><ele>558.0</ele><time>2026-04-26T14:11:25Z</time></trkpt><trkpt lat="43.727490219881425" lon="7.06959591390004"><ele>558.0</ele><time>2026-04-26T14:11:27Z</time></trkpt><trkpt lat="43.727443668862854" lon="7.069758474312474"><ele>558.0</ele><time>2026-04-26T14:11:29Z</time></trkpt><trkpt lat="43.72742782540144" lon="7.069845351141084"><ele>560.0</ele><time>2026-04-26T14:11:30Z</time></trkpt><trkpt lat="43.72740946071341" lon="7.070011180316202"><ele>562.0</ele><time>2026-04-26T14:11:32Z</time></trkpt><trkpt lat="43.72744939434966" lon="7.070136065422282"><ele>564.0</ele><time>2026-04-26T14:11:34Z</time></trkpt><trkpt lat="43.72750755308829" lon="7.070258543587838"><ele>566.0</ele><time>2026-04-26T14:11:36Z</time></trkpt><trkpt lat="43.727495246882675" lon="7.070383417078419"><ele>568.0</ele><time>2026-04-26T14:11:38Z</time></trkpt><trkpt lat="43.727446960492976" lon="7.070524785643899"><ele>568.0</ele><time>2026-04-26T14:11:40Z</time></trkpt><trkpt lat="43.72741592043316" lon="7.070607188441509"><ele>568.0</ele><time>2026-04-26T14:11:41Z</time></trkpt><trkpt lat="43.727392682835614" lon="7.070706115824725"><ele>568.0</ele><time>2026-04-26T14:11:42Z</time></trkpt><trkpt lat="43.727389942009275" lon="7.0708087563064055"><ele>568.0</ele><time>2026-04-26T14:11:43Z</time></trkpt><trkpt lat="43.727395232884746" lon="7.070910238346361"><ele>568.0</ele><time>2026-04-26T14:11:44Z</time></trkpt><trkpt lat="43.727395706941664" lon="7.071004235190364"><ele>568.0</ele><time>2026-04-26T14:11:45Z</time></trkpt><trkpt lat="43.72740048178216" lon="7.071104874148915"><ele>568.0</ele><time>2026-04-26T14:11:46Z</time></trkpt><trkpt lat="43.72741736529144" lon="7.0712052611686635"><ele>570.6666666666667</ele><time>2026-04-26T14:11:47Z</time></trkpt><trkpt lat="43.72744217091137" lon="7.071296773766743"><ele>573.3333333333334</ele><time>2026-04-26T14:11:48Z</time></trkpt><trkpt lat="43.72747447183201" lon="7.0713746588801785"><ele>576.0</ele><time>2026-04-26T14:11:49Z</time></trkpt><trkpt lat="43.72752725909612" lon="7.071516766789057"><ele>578.6666666666666</ele><time>2026-04-26T14:11:50.999Z</time></trkpt><trkpt lat="43.7276108138226" lon="7.071549998111868"><ele>581.3333333333333</ele><time>2026-04-26T14:11:52.999Z</time></trkpt><trkpt lat="43.72766752418408" lon="7.071449801567423"><ele>584.0</ele><time>2026-04-26T14:11:54.999Z</time></trkpt><trkpt lat="43.72769338919377" lon="7.0713537624940965"><ele>589.2</ele><time>2026-04-26T14:11:56.999Z</time></trkpt><trkpt lat="43.72778315144745" lon="7.071434879276301"><ele>594.4</ele><time>2026-04-26T14:11:58.999Z</time></trkpt><trkpt lat="43.727887491470504" lon="7.07144816305184"><ele>599.6</ele><time>2026-04-26T14:12:00.999Z</time></trkpt><trkpt lat="43.72795910611211" lon="7.071390946324261"><ele>604.8</ele><time>2026-04-26T14:12:01.999Z</time></trkpt><trkpt lat="43.7280240526012" lon="7.071285123953042"><ele>610.0</ele><time>2026-04-26T14:12:03.999Z</time></trkpt><trkpt lat="43.72809597263898" lon="7.071280736203018"><ele>610.0</ele><time>2026-04-26T14:12:05.999Z</time></trkpt><trkpt lat="43.72815363302679" lon="7.071344315188731"><ele>610.0</ele><time>2026-04-26T14:12:06.999Z</time></trkpt><trkpt lat="43.72822065948741" lon="7.07134643677306"><ele>610.0</ele><time>2026-04-26T14:12:07.999Z</time></trkpt><trkpt lat="43.72828705854139" lon="7.071350832022584"><ele>610.0</ele><time>2026-04-26T14:12:08.999Z</time></trkpt><trkpt lat="43.7283544708234" lon="7.071345684097441"><ele>610.0</ele><time>2026-04-26T14:12:09.999Z</time></trkpt><trkpt lat="43.72842280829675" lon="7.071367204460419"><ele>610.0</ele><time>2026-04-26T14:12:10.999Z</time></trkpt><trkpt lat="43.72849872116807" lon="7.071402939614617"><ele>610.0</ele><time>2026-04-26T14:12:11.999Z</time></trkpt><trkpt lat="43.72858464858774" lon="7.071391780299173"><ele>613.3333333333334</ele><time>2026-04-26T14:12:12.999Z</time></trkpt><trkpt lat="43.72865522209928" lon="7.071328571739833"><ele>616.6666666666667</ele><time>2026-04-26T14:12:13.999Z</time></trkpt><trkpt lat="43.72872822203426" lon="7.071279133160694"><ele>620.0</ele><time>2026-04-26T14:12:14.999Z</time></trkpt><trkpt lat="43.72880060841812" lon="7.071220564223235"><ele>623.3333333333334</ele><time>2026-04-26T14:12:15.999Z</time></trkpt><trkpt lat="43.7288799890697" lon="7.071171715726057"><ele>626.6666666666666</ele><time>2026-04-26T14:12:16.999Z</time></trkpt><trkpt lat="43.72895008296066" lon="7.071118756189036"><ele>630.0</ele><time>2026-04-26T14:12:17.999Z</time></trkpt><trkpt lat="43.72901161874335" lon="7.0710616214632"><ele>630.0</ele><time>2026-04-26T14:12:18.999Z</time></trkpt><trkpt lat="43.729084153904175" lon="7.070993476218838"><ele>630.0</ele><time>2026-04-26T14:12:19.999Z</time></trkpt><trkpt lat="43.72915097289032" lon="7.07092647892337"><ele>630.0</ele><time>2026-04-26T14:12:20.999Z</time></trkpt><trkpt lat="43.72920010531571" lon="7.070854829884181"><ele>630.0</ele><time>2026-04-26T14:12:21.999Z</time></trkpt><trkpt lat="43.729246738286335" lon="7.070791815374154"><ele>630.0</ele><time>2026-04-26T14:12:22.999Z</time></trkpt><trkpt lat="43.729365465031826" lon="7.070756617735364"><ele>630.0</ele><time>2026-04-26T14:12:24.999Z</time></trkpt><trkpt lat="43.72940963910637" lon="7.070691965907187"><ele>632.5714285714286</ele><time>2026-04-26T14:12:25.999Z</time></trkpt><trkpt lat="43.72946220809325" lon="7.070618446667086"><ele>635.1428571428571</ele><time>2026-04-26T14:12:26.999Z</time></trkpt><trkpt lat="43.729529836614496" lon="7.070564030437143"><ele>637.7142857142858</ele><time>2026-04-26T14:12:27.999Z</time></trkpt><trkpt lat="43.72959277054864" lon="7.070506397834755"><ele>640.2857142857142</ele><time>2026-04-26T14:12:28.999Z</time></trkpt><trkpt lat="43.7296419501035" lon="7.0704424413442375"><ele>642.8571428571429</ele><time>2026-04-26T14:12:29.999Z</time></trkpt><trkpt lat="43.72968752516746" lon="7.070375082904024"><ele>645.4285714285714</ele><time>2026-04-26T14:12:30.999Z</time></trkpt><trkpt lat="43.72972776124784" lon="7.070291936998194"><ele>648.0</ele><time>2026-04-26T14:12:31.999Z</time></trkpt><trkpt lat="43.729761370359384" lon="7.070201556212142"><ele>648.0</ele><time>2026-04-26T14:12:32.999Z</time></trkpt><trkpt lat="43.729789915407714" lon="7.070104320788194"><ele>648.0</ele><time>2026-04-26T14:12:33.999Z</time></trkpt><trkpt lat="43.72983190597276" lon="7.070029676599452"><ele>648.0</ele><time>2026-04-26T14:12:34.999Z</time></trkpt><trkpt lat="43.72993634176391" lon="7.070018081713899"><ele>648.0</ele><time>2026-04-26T14:12:36.999Z</time></trkpt><trkpt lat="43.730008262709774" lon="7.0701382720652255"><ele>648.0</ele><time>2026-04-26T14:12:38.999Z</time></trkpt><trkpt lat="43.73009826806559" lon="7.0702396660813305"><ele>648.0</ele><time>2026-04-26T14:12:40.999Z</time></trkpt><trkpt lat="43.73017108597704" lon="7.070313130453605"><ele>648.0</ele><time>2026-04-26T14:12:42.999Z</time></trkpt><trkpt lat="43.730198700142886" lon="7.070234807932337"><ele>648.0</ele><time>2026-04-26T14:13:49Z</time></trkpt><trkpt lat="43.730261646861834" lon="7.070261508133381"><ele>648.0</ele><time>2026-04-26T14:13:51Z</time></trkpt><trkpt lat="43.730332503312525" lon="7.070217418211626"><ele>648.0</ele><time>2026-04-26T14:13:53Z</time></trkpt><trkpt lat="43.730411970475956" lon="7.070147084951494"><ele>648.0</ele><time>2026-04-26T14:13:56Z</time></trkpt><trkpt lat="43.73047217414787" lon="7.070062393563705"><ele>652.4</ele><time>2026-04-26T14:13:57.999Z</time></trkpt><trkpt lat="43.73055023476395" lon="7.069976562176261"><ele>656.8</ele><time>2026-04-26T14:13:59.999Z</time></trkpt><trkpt lat="43.73063433239953" lon="7.069877100684119"><ele>661.2</ele><time>2026-04-26T14:14:01.999Z</time></trkpt><trkpt lat="43.73071427947399" lon="7.069778899983029"><ele>665.6</ele><time>2026-04-26T14:14:03.999Z</time></trkpt><trkpt lat="43.73079243217288" lon="7.069660421706004"><ele>670.0</ele><time>2026-04-26T14:14:05.999Z</time></trkpt><trkpt lat="43.730878595494026" lon="7.069597398320567"><ele>672.0</ele><time>2026-04-26T14:14:07.999Z</time></trkpt><trkpt lat="43.73089489392458" lon="7.069507568936434"><ele>674.0</ele><time>2026-04-26T14:14:17.999Z</time></trkpt><trkpt lat="43.73093219881739" lon="7.069419469211516"><ele>676.0</ele><time>2026-04-26T14:14:19.999Z</time></trkpt><trkpt lat="43.73099918738189" lon="7.069360807689729"><ele>678.0</ele><time>2026-04-26T14:14:22.999Z</time></trkpt><trkpt lat="43.73100577311457" lon="7.0692707032350866"><ele>680.0</ele><time>2026-04-26T14:14:24.999Z</time></trkpt><trkpt lat="43.731006263690155" lon="7.069149161855632"><ele>682.0</ele><time>2026-04-26T14:14:26.999Z</time></trkpt><trkpt lat="43.731002974674404" lon="7.0690232579710806"><ele>685.3333333333334</ele><time>2026-04-26T14:15:19Z</time></trkpt><trkpt lat="43.730968443163384" lon="7.068911023779953"><ele>688.6666666666667</ele><time>2026-04-26T14:15:21Z</time></trkpt><trkpt lat="43.730934339268785" lon="7.0688052905252645"><ele>692.0</ele><time>2026-04-26T14:15:23Z</time></trkpt><trkpt lat="43.730888205673075" lon="7.068712430432518"><ele>695.3333333333334</ele><time>2026-04-26T14:15:25Z</time></trkpt><trkpt lat="43.73088476509767" lon="7.068592793924901"><ele>698.6666666666666</ele><time>2026-04-26T14:15:27Z</time></trkpt><trkpt lat="43.73085712888461" lon="7.068475136074748"><ele>702.0</ele><time>2026-04-26T14:15:29Z</time></trkpt><trkpt lat="43.730819059674076" lon="7.068337330955926"><ele>706.4000000000001</ele><time>2026-04-26T14:15:31Z</time></trkpt><trkpt lat="43.73077774155817" lon="7.068262792002996"><ele>710.8000000000001</ele><time>2026-04-26T14:15:33Z</time></trkpt><trkpt lat="43.730752637433554" lon="7.068149506538114"><ele>715.2</ele><time>2026-04-26T14:15:35Z</time></trkpt><trkpt lat="43.730745275985626" lon="7.06798790448458"><ele>719.6</ele><time>2026-04-26T14:15:37Z</time></trkpt><trkpt lat="43.730713121041646" lon="7.067838923236242"><ele>724.0</ele><time>2026-04-26T14:15:39Z</time></trkpt><trkpt lat="43.73066468792045" lon="7.0677185273087675"><ele>724.0</ele><time>2026-04-26T14:15:41Z</time></trkpt><trkpt lat="43.73062878851856" lon="7.067566848964039"><ele>724.0</ele><time>2026-04-26T14:15:43Z</time></trkpt><trkpt lat="43.73062701937223" lon="7.067476450741081"><ele>724.0</ele><time>2026-04-26T14:15:45Z</time></trkpt><trkpt lat="43.73060838801491" lon="7.067385752234635"><ele>724.0</ele><time>2026-04-26T14:15:55Z</time></trkpt><trkpt lat="43.7306109860311" lon="7.067477348489027"><ele>724.0</ele><time>2026-04-26T14:17:05.999Z</time></trkpt><trkpt lat="43.730636320374096" lon="7.06760293549947"><ele>724.0</ele><time>2026-04-26T14:17:07.999Z</time></trkpt><trkpt lat="43.73065700856901" lon="7.067731065440053"><ele>724.0</ele><time>2026-04-26T14:17:10Z</time></trkpt><trkpt lat="43.73071026290388" lon="7.067847065794284"><ele>724.0</ele><time>2026-04-26T14:17:12Z</time></trkpt><trkpt lat="43.73073511035985" lon="7.067941186153367"><ele>724.0</ele><time>2026-04-26T14:17:14Z</time></trkpt><trkpt lat="43.730755363434184" lon="7.0680579756335336"><ele>724.0</ele><time>2026-04-26T14:17:16Z</time></trkpt><trkpt lat="43.730761742232595" lon="7.068181680190554"><ele>724.0</ele><time>2026-04-26T14:17:18Z</time></trkpt><trkpt lat="43.73077646060702" lon="7.068279808535477"><ele>724.0</ele><time>2026-04-26T14:17:20Z</time></trkpt><trkpt lat="43.73081367418111" lon="7.0683533619612895"><ele>720.8571428571429</ele><time>2026-04-26T14:17:22Z</time></trkpt><trkpt lat="43.73085106864139" lon="7.068444823812634"><ele>717.7142857142857</ele><time>2026-04-26T14:17:24Z</time></trkpt><trkpt lat="43.7308730873366" lon="7.068556682669587"><ele>714.5714285714287</ele><time>2026-04-26T14:17:26Z</time></trkpt><trkpt lat="43.7308932389358" lon="7.068643563573398"><ele>711.4285714285714</ele><time>2026-04-26T14:17:28Z</time></trkpt><trkpt lat="43.73089726296642" lon="7.0687321260900555"><ele>708.2857142857143</ele><time>2026-04-26T14:17:30Z</time></trkpt><trkpt lat="43.730925804831884" lon="7.068825914539663"><ele>705.1428571428572</ele><time>2026-04-26T14:17:32Z</time></trkpt><trkpt lat="43.730979910701514" lon="7.0688876077893354"><ele>702.0</ele><time>2026-04-26T14:17:43Z</time></trkpt><trkpt lat="43.73105199867159" lon="7.06897414168518"><ele>708.1666666666666</ele><time>2026-04-26T14:17:47Z</time></trkpt><trkpt lat="43.73112387972867" lon="7.069043597060163"><ele>714.3333333333334</ele><time>2026-04-26T14:17:49Z</time></trkpt><trkpt lat="43.731191235273684" lon="7.0690976761304745"><ele>720.5</ele><time>2026-04-26T14:17:52Z</time></trkpt><trkpt lat="43.73123784928118" lon="7.069033553771737"><ele>726.6666666666667</ele><time>2026-04-26T14:17:55Z</time></trkpt><trkpt lat="43.73130715675022" lon="7.0689312034107274"><ele>732.8333333333334</ele><time>2026-04-26T14:19:38Z</time></trkpt><trkpt lat="43.73138027195029" lon="7.068979414199308"><ele>739.0</ele><time>2026-04-26T14:19:41Z</time></trkpt><trkpt lat="43.73144975285799" lon="7.068997908765064"><ele>739.0</ele><time>2026-04-26T14:19:49Z</time></trkpt><trkpt lat="43.73151760684031" lon="7.069008758228198"><ele>739.0</ele><time>2026-04-26T14:20:13Z</time></trkpt><trkpt lat="43.73158856440364" lon="7.069057065146344"><ele>739.0</ele><time>2026-04-26T14:20:16Z</time></trkpt><trkpt lat="43.73165855961124" lon="7.069098346125047"><ele>739.0</ele><time>2026-04-26T14:20:17.999Z</time></trkpt><trkpt lat="43.73163447649026" lon="7.0690031436689855"><ele>739.0</ele><time>2026-04-26T14:20:36.999Z</time></trkpt><trkpt lat="43.731598657505316" lon="7.068900312424479"><ele>739.0</ele><time>2026-04-26T14:20:39.999Z</time></trkpt><trkpt lat="43.73154434130821" lon="7.068829468602957"><ele>739.0</ele><time>2026-04-26T14:21:17.999Z</time></trkpt><trkpt lat="43.731492810541106" lon="7.06872452043728"><ele>739.0</ele><time>2026-04-26T14:21:21Z</time></trkpt><trkpt lat="43.73144484654694" lon="7.068638318900875"><ele>739.0</ele><time>2026-04-26T14:21:24Z</time></trkpt><trkpt lat="43.73139052132148" lon="7.0685844229502335"><ele>739.0</ele><time>2026-04-26T14:21:26Z</time></trkpt><trkpt lat="43.73133948954032" lon="7.068469237673348"><ele>739.0</ele><time>2026-04-26T14:21:28Z</time></trkpt><trkpt lat="43.73131404566387" lon="7.068354542990426"><ele>739.0</ele><time>2026-04-26T14:21:30Z</time></trkpt><trkpt lat="43.73138027662182" lon="7.068368856407347"><ele>739.0</ele><time>2026-04-26T14:21:34Z</time></trkpt><trkpt lat="43.731455062968905" lon="7.068377954581804"><ele>739.0</ele><time>2026-04-26T14:21:37Z</time></trkpt><trkpt lat="43.73154134144338" lon="7.0683742365453"><ele>739.0</ele><time>2026-04-26T14:21:40Z</time></trkpt><trkpt lat="43.73140932399422" lon="7.068382639330522"><ele>739.0</ele><time>2026-04-26T14:24:23Z</time></trkpt><trkpt lat="43.731345371310084" lon="7.0683669547847705"><ele>739.0</ele><time>2026-04-26T14:24:26.999Z</time></trkpt><trkpt lat="43.731345311451996" lon="7.068483681301275"><ele>739.0</ele><time>2026-04-26T14:24:34.999Z</time></trkpt><trkpt lat="43.731381497533825" lon="7.068584868452312"><ele>739.0</ele><time>2026-04-26T14:24:36.999Z</time></trkpt><trkpt lat="43.73143308475579" lon="7.068645295479974"><ele>739.0</ele><time>2026-04-26T14:24:38.999Z</time></trkpt><trkpt lat="43.73147002672578" lon="7.0687252430446685"><ele>739.0</ele><time>2026-04-26T14:24:41.999Z</time></trkpt><trkpt lat="43.731525595747165" lon="7.068814554279831"><ele>739.0</ele><time>2026-04-26T14:24:44.999Z</time></trkpt><trkpt lat="43.73157540200748" lon="7.068885051394781"><ele>739.0</ele><time>2026-04-26T14:24:47.999Z</time></trkpt><trkpt lat="43.73160767593272" lon="7.068965986858791"><ele>739.0</ele><time>2026-04-26T14:24:51.999Z</time></trkpt><trkpt lat="43.73163919667718" lon="7.06905573503674"><ele>739.0</ele><time>2026-04-26T14:24:54.999Z</time></trkpt><trkpt lat="43.731566943282175" lon="7.069054450782339"><ele>739.0</ele><time>2026-04-26T14:25:20.999Z</time></trkpt><trkpt lat="43.731508711342286" lon="7.069012260899467"><ele>739.0</ele><time>2026-04-26T14:25:23.999Z</time></trkpt><trkpt lat="43.731427653345" lon="7.068998315245072"><ele>739.0</ele><time>2026-04-26T14:25:28.999Z</time></trkpt><trkpt lat="43.73135028536129" lon="7.068955020280543"><ele>739.0</ele><time>2026-04-26T14:25:32Z</time></trkpt><trkpt lat="43.73126673335858" lon="7.068945515967573"><ele>739.0</ele><time>2026-04-26T14:25:35Z</time></trkpt><trkpt lat="43.73122580027093" lon="7.069013574775513"><ele>739.0</ele><time>2026-04-26T14:25:40Z</time></trkpt><trkpt lat="43.7311933834597" lon="7.0691007313763405"><ele>739.0</ele><time>2026-04-26T14:25:48Z</time></trkpt><trkpt lat="43.73112218765316" lon="7.069033147964788"><ele>739.0</ele><time>2026-04-26T14:25:53Z</time></trkpt><trkpt lat="43.73106907333764" lon="7.068982926793908"><ele>739.0</ele><time>2026-04-26T14:25:55Z</time></trkpt><trkpt lat="43.73099759859533" lon="7.068903445456328"><ele>739.0</ele><time>2026-04-26T14:25:57Z</time></trkpt><trkpt lat="43.73096451519716" lon="7.068828407167752"><ele>739.0</ele><time>2026-04-26T14:26:01Z</time></trkpt><trkpt lat="43.73096135543442" lon="7.068918119207837"><ele>739.0</ele><time>2026-04-26T14:26:26Z</time></trkpt><trkpt lat="43.73099730720362" lon="7.069045867468014"><ele>739.0</ele><time>2026-04-26T14:26:28Z</time></trkpt><trkpt lat="43.73102934354437" lon="7.06914357189825"><ele>729.5</ele><time>2026-04-26T14:26:30Z</time></trkpt><trkpt lat="43.73099600346363" lon="7.069254778150356"><ele>720.0</ele><time>2026-04-26T14:26:39.999Z</time></trkpt><trkpt lat="43.73099351929348" lon="7.0693640079615285"><ele>710.5</ele><time>2026-04-26T14:26:41.999Z</time></trkpt><trkpt lat="43.73093595959588" lon="7.0694419589015665"><ele>701.0</ele><time>2026-04-26T14:26:44.999Z</time></trkpt><trkpt lat="43.73089930596313" lon="7.069530587110358"><ele>691.5</ele><time>2026-04-26T14:26:46.999Z</time></trkpt><trkpt lat="43.73085488274053" lon="7.069632340266296"><ele>682.0</ele><time>2026-04-26T14:26:49.999Z</time></trkpt><trkpt lat="43.73077793459971" lon="7.0697052312616435"><ele>682.0</ele><time>2026-04-26T14:26:51.999Z</time></trkpt><trkpt lat="43.73070317858316" lon="7.069803261209094"><ele>682.0</ele><time>2026-04-26T14:26:53.999Z</time></trkpt><trkpt lat="43.7306350295164" lon="7.069892643870969"><ele>682.0</ele><time>2026-04-26T14:26:55.999Z</time></trkpt><trkpt lat="43.73056356078184" lon="7.069972454580383"><ele>682.0</ele><time>2026-04-26T14:26:57.999Z</time></trkpt><trkpt lat="43.73047425956313" lon="7.070069979196302"><ele>682.0</ele><time>2026-04-26T14:26:59.999Z</time></trkpt><trkpt lat="43.73038567715321" lon="7.070177736200669"><ele>680.0</ele><time>2026-04-26T14:27:01.999Z</time></trkpt><trkpt lat="43.73028839569133" lon="7.0702471584444515"><ele>678.0</ele><time>2026-04-26T14:27:03.999Z</time></trkpt><trkpt lat="43.73016541081465" lon="7.0702451697261495"><ele>676.0</ele><time>2026-04-26T14:27:05.999Z</time></trkpt><trkpt lat="43.730104291437186" lon="7.0702183556842595"><ele>674.0</ele><time>2026-04-26T14:27:06.999Z</time></trkpt><trkpt lat="43.73004833905252" lon="7.070168859744878"><ele>672.0</ele><time>2026-04-26T14:27:07.999Z</time></trkpt><trkpt lat="43.72999839833841" lon="7.07010712941269"><ele>670.0</ele><time>2026-04-26T14:27:08.999Z</time></trkpt><trkpt lat="43.72992959569981" lon="7.070010104478624"><ele>666.3333333333334</ele><time>2026-04-26T14:27:10.999Z</time></trkpt><trkpt lat="43.72981467306283" lon="7.070046565276025"><ele>662.6666666666667</ele><time>2026-04-26T14:27:12.999Z</time></trkpt><trkpt lat="43.729772973508524" lon="7.070134226882318"><ele>659.0</ele><time>2026-04-26T14:27:13.999Z</time></trkpt><trkpt lat="43.72974841005205" lon="7.070222391781023"><ele>655.3333333333334</ele><time>2026-04-26T14:27:14.999Z</time></trkpt><trkpt lat="43.72972333862553" lon="7.0703171219514696"><ele>651.6666666666666</ele><time>2026-04-26T14:27:15.999Z</time></trkpt><trkpt lat="43.729677546604265" lon="7.070401146129414"><ele>648.0</ele><time>2026-04-26T14:27:16.999Z</time></trkpt><trkpt lat="43.72962322355337" lon="7.070468897260863"><ele>648.0</ele><time>2026-04-26T14:27:17.999Z</time></trkpt><trkpt lat="43.729569299409455" lon="7.070538192050916"><ele>648.0</ele><time>2026-04-26T14:27:18.999Z</time></trkpt><trkpt lat="43.729532144424546" lon="7.070615946153166"><ele>648.0</ele><time>2026-04-26T14:27:19.999Z</time></trkpt><trkpt lat="43.72947139313223" lon="7.0706531919996305"><ele>648.0</ele><time>2026-04-26T14:27:20.999Z</time></trkpt><trkpt lat="43.72941644001475" lon="7.070697108498614"><ele>648.0</ele><time>2026-04-26T14:27:21.999Z</time></trkpt><trkpt lat="43.72935143288839" lon="7.070770219868682"><ele>648.0</ele><time>2026-04-26T14:27:23.999Z</time></trkpt><trkpt lat="43.729291164970064" lon="7.07080767445448"><ele>648.0</ele><time>2026-04-26T14:27:25.999Z</time></trkpt><trkpt lat="43.729193629551965" lon="7.070837853988409"><ele>644.4</ele><time>2026-04-26T14:27:27.999Z</time></trkpt><trkpt lat="43.72913430301709" lon="7.070952925098997"><ele>640.8</ele><time>2026-04-26T14:27:29.999Z</time></trkpt><trkpt lat="43.72902853843364" lon="7.071030887413467"><ele>637.2</ele><time>2026-04-26T14:27:31.999Z</time></trkpt><trkpt lat="43.72897327794622" lon="7.071085116352104"><ele>633.6</ele><time>2026-04-26T14:27:32.999Z</time></trkpt><trkpt lat="43.72888173169938" lon="7.071164378183207"><ele>630.0</ele><time>2026-04-26T14:27:34.999Z</time></trkpt><trkpt lat="43.728772424900086" lon="7.071235181903081"><ele>630.0</ele><time>2026-04-26T14:27:37Z</time></trkpt><trkpt lat="43.72868571536196" lon="7.071303294506549"><ele>630.0</ele><time>2026-04-26T14:27:39Z</time></trkpt><trkpt lat="43.7286225382741" lon="7.071318604183848"><ele>630.0</ele><time>2026-04-26T14:27:40Z</time></trkpt><trkpt lat="43.72856335187061" lon="7.071350043832152"><ele>630.0</ele><time>2026-04-26T14:27:41Z</time></trkpt><trkpt lat="43.72844064078449" lon="7.0713482285064035"><ele>630.0</ele><time>2026-04-26T14:27:43Z</time></trkpt><trkpt lat="43.7283726102175" lon="7.071327881892887"><ele>630.0</ele><time>2026-04-26T14:27:44Z</time></trkpt><trkpt lat="43.72829476389477" lon="7.071355409582134"><ele>626.0</ele><time>2026-04-26T14:27:45Z</time></trkpt><trkpt lat="43.728182864648545" lon="7.0713488843722"><ele>622.0</ele><time>2026-04-26T14:27:47Z</time></trkpt><trkpt lat="43.72808969936867" lon="7.071265921184828"><ele>618.0</ele><time>2026-04-26T14:27:49Z</time></trkpt><trkpt lat="43.72799760552653" lon="7.071304255793225"><ele>614.0</ele><time>2026-04-26T14:27:51Z</time></trkpt><trkpt lat="43.72791925504199" lon="7.071422961440023"><ele>610.0</ele><time>2026-04-26T14:27:53Z</time></trkpt><trkpt lat="43.727832168062534" lon="7.0714381536312265"><ele>610.0</ele><time>2026-04-26T14:27:55Z</time></trkpt><trkpt lat="43.72775714735795" lon="7.071372657581363"><ele>610.0</ele><time>2026-04-26T14:27:57Z</time></trkpt><trkpt lat="43.72766430515593" lon="7.071388195162409"><ele>610.0</ele><time>2026-04-26T14:27:59Z</time></trkpt><trkpt lat="43.72765472590851" lon="7.071516894768302"><ele>610.0</ele><time>2026-04-26T14:28:01Z</time></trkpt><trkpt lat="43.7275694979115" lon="7.071538596518789"><ele>610.0</ele><time>2026-04-26T14:28:03Z</time></trkpt><trkpt lat="43.72753575993135" lon="7.071462666691444"><ele>610.0</ele><time>2026-04-26T14:28:04Z</time></trkpt><trkpt lat="43.727486878239965" lon="7.071329845332139"><ele>606.2857142857143</ele><time>2026-04-26T14:28:06Z</time></trkpt><trkpt lat="43.72745479690717" lon="7.0712419584759925"><ele>602.5714285714286</ele><time>2026-04-26T14:28:07Z</time></trkpt><trkpt lat="43.72745300654142" lon="7.071150117617668"><ele>598.8571428571429</ele><time>2026-04-26T14:28:08Z</time></trkpt><trkpt lat="43.72743072080598" lon="7.071058580892799"><ele>595.1428571428571</ele><time>2026-04-26T14:28:09Z</time></trkpt><trkpt lat="43.7274287363264" lon="7.0709588719535414"><ele>591.4285714285714</ele><time>2026-04-26T14:28:10Z</time></trkpt><trkpt lat="43.72743454633678" lon="7.070864450756955"><ele>587.7142857142857</ele><time>2026-04-26T14:28:11Z</time></trkpt><trkpt lat="43.72743725316584" lon="7.070753909532584"><ele>584.0</ele><time>2026-04-26T14:28:12Z</time></trkpt><trkpt lat="43.72744884471177" lon="7.070655226856743"><ele>580.8</ele><time>2026-04-26T14:28:13Z</time></trkpt><trkpt lat="43.72747934989284" lon="7.070574146040264"><ele>577.5999999999999</ele><time>2026-04-26T14:28:14Z</time></trkpt><trkpt lat="43.727534794590696" lon="7.070416080666495"><ele>574.4</ele><time>2026-04-26T14:28:16Z</time></trkpt><trkpt lat="43.72754140106465" lon="7.070242170514041"><ele>571.1999999999999</ele><time>2026-04-26T14:28:18Z</time></trkpt><trkpt lat="43.72746311341117" lon="7.0701882527247"><ele>568.0</ele><time>2026-04-26T14:28:19Z</time></trkpt><trkpt lat="43.7274222554037" lon="7.070106519918995"><ele>568.0</ele><time>2026-04-26T14:28:20Z</time></trkpt><trkpt lat="43.72739458546844" lon="7.070008922501169"><ele>568.0</ele><time>2026-04-26T14:28:21Z</time></trkpt><trkpt lat="43.72741725592762" lon="7.069891936089046"><ele>568.0</ele><time>2026-04-26T14:28:22Z</time></trkpt><trkpt lat="43.727441690696814" lon="7.069768391293024"><ele>568.0</ele><time>2026-04-26T14:28:23Z</time></trkpt><trkpt lat="43.727476549376235" lon="7.069572982570978"><ele>568.0</ele><time>2026-04-26T14:28:25Z</time></trkpt><trkpt lat="43.72749648082499" lon="7.0694199443083985"><ele>566.0</ele><time>2026-04-26T14:28:27Z</time></trkpt><trkpt lat="43.72742254311654" lon="7.069419570211747"><ele>564.0</ele><time>2026-04-26T14:28:29Z</time></trkpt><trkpt lat="43.727317436939195" lon="7.069390387397833"><ele>562.0</ele><time>2026-04-26T14:28:31Z</time></trkpt><trkpt lat="43.72720241765085" lon="7.069283385928867"><ele>560.0</ele><time>2026-04-26T14:28:33Z</time></trkpt><trkpt lat="43.72713716046811" lon="7.069212084813747"><ele>558.0</ele><time>2026-04-26T14:28:34Z</time></trkpt><trkpt lat="43.727063778347514" lon="7.069149705903597"><ele>558.3333333333334</ele><time>2026-04-26T14:28:35Z</time></trkpt><trkpt lat="43.726994891800665" lon="7.069089178212645"><ele>558.6666666666666</ele><time>2026-04-26T14:28:36Z</time></trkpt><trkpt lat="43.726932571493265" lon="7.069021664481365"><ele>559.0</ele><time>2026-04-26T14:28:36.999Z</time></trkpt><trkpt lat="43.72688303919318" lon="7.068933917811168"><ele>559.3333333333333</ele><time>2026-04-26T14:28:37.999Z</time></trkpt><trkpt lat="43.72684868344836" lon="7.068839235171967"><ele>559.6666666666666</ele><time>2026-04-26T14:28:38.999Z</time></trkpt><trkpt lat="43.72682468150184" lon="7.068736157112481"><ele>560.0</ele><time>2026-04-26T14:28:39.999Z</time></trkpt><trkpt lat="43.72681947221251" lon="7.068613317736254"><ele>555.0</ele><time>2026-04-26T14:28:40.999Z</time></trkpt><trkpt lat="43.726811164762154" lon="7.06850627667675"><ele>550.0</ele><time>2026-04-26T14:28:41.999Z</time></trkpt><trkpt lat="43.72679313342378" lon="7.068414384806725"><ele>545.0</ele><time>2026-04-26T14:28:42.999Z</time></trkpt><trkpt lat="43.72675940407606" lon="7.06830675809786"><ele>540.0</ele><time>2026-04-26T14:28:44.999Z</time></trkpt><trkpt lat="43.72671995996161" lon="7.068381149263879"><ele>535.0</ele><time>2026-04-26T14:28:48.999Z</time></trkpt><trkpt lat="43.72670122463374" lon="7.068529290418988"><ele>530.0</ele><time>2026-04-26T14:28:51.999Z</time></trkpt><trkpt lat="43.726628410949175" lon="7.068532284758735"><ele>530.0</ele><time>2026-04-26T14:28:53.999Z</time></trkpt><trkpt lat="43.72656022549699" lon="7.068383526769204"><ele>530.0</ele><time>2026-04-26T14:28:55.999Z</time></trkpt><trkpt lat="43.72653033482823" lon="7.068292115029231"><ele>530.0</ele><time>2026-04-26T14:28:56.999Z</time></trkpt><trkpt lat="43.726496792738956" lon="7.068181033283951"><ele>530.0</ele><time>2026-04-26T14:28:57.999Z</time></trkpt><trkpt lat="43.726436106645465" lon="7.0681210238716154"><ele>530.0</ele><time>2026-04-26T14:28:58.999Z</time></trkpt><trkpt lat="43.726358556186156" lon="7.06809870170531"><ele>530.0</ele><time>2026-04-26T14:28:59.999Z</time></trkpt><trkpt lat="43.72626817521543" lon="7.068115510915968"><ele>531.4</ele><time>2026-04-26T14:29:00.999Z</time></trkpt><trkpt lat="43.726178249849376" lon="7.068140204435261"><ele>532.8</ele><time>2026-04-26T14:29:01.999Z</time></trkpt><trkpt lat="43.72608992328521" lon="7.068129805358379"><ele>534.2</ele><time>2026-04-26T14:29:02.999Z</time></trkpt><trkpt lat="43.72599540006163" lon="7.068103964843007"><ele>535.6</ele><time>2026-04-26T14:29:03.999Z</time></trkpt><trkpt lat="43.72591871019414" lon="7.068095766272822"><ele>537.0</ele><time>2026-04-26T14:29:04.999Z</time></trkpt><trkpt lat="43.72582275990851" lon="7.068012742581334"><ele>533.8333333333334</ele><time>2026-04-26T14:29:05.999Z</time></trkpt><trkpt lat="43.725764328453124" lon="7.067947562878729"><ele>530.6666666666666</ele><time>2026-04-26T14:29:06.999Z</time></trkpt><trkpt lat="43.725707989242636" lon="7.0678724352533"><ele>527.5</ele><time>2026-04-26T14:29:07.999Z</time></trkpt><trkpt lat="43.72565435842662" lon="7.0677971165619615"><ele>524.3333333333333</ele><time>2026-04-26T14:29:08.999Z</time></trkpt><trkpt lat="43.72559295259639" lon="7.067718334440579"><ele>521.1666666666666</ele><time>2026-04-26T14:29:09.999Z</time></trkpt><trkpt lat="43.72552570173238" lon="7.067641895763872"><ele>518.0</ele><time>2026-04-26T14:29:10.999Z</time></trkpt><trkpt lat="43.72547334540415" lon="7.067555754146723"><ele>518.0</ele><time>2026-04-26T14:29:11.999Z</time></trkpt><trkpt lat="43.725428909943005" lon="7.067463751686128"><ele>518.0</ele><time>2026-04-26T14:29:12.999Z</time></trkpt><trkpt lat="43.72537874199333" lon="7.067385321438578"><ele>518.0</ele><time>2026-04-26T14:29:13.999Z</time></trkpt><trkpt lat="43.725301639194605" lon="7.067329952925857"><ele>518.0</ele><time>2026-04-26T14:29:14.999Z</time></trkpt><trkpt lat="43.72521113187031" lon="7.067284077794404"><ele>518.0</ele><time>2026-04-26T14:29:15.999Z</time></trkpt><trkpt lat="43.725120078406434" lon="7.067251580653993"><ele>518.0</ele><time>2026-04-26T14:29:16.999Z</time></trkpt><trkpt lat="43.72501259509403" lon="7.06725169906061"><ele>512.8</ele><time>2026-04-26T14:29:17.999Z</time></trkpt><trkpt lat="43.72491444259755" lon="7.067259672323571"><ele>507.59999999999997</ele><time>2026-04-26T14:29:18.999Z</time></trkpt><trkpt lat="43.724812911687515" lon="7.067267417716932"><ele>502.40000000000003</ele><time>2026-04-26T14:29:19.999Z</time></trkpt><trkpt lat="43.72471352715458" lon="7.06727255971324"><ele>497.20000000000005</ele><time>2026-04-26T14:29:20.999Z</time></trkpt><trkpt lat="43.724607296626225" lon="7.067253395724108"><ele>492.0</ele><time>2026-04-26T14:29:21.999Z</time></trkpt><trkpt lat="43.72450352170204" lon="7.067209086233672"><ele>492.0</ele><time>2026-04-26T14:29:22.999Z</time></trkpt><trkpt lat="43.72440021566983" lon="7.067181798321847"><ele>492.00000000000006</ele><time>2026-04-26T14:29:23.999Z</time></trkpt><trkpt lat="43.72430442821394" lon="7.067162778493339"><ele>492.00000000000006</ele><time>2026-04-26T14:29:24.999Z</time></trkpt><trkpt lat="43.72420752702473" lon="7.067153819384917"><ele>492.0</ele><time>2026-04-26T14:29:25.999Z</time></trkpt><trkpt lat="43.72411033490844" lon="7.067148947985185"><ele>492.0</ele><time>2026-04-26T14:29:26.999Z</time></trkpt><trkpt lat="43.72401645697377" lon="7.0671447358830255"><ele>488.20000000000005</ele><time>2026-04-26T14:29:27.999Z</time></trkpt><trkpt lat="43.72392577307123" lon="7.067138433398657"><ele>484.40000000000003</ele><time>2026-04-26T14:29:28.999Z</time></trkpt><trkpt lat="43.723832333472565" lon="7.067133709715047"><ele>480.59999999999997</ele><time>2026-04-26T14:29:29.999Z</time></trkpt><trkpt lat="43.72373714883868" lon="7.067137744933784"><ele>476.79999999999995</ele><time>2026-04-26T14:29:30.999Z</time></trkpt><trkpt lat="43.723635542956075" lon="7.067152664681555"><ele>473.0</ele><time>2026-04-26T14:29:31.999Z</time></trkpt><trkpt lat="43.723529211499404" lon="7.067179221046651"><ele>469.75</ele><time>2026-04-26T14:29:32.999Z</time></trkpt><trkpt lat="43.72341994782029" lon="7.067216398143387"><ele>466.5</ele><time>2026-04-26T14:29:33.999Z</time></trkpt><trkpt lat="43.723310760257384" lon="7.067261940260099"><ele>463.25</ele><time>2026-04-26T14:29:34.999Z</time></trkpt><trkpt lat="43.72320130066532" lon="7.067302274720932"><ele>460.0</ele><time>2026-04-26T14:29:35.999Z</time></trkpt><trkpt lat="43.723091499275725" lon="7.067317060175606"><ele>460.0</ele><time>2026-04-26T14:29:36.999Z</time></trkpt><trkpt lat="43.72297760816776" lon="7.067324868149892"><ele>460.0</ele><time>2026-04-26T14:29:37.999Z</time></trkpt><trkpt lat="43.72286793831208" lon="7.0673280864298995"><ele>460.0</ele><time>2026-04-26T14:29:38.999Z</time></trkpt><trkpt lat="43.72276882848421" lon="7.0673282693822275"><ele>460.0</ele><time>2026-04-26T14:29:39.999Z</time></trkpt><trkpt lat="43.72266940784086" lon="7.067324512668394"><ele>460.0</ele><time>2026-04-26T14:29:40.999Z</time></trkpt><trkpt lat="43.72257488985188" lon="7.06730143587676"><ele>457.8</ele><time>2026-04-26T14:29:41.998Z</time></trkpt><trkpt lat="43.722485792846314" lon="7.067282635358943"><ele>455.6</ele><time>2026-04-26T14:29:43Z</time></trkpt><trkpt lat="43.72239273241246" lon="7.067254336241407"><ele>453.4</ele><time>2026-04-26T14:29:44Z</time></trkpt><trkpt lat="43.72228809499745" lon="7.067228118895322"><ele>451.2</ele><time>2026-04-26T14:29:45Z</time></trkpt><trkpt lat="43.72218550519676" lon="7.06720534406312"><ele>449.0</ele><time>2026-04-26T14:29:46Z</time></trkpt><trkpt lat="43.722080939777825" lon="7.067182292898086"><ele>448.99999999999994</ele><time>2026-04-26T14:29:47Z</time></trkpt><trkpt lat="43.72198721390245" lon="7.067164934759685"><ele>449.0</ele><time>2026-04-26T14:29:48Z</time></trkpt><trkpt lat="43.721915668223374" lon="7.0671524942784565"><ele>449.0</ele><time>2026-04-26T14:29:49Z</time></trkpt><trkpt lat="43.72184051298501" lon="7.067165549739582"><ele>449.0</ele><time>2026-04-26T14:29:51Z</time></trkpt><trkpt lat="43.721757137016574" lon="7.067104772400754"><ele>448.99999999999994</ele><time>2026-04-26T14:29:54Z</time></trkpt><trkpt lat="43.72166504899864" lon="7.067072181742178"><ele>449.0</ele><time>2026-04-26T14:29:56Z</time></trkpt><trkpt lat="43.721562979861595" lon="7.066986441270382"><ele>447.57142857142856</ele><time>2026-04-26T14:29:58Z</time></trkpt><trkpt lat="43.72150387945852" lon="7.0669496189926715"><ele>446.1428571428571</ele><time>2026-04-26T14:29:59Z</time></trkpt><trkpt lat="43.72143675321222" lon="7.066931521811077"><ele>444.71428571428567</ele><time>2026-04-26T14:30:00Z</time></trkpt><trkpt lat="43.721357918900125" lon="7.066894412810467"><ele>443.2857142857143</ele><time>2026-04-26T14:30:01Z</time></trkpt><trkpt lat="43.721283341406284" lon="7.066872543996196"><ele>441.85714285714283</ele><time>2026-04-26T14:30:02Z</time></trkpt><trkpt lat="43.72120852565505" lon="7.06685342509912"><ele>440.42857142857144</ele><time>2026-04-26T14:30:03Z</time></trkpt><trkpt lat="43.7211339904757" lon="7.0668268169331006"><ele>439.0</ele><time>2026-04-26T14:30:04Z</time></trkpt><trkpt lat="43.721059665193685" lon="7.066812599605593"><ele>437.6666666666667</ele><time>2026-04-26T14:30:05Z</time></trkpt><trkpt lat="43.72098162461855" lon="7.066800020771597"><ele>436.33333333333337</ele><time>2026-04-26T14:30:06Z</time></trkpt><trkpt lat="43.72090723943835" lon="7.066787353644702"><ele>435.0</ele><time>2026-04-26T14:30:07Z</time></trkpt><trkpt lat="43.720828380707374" lon="7.066779535308043"><ele>433.66666666666663</ele><time>2026-04-26T14:30:08Z</time></trkpt><trkpt lat="43.720755425411014" lon="7.066769269867746"><ele>432.3333333333333</ele><time>2026-04-26T14:30:09Z</time></trkpt><trkpt lat="43.72068948226267" lon="7.06677398235894"><ele>431.0</ele><time>2026-04-26T14:30:10Z</time></trkpt><trkpt lat="43.72060852823916" lon="7.066783461615912"><ele>431.0</ele><time>2026-04-26T14:30:11Z</time></trkpt><trkpt lat="43.72053461982584" lon="7.066786173880205"><ele>431.0</ele><time>2026-04-26T14:30:12Z</time></trkpt><trkpt lat="43.72045824557431" lon="7.066793278907844"><ele>431.0</ele><time>2026-04-26T14:30:13Z</time></trkpt><trkpt lat="43.72038512968123" lon="7.066794986096387"><ele>431.0</ele><time>2026-04-26T14:30:14Z</time></trkpt><trkpt lat="43.7203084915736" lon="7.066794236453339"><ele>431.0</ele><time>2026-04-26T14:30:15Z</time></trkpt><trkpt lat="43.72023921235728" lon="7.066778883451255"><ele>431.0</ele><time>2026-04-26T14:30:16Z</time></trkpt><trkpt lat="43.72017465229131" lon="7.066735474532492"><ele>431.0</ele><time>2026-04-26T14:30:17Z</time></trkpt><trkpt lat="43.720108474496605" lon="7.066669206821558"><ele>429.49999999999994</ele><time>2026-04-26T14:30:18Z</time></trkpt><trkpt lat="43.72004005485536" lon="7.066607049251154"><ele>428.0</ele><time>2026-04-26T14:30:19Z</time></trkpt><trkpt lat="43.719964996278385" lon="7.066550650137679"><ele>426.5</ele><time>2026-04-26T14:30:20Z</time></trkpt><trkpt lat="43.719889880768385" lon="7.0664890235117195"><ele>425.0</ele><time>2026-04-26T14:30:21Z</time></trkpt><trkpt lat="43.719819411357186" lon="7.066418499867465"><ele>423.49999999999994</ele><time>2026-04-26T14:30:22Z</time></trkpt><trkpt lat="43.71975188737573" lon="7.066358724694321"><ele>422.0</ele><time>2026-04-26T14:30:23Z</time></trkpt><trkpt lat="43.71969396291951" lon="7.066295668017319"><ele>421.99999999999994</ele><time>2026-04-26T14:30:24Z</time></trkpt><trkpt lat="43.71964298452898" lon="7.066232787068516"><ele>422.0</ele><time>2026-04-26T14:30:25Z</time></trkpt><trkpt lat="43.71959068448247" lon="7.066168355546819"><ele>422.0</ele><time>2026-04-26T14:30:26Z</time></trkpt><trkpt lat="43.719540545366385" lon="7.066096872925174"><ele>422.0</ele><time>2026-04-26T14:30:27Z</time></trkpt><trkpt lat="43.71949829068978" lon="7.066020122230131"><ele>421.99999999999994</ele><time>2026-04-26T14:30:28Z</time></trkpt><trkpt lat="43.71949148877475" lon="7.065889753916267"><ele>422.0</ele><time>2026-04-26T14:30:29Z</time></trkpt><trkpt lat="43.71947485908426" lon="7.065776635860441"><ele>421.49999999999994</ele><time>2026-04-26T14:30:30Z</time></trkpt><trkpt lat="43.719459113277395" lon="7.065670148780261"><ele>421.0</ele><time>2026-04-26T14:30:31Z</time></trkpt><trkpt lat="43.719435327069" lon="7.065560130183209"><ele>420.5</ele><time>2026-04-26T14:30:32Z</time></trkpt><trkpt lat="43.7194156379482" lon="7.065448107735305"><ele>420.0</ele><time>2026-04-26T14:30:33Z</time></trkpt><trkpt lat="43.71939844169951" lon="7.065331265557936"><ele>419.49999999999994</ele><time>2026-04-26T14:30:34Z</time></trkpt><trkpt lat="43.71937619975825" lon="7.065216917841878"><ele>419.0</ele><time>2026-04-26T14:30:35Z</time></trkpt><trkpt lat="43.71936086245812" lon="7.065095333378942"><ele>417.8333333333333</ele><time>2026-04-26T14:30:36Z</time></trkpt><trkpt lat="43.71931891662476" lon="7.064982383932985"><ele>416.66666666666663</ele><time>2026-04-26T14:30:37Z</time></trkpt><trkpt lat="43.71927508672432" lon="7.0648794272719515"><ele>415.5</ele><time>2026-04-26T14:30:38Z</time></trkpt><trkpt lat="43.7192324955268" lon="7.06477658071887"><ele>414.33333333333337</ele><time>2026-04-26T14:30:39Z</time></trkpt><trkpt lat="43.71919013296778" lon="7.064674286285996"><ele>413.1666666666667</ele><time>2026-04-26T14:30:40Z</time></trkpt><trkpt lat="43.71915022661823" lon="7.064573231562594"><ele>412.0</ele><time>2026-04-26T14:30:40.999Z</time></trkpt><trkpt lat="43.71910187189626" lon="7.064480068245768"><ele>411.33333333333337</ele><time>2026-04-26T14:30:41.999Z</time></trkpt><trkpt lat="43.71906502560523" lon="7.064373130518883"><ele>410.6666666666667</ele><time>2026-04-26T14:30:42.999Z</time></trkpt><trkpt lat="43.71904580454569" lon="7.0642635785530485"><ele>410.0</ele><time>2026-04-26T14:30:43.999Z</time></trkpt><trkpt lat="43.71900917553935" lon="7.064165571234975"><ele>409.33333333333337</ele><time>2026-04-26T14:30:44.999Z</time></trkpt><trkpt lat="43.71897303486582" lon="7.064072841226593"><ele>408.6666666666667</ele><time>2026-04-26T14:30:45.999Z</time></trkpt><trkpt lat="43.71892335375911" lon="7.063993373722723"><ele>408.0</ele><time>2026-04-26T14:30:46.999Z</time></trkpt><trkpt lat="43.718887368802264" lon="7.063896488733562"><ele>407.5</ele><time>2026-04-26T14:30:47.999Z</time></trkpt><trkpt lat="43.71885888899995" lon="7.06379721982243"><ele>407.0</ele><time>2026-04-26T14:30:48.999Z</time></trkpt><trkpt lat="43.71882298686816" lon="7.063704000299172"><ele>406.5</ele><time>2026-04-26T14:30:49.999Z</time></trkpt><trkpt lat="43.718790962368125" lon="7.063619265009393"><ele>406.0</ele><time>2026-04-26T14:30:50.999Z</time></trkpt><trkpt lat="43.71875879447671" lon="7.063496980401125"><ele>405.5</ele><time>2026-04-26T14:30:52.999Z</time></trkpt><trkpt lat="43.71866248751146" lon="7.063485783402636"><ele>405.0</ele><time>2026-04-26T14:30:53.999Z</time></trkpt><trkpt lat="43.718333917853336" lon="7.063524776440786"><ele>405.0</ele><time>2026-04-26T14:30:57.999Z</time></trkpt><trkpt lat="43.718331245470374" lon="7.063629226343046"><ele>405.0</ele><time>2026-04-26T14:30:59.999Z</time></trkpt><trkpt lat="43.718733801641534" lon="7.063739861954156"><ele>405.0</ele><time>2026-04-26T14:31:00.999Z</time></trkpt><trkpt lat="43.71878832110434" lon="7.06363099625844"><ele>405.0</ele><time>2026-04-26T14:31:02.999Z</time></trkpt><trkpt lat="43.71876213404199" lon="7.06353442914587"><ele>405.0</ele><time>2026-04-26T14:31:03.999Z</time></trkpt><trkpt lat="43.71872562922864" lon="7.063431368435581"><ele>405.0</ele><time>2026-04-26T14:31:04.999Z</time></trkpt><trkpt lat="43.71870241278667" lon="7.0633115617662545"><ele>405.0</ele><time>2026-04-26T14:31:05.999Z</time></trkpt><trkpt lat="43.71866559844119" lon="7.063201708279824"><ele>405.0</ele><time>2026-04-26T14:31:06.999Z</time></trkpt><trkpt lat="43.7186285207916" lon="7.063100806131744"><ele>405.4</ele><time>2026-04-26T14:31:07.999Z</time></trkpt><trkpt lat="43.71862722716428" lon="7.062962918010811"><ele>405.8</ele><time>2026-04-26T14:31:09.999Z</time></trkpt><trkpt lat="43.71870913610084" lon="7.062962998057928"><ele>406.20000000000005</ele><time>2026-04-26T14:31:10.999Z</time></trkpt><trkpt lat="43.71877464601367" lon="7.062884525962408"><ele>406.6</ele><time>2026-04-26T14:31:11.999Z</time></trkpt><trkpt lat="43.71885411521405" lon="7.062791128497721"><ele>407.0</ele><time>2026-04-26T14:31:12.999Z</time></trkpt><trkpt lat="43.71894445613699" lon="7.062689092196251"><ele>407.0</ele><time>2026-04-26T14:31:13.999Z</time></trkpt><trkpt lat="43.71900570013282" lon="7.062597479293326"><ele>407.0</ele><time>2026-04-26T14:31:14.999Z</time></trkpt><trkpt lat="43.71906348190262" lon="7.062493294883504"><ele>407.0</ele><time>2026-04-26T14:31:15.999Z</time></trkpt><trkpt lat="43.71912436110177" lon="7.062388793351034"><ele>407.0</ele><time>2026-04-26T14:31:16.999Z</time></trkpt><trkpt lat="43.71918248584125" lon="7.062314124474652"><ele>407.0</ele><time>2026-04-26T14:31:17.999Z</time></trkpt><trkpt lat="43.719057781157694" lon="7.062160890661224"><ele>408.49999999999994</ele><time>2026-04-26T14:31:20.999Z</time></trkpt><trkpt lat="43.71898084306205" lon="7.062168075510763"><ele>410.0</ele><time>2026-04-26T14:31:21.999Z</time></trkpt><trkpt lat="43.71890556599731" lon="7.06215173417945"><ele>411.5</ele><time>2026-04-26T14:31:22.999Z</time></trkpt><trkpt lat="43.7188281279611" lon="7.0621176189239785"><ele>413.0</ele><time>2026-04-26T14:31:23.999Z</time></trkpt><trkpt lat="43.71874295126673" lon="7.062098768923337"><ele>414.49999999999994</ele><time>2026-04-26T14:31:24.999Z</time></trkpt><trkpt lat="43.718681306488534" lon="7.062052713975957"><ele>416.0</ele><time>2026-04-26T14:31:25.999Z</time></trkpt><trkpt lat="43.71861630172327" lon="7.062017088291818"><ele>416.0</ele><time>2026-04-26T14:31:26.999Z</time></trkpt><trkpt lat="43.71855324554181" lon="7.0619700912107035"><ele>416.0</ele><time>2026-04-26T14:31:27.999Z</time></trkpt><trkpt lat="43.71849882504742" lon="7.061924522988563"><ele>416.0</ele><time>2026-04-26T14:31:28.999Z</time></trkpt><trkpt lat="43.71844342489947" lon="7.061850450552077"><ele>416.0</ele><time>2026-04-26T14:31:30.999Z</time></trkpt><trkpt lat="43.71852130462235" lon="7.0618012510742005"><ele>416.0</ele><time>2026-04-26T14:31:32.999Z</time></trkpt><trkpt lat="43.71855004381481" lon="7.061890203344891"><ele>416.0</ele><time>2026-04-26T14:31:33.999Z</time></trkpt><trkpt lat="43.718609964015535" lon="7.0619283015514736"><ele>416.0</ele><time>2026-04-26T14:31:35.999Z</time></trkpt><trkpt lat="43.71867168202217" lon="7.061869622599943"><ele>416.0</ele><time>2026-04-26T14:31:36.999Z</time></trkpt><trkpt lat="43.718650034576854" lon="7.061733516421263"><ele>416.0</ele><time>2026-04-26T14:31:37.999Z</time></trkpt><trkpt lat="43.71852917797759" lon="7.061686512158657"><ele>416.0</ele><time>2026-04-26T14:31:38.999Z</time></trkpt><trkpt lat="43.718465353804326" lon="7.0616212797657685"><ele>416.0</ele><time>2026-04-26T14:31:39.999Z</time></trkpt><trkpt lat="43.718408944931966" lon="7.061552078558359"><ele>416.0</ele><time>2026-04-26T14:31:40.999Z</time></trkpt><trkpt lat="43.71836591149954" lon="7.0614662330117035"><ele>417.20000000000005</ele><time>2026-04-26T14:31:41.999Z</time></trkpt><trkpt lat="43.71828737179276" lon="7.061357352970836"><ele>418.40000000000003</ele><time>2026-04-26T14:31:43.999Z</time></trkpt><trkpt lat="43.71837183620048" lon="7.061280346924192"><ele>419.6</ele><time>2026-04-26T14:31:46.998Z</time></trkpt><trkpt lat="43.718443030728125" lon="7.06123140343357"><ele>420.8</ele><time>2026-04-26T14:31:48Z</time></trkpt><trkpt lat="43.718521959445056" lon="7.061176313774295"><ele>422.0</ele><time>2026-04-26T14:31:49Z</time></trkpt><trkpt lat="43.7186121702076" lon="7.061111608078822"><ele>423.0</ele><time>2026-04-26T14:31:50Z</time></trkpt><trkpt lat="43.718707488966956" lon="7.061040318933966"><ele>424.0</ele><time>2026-04-26T14:31:51Z</time></trkpt><trkpt lat="43.71879605692769" lon="7.060971880270617"><ele>425.00000000000006</ele><time>2026-04-26T14:31:52Z</time></trkpt><trkpt lat="43.71889132944561" lon="7.060912704277699"><ele>426.0</ele><time>2026-04-26T14:31:53Z</time></trkpt><trkpt lat="43.718989192789245" lon="7.060844802777537"><ele>427.0</ele><time>2026-04-26T14:31:54Z</time></trkpt><trkpt lat="43.71907278270104" lon="7.060758961049401"><ele>427.83333333333337</ele><time>2026-04-26T14:31:55Z</time></trkpt><trkpt lat="43.71916096215857" lon="7.060722077432463"><ele>428.6666666666667</ele><time>2026-04-26T14:31:56Z</time></trkpt><trkpt lat="43.71923699414525" lon="7.060668827248763"><ele>429.5</ele><time>2026-04-26T14:31:57Z</time></trkpt><trkpt lat="43.71930978802953" lon="7.060618134981871"><ele>430.33333333333337</ele><time>2026-04-26T14:31:58Z</time></trkpt><trkpt lat="43.71936885227243" lon="7.0605711432146165"><ele>431.1666666666667</ele><time>2026-04-26T14:31:59Z</time></trkpt><trkpt lat="43.71942488538298" lon="7.060522431685994"><ele>432.0</ele><time>2026-04-26T14:32:00Z</time></trkpt><trkpt lat="43.719490036270784" lon="7.060467638439055"><ele>432.8333333333333</ele><time>2026-04-26T14:32:01Z</time></trkpt><trkpt lat="43.719539591082274" lon="7.060401394072007"><ele>433.66666666666663</ele><time>2026-04-26T14:32:02Z</time></trkpt><trkpt lat="43.719633695115505" lon="7.060327939339498"><ele>434.5</ele><time>2026-04-26T14:32:04Z</time></trkpt><trkpt lat="43.719706673852805" lon="7.060265451889451"><ele>435.3333333333333</ele><time>2026-04-26T14:32:06Z</time></trkpt><trkpt lat="43.719792669128566" lon="7.0601866803695"><ele>436.16666666666663</ele><time>2026-04-26T14:32:09Z</time></trkpt><trkpt lat="43.719839915472726" lon="7.060115485767513"><ele>437.0</ele><time>2026-04-26T14:32:10Z</time></trkpt><trkpt lat="43.71987347199408" lon="7.060007126938669"><ele>438.8</ele><time>2026-04-26T14:32:11Z</time></trkpt><trkpt lat="43.719935515749725" lon="7.0599150613869055"><ele>440.6</ele><time>2026-04-26T14:32:12Z</time></trkpt><trkpt lat="43.71999403706067" lon="7.059807248381003"><ele>442.40000000000003</ele><time>2026-04-26T14:32:13Z</time></trkpt><trkpt lat="43.7200567056699" lon="7.059689544381831"><ele>444.20000000000005</ele><time>2026-04-26T14:32:14Z</time></trkpt><trkpt lat="43.72010945304963" lon="7.0595782595314365"><ele>446.0</ele><time>2026-04-26T14:32:15Z</time></trkpt><trkpt lat="43.720153851560205" lon="7.05947580875388"><ele>445.99999999999994</ele><time>2026-04-26T14:32:16Z</time></trkpt><trkpt lat="43.72019057989263" lon="7.059364826869899"><ele>446.0</ele><time>2026-04-26T14:32:17Z</time></trkpt><trkpt lat="43.72021891434503" lon="7.059251564615003"><ele>446.0</ele><time>2026-04-26T14:32:18Z</time></trkpt><trkpt lat="43.72024259473236" lon="7.059143780420315"><ele>446.0</ele><time>2026-04-26T14:32:19Z</time></trkpt><trkpt lat="43.72026729482821" lon="7.059044993424821"><ele>445.99999999999994</ele><time>2026-04-26T14:32:20Z</time></trkpt><trkpt lat="43.720292848109835" lon="7.058944551301699"><ele>446.0</ele><time>2026-04-26T14:32:21Z</time></trkpt><trkpt lat="43.72031797640037" lon="7.0588359034377675"><ele>449.66666666666663</ele><time>2026-04-26T14:32:22Z</time></trkpt><trkpt lat="43.72034418513993" lon="7.058723240936052"><ele>453.3333333333333</ele><time>2026-04-26T14:32:23Z</time></trkpt><trkpt lat="43.72036941018538" lon="7.058614976067098"><ele>457.0</ele><time>2026-04-26T14:32:24Z</time></trkpt><trkpt lat="43.72038273861961" lon="7.0585064785974305"><ele>460.66666666666663</ele><time>2026-04-26T14:32:25Z</time></trkpt><trkpt lat="43.720420838492295" lon="7.058419453528417"><ele>464.3333333333333</ele><time>2026-04-26T14:32:26Z</time></trkpt><trkpt lat="43.72042502862717" lon="7.058326461214422"><ele>468.0</ele><time>2026-04-26T14:32:27Z</time></trkpt><trkpt lat="43.720468043114344" lon="7.058169783191057"><ele>470.5</ele><time>2026-04-26T14:32:29Z</time></trkpt><trkpt lat="43.720497300931285" lon="7.058082353736004"><ele>473.0</ele><time>2026-04-26T14:32:30Z</time></trkpt><trkpt lat="43.72051925310111" lon="7.057995808966096"><ele>475.5</ele><time>2026-04-26T14:32:31Z</time></trkpt><trkpt lat="43.72054438051828" lon="7.057905702184679"><ele>478.0</ele><time>2026-04-26T14:32:32Z</time></trkpt><trkpt lat="43.720567945350496" lon="7.057821292703865"><ele>480.5</ele><time>2026-04-26T14:32:33Z</time></trkpt><trkpt lat="43.72060871110445" lon="7.057742694172792"><ele>483.0</ele><time>2026-04-26T14:32:35Z</time></trkpt><trkpt lat="43.72072893433332" lon="7.0577737201681545"><ele>483.0</ele><time>2026-04-26T14:32:37Z</time></trkpt><trkpt lat="43.720800980419604" lon="7.057765188451669"><ele>483.0</ele><time>2026-04-26T14:32:38Z</time></trkpt><trkpt lat="43.72086854416765" lon="7.057782505533242"><ele>483.0</ele><time>2026-04-26T14:32:39Z</time></trkpt><trkpt lat="43.720947407841216" lon="7.057750696815684"><ele>483.0</ele><time>2026-04-26T14:32:40Z</time></trkpt><trkpt lat="43.721016250883594" lon="7.057719128574721"><ele>483.0</ele><time>2026-04-26T14:32:41Z</time></trkpt><trkpt lat="43.72108112361709" lon="7.057690193620602"><ele>483.0</ele><time>2026-04-26T14:32:42Z</time></trkpt><trkpt lat="43.721141341784666" lon="7.057645389579748"><ele>483.0</ele><time>2026-04-26T14:32:43Z</time></trkpt><trkpt lat="43.721206778548044" lon="7.057628526868051"><ele>486.57142857142856</ele><time>2026-04-26T14:32:44Z</time></trkpt><trkpt lat="43.72127415880967" lon="7.057622768249542"><ele>490.1428571428571</ele><time>2026-04-26T14:32:45Z</time></trkpt><trkpt lat="43.721340979546014" lon="7.057636808414759"><ele>493.7142857142857</ele><time>2026-04-26T14:32:46Z</time></trkpt><trkpt lat="43.721407660230255" lon="7.057634655467667"><ele>497.2857142857143</ele><time>2026-04-26T14:32:47Z</time></trkpt><trkpt lat="43.7214709205948" lon="7.0576325454797395"><ele>500.85714285714283</ele><time>2026-04-26T14:32:48Z</time></trkpt><trkpt lat="43.721536242520926" lon="7.057635415874456"><ele>504.42857142857144</ele><time>2026-04-26T14:32:48.999Z</time></trkpt><trkpt lat="43.721601166416555" lon="7.0576560801702914"><ele>508.0</ele><time>2026-04-26T14:32:49.999Z</time></trkpt><trkpt lat="43.721671578284884" lon="7.057658956072846"><ele>508.00000000000006</ele><time>2026-04-26T14:32:50.999Z</time></trkpt><trkpt lat="43.7217339530052" lon="7.057693283441707"><ele>508.0</ele><time>2026-04-26T14:32:51.999Z</time></trkpt><trkpt lat="43.72180354387536" lon="7.057708988055267"><ele>508.0</ele><time>2026-04-26T14:32:52.999Z</time></trkpt><trkpt lat="43.72187135155102" lon="7.057726738446617"><ele>508.0</ele><time>2026-04-26T14:32:53.999Z</time></trkpt><trkpt lat="43.72198609879325" lon="7.057766427993403"><ele>508.00000000000006</ele><time>2026-04-26T14:32:55.999Z</time></trkpt><trkpt lat="43.72208996739445" lon="7.057792802486584"><ele>508.0</ele><time>2026-04-26T14:32:57.999Z</time></trkpt><trkpt lat="43.72215897907945" lon="7.057807588999931"><ele>513.3333333333334</ele><time>2026-04-26T14:32:58.999Z</time></trkpt><trkpt lat="43.72222903544973" lon="7.057824441019993"><ele>518.6666666666667</ele><time>2026-04-26T14:32:59.999Z</time></trkpt><trkpt lat="43.72230434194824" lon="7.057847925424002"><ele>524.0</ele><time>2026-04-26T14:33:00.999Z</time></trkpt><trkpt lat="43.722382006034856" lon="7.057884447680362"><ele>529.3333333333334</ele><time>2026-04-26T14:33:01.999Z</time></trkpt><trkpt lat="43.72246226042636" lon="7.057921173368709"><ele>534.6666666666666</ele><time>2026-04-26T14:33:02.999Z</time></trkpt><trkpt lat="43.72253650882772" lon="7.057963625936444"><ele>540.0</ele><time>2026-04-26T14:33:03.999Z</time></trkpt><trkpt lat="43.72260815933912" lon="7.058000175941793"><ele>540.0</ele><time>2026-04-26T14:33:04.999Z</time></trkpt><trkpt lat="43.72267091676807" lon="7.058053377998287"><ele>540.0</ele><time>2026-04-26T14:33:05.999Z</time></trkpt><trkpt lat="43.72274017668102" lon="7.05809063125953"><ele>540.0</ele><time>2026-04-26T14:33:06.999Z</time></trkpt><trkpt lat="43.72281360315945" lon="7.058124037043374"><ele>540.0</ele><time>2026-04-26T14:33:07.999Z</time></trkpt><trkpt lat="43.72288150746445" lon="7.058136117466954"><ele>540.0</ele><time>2026-04-26T14:33:08.999Z</time></trkpt><trkpt lat="43.72296944114249" lon="7.058173764492253"><ele>540.0</ele><time>2026-04-26T14:33:10.999Z</time></trkpt><trkpt lat="43.72303036214786" lon="7.05821311311319"><ele>544.1666666666666</ele><time>2026-04-26T14:33:11.999Z</time></trkpt><trkpt lat="43.72310114631595" lon="7.058216001409349"><ele>548.3333333333334</ele><time>2026-04-26T14:33:12.999Z</time></trkpt><trkpt lat="43.723180956914305" lon="7.058204181792523"><ele>552.5</ele><time>2026-04-26T14:33:13.999Z</time></trkpt><trkpt lat="43.72326081023105" lon="7.058206730889723"><ele>556.6666666666667</ele><time>2026-04-26T14:33:14.999Z</time></trkpt><trkpt lat="43.72334219826476" lon="7.058221343316828"><ele>560.8333333333334</ele><time>2026-04-26T14:33:15.999Z</time></trkpt><trkpt lat="43.723429089257166" lon="7.058236946577185"><ele>565.0</ele><time>2026-04-26T14:33:16.999Z</time></trkpt><trkpt lat="43.72352031899648" lon="7.058223638724203"><ele>565.6666666666667</ele><time>2026-04-26T14:33:17.999Z</time></trkpt><trkpt lat="43.72360151463982" lon="7.058212219145344"><ele>566.3333333333334</ele><time>2026-04-26T14:33:18.999Z</time></trkpt><trkpt lat="43.723687783637196" lon="7.058182568257629"><ele>567.0</ele><time>2026-04-26T14:33:19.999Z</time></trkpt><trkpt lat="43.723768410745166" lon="7.058142462340891"><ele>567.6666666666666</ele><time>2026-04-26T14:33:20.999Z</time></trkpt><trkpt lat="43.723844365554875" lon="7.0580946482598454"><ele>568.3333333333333</ele><time>2026-04-26T14:33:21.999Z</time></trkpt><trkpt lat="43.72391681438373" lon="7.058042321546903"><ele>569.0</ele><time>2026-04-26T14:33:22.999Z</time></trkpt><trkpt lat="43.72398875740128" lon="7.0579849761290125"><ele>569.0</ele><time>2026-04-26T14:33:23.999Z</time></trkpt><trkpt lat="43.724062639115054" lon="7.057924695529727"><ele>569.0</ele><time>2026-04-26T14:33:24.999Z</time></trkpt><trkpt lat="43.72414429516459" lon="7.057874307374451"><ele>569.0</ele><time>2026-04-26T14:33:25.999Z</time></trkpt><trkpt lat="43.72421246901066" lon="7.0577978561032495"><ele>569.0</ele><time>2026-04-26T14:33:26.999Z</time></trkpt><trkpt lat="43.72428039180765" lon="7.05772463719347"><ele>569.0</ele><time>2026-04-26T14:33:27.999Z</time></trkpt><trkpt lat="43.724339345079485" lon="7.0576745595901675"><ele>569.0</ele><time>2026-04-26T14:33:28.999Z</time></trkpt><trkpt lat="43.72439967287591" lon="7.057588426463777"><ele>569.0</ele><time>2026-04-26T14:33:30.999Z</time></trkpt><trkpt lat="43.72430630208753" lon="7.057478631370369"><ele>569.0</ele><time>2026-04-26T14:33:32.999Z</time></trkpt><trkpt lat="43.724229711503234" lon="7.057551598076258"><ele>569.0</ele><time>2026-04-26T14:33:33.999Z</time></trkpt><trkpt lat="43.72416653017114" lon="7.057558967136455"><ele>569.0</ele><time>2026-04-26T14:33:34.999Z</time></trkpt><trkpt lat="43.72406457480238" lon="7.057570842952036"><ele>569.0</ele><time>2026-04-26T14:33:36.999Z</time></trkpt><trkpt lat="43.72411140657582" lon="7.057502781938916"><ele>569.0</ele><time>2026-04-26T14:33:39.999Z</time></trkpt><trkpt lat="43.724208452688686" lon="7.057428702575439"><ele>573.0</ele><time>2026-04-26T14:33:41.999Z</time></trkpt><trkpt lat="43.72430401687474" lon="7.057298289633988"><ele>577.0</ele><time>2026-04-26T14:33:43.999Z</time></trkpt><trkpt lat="43.72434920656407" lon="7.057225536734999"><ele>581.0</ele><time>2026-04-26T14:33:44.999Z</time></trkpt><trkpt lat="43.7244109785278" lon="7.057168684312728"><ele>585.0</ele><time>2026-04-26T14:33:45.999Z</time></trkpt><trkpt lat="43.724460792741844" lon="7.0570947024456006"><ele>589.0</ele><time>2026-04-26T14:33:46.999Z</time></trkpt><trkpt lat="43.72450944302111" lon="7.057015625487493"><ele>593.0</ele><time>2026-04-26T14:33:47.999Z</time></trkpt><trkpt lat="43.72454516829369" lon="7.056934292138148"><ele>593.0</ele><time>2026-04-26T14:33:48.999Z</time></trkpt><trkpt lat="43.72460520317989" lon="7.05688797819772"><ele>593.0</ele><time>2026-04-26T14:33:49.999Z</time></trkpt><trkpt lat="43.7247068067856" lon="7.0568138781939505"><ele>593.0</ele><time>2026-04-26T14:33:51.999Z</time></trkpt><trkpt lat="43.72476472532952" lon="7.056751477590111"><ele>593.0</ele><time>2026-04-26T14:33:52.998Z</time></trkpt><trkpt lat="43.72484093120723" lon="7.056703222286135"><ele>593.0</ele><time>2026-04-26T14:33:54Z</time></trkpt><trkpt lat="43.72491012493915" lon="7.056630012460963"><ele>593.0</ele><time>2026-04-26T14:33:55Z</time></trkpt><trkpt lat="43.724987299394904" lon="7.056567940372992"><ele>595.6666666666666</ele><time>2026-04-26T14:33:56Z</time></trkpt><trkpt lat="43.72506183544674" lon="7.0565084889937975"><ele>598.3333333333333</ele><time>2026-04-26T14:33:57Z</time></trkpt><trkpt lat="43.725139130696945" lon="7.056439745031937"><ele>601.0</ele><time>2026-04-26T14:33:58Z</time></trkpt><trkpt lat="43.72521341604189" lon="7.056366030121389"><ele>603.6666666666666</ele><time>2026-04-26T14:33:59Z</time></trkpt><trkpt lat="43.725275134803496" lon="7.056315907075587"><ele>606.3333333333334</ele><time>2026-04-26T14:34:00Z</time></trkpt><trkpt lat="43.72533346123864" lon="7.056278966870066"><ele>609.0</ele><time>2026-04-26T14:34:01Z</time></trkpt><trkpt lat="43.72541377028841" lon="7.056274949057932"><ele>609.0</ele><time>2026-04-26T14:34:02Z</time></trkpt><trkpt lat="43.72547599914974" lon="7.056422455640467"><ele>609.0</ele><time>2026-04-26T14:34:03Z</time></trkpt><trkpt lat="43.72557065064584" lon="7.0563070101858365"><ele>609.0</ele><time>2026-04-26T14:34:08Z</time></trkpt><trkpt lat="43.725650427502885" lon="7.056178344917773"><ele>609.0</ele><time>2026-04-26T14:34:10Z</time></trkpt><trkpt lat="43.72570696665766" lon="7.05611152127314"><ele>609.0</ele><time>2026-04-26T14:34:11Z</time></trkpt><trkpt lat="43.72578465609969" lon="7.056060923541054"><ele>609.0</ele><time>2026-04-26T14:34:12Z</time></trkpt><trkpt lat="43.72585820816955" lon="7.0560168647431025"><ele>609.0</ele><time>2026-04-26T14:34:13Z</time></trkpt><trkpt lat="43.72593568928352" lon="7.05597670790995"><ele>609.0</ele><time>2026-04-26T14:34:14Z</time></trkpt><trkpt lat="43.72601888910475" lon="7.055927592352342"><ele>609.0</ele><time>2026-04-26T14:34:15Z</time></trkpt><trkpt lat="43.72609324951539" lon="7.055862559868218"><ele>609.0</ele><time>2026-04-26T14:34:16Z</time></trkpt><trkpt lat="43.72617264930836" lon="7.055807115158559"><ele>609.0</ele><time>2026-04-26T14:34:17Z</time></trkpt><trkpt lat="43.726261393351066" lon="7.0557512822846835"><ele>611.6</ele><time>2026-04-26T14:34:18Z</time></trkpt><trkpt lat="43.726332672321135" lon="7.055690307247177"><ele>614.2</ele><time>2026-04-26T14:34:19Z</time></trkpt><trkpt lat="43.72641965055452" lon="7.055626713654494"><ele>616.8000000000001</ele><time>2026-04-26T14:34:20Z</time></trkpt><trkpt lat="43.726504996755274" lon="7.055560959237053"><ele>619.4</ele><time>2026-04-26T14:34:21Z</time></trkpt><trkpt lat="43.72658911225813" lon="7.055504415479646"><ele>622.0</ele><time>2026-04-26T14:34:22Z</time></trkpt><trkpt lat="43.726677390189025" lon="7.055472683058295"><ele>622.0</ele><time>2026-04-26T14:34:23Z</time></trkpt><trkpt lat="43.7267560727943" lon="7.055449189968988"><ele>622.0</ele><time>2026-04-26T14:34:24Z</time></trkpt><trkpt lat="43.726834160798596" lon="7.055432968166154"><ele>622.0</ele><time>2026-04-26T14:34:25Z</time></trkpt><trkpt lat="43.72690709497619" lon="7.055409870086491"><ele>622.0</ele><time>2026-04-26T14:34:26Z</time></trkpt><trkpt lat="43.726969343245756" lon="7.055370886003027"><ele>622.0</ele><time>2026-04-26T14:34:27Z</time></trkpt><trkpt lat="43.72704207021782" lon="7.055318792482797"><ele>622.0</ele><time>2026-04-26T14:34:28Z</time></trkpt><trkpt lat="43.72710986119837" lon="7.055270197715401"><ele>621.8000000000001</ele><time>2026-04-26T14:34:29Z</time></trkpt><trkpt lat="43.72716448177574" lon="7.0552224127922525"><ele>621.6</ele><time>2026-04-26T14:34:30Z</time></trkpt><trkpt lat="43.72727078632876" lon="7.05517227377909"><ele>621.4000000000001</ele><time>2026-04-26T14:34:32Z</time></trkpt><trkpt lat="43.72736900898379" lon="7.0552576716332"><ele>621.2</ele><time>2026-04-26T14:34:34Z</time></trkpt><trkpt lat="43.72744263696672" lon="7.055375766892523"><ele>621.0</ele><time>2026-04-26T14:34:36Z</time></trkpt><trkpt lat="43.727530629078814" lon="7.055285140209216"><ele>621.0</ele><time>2026-04-26T14:34:37Z</time></trkpt><trkpt lat="43.72760068128964" lon="7.055232575603863"><ele>621.0</ele><time>2026-04-26T14:34:38Z</time></trkpt><trkpt lat="43.72773068638595" lon="7.055179900206013"><ele>621.0</ele><time>2026-04-26T14:34:40Z</time></trkpt><trkpt lat="43.72780981787736" lon="7.055135115444341"><ele>621.0</ele><time>2026-04-26T14:34:41Z</time></trkpt><trkpt lat="43.727881874575864" lon="7.055112925275807"><ele>621.0</ele><time>2026-04-26T14:34:42Z</time></trkpt><trkpt lat="43.72794970757686" lon="7.055081697980906"><ele>621.0</ele><time>2026-04-26T14:34:43Z</time></trkpt><trkpt lat="43.72803722599599" lon="7.05510548991374"><ele>623.0</ele><time>2026-04-26T14:34:44Z</time></trkpt><trkpt lat="43.72810173882302" lon="7.0550853509967"><ele>625.0</ele><time>2026-04-26T14:34:45Z</time></trkpt><trkpt lat="43.728185671411886" lon="7.055147675778459"><ele>627.0</ele><time>2026-04-26T14:34:47Z</time></trkpt><trkpt lat="43.72814985657335" lon="7.0553263686001"><ele>629.0</ele><time>2026-04-26T14:34:49Z</time></trkpt><trkpt lat="43.728132636395365" lon="7.055424384188591"><ele>631.0</ele><time>2026-04-26T14:34:50Z</time></trkpt><trkpt lat="43.72812070220138" lon="7.055525301089441"><ele>633.0</ele><time>2026-04-26T14:34:51Z</time></trkpt><trkpt lat="43.72811234301404" lon="7.0556317596291125"><ele>633.0</ele><time>2026-04-26T14:34:52Z</time></trkpt><trkpt lat="43.72811331200454" lon="7.05578486063781"><ele>633.0</ele><time>2026-04-26T14:34:54Z</time></trkpt><trkpt lat="43.72818616435944" lon="7.055782552742956"><ele>633.0</ele><time>2026-04-26T14:34:54.999Z</time></trkpt><trkpt lat="43.72823241682208" lon="7.055718579712905"><ele>633.0</ele><time>2026-04-26T14:34:55.999Z</time></trkpt><trkpt lat="43.72829240733328" lon="7.055582632657866"><ele>633.0</ele><time>2026-04-26T14:34:57.999Z</time></trkpt><trkpt lat="43.72840945287617" lon="7.055489652419872"><ele>633.0</ele><time>2026-04-26T14:34:59.999Z</time></trkpt><trkpt lat="43.72847413454372" lon="7.0554186221116755"><ele>633.0</ele><time>2026-04-26T14:35:00.999Z</time></trkpt><trkpt lat="43.72853702217494" lon="7.0553467223969255"><ele>633.0</ele><time>2026-04-26T14:35:01.999Z</time></trkpt><trkpt lat="43.72860367005262" lon="7.055278135077782"><ele>633.0</ele><time>2026-04-26T14:35:02.999Z</time></trkpt><trkpt lat="43.728671921104386" lon="7.055209955281511"><ele>633.0</ele><time>2026-04-26T14:35:03.999Z</time></trkpt><trkpt lat="43.728740852161984" lon="7.055150333886979"><ele>633.0</ele><time>2026-04-26T14:35:04.999Z</time></trkpt><trkpt lat="43.7288168926806" lon="7.055114617835675"><ele>635.8</ele><time>2026-04-26T14:35:05.999Z</time></trkpt><trkpt lat="43.72890019618926" lon="7.055096197609324"><ele>638.5999999999999</ele><time>2026-04-26T14:35:06.999Z</time></trkpt><trkpt lat="43.728989224092274" lon="7.055082842513445"><ele>641.4000000000001</ele><time>2026-04-26T14:35:07.999Z</time></trkpt><trkpt lat="43.729080867211486" lon="7.055073818444284"><ele>644.2</ele><time>2026-04-26T14:35:08.999Z</time></trkpt><trkpt lat="43.72917298976902" lon="7.05506186276963"><ele>647.0</ele><time>2026-04-26T14:35:09.999Z</time></trkpt><trkpt lat="43.72926342809422" lon="7.0550240719564075"><ele>647.0</ele><time>2026-04-26T14:35:10.999Z</time></trkpt><trkpt lat="43.729354572723906" lon="7.0550070961738625"><ele>647.0</ele><time>2026-04-26T14:35:11.999Z</time></trkpt><trkpt lat="43.7294489673826" lon="7.055005088821707"><ele>647.0</ele><time>2026-04-26T14:35:12.999Z</time></trkpt><trkpt lat="43.72954165628591" lon="7.054963206163741"><ele>647.0</ele><time>2026-04-26T14:35:13.999Z</time></trkpt><trkpt lat="43.729632038911596" lon="7.054922346718517"><ele>647.0</ele><time>2026-04-26T14:35:14.999Z</time></trkpt><trkpt lat="43.72971971736457" lon="7.054881700433089"><ele>648.6666666666666</ele><time>2026-04-26T14:35:15.999Z</time></trkpt><trkpt lat="43.729804286421114" lon="7.054841986903049"><ele>650.3333333333333</ele><time>2026-04-26T14:35:16.999Z</time></trkpt><trkpt lat="43.729885558746346" lon="7.054797604677748"><ele>652.0</ele><time>2026-04-26T14:35:17.999Z</time></trkpt><trkpt lat="43.72996131382593" lon="7.0547467223590665"><ele>653.6666666666666</ele><time>2026-04-26T14:35:18.999Z</time></trkpt><trkpt lat="43.73003026370402" lon="7.054700482269503"><ele>655.3333333333334</ele><time>2026-04-26T14:35:19.999Z</time></trkpt><trkpt lat="43.73012084462562" lon="7.054695991540095"><ele>657.0</ele><time>2026-04-26T14:35:21.999Z</time></trkpt><trkpt lat="43.7300880007295" lon="7.0548560140903795"><ele>657.0</ele><time>2026-04-26T14:35:23.999Z</time></trkpt><trkpt lat="43.73003930014264" lon="7.054917369915593"><ele>657.0</ele><time>2026-04-26T14:35:24.999Z</time></trkpt><trkpt lat="43.730018247992106" lon="7.05504237694952"><ele>657.0</ele><time>2026-04-26T14:35:26.999Z</time></trkpt><trkpt lat="43.73009248977627" lon="7.055044058895856"><ele>657.0</ele><time>2026-04-26T14:35:27.999Z</time></trkpt><trkpt lat="43.730143797019416" lon="7.054982644136642"><ele>657.0</ele><time>2026-04-26T14:35:28.999Z</time></trkpt><trkpt lat="43.730228917540785" lon="7.054883882369876"><ele>657.0</ele><time>2026-04-26T14:35:30.999Z</time></trkpt><trkpt lat="43.73032134877692" lon="7.054815913344122"><ele>660.8</ele><time>2026-04-26T14:35:32.999Z</time></trkpt><trkpt lat="43.73041172423787" lon="7.054721037932407"><ele>664.6</ele><time>2026-04-26T14:35:34.999Z</time></trkpt><trkpt lat="43.73051085984457" lon="7.054655971393558"><ele>668.4</ele><time>2026-04-26T14:35:36.999Z</time></trkpt><trkpt lat="43.730620701532715" lon="7.054628418724808"><ele>672.1999999999999</ele><time>2026-04-26T14:35:38.999Z</time></trkpt><trkpt lat="43.730679959138214" lon="7.054578424080719"><ele>676.0</ele><time>2026-04-26T14:35:39.999Z</time></trkpt><trkpt lat="43.73074357504902" lon="7.054570805328562"><ele>676.0</ele><time>2026-04-26T14:35:40.999Z</time></trkpt><trkpt lat="43.73085237548383" lon="7.054484048433777"><ele>676.0</ele><time>2026-04-26T14:35:42.999Z</time></trkpt><trkpt lat="43.73096157869583" lon="7.054393413327608"><ele>676.0</ele><time>2026-04-26T14:35:44.999Z</time></trkpt><trkpt lat="43.73101284013085" lon="7.054327058570151"><ele>676.0</ele><time>2026-04-26T14:35:45.999Z</time></trkpt><trkpt lat="43.7311028322091" lon="7.054203698962648"><ele>682.5999999999999</ele><time>2026-04-26T14:35:47.999Z</time></trkpt><trkpt lat="43.7311888509047" lon="7.0541913039960535"><ele>689.2</ele><time>2026-04-26T14:35:49.999Z</time></trkpt><trkpt lat="43.731167456555674" lon="7.054338265121323"><ele>695.8</ele><time>2026-04-26T14:35:51.999Z</time></trkpt><trkpt lat="43.73111873048643" lon="7.054490927698676"><ele>702.4000000000001</ele><time>2026-04-26T14:35:53.999Z</time></trkpt><trkpt lat="43.7310874832145" lon="7.054579192767802"><ele>709.0</ele><time>2026-04-26T14:35:54.999Z</time></trkpt><trkpt lat="43.73106121801895" lon="7.05467405849672"><ele>706.4285714285714</ele><time>2026-04-26T14:35:55.999Z</time></trkpt><trkpt lat="43.73103471832408" lon="7.054768412938905"><ele>703.8571428571429</ele><time>2026-04-26T14:35:56.999Z</time></trkpt><trkpt lat="43.73100986249542" lon="7.054859703233743"><ele>701.2857142857142</ele><time>2026-04-26T14:35:57.999Z</time></trkpt><trkpt lat="43.73097896280816" lon="7.054948296618378"><ele>698.7142857142858</ele><time>2026-04-26T14:35:59Z</time></trkpt><trkpt lat="43.73095330599438" lon="7.055043050624169"><ele>696.1428571428571</ele><time>2026-04-26T14:36:00Z</time></trkpt><trkpt lat="43.730913367225" lon="7.055130679724982"><ele>693.5714285714286</ele><time>2026-04-26T14:36:01Z</time></trkpt><trkpt lat="43.730876753179004" lon="7.055202395418479"><ele>691.0</ele><time>2026-04-26T14:36:02Z</time></trkpt><trkpt lat="43.73089014056192" lon="7.055313243003607"><ele>691.0</ele><time>2026-04-26T14:36:04Z</time></trkpt><trkpt lat="43.730965327379444" lon="7.0553242623147305"><ele>691.0</ele><time>2026-04-26T14:36:05Z</time></trkpt><trkpt lat="43.73102518867677" lon="7.055244582729815"><ele>691.0</ele><time>2026-04-26T14:36:06Z</time></trkpt><trkpt lat="43.73109300972484" lon="7.055153303631753"><ele>691.0</ele><time>2026-04-26T14:36:08Z</time></trkpt><trkpt lat="43.73116525038682" lon="7.055046100028293"><ele>691.0</ele><time>2026-04-26T14:36:10Z</time></trkpt><trkpt lat="43.73125778070429" lon="7.054938240400285"><ele>694.5999999999999</ele><time>2026-04-26T14:36:12Z</time></trkpt><trkpt lat="43.731308779533485" lon="7.054864983679815"><ele>698.2</ele><time>2026-04-26T14:36:13Z</time></trkpt><trkpt lat="43.731388291865414" lon="7.054768502239816"><ele>701.8</ele><time>2026-04-26T14:36:15Z</time></trkpt><trkpt lat="43.731420590277715" lon="7.054848499879448"><ele>705.4000000000001</ele><time>2026-04-26T14:36:17Z</time></trkpt><trkpt lat="43.731376846021305" lon="7.054966006537853"><ele>709.0</ele><time>2026-04-26T14:36:19Z</time></trkpt><trkpt lat="43.73133314464818" lon="7.055108106236589"><ele>712.1666666666667</ele><time>2026-04-26T14:36:21Z</time></trkpt><trkpt lat="43.731321930814644" lon="7.055194474768229"><ele>715.3333333333334</ele><time>2026-04-26T14:36:22Z</time></trkpt><trkpt lat="43.731298947660406" lon="7.055359219091656"><ele>718.5</ele><time>2026-04-26T14:36:24Z</time></trkpt><trkpt lat="43.731288087150034" lon="7.055447066200183"><ele>721.6666666666666</ele><time>2026-04-26T14:36:25Z</time></trkpt><trkpt lat="43.731267545543474" lon="7.055543601817703"><ele>724.8333333333333</ele><time>2026-04-26T14:36:26Z</time></trkpt><trkpt lat="43.731238817180405" lon="7.055622936746486"><ele>728.0</ele><time>2026-04-26T14:36:27Z</time></trkpt><trkpt lat="43.731194488463444" lon="7.055694449693889"><ele>728.0</ele><time>2026-04-26T14:36:28Z</time></trkpt><trkpt lat="43.73113962895335" lon="7.055775237936135"><ele>728.0</ele><time>2026-04-26T14:36:29Z</time></trkpt><trkpt lat="43.73108222393926" lon="7.0558574626390245"><ele>728.0</ele><time>2026-04-26T14:36:30Z</time></trkpt><trkpt lat="43.73102754583688" lon="7.055938463603137"><ele>728.0</ele><time>2026-04-26T14:36:31Z</time></trkpt><trkpt lat="43.73097865616927" lon="7.056023008183835"><ele>728.0</ele><time>2026-04-26T14:36:32Z</time></trkpt><trkpt lat="43.73092837428475" lon="7.0561021385357865"><ele>728.0</ele><time>2026-04-26T14:36:33Z</time></trkpt><trkpt lat="43.73088000738305" lon="7.056182187240535"><ele>725.2857142857143</ele><time>2026-04-26T14:36:34Z</time></trkpt><trkpt lat="43.7308266691629" lon="7.056259267263315"><ele>722.5714285714286</ele><time>2026-04-26T14:36:35Z</time></trkpt><trkpt lat="43.730768178654344" lon="7.056322474256063"><ele>719.8571428571429</ele><time>2026-04-26T14:36:36Z</time></trkpt><trkpt lat="43.730709607824515" lon="7.056378083478845"><ele>717.1428571428571</ele><time>2026-04-26T14:36:37Z</time></trkpt><trkpt lat="43.73065783471507" lon="7.05642793170658"><ele>714.4285714285714</ele><time>2026-04-26T14:36:38Z</time></trkpt><trkpt lat="43.73059044720956" lon="7.05645974251313"><ele>711.7142857142858</ele><time>2026-04-26T14:36:39Z</time></trkpt><trkpt lat="43.7305254558942" lon="7.056501467797733"><ele>709.0</ele><time>2026-04-26T14:36:40Z</time></trkpt><trkpt lat="43.73046477276711" lon="7.056558119830092"><ele>713.0</ele><time>2026-04-26T14:36:41Z</time></trkpt><trkpt lat="43.73039617133528" lon="7.056625850063961"><ele>717.0</ele><time>2026-04-26T14:36:42Z</time></trkpt><trkpt lat="43.73038024256423" lon="7.056726198140619"><ele>721.0</ele><time>2026-04-26T14:36:43Z</time></trkpt><trkpt lat="43.73037581149453" lon="7.056831603045575"><ele>725.0</ele><time>2026-04-26T14:36:44Z</time></trkpt><trkpt lat="43.73037539600218" lon="7.056936025785115"><ele>729.0</ele><time>2026-04-26T14:36:45Z</time></trkpt><trkpt lat="43.73035716616471" lon="7.0570265969696155"><ele>733.0</ele><time>2026-04-26T14:36:46Z</time></trkpt><trkpt lat="43.7303239785278" lon="7.0571182634938205"><ele>733.0</ele><time>2026-04-26T14:36:47Z</time></trkpt><trkpt lat="43.7302894977177" lon="7.057206522683126"><ele>733.0</ele><time>2026-04-26T14:36:48Z</time></trkpt><trkpt lat="43.73025961517139" lon="7.0573004444334275"><ele>733.0</ele><time>2026-04-26T14:36:49Z</time></trkpt><trkpt lat="43.730240026329" lon="7.057391791093566"><ele>733.0</ele><time>2026-04-26T14:36:50Z</time></trkpt><trkpt lat="43.73028040763101" lon="7.057542462810957"><ele>733.0</ele><time>2026-04-26T14:36:52Z</time></trkpt><trkpt lat="43.73034288778133" lon="7.057560476634531"><ele>733.0</ele><time>2026-04-26T14:36:53Z</time></trkpt><trkpt lat="43.73040963762974" lon="7.057520766306043"><ele>733.0</ele><time>2026-04-26T14:36:54Z</time></trkpt><trkpt lat="43.730458333424224" lon="7.057450675111476"><ele>733.0</ele><time>2026-04-26T14:36:55Z</time></trkpt><trkpt lat="43.73051492783274" lon="7.057404969321359"><ele>733.0</ele><time>2026-04-26T14:36:56Z</time></trkpt><trkpt lat="43.73056980722765" lon="7.057336195196398"><ele>733.0</ele><time>2026-04-26T14:36:57Z</time></trkpt><trkpt lat="43.730616701610074" lon="7.057259722499204"><ele>733.0</ele><time>2026-04-26T14:36:58Z</time></trkpt><trkpt lat="43.73065786826527" lon="7.057179683942714"><ele>733.0</ele><time>2026-04-26T14:36:58.999Z</time></trkpt><trkpt lat="43.730731545666686" lon="7.057069989333604"><ele>733.0</ele><time>2026-04-26T14:37:00.999Z</time></trkpt><trkpt lat="43.730785539313395" lon="7.057136387295107"><ele>733.0</ele><time>2026-04-26T14:37:02.999Z</time></trkpt><trkpt lat="43.73072692432711" lon="7.057281565754755"><ele>733.0</ele><time>2026-04-26T14:37:04.999Z</time></trkpt><trkpt lat="43.73068398978089" lon="7.057351869441979"><ele>733.0</ele><time>2026-04-26T14:37:05.999Z</time></trkpt><trkpt lat="43.7306380914649" lon="7.057431787983415"><ele>733.0</ele><time>2026-04-26T14:37:06.999Z</time></trkpt><trkpt lat="43.730626931993996" lon="7.057571588204326"><ele>733.0</ele><time>2026-04-26T14:37:08.999Z</time></trkpt><trkpt lat="43.73075219001962" lon="7.057568983111372"><ele>733.0</ele><time>2026-04-26T14:37:10.999Z</time></trkpt><trkpt lat="43.730794486994924" lon="7.057479388032005"><ele>733.0</ele><time>2026-04-26T14:37:11.999Z</time></trkpt><trkpt lat="43.730851886812026" lon="7.05744236934202"><ele>733.0</ele><time>2026-04-26T14:37:12.999Z</time></trkpt><trkpt lat="43.7309448307183" lon="7.057330545899506"><ele>733.0</ele><time>2026-04-26T14:37:14.999Z</time></trkpt><trkpt lat="43.73098655349471" lon="7.057248183114641"><ele>733.0</ele><time>2026-04-26T14:37:15.999Z</time></trkpt><trkpt lat="43.731040210846196" lon="7.057181959505008"><ele>733.0</ele><time>2026-04-26T14:37:16.999Z</time></trkpt><trkpt lat="43.73110083187011" lon="7.057131303645622"><ele>737.5714285714286</ele><time>2026-04-26T14:37:17.999Z</time></trkpt><trkpt lat="43.7311446818741" lon="7.057052774474944"><ele>742.1428571428571</ele><time>2026-04-26T14:37:18.999Z</time></trkpt><trkpt lat="43.731187025188184" lon="7.056979882426924"><ele>746.7142857142858</ele><time>2026-04-26T14:37:19.999Z</time></trkpt><trkpt lat="43.73123894030608" lon="7.0569093345052405"><ele>751.2857142857142</ele><time>2026-04-26T14:37:20.999Z</time></trkpt><trkpt lat="43.73128923309355" lon="7.056849301520725"><ele>755.8571428571429</ele><time>2026-04-26T14:37:21.999Z</time></trkpt><trkpt lat="43.73133841571127" lon="7.056788156110143"><ele>760.4285714285714</ele><time>2026-04-26T14:37:22.999Z</time></trkpt><trkpt lat="43.731390873418015" lon="7.056734611594629"><ele>765.0</ele><time>2026-04-26T14:37:23.999Z</time></trkpt><trkpt lat="43.73144859265848" lon="7.056679943877114"><ele>765.0</ele><time>2026-04-26T14:37:24.999Z</time></trkpt><trkpt lat="43.731501385140874" lon="7.056630409118313"><ele>765.0</ele><time>2026-04-26T14:37:25.999Z</time></trkpt><trkpt lat="43.731608941679696" lon="7.056544199834701"><ele>765.0</ele><time>2026-04-26T14:37:27.999Z</time></trkpt><trkpt lat="43.731723691824556" lon="7.056487915364825"><ele>765.0</ele><time>2026-04-26T14:37:29.999Z</time></trkpt><trkpt lat="43.731840895998026" lon="7.056424577393449"><ele>765.0</ele><time>2026-04-26T14:37:31.999Z</time></trkpt><trkpt lat="43.73190606980981" lon="7.056377649082017"><ele>767.8333333333334</ele><time>2026-04-26T14:37:32.999Z</time></trkpt><trkpt lat="43.73196805269272" lon="7.0563213939532"><ele>770.6666666666667</ele><time>2026-04-26T14:37:33.999Z</time></trkpt><trkpt lat="43.73203431343005" lon="7.056271184036412"><ele>773.5</ele><time>2026-04-26T14:37:34.999Z</time></trkpt><trkpt lat="43.732075514079504" lon="7.056177272000787"><ele>776.3333333333334</ele><time>2026-04-26T14:37:35.999Z</time></trkpt><trkpt lat="43.732125163724746" lon="7.05609120973918"><ele>779.1666666666667</ele><time>2026-04-26T14:37:36.999Z</time></trkpt><trkpt lat="43.732169688011616" lon="7.055999768773537"><ele>782.0</ele><time>2026-04-26T14:37:37.999Z</time></trkpt><trkpt lat="43.73221135478153" lon="7.0559004207007945"><ele>782.0000000000001</ele><time>2026-04-26T14:37:38.999Z</time></trkpt><trkpt lat="43.73226802887219" lon="7.055812124163364"><ele>782.0</ele><time>2026-04-26T14:37:39.999Z</time></trkpt><trkpt lat="43.73231250652476" lon="7.055709665669514"><ele>782.0</ele><time>2026-04-26T14:37:40.999Z</time></trkpt><trkpt lat="43.7323597024471" lon="7.055605821019075"><ele>782.0</ele><time>2026-04-26T14:37:41.999Z</time></trkpt><trkpt lat="43.73241412380139" lon="7.0555100016113705"><ele>782.0000000000001</ele><time>2026-04-26T14:37:42.999Z</time></trkpt><trkpt lat="43.73245842607486" lon="7.055408746799409"><ele>782.0</ele><time>2026-04-26T14:37:43.999Z</time></trkpt><trkpt lat="43.73251746450379" lon="7.055335667637742"><ele>783.4285714285713</ele><time>2026-04-26T14:37:44.999Z</time></trkpt><trkpt lat="43.73259076309756" lon="7.055298671873421"><ele>784.8571428571429</ele><time>2026-04-26T14:37:45.999Z</time></trkpt><trkpt lat="43.73265900375198" lon="7.05526227273424"><ele>786.2857142857142</ele><time>2026-04-26T14:37:46.999Z</time></trkpt><trkpt lat="43.73272950187253" lon="7.05524025807638"><ele>787.7142857142857</ele><time>2026-04-26T14:37:47.999Z</time></trkpt><trkpt lat="43.732799076671974" lon="7.055225045114025"><ele>789.1428571428571</ele><time>2026-04-26T14:37:48.999Z</time></trkpt><trkpt lat="43.73286883462769" lon="7.05521054487084"><ele>790.5714285714286</ele><time>2026-04-26T14:37:49.999Z</time></trkpt><trkpt lat="43.73293949459612" lon="7.055179642996692"><ele>792.0</ele><time>2026-04-26T14:37:50.999Z</time></trkpt><trkpt lat="43.73301752714054" lon="7.055177209173544"><ele>792.0</ele><time>2026-04-26T14:37:51.999Z</time></trkpt><trkpt lat="43.733093346217515" lon="7.055179981631583"><ele>792.0</ele><time>2026-04-26T14:37:52.999Z</time></trkpt><trkpt lat="43.73317121632241" lon="7.0551883708661105"><ele>792.0</ele><time>2026-04-26T14:37:53.999Z</time></trkpt><trkpt lat="43.73324992272806" lon="7.055185570518382"><ele>792.0</ele><time>2026-04-26T14:37:54.999Z</time></trkpt><trkpt lat="43.73333079144342" lon="7.055167518519475"><ele>792.0</ele><time>2026-04-26T14:37:55.999Z</time></trkpt><trkpt lat="43.73340358379071" lon="7.055116554454833"><ele>792.0</ele><time>2026-04-26T14:37:56.999Z</time></trkpt><trkpt lat="43.733471815738795" lon="7.055060606250917"><ele>792.0</ele><time>2026-04-26T14:37:57.999Z</time></trkpt><trkpt lat="43.73353435795982" lon="7.055049927514685"><ele>792.0</ele><time>2026-04-26T14:37:58.999Z</time></trkpt><trkpt lat="43.733603623304745" lon="7.0551277777793535"><ele>792.0</ele><time>2026-04-26T14:38:00.999Z</time></trkpt><trkpt lat="43.73360879013969" lon="7.055220227314157"><ele>792.0</ele><time>2026-04-26T14:38:01.999Z</time></trkpt><trkpt lat="43.733623190476685" lon="7.055313564514219"><ele>792.0</ele><time>2026-04-26T14:38:02.998Z</time></trkpt><trkpt lat="43.73364770576802" lon="7.055403195773079"><ele>792.0</ele><time>2026-04-26T14:38:04Z</time></trkpt><trkpt lat="43.73368437317296" lon="7.055481087790769"><ele>792.0</ele><time>2026-04-26T14:38:05Z</time></trkpt><trkpt lat="43.733742959620976" lon="7.0555316108900925"><ele>793.6666666666666</ele><time>2026-04-26T14:38:06Z</time></trkpt><trkpt lat="43.73381291599165" lon="7.055545146562434"><ele>795.3333333333333</ele><time>2026-04-26T14:38:07Z</time></trkpt><trkpt lat="43.73388343698151" lon="7.055512168263868"><ele>797.0</ele><time>2026-04-26T14:38:08Z</time></trkpt><trkpt lat="43.733947023364664" lon="7.055450240576607"><ele>798.6666666666666</ele><time>2026-04-26T14:38:09Z</time></trkpt><trkpt lat="43.73399645425028" lon="7.055359044882306"><ele>800.3333333333333</ele><time>2026-04-26T14:38:10Z</time></trkpt><trkpt lat="43.7340407617194" lon="7.055260491407217"><ele>802.0</ele><time>2026-04-26T14:38:11Z</time></trkpt><trkpt lat="43.73408817914" lon="7.055161062289961"><ele>801.9999999999999</ele><time>2026-04-26T14:38:12Z</time></trkpt><trkpt lat="43.7341340824347" lon="7.055061544325519"><ele>802.0</ele><time>2026-04-26T14:38:13Z</time></trkpt><trkpt lat="43.73418431341337" lon="7.05496196424274"><ele>802.0</ele><time>2026-04-26T14:38:14Z</time></trkpt><trkpt lat="43.73422999763202" lon="7.054874564524516"><ele>802.0</ele><time>2026-04-26T14:38:15Z</time></trkpt><trkpt lat="43.734283452995015" lon="7.054781418428205"><ele>801.9999999999999</ele><time>2026-04-26T14:38:16Z</time></trkpt><trkpt lat="43.73435817420539" lon="7.0547312184148945"><ele>802.0</ele><time>2026-04-26T14:38:17Z</time></trkpt><trkpt lat="43.73441563587368" lon="7.054665504378668"><ele>805.3333333333333</ele><time>2026-04-26T14:38:18Z</time></trkpt><trkpt lat="43.734477809615264" lon="7.054611158061061"><ele>808.6666666666666</ele><time>2026-04-26T14:38:19Z</time></trkpt><trkpt lat="43.734546780610756" lon="7.054573437865006"><ele>812.0</ele><time>2026-04-26T14:38:20Z</time></trkpt><trkpt lat="43.734614174800654" lon="7.054536016119845"><ele>815.3333333333333</ele><time>2026-04-26T14:38:21Z</time></trkpt><trkpt lat="43.734685221889244" lon="7.054499044785899"><ele>818.6666666666666</ele><time>2026-04-26T14:38:22Z</time></trkpt><trkpt lat="43.73478017542502" lon="7.054459165229655"><ele>822.0</ele><time>2026-04-26T14:38:24Z</time></trkpt><trkpt lat="43.7348159814608" lon="7.054642661958826"><ele>822.0</ele><time>2026-04-26T14:38:46Z</time></trkpt><trkpt lat="43.734808035235766" lon="7.05472979823552"><ele>822.0</ele><time>2026-04-26T14:39:05.999Z</time></trkpt><trkpt lat="43.73478890029596" lon="7.054891383039357"><ele>822.0</ele><time>2026-04-26T14:39:07.999Z</time></trkpt><trkpt lat="43.73478345647941" lon="7.054992853432675"><ele>822.0</ele><time>2026-04-26T14:39:08.999Z</time></trkpt><trkpt lat="43.734768850356694" lon="7.055116387345399"><ele>822.0</ele><time>2026-04-26T14:39:09.999Z</time></trkpt><trkpt lat="43.73476241634672" lon="7.055238547375837"><ele>822.0</ele><time>2026-04-26T14:39:10.999Z</time></trkpt><trkpt lat="43.73475461572463" lon="7.055369938578419"><ele>821.6</ele><time>2026-04-26T14:39:11.999Z</time></trkpt><trkpt lat="43.734743047056035" lon="7.055492829394264"><ele>821.2</ele><time>2026-04-26T14:39:12.999Z</time></trkpt><trkpt lat="43.73472481293368" lon="7.055614042409275"><ele>820.8</ele><time>2026-04-26T14:39:13.999Z</time></trkpt><trkpt lat="43.734688028228554" lon="7.055734325465322"><ele>820.4</ele><time>2026-04-26T14:39:14.999Z</time></trkpt><trkpt lat="43.73465368379959" lon="7.055856131752144"><ele>820.0</ele><time>2026-04-26T14:39:15.999Z</time></trkpt><trkpt lat="43.734618432958676" lon="7.055986158971289"><ele>820.8</ele><time>2026-04-26T14:39:16.999Z</time></trkpt><trkpt lat="43.734584511449576" lon="7.056116242317025"><ele>821.6</ele><time>2026-04-26T14:39:17.999Z</time></trkpt><trkpt lat="43.73455458857044" lon="7.05624813858972"><ele>822.4000000000001</ele><time>2026-04-26T14:39:18.999Z</time></trkpt><trkpt lat="43.734521549448715" lon="7.056381417769069"><ele>823.2</ele><time>2026-04-26T14:39:19.999Z</time></trkpt><trkpt lat="43.73448998084386" lon="7.05650355257983"><ele>824.0</ele><time>2026-04-26T14:39:20.999Z</time></trkpt><trkpt lat="43.734468931875625" lon="7.056624333226298"><ele>825.1666666666667</ele><time>2026-04-26T14:39:21.999Z</time></trkpt><trkpt lat="43.734442780867624" lon="7.056739449736493"><ele>826.3333333333334</ele><time>2026-04-26T14:39:22.999Z</time></trkpt><trkpt lat="43.7343965424591" lon="7.056819748650922"><ele>827.5</ele><time>2026-04-26T14:39:23.999Z</time></trkpt><trkpt lat="43.73432045567101" lon="7.056885465134028"><ele>828.6666666666667</ele><time>2026-04-26T14:39:24.999Z</time></trkpt><trkpt lat="43.7342318067494" lon="7.056945305914242"><ele>829.8333333333334</ele><time>2026-04-26T14:39:25.999Z</time></trkpt><trkpt lat="43.734150645116" lon="7.0570065032190366"><ele>831.0</ele><time>2026-04-26T14:39:26.999Z</time></trkpt><trkpt lat="43.73408360675691" lon="7.057103636080615"><ele>829.5999999999999</ele><time>2026-04-26T14:39:27.999Z</time></trkpt><trkpt lat="43.7340229285108" lon="7.057223860991169"><ele>828.2</ele><time>2026-04-26T14:39:28.999Z</time></trkpt><trkpt lat="43.73396248968173" lon="7.057336067985092"><ele>826.8</ele><time>2026-04-26T14:39:29.999Z</time></trkpt><trkpt lat="43.73389934308628" lon="7.057442877931944"><ele>825.4000000000001</ele><time>2026-04-26T14:39:30.999Z</time></trkpt><trkpt lat="43.733837805425" lon="7.057551723458281"><ele>824.0</ele><time>2026-04-26T14:39:31.999Z</time></trkpt><trkpt lat="43.7337785577059" lon="7.057681168549287"><ele>824.0</ele><time>2026-04-26T14:39:32.999Z</time></trkpt><trkpt lat="43.73371491512931" lon="7.05779835614016"><ele>824.0</ele><time>2026-04-26T14:39:33.999Z</time></trkpt><trkpt lat="43.73364370637257" lon="7.05789796474507"><ele>824.0</ele><time>2026-04-26T14:39:34.999Z</time></trkpt><trkpt lat="43.733573152832626" lon="7.057990067450167"><ele>824.0</ele><time>2026-04-26T14:39:35.999Z</time></trkpt><trkpt lat="43.733505726586856" lon="7.058077835548158"><ele>824.0</ele><time>2026-04-26T14:39:36.999Z</time></trkpt><trkpt lat="43.73342999408696" lon="7.058164005317933"><ele>821.2</ele><time>2026-04-26T14:39:37.999Z</time></trkpt><trkpt lat="43.73336186160399" lon="7.058251167959255"><ele>818.4000000000001</ele><time>2026-04-26T14:39:38.999Z</time></trkpt><trkpt lat="43.73329688713811" lon="7.0583497723794215"><ele>815.6</ele><time>2026-04-26T14:39:39.999Z</time></trkpt><trkpt lat="43.73323357953683" lon="7.05844941006801"><ele>812.8</ele><time>2026-04-26T14:39:40.999Z</time></trkpt><trkpt lat="43.73317354620812" lon="7.05854705749039"><ele>810.0</ele><time>2026-04-26T14:39:41.999Z</time></trkpt><trkpt lat="43.73312067113216" lon="7.058640693681424"><ele>810.0</ele><time>2026-04-26T14:39:42.999Z</time></trkpt><trkpt lat="43.7330721252412" lon="7.058742373617938"><ele>810.0</ele><time>2026-04-26T14:39:43.999Z</time></trkpt><trkpt lat="43.73304148464641" lon="7.058860924666501"><ele>810.0</ele><time>2026-04-26T14:39:44.999Z</time></trkpt><trkpt lat="43.733030578500056" lon="7.05897411504507"><ele>810.0</ele><time>2026-04-26T14:39:45.999Z</time></trkpt><trkpt lat="43.73303602652998" lon="7.059098855632943"><ele>810.0</ele><time>2026-04-26T14:39:46.999Z</time></trkpt><trkpt lat="43.73304972114317" lon="7.059222279309157"><ele>810.0</ele><time>2026-04-26T14:39:47.999Z</time></trkpt><trkpt lat="43.73306015206969" lon="7.0593466340520745"><ele>811.6</ele><time>2026-04-26T14:39:48.999Z</time></trkpt><trkpt lat="43.733074298614405" lon="7.059474525995216"><ele>813.2</ele><time>2026-04-26T14:39:49.999Z</time></trkpt><trkpt lat="43.7330893306868" lon="7.059592979907408"><ele>814.8</ele><time>2026-04-26T14:39:50.999Z</time></trkpt><trkpt lat="43.73309928063049" lon="7.059723020582061"><ele>816.4</ele><time>2026-04-26T14:39:51.999Z</time></trkpt><trkpt lat="43.7331025899062" lon="7.0598563536158006"><ele>818.0</ele><time>2026-04-26T14:39:52.999Z</time></trkpt><trkpt lat="43.73310623395337" lon="7.059997192020318"><ele>818.0000000000001</ele><time>2026-04-26T14:39:53.999Z</time></trkpt><trkpt lat="43.73311417481263" lon="7.060135562087479"><ele>818.0</ele><time>2026-04-26T14:39:54.999Z</time></trkpt><trkpt lat="43.73311595660647" lon="7.060254935671172"><ele>818.0</ele><time>2026-04-26T14:39:55.999Z</time></trkpt><trkpt lat="43.73310598001167" lon="7.060358396230483"><ele>818.0</ele><time>2026-04-26T14:39:56.999Z</time></trkpt><trkpt lat="43.733068253327744" lon="7.060466048398166"><ele>818.0000000000001</ele><time>2026-04-26T14:39:57.999Z</time></trkpt><trkpt lat="43.733027323247185" lon="7.060573954799165"><ele>818.0</ele><time>2026-04-26T14:39:58.999Z</time></trkpt><trkpt lat="43.73299656098544" lon="7.060675921564205"><ele>818.3333333333334</ele><time>2026-04-26T14:39:59.999Z</time></trkpt><trkpt lat="43.732963687931466" lon="7.060787204361513"><ele>818.6666666666667</ele><time>2026-04-26T14:40:00.999Z</time></trkpt><trkpt lat="43.732942715392205" lon="7.060913901942017"><ele>819.0</ele><time>2026-04-26T14:40:01.999Z</time></trkpt><trkpt lat="43.73292991766533" lon="7.06101743476327"><ele>819.3333333333333</ele><time>2026-04-26T14:40:02.999Z</time></trkpt><trkpt lat="43.73292822292857" lon="7.061123323580458"><ele>819.6666666666666</ele><time>2026-04-26T14:40:03.999Z</time></trkpt><trkpt lat="43.73294821971855" lon="7.061243787380286"><ele>820.0</ele><time>2026-04-26T14:40:04.999Z</time></trkpt><trkpt lat="43.73297082561591" lon="7.061362151739671"><ele>820.0</ele><time>2026-04-26T14:40:05.999Z</time></trkpt><trkpt lat="43.73300446046144" lon="7.061484046347588"><ele>820.0</ele><time>2026-04-26T14:40:06.999Z</time></trkpt><trkpt lat="43.73305211899887" lon="7.061601532720963"><ele>820.0</ele><time>2026-04-26T14:40:07.998Z</time></trkpt><trkpt lat="43.73308862776055" lon="7.06170515800982"><ele>820.0</ele><time>2026-04-26T14:40:09Z</time></trkpt><trkpt lat="43.7331352984892" lon="7.061824526766081"><ele>820.0</ele><time>2026-04-26T14:40:10Z</time></trkpt><trkpt lat="43.73315598026232" lon="7.061963077963412"><ele>819.6666666666666</ele><time>2026-04-26T14:40:11Z</time></trkpt><trkpt lat="43.73316053851385" lon="7.06210353333672"><ele>819.3333333333333</ele><time>2026-04-26T14:40:12Z</time></trkpt><trkpt lat="43.7331498666636" lon="7.062238553105087"><ele>819.0</ele><time>2026-04-26T14:40:13Z</time></trkpt><trkpt lat="43.73314248003021" lon="7.062364954367521"><ele>818.6666666666667</ele><time>2026-04-26T14:40:14Z</time></trkpt><trkpt lat="43.7331393957551" lon="7.062473301426193"><ele>818.3333333333334</ele><time>2026-04-26T14:40:15Z</time></trkpt><trkpt lat="43.733142690397884" lon="7.062560660888533"><ele>818.0</ele><time>2026-04-26T14:40:17Z</time></trkpt><trkpt lat="43.733157517457464" lon="7.062679875142218"><ele>817.5000000000001</ele><time>2026-04-26T14:40:30Z</time></trkpt><trkpt lat="43.73316131348002" lon="7.062830408492804"><ele>817.0</ele><time>2026-04-26T14:40:32Z</time></trkpt><trkpt lat="43.733158223297714" lon="7.062923008088023"><ele>816.5</ele><time>2026-04-26T14:40:33Z</time></trkpt><trkpt lat="43.733156810832504" lon="7.063019336756842"><ele>816.0</ele><time>2026-04-26T14:40:34Z</time></trkpt><trkpt lat="43.73314988399804" lon="7.0631112857948075"><ele>815.5000000000001</ele><time>2026-04-26T14:40:35Z</time></trkpt><trkpt lat="43.73314646423848" lon="7.06319858350778"><ele>815.0</ele><time>2026-04-26T14:40:36Z</time></trkpt><trkpt lat="43.73315633803747" lon="7.063374739113596"><ele>815.0</ele><time>2026-04-26T14:40:38Z</time></trkpt><trkpt lat="43.73319404641067" lon="7.063523290921093"><ele>815.0</ele><time>2026-04-26T14:40:40Z</time></trkpt><trkpt lat="43.73326174197744" lon="7.063657495633319"><ele>815.0</ele><time>2026-04-26T14:40:42Z</time></trkpt><trkpt lat="43.733295207292485" lon="7.063742898159108"><ele>815.0</ele><time>2026-04-26T14:40:43Z</time></trkpt><trkpt lat="43.73332111887611" lon="7.063844002551675"><ele>815.0</ele><time>2026-04-26T14:40:44Z</time></trkpt><trkpt lat="43.733353487842784" lon="7.063931397324424"><ele>815.0</ele><time>2026-04-26T14:40:45Z</time></trkpt><trkpt lat="43.733419448234066" lon="7.064050601756749"><ele>815.0</ele><time>2026-04-26T14:40:47Z</time></trkpt><trkpt lat="43.73348142509924" lon="7.064175265330382"><ele>815.0</ele><time>2026-04-26T14:40:49Z</time></trkpt><trkpt lat="43.73351889614389" lon="7.064257709885973"><ele>815.0</ele><time>2026-04-26T14:40:50Z</time></trkpt><trkpt lat="43.733559136448186" lon="7.064362779120151"><ele>815.0</ele><time>2026-04-26T14:40:51Z</time></trkpt><trkpt lat="43.73359679054751" lon="7.064486766181689"><ele>818.75</ele><time>2026-04-26T14:40:52Z</time></trkpt><trkpt lat="43.73363615537717" lon="7.0646163108413855"><ele>822.5</ele><time>2026-04-26T14:40:53Z</time></trkpt><trkpt lat="43.733680800517476" lon="7.064758236374777"><ele>826.25</ele><time>2026-04-26T14:40:54Z</time></trkpt><trkpt lat="43.733731512517" lon="7.0649167882283175"><ele>830.0</ele><time>2026-04-26T14:40:55Z</time></trkpt><trkpt lat="43.733773347231384" lon="7.065064717690128"><ele>830.0</ele><time>2026-04-26T14:40:56Z</time></trkpt><trkpt lat="43.73379530702139" lon="7.065204658950935"><ele>830.0</ele><time>2026-04-26T14:40:57Z</time></trkpt><trkpt lat="43.73379462885925" lon="7.065346076351473"><ele>830.0</ele><time>2026-04-26T14:40:58Z</time></trkpt><trkpt lat="43.73377827024912" lon="7.065492276734873"><ele>830.0</ele><time>2026-04-26T14:40:59Z</time></trkpt><trkpt lat="43.73375733447614" lon="7.0656306647110885"><ele>830.0</ele><time>2026-04-26T14:41:00Z</time></trkpt><trkpt lat="43.733744445053965" lon="7.065759570166816"><ele>829.0</ele><time>2026-04-26T14:41:01Z</time></trkpt><trkpt lat="43.73374395898755" lon="7.065888906772728"><ele>828.0</ele><time>2026-04-26T14:41:02Z</time></trkpt><trkpt lat="43.73376066249601" lon="7.066018221771385"><ele>827.0</ele><time>2026-04-26T14:41:03Z</time></trkpt><trkpt lat="43.73378974447998" lon="7.066140375074066"><ele>826.0</ele><time>2026-04-26T14:41:04Z</time></trkpt><trkpt lat="43.73382741301723" lon="7.066252081186872"><ele>825.0</ele><time>2026-04-26T14:41:05Z</time></trkpt><trkpt lat="43.73388041463578" lon="7.066343815116033"><ele>825.0</ele><time>2026-04-26T14:41:06Z</time></trkpt><trkpt lat="43.73393855005988" lon="7.066424466750042"><ele>825.0</ele><time>2026-04-26T14:41:07Z</time></trkpt><trkpt lat="43.73400119065953" lon="7.066496926762755"><ele>825.0</ele><time>2026-04-26T14:41:08Z</time></trkpt><trkpt lat="43.73406529488475" lon="7.066591556525855"><ele>825.0</ele><time>2026-04-26T14:41:08.999Z</time></trkpt><trkpt lat="43.73411293994453" lon="7.066695820882427"><ele>825.0</ele><time>2026-04-26T14:41:09.999Z</time></trkpt><trkpt lat="43.734146204143975" lon="7.0667789643122525"><ele>825.0</ele><time>2026-04-26T14:41:10.999Z</time></trkpt><trkpt lat="43.73418675063397" lon="7.066880192621875"><ele>823.8</ele><time>2026-04-26T14:41:12.999Z</time></trkpt><trkpt lat="43.73425904441452" lon="7.066994052687061"><ele>822.6</ele><time>2026-04-26T14:41:14.999Z</time></trkpt><trkpt lat="43.73430863083812" lon="7.06707627341817"><ele>821.4000000000001</ele><time>2026-04-26T14:41:16.999Z</time></trkpt><trkpt lat="43.73437417349696" lon="7.067165038754553"><ele>820.2</ele><time>2026-04-26T14:41:18.999Z</time></trkpt><trkpt lat="43.73446387728798" lon="7.067226019428909"><ele>819.0</ele><time>2026-04-26T14:41:20.999Z</time></trkpt><trkpt lat="43.73450059019581" lon="7.067355207026478"><ele>822.8000000000001</ele><time>2026-04-26T14:41:23.999Z</time></trkpt><trkpt lat="43.734571981423194" lon="7.067479247985049"><ele>826.6</ele><time>2026-04-26T14:41:25.999Z</time></trkpt><trkpt lat="43.734629221087275" lon="7.06756581106165"><ele>830.4</ele><time>2026-04-26T14:41:27.999Z</time></trkpt><trkpt lat="43.73464185442164" lon="7.067665975042762"><ele>834.2</ele><time>2026-04-26T14:41:29.999Z</time></trkpt><trkpt lat="43.73467541340724" lon="7.067775550597178"><ele>838.0</ele><time>2026-04-26T14:41:31.999Z</time></trkpt><trkpt lat="43.7347193332921" lon="7.067899377492627"><ele>837.9999999999999</ele><time>2026-04-26T14:41:33.999Z</time></trkpt><trkpt lat="43.73475811645228" lon="7.06799531443839"><ele>838.0</ele><time>2026-04-26T14:41:35.999Z</time></trkpt><trkpt lat="43.73481830900683" lon="7.06806953800926"><ele>838.0</ele><time>2026-04-26T14:41:37.999Z</time></trkpt><trkpt lat="43.73489917789548" lon="7.068151330329061"><ele>838.0</ele><time>2026-04-26T14:41:39.999Z</time></trkpt><trkpt lat="43.73497542974771" lon="7.068255697526117"><ele>837.9999999999999</ele><time>2026-04-26T14:41:41.999Z</time></trkpt><trkpt lat="43.73502514805362" lon="7.068318722099117"><ele>838.0</ele><time>2026-04-26T14:41:42.999Z</time></trkpt><trkpt lat="43.735115487904444" lon="7.0684050324411025"><ele>839.3333333333333</ele><time>2026-04-26T14:41:44.999Z</time></trkpt><trkpt lat="43.73520659889875" lon="7.068475151098467"><ele>840.6666666666666</ele><time>2026-04-26T14:41:46.999Z</time></trkpt><trkpt lat="43.73528523029417" lon="7.068536004815018"><ele>842.0</ele><time>2026-04-26T14:41:48.999Z</time></trkpt><trkpt lat="43.7353523078263" lon="7.0685674193286365"><ele>843.3333333333333</ele><time>2026-04-26T14:41:50.999Z</time></trkpt><trkpt lat="43.73539319403823" lon="7.068649306267372"><ele>844.6666666666666</ele><time>2026-04-26T14:41:53.999Z</time></trkpt><trkpt lat="43.735437387837926" lon="7.06873848578777"><ele>846.0</ele><time>2026-04-26T14:41:55.999Z</time></trkpt><trkpt lat="43.73545129175768" lon="7.068848750332139"><ele>846.0</ele><time>2026-04-26T14:41:57.999Z</time></trkpt><trkpt lat="43.73545947133413" lon="7.068937051529485"><ele>846.0</ele><time>2026-04-26T14:41:59.999Z</time></trkpt><trkpt lat="43.7354984503256" lon="7.06903542202642"><ele>846.0</ele><time>2026-04-26T14:42:01.999Z</time></trkpt><trkpt lat="43.735515787643536" lon="7.069145111326859"><ele>846.0</ele><time>2026-04-26T14:42:03.999Z</time></trkpt><trkpt lat="43.73554310066423" lon="7.069232887054819"><ele>846.0</ele><time>2026-04-26T14:42:05.999Z</time></trkpt><trkpt lat="43.73558419575406" lon="7.069352271300157"><ele>846.0</ele><time>2026-04-26T14:42:08.999Z</time></trkpt><trkpt lat="43.73560868558447" lon="7.06946502086047"><ele>842.5999999999999</ele><time>2026-04-26T14:42:10.999Z</time></trkpt><trkpt lat="43.735650713154286" lon="7.069592161076904"><ele>839.2</ele><time>2026-04-26T14:42:12.998Z</time></trkpt><trkpt lat="43.73568201876828" lon="7.069677969207622"><ele>835.8</ele><time>2026-04-26T14:42:15Z</time></trkpt><trkpt lat="43.735762892005916" lon="7.069676985101632"><ele>832.4000000000001</ele><time>2026-04-26T14:42:18Z</time></trkpt><trkpt lat="43.73585534893845" lon="7.069790052021593"><ele>829.0</ele><time>2026-04-26T14:42:21Z</time></trkpt><trkpt lat="43.73595875332049" lon="7.06982021040298"><ele>830.8000000000001</ele><time>2026-04-26T14:42:23Z</time></trkpt><trkpt lat="43.73606248126753" lon="7.06988568255734"><ele>832.6</ele><time>2026-04-26T14:42:25Z</time></trkpt><trkpt lat="43.73615207310046" lon="7.069900586722787"><ele>834.4</ele><time>2026-04-26T14:42:27Z</time></trkpt><trkpt lat="43.736265080113725" lon="7.069920973749876"><ele>836.2</ele><time>2026-04-26T14:42:29Z</time></trkpt><trkpt lat="43.736337710999315" lon="7.069931868803591"><ele>838.0</ele><time>2026-04-26T14:42:31Z</time></trkpt><trkpt lat="43.736425096355774" lon="7.069892559946556"><ele>838.0</ele><time>2026-04-26T14:42:33Z</time></trkpt><trkpt lat="43.736487722479005" lon="7.069919484101665"><ele>838.0</ele><time>2026-04-26T14:42:35Z</time></trkpt><trkpt lat="43.736583082376775" lon="7.0699320193907695"><ele>838.0</ele><time>2026-04-26T14:42:37Z</time></trkpt><trkpt lat="43.736689547198125" lon="7.0699681979748785"><ele>838.0</ele><time>2026-04-26T14:42:39Z</time></trkpt><trkpt lat="43.736777557965645" lon="7.070023452783548"><ele>838.0</ele><time>2026-04-26T14:42:41Z</time></trkpt><trkpt lat="43.73690730175283" lon="7.070071260148841"><ele>835.8333333333333</ele><time>2026-04-26T14:43:22.999Z</time></trkpt><trkpt lat="43.73693821076344" lon="7.07014759877719"><ele>833.6666666666666</ele><time>2026-04-26T14:43:33.999Z</time></trkpt><trkpt lat="43.73697521654608" lon="7.070229980110671"><ele>831.5</ele><time>2026-04-26T14:43:35.999Z</time></trkpt><trkpt lat="43.73703896294779" lon="7.070244191213826"><ele>829.3333333333333</ele><time>2026-04-26T14:43:37.999Z</time></trkpt><trkpt lat="43.73713484721488" lon="7.070254752829634"><ele>827.1666666666666</ele><time>2026-04-26T14:43:40.999Z</time></trkpt><trkpt lat="43.737228061119964" lon="7.070229235296114"><ele>825.0</ele><time>2026-04-26T14:43:42.999Z</time></trkpt><trkpt lat="43.73733402331003" lon="7.070218758353832"><ele>825.0</ele><time>2026-04-26T14:43:44.999Z</time></trkpt><trkpt lat="43.73739935273324" lon="7.07021015101612"><ele>825.0</ele><time>2026-04-26T14:43:45.999Z</time></trkpt><trkpt lat="43.73746933559416" lon="7.070185605089432"><ele>825.0</ele><time>2026-04-26T14:43:46.999Z</time></trkpt><trkpt lat="43.737580226597444" lon="7.0701582279347726"><ele>825.0</ele><time>2026-04-26T14:43:48.999Z</time></trkpt><trkpt lat="43.73764566954061" lon="7.070204136378596"><ele>825.0</ele><time>2026-04-26T14:43:49.999Z</time></trkpt><trkpt lat="43.7377229518293" lon="7.070263193791007"><ele>825.0</ele><time>2026-04-26T14:43:50.999Z</time></trkpt><trkpt lat="43.737799078849456" lon="7.070309381868573"><ele>824.8333333333334</ele><time>2026-04-26T14:43:51.999Z</time></trkpt><trkpt lat="43.73789372034678" lon="7.070343911867246"><ele>824.6666666666667</ele><time>2026-04-26T14:43:52.999Z</time></trkpt><trkpt lat="43.73795615795002" lon="7.070372332210117"><ele>824.5</ele><time>2026-04-26T14:43:53.999Z</time></trkpt><trkpt lat="43.7380351709932" lon="7.070431498408352"><ele>824.3333333333334</ele><time>2026-04-26T14:43:55.999Z</time></trkpt><trkpt lat="43.73810621374127" lon="7.070458299562492"><ele>824.1666666666667</ele><time>2026-04-26T14:43:57.999Z</time></trkpt><trkpt lat="43.7381945533844" lon="7.070483047160707"><ele>824.0</ele><time>2026-04-26T14:44:00.999Z</time></trkpt><trkpt lat="43.73827086370582" lon="7.070499535758549"><ele>824.0000000000001</ele><time>2026-04-26T14:44:13.999Z</time></trkpt><trkpt lat="43.73834498550907" lon="7.070499333401347"><ele>824.0</ele><time>2026-04-26T14:44:15.999Z</time></trkpt><trkpt lat="43.738436008999805" lon="7.0704866454499"><ele>824.0</ele><time>2026-04-26T14:44:17.998Z</time></trkpt><trkpt lat="43.73852080294459" lon="7.070475437013458"><ele>824.0</ele><time>2026-04-26T14:44:19.998Z</time></trkpt><trkpt lat="43.738614056060605" lon="7.0704655183818605"><ele>824.0000000000001</ele><time>2026-04-26T14:44:22Z</time></trkpt><trkpt lat="43.73870237825696" lon="7.070455396362875"><ele>824.0</ele><time>2026-04-26T14:44:24Z</time></trkpt><trkpt lat="43.73876485546194" lon="7.0705392736237425"><ele>823.8000000000001</ele><time>2026-04-26T14:44:26Z</time></trkpt><trkpt lat="43.7388432364369" lon="7.070605592022502"><ele>823.6</ele><time>2026-04-26T14:44:28Z</time></trkpt><trkpt lat="43.73893769192949" lon="7.070608613645658"><ele>823.4</ele><time>2026-04-26T14:44:30Z</time></trkpt><trkpt lat="43.7390432547623" lon="7.070639906765172"><ele>823.2</ele><time>2026-04-26T14:44:32Z</time></trkpt><trkpt lat="43.739129092218334" lon="7.070683463122483"><ele>823.0</ele><time>2026-04-26T14:44:34Z</time></trkpt><trkpt lat="43.73921485641966" lon="7.0706759669299535"><ele>822.9999999999999</ele><time>2026-04-26T14:44:36Z</time></trkpt><trkpt lat="43.73931738165933" lon="7.070677948727037"><ele>823.0</ele><time>2026-04-26T14:44:39Z</time></trkpt><trkpt lat="43.739384014795824" lon="7.070670390123373"><ele>823.0</ele><time>2026-04-26T14:44:51Z</time></trkpt><trkpt lat="43.73945490378132" lon="7.070685001812304"><ele>823.0</ele><time>2026-04-26T14:44:53Z</time></trkpt><trkpt lat="43.73954801622541" lon="7.070725430409345"><ele>822.9999999999999</ele><time>2026-04-26T14:44:55Z</time></trkpt><trkpt lat="43.73962394327251" lon="7.070764821989543"><ele>823.0</ele><time>2026-04-26T14:44:56Z</time></trkpt><trkpt lat="43.739717731587994" lon="7.070788765459292"><ele>821.9999999999999</ele><time>2026-04-26T14:44:57Z</time></trkpt><trkpt lat="43.739824241801934" lon="7.0707765530858735"><ele>821.0</ele><time>2026-04-26T14:44:58Z</time></trkpt><trkpt lat="43.73990860837318" lon="7.070764947199478"><ele>820.0</ele><time>2026-04-26T14:44:59Z</time></trkpt><trkpt lat="43.739986101444714" lon="7.070729131754974"><ele>819.0</ele><time>2026-04-26T14:45:00Z</time></trkpt><trkpt lat="43.74005606117749" lon="7.070681923073673"><ele>817.9999999999999</ele><time>2026-04-26T14:45:01Z</time></trkpt><trkpt lat="43.74012047388177" lon="7.070655661902012"><ele>817.0</ele><time>2026-04-26T14:45:02Z</time></trkpt><trkpt lat="43.74020902513691" lon="7.0705718588368125"><ele>814.7142857142857</ele><time>2026-04-26T14:45:04Z</time></trkpt><trkpt lat="43.74028262864593" lon="7.0705863226108585"><ele>812.4285714285714</ele><time>2026-04-26T14:45:07Z</time></trkpt><trkpt lat="43.74035030505443" lon="7.070578033618625"><ele>810.1428571428571</ele><time>2026-04-26T14:45:09Z</time></trkpt><trkpt lat="43.74041508726381" lon="7.070552617493638"><ele>807.8571428571429</ele><time>2026-04-26T14:45:16Z</time></trkpt><trkpt lat="43.74048827823896" lon="7.0705099489460785"><ele>805.5714285714286</ele><time>2026-04-26T14:45:21.999Z</time></trkpt><trkpt lat="43.740547159396996" lon="7.070449300576441"><ele>803.2857142857142</ele><time>2026-04-26T14:45:23.999Z</time></trkpt><trkpt lat="43.74060049078311" lon="7.07038009702706"><ele>801.0</ele><time>2026-04-26T14:45:26.999Z</time></trkpt><trkpt lat="43.74064382593199" lon="7.070311833590119"><ele>801.0</ele><time>2026-04-26T14:45:29.999Z</time></trkpt><trkpt lat="43.74069086612698" lon="7.070219614031446"><ele>801.0</ele><time>2026-04-26T14:45:31.999Z</time></trkpt><trkpt lat="43.740757589014905" lon="7.070119544253864"><ele>801.0</ele><time>2026-04-26T14:45:34.999Z</time></trkpt><trkpt lat="43.740842634654946" lon="7.070055718033899"><ele>801.0</ele><time>2026-04-26T14:45:36.999Z</time></trkpt><trkpt lat="43.74090519347757" lon="7.070001994264151"><ele>801.0</ele><time>2026-04-26T14:45:37.999Z</time></trkpt><trkpt lat="43.74096020859356" lon="7.069946054194608"><ele>801.0</ele><time>2026-04-26T14:45:38.999Z</time></trkpt><trkpt lat="43.74103485000551" lon="7.069855591894178"><ele>800.0</ele><time>2026-04-26T14:45:40.999Z</time></trkpt><trkpt lat="43.74110160873569" lon="7.069779628146785"><ele>799.0</ele><time>2026-04-26T14:45:42.999Z</time></trkpt><trkpt lat="43.74118206029934" lon="7.069686971923096"><ele>798.0</ele><time>2026-04-26T14:45:44.999Z</time></trkpt><trkpt lat="43.74124972890868" lon="7.069599310555001"><ele>797.0</ele><time>2026-04-26T14:45:46.999Z</time></trkpt><trkpt lat="43.74132071755343" lon="7.069507018091289"><ele>796.0</ele><time>2026-04-26T14:45:48.999Z</time></trkpt><trkpt lat="43.74139817858433" lon="7.069427540336959"><ele>795.9999999999999</ele><time>2026-04-26T14:45:50.999Z</time></trkpt><trkpt lat="43.741486780877175" lon="7.069385615741963"><ele>796.0</ele><time>2026-04-26T14:45:52.999Z</time></trkpt><trkpt lat="43.74154971435045" lon="7.069403036913917"><ele>796.0</ele><time>2026-04-26T14:45:54.999Z</time></trkpt><trkpt lat="43.741623185734284" lon="7.069370291591004"><ele>796.0</ele><time>2026-04-26T14:45:56.999Z</time></trkpt><trkpt lat="43.741696973681606" lon="7.069293003236332"><ele>795.9999999999999</ele><time>2026-04-26T14:45:58.999Z</time></trkpt><trkpt lat="43.74176099414501" lon="7.0691955235402695"><ele>796.0</ele><time>2026-04-26T14:46:00.999Z</time></trkpt><trkpt lat="43.741839405009905" lon="7.06908669739289"><ele>794.1666666666666</ele><time>2026-04-26T14:46:02.999Z</time></trkpt><trkpt lat="43.74189004902932" lon="7.069016045791509"><ele>792.3333333333333</ele><time>2026-04-26T14:46:04.999Z</time></trkpt><trkpt lat="43.74194160508855" lon="7.068945836374335"><ele>790.5</ele><time>2026-04-26T14:46:08.999Z</time></trkpt><trkpt lat="43.74196766760538" lon="7.068835998325047"><ele>788.6666666666667</ele><time>2026-04-26T14:46:11.999Z</time></trkpt><trkpt lat="43.74200725504283" lon="7.068743797993032"><ele>786.8333333333334</ele><time>2026-04-26T14:46:13.999Z</time></trkpt><trkpt lat="43.74204501540963" lon="7.068662665039946"><ele>785.0</ele><time>2026-04-26T14:46:15.999Z</time></trkpt><trkpt lat="43.74208873688075" lon="7.068576187989276"><ele>785.0</ele><time>2026-04-26T14:46:20.998Z</time></trkpt><trkpt lat="43.74211825345763" lon="7.068492182013406"><ele>785.0</ele><time>2026-04-26T14:46:22.998Z</time></trkpt><trkpt lat="43.74212037521559" lon="7.068397033385975"><ele>785.0</ele><time>2026-04-26T14:46:35Z</time></trkpt><trkpt lat="43.7421220609967" lon="7.06829976070465"><ele>785.0</ele><time>2026-04-26T14:46:46Z</time></trkpt><trkpt lat="43.74213807589677" lon="7.068206140878631"><ele>785.0</ele><time>2026-04-26T14:47:05Z</time></trkpt><trkpt lat="43.74217124104536" lon="7.06812858238476"><ele>785.0</ele><time>2026-04-26T14:47:07Z</time></trkpt><trkpt lat="43.74221944041647" lon="7.0680156085209065"><ele>785.0</ele><time>2026-04-26T14:47:10Z</time></trkpt><trkpt lat="43.74226907245861" lon="7.067935277582209"><ele>785.0000000000001</ele><time>2026-04-26T14:47:15Z</time></trkpt><trkpt lat="43.74229317002593" lon="7.067833141230876"><ele>785.0</ele><time>2026-04-26T14:47:18Z</time></trkpt><trkpt lat="43.74230570642322" lon="7.067737796273847"><ele>785.0</ele><time>2026-04-26T14:47:20Z</time></trkpt><trkpt lat="43.74231955744578" lon="7.067627918093445"><ele>785.0</ele><time>2026-04-26T14:47:22Z</time></trkpt><trkpt lat="43.74232281471106" lon="7.067522831611438"><ele>785.0000000000001</ele><time>2026-04-26T14:47:24Z</time></trkpt><trkpt lat="43.742327903116646" lon="7.067430991059779"><ele>785.0</ele><time>2026-04-26T14:47:26Z</time></trkpt><trkpt lat="43.74231959575284" lon="7.0672837808526525"><ele>785.0000000000001</ele><time>2026-04-26T14:47:28Z</time></trkpt><trkpt lat="43.74229132877675" lon="7.067117908671986"><ele>785.0</ele><time>2026-04-26T14:47:29.999Z</time></trkpt><trkpt lat="43.742270315663326" lon="7.066958120848787"><ele>785.0</ele><time>2026-04-26T14:47:31.999Z</time></trkpt><trkpt lat="43.742246965737536" lon="7.066874726557289"><ele>785.0</ele><time>2026-04-26T14:47:33.999Z</time></trkpt><trkpt lat="43.74222992301331" lon="7.066787463370608"><ele>785.0000000000001</ele><time>2026-04-26T14:47:35.999Z</time></trkpt><trkpt lat="43.74219492583481" lon="7.0667091333069045"><ele>785.0</ele><time>2026-04-26T14:47:37.999Z</time></trkpt><trkpt lat="43.74214435202745" lon="7.066587413900849"><ele>785.8333333333334</ele><time>2026-04-26T14:47:39.999Z</time></trkpt><trkpt lat="43.74216285405068" lon="7.066433029067201"><ele>786.6666666666667</ele><time>2026-04-26T14:47:41.999Z</time></trkpt><trkpt lat="43.74216949968032" lon="7.066338106310037"><ele>787.5</ele><time>2026-04-26T14:47:42.999Z</time></trkpt><trkpt lat="43.74216149479399" lon="7.066224495567381"><ele>788.3333333333333</ele><time>2026-04-26T14:47:44.999Z</time></trkpt><trkpt lat="43.74214338650114" lon="7.06609529325877"><ele>789.1666666666666</ele><time>2026-04-26T14:47:46.999Z</time></trkpt><trkpt lat="43.74212605780693" lon="7.065974687802474"><ele>790.0</ele><time>2026-04-26T14:47:48.999Z</time></trkpt><trkpt lat="43.74214768719181" lon="7.065833492045065"><ele>792.3333333333333</ele><time>2026-04-26T14:47:50.999Z</time></trkpt><trkpt lat="43.74215573495979" lon="7.0656841534972274"><ele>794.6666666666666</ele><time>2026-04-26T14:47:52.999Z</time></trkpt><trkpt lat="43.74217064513238" lon="7.0655683063075365"><ele>797.0</ele><time>2026-04-26T14:47:54.999Z</time></trkpt><trkpt lat="43.742163100137816" lon="7.065467620366144"><ele>799.3333333333333</ele><time>2026-04-26T14:47:56.999Z</time></trkpt><trkpt lat="43.74216728797219" lon="7.065379708275909"><ele>801.6666666666666</ele><time>2026-04-26T14:47:58.999Z</time></trkpt><trkpt lat="43.7421521381825" lon="7.065277615303066"><ele>804.0</ele><time>2026-04-26T14:48:05.999Z</time></trkpt><trkpt lat="43.74215370207494" lon="7.065182809998329"><ele>804.0</ele><time>2026-04-26T14:48:09.999Z</time></trkpt><trkpt lat="43.74215136754444" lon="7.065079147095253"><ele>804.0</ele><time>2026-04-26T14:48:14.999Z</time></trkpt><trkpt lat="43.74214692581099" lon="7.064964014221477"><ele>804.0</ele><time>2026-04-26T14:48:18.999Z</time></trkpt><trkpt lat="43.742154300206415" lon="7.064863702479965"><ele>804.0</ele><time>2026-04-26T14:48:28.999Z</time></trkpt><trkpt lat="43.7421507622308" lon="7.064746189024739"><ele>804.0</ele><time>2026-04-26T14:48:32Z</time></trkpt><trkpt lat="43.74214818354867" lon="7.064615806646452"><ele>804.0</ele><time>2026-04-26T14:48:34Z</time></trkpt><trkpt lat="43.74213763143309" lon="7.064503485417634"><ele>806.5</ele><time>2026-04-26T14:48:36Z</time></trkpt><trkpt lat="43.742120867159926" lon="7.06435689023945"><ele>809.0</ele><time>2026-04-26T14:48:38Z</time></trkpt><trkpt lat="43.74208459999793" lon="7.0642297635800935"><ele>811.5</ele><time>2026-04-26T14:48:40Z</time></trkpt><trkpt lat="43.74207942142932" lon="7.064141985804142"><ele>814.0</ele><time>2026-04-26T14:48:42Z</time></trkpt><trkpt lat="43.74206058836507" lon="7.064046889688581"><ele>816.5</ele><time>2026-04-26T14:48:45Z</time></trkpt><trkpt lat="43.74202184863939" lon="7.063928536684097"><ele>819.0</ele><time>2026-04-26T14:48:49Z</time></trkpt><trkpt lat="43.742007032698304" lon="7.063840897360674"><ele>822.1666666666666</ele><time>2026-04-26T14:52:30.999Z</time></trkpt><trkpt lat="43.74197071382563" lon="7.063732031455943"><ele>825.3333333333333</ele><time>2026-04-26T14:52:34.999Z</time></trkpt><trkpt lat="43.74193673844012" lon="7.063636104031507"><ele>828.5</ele><time>2026-04-26T14:52:37.998Z</time></trkpt><trkpt lat="43.74190381225267" lon="7.063560355423628"><ele>831.6666666666666</ele><time>2026-04-26T14:52:46Z</time></trkpt><trkpt lat="43.74188881889141" lon="7.063462669110985"><ele>834.8333333333333</ele><time>2026-04-26T14:53:49.999Z</time></trkpt><trkpt lat="43.74188302112942" lon="7.063347884747133"><ele>838.0</ele><time>2026-04-26T14:54:10.999Z</time></trkpt><trkpt lat="43.7418967803533" lon="7.063252992474931"><ele>841.1666666666666</ele><time>2026-04-26T14:54:16.999Z</time></trkpt><trkpt lat="43.74190858576016" lon="7.06316111166406"><ele>844.3333333333333</ele><time>2026-04-26T14:55:46Z</time></trkpt><trkpt lat="43.741915548287935" lon="7.06303121352347"><ele>847.5</ele><time>2026-04-26T14:55:49Z</time></trkpt><trkpt lat="43.74190436337031" lon="7.062921315153234"><ele>850.6666666666667</ele><time>2026-04-26T14:55:50.999Z</time></trkpt><trkpt lat="43.741896021247356" lon="7.06281261963271"><ele>853.8333333333334</ele><time>2026-04-26T14:55:52.999Z</time></trkpt><trkpt lat="43.741910850744105" lon="7.0627277063677"><ele>857.0</ele><time>2026-04-26T14:55:57.999Z</time></trkpt><trkpt lat="43.74190165535786" lon="7.062630018415087"><ele>857.0</ele><time>2026-04-26T14:56:01.999Z</time></trkpt><trkpt lat="43.7418996004985" lon="7.062490258574257"><ele>857.0</ele><time>2026-04-26T14:56:03.999Z</time></trkpt><trkpt lat="43.7418971198117" lon="7.06240011736101"><ele>857.0</ele><time>2026-04-26T14:56:04.999Z</time></trkpt><trkpt lat="43.74188407539857" lon="7.062312471970439"><ele>857.0</ele><time>2026-04-26T14:56:05.999Z</time></trkpt><trkpt lat="43.74184532517556" lon="7.062131162358405"><ele>857.0</ele><time>2026-04-26T14:56:07.999Z</time></trkpt><trkpt lat="43.74181072397684" lon="7.062024147476735"><ele>857.4000000000001</ele><time>2026-04-26T14:56:08.999Z</time></trkpt><trkpt lat="43.74179785998933" lon="7.061863383695287"><ele>857.8000000000001</ele><time>2026-04-26T14:56:10.999Z</time></trkpt><trkpt lat="43.74179851585137" lon="7.061698506386887"><ele>858.2</ele><time>2026-04-26T14:56:12.999Z</time></trkpt><trkpt lat="43.741785697417434" lon="7.061594348171038"><ele>858.6</ele><time>2026-04-26T14:56:13.999Z</time></trkpt><trkpt lat="43.74179257943782" lon="7.0614860819022685"><ele>859.0</ele><time>2026-04-26T14:56:14.999Z</time></trkpt><trkpt lat="43.74179257267525" lon="7.061384805434784"><ele>860.1666666666666</ele><time>2026-04-26T14:56:15.999Z</time></trkpt><trkpt lat="43.741796120926686" lon="7.061290390976922"><ele>861.3333333333333</ele><time>2026-04-26T14:56:16.999Z</time></trkpt><trkpt lat="43.741827586908975" lon="7.061150601850631"><ele>862.5</ele><time>2026-04-26T14:56:18.999Z</time></trkpt><trkpt lat="43.7418609308212" lon="7.061015831394656"><ele>863.6666666666667</ele><time>2026-04-26T14:56:20.999Z</time></trkpt><trkpt lat="43.741901558961686" lon="7.060917946767376"><ele>864.8333333333334</ele><time>2026-04-26T14:56:22.999Z</time></trkpt><trkpt lat="43.74191309352743" lon="7.060808762920789"><ele>866.0</ele><time>2026-04-26T14:56:25.999Z</time></trkpt><trkpt lat="43.74192167483625" lon="7.060716919223713"><ele>868.8333333333334</ele><time>2026-04-26T14:56:30.999Z</time></trkpt><trkpt lat="43.74193164351652" lon="7.060619644515011"><ele>871.6666666666667</ele><time>2026-04-26T14:56:34.999Z</time></trkpt><trkpt lat="43.74191891645877" lon="7.060521372683451"><ele>874.5</ele><time>2026-04-26T14:56:43.999Z</time></trkpt><trkpt lat="43.74192420522108" lon="7.060414172340714"><ele>877.3333333333333</ele><time>2026-04-26T14:57:48Z</time></trkpt><trkpt lat="43.741924939026596" lon="7.060319654679764"><ele>880.1666666666666</ele><time>2026-04-26T14:57:58.999Z</time></trkpt><trkpt lat="43.741918875303504" lon="7.060200262495152"><ele>883.0</ele><time>2026-04-26T14:58:01.999Z</time></trkpt><trkpt lat="43.74190801392839" lon="7.06008928475547"><ele>882.9999999999999</ele><time>2026-04-26T14:58:03.999Z</time></trkpt><trkpt lat="43.7418949630329" lon="7.059986496456081"><ele>883.0</ele><time>2026-04-26T14:58:05.999Z</time></trkpt><trkpt lat="43.74190509179752" lon="7.059859535280734"><ele>883.0</ele><time>2026-04-26T14:58:08.999Z</time></trkpt><trkpt lat="43.74190267955894" lon="7.059746238761953"><ele>883.0</ele><time>2026-04-26T14:58:10.999Z</time></trkpt><trkpt lat="43.741892640504055" lon="7.059637658199075"><ele>882.9999999999999</ele><time>2026-04-26T14:58:13.999Z</time></trkpt><trkpt lat="43.741902423088874" lon="7.059501998538655"><ele>883.0</ele><time>2026-04-26T14:58:15.999Z</time></trkpt><trkpt lat="43.7419331640777" lon="7.059361958786881"><ele>883.4999999999999</ele><time>2026-04-26T14:58:17.999Z</time></trkpt><trkpt lat="43.74196526684148" lon="7.059283763507063"><ele>884.0</ele><time>2026-04-26T14:58:18.999Z</time></trkpt><trkpt lat="43.74198863975275" lon="7.059178935646236"><ele>884.5</ele><time>2026-04-26T14:58:19.999Z</time></trkpt><trkpt lat="43.741997112651745" lon="7.059085794171901"><ele>885.0</ele><time>2026-04-26T14:58:20.999Z</time></trkpt><trkpt lat="43.74200180832415" lon="7.058975543151621"><ele>885.4999999999999</ele><time>2026-04-26T14:58:22.999Z</time></trkpt><trkpt lat="43.742071974663965" lon="7.058891341883956"><ele>886.0</ele><time>2026-04-26T14:58:39.999Z</time></trkpt><trkpt lat="43.74215163595753" lon="7.058922858674112"><ele>886.0</ele><time>2026-04-26T14:58:42.999Z</time></trkpt><trkpt lat="43.74218493512257" lon="7.059000338629651"><ele>886.0</ele><time>2026-04-26T14:59:01Z</time></trkpt><trkpt lat="43.74223287350644" lon="7.059078130962578"><ele>886.0</ele><time>2026-04-26T14:59:07Z</time></trkpt><trkpt lat="43.7422913739278" lon="7.059150296848862"><ele>886.0</ele><time>2026-04-26T14:59:10Z</time></trkpt><trkpt lat="43.742334039005144" lon="7.059239209581999"><ele>886.0</ele><time>2026-04-26T14:59:19Z</time></trkpt><trkpt lat="43.74235535584669" lon="7.059323711736615"><ele>886.0</ele><time>2026-04-26T14:59:31Z</time></trkpt><trkpt lat="43.74235261829405" lon="7.059414811566106"><ele>886.0</ele><time>2026-04-26T14:59:33Z</time></trkpt><trkpt lat="43.74239541572576" lon="7.0595091105558705"><ele>886.0</ele><time>2026-04-26T14:59:40Z</time></trkpt><trkpt lat="43.74242877442096" lon="7.059593901954088"><ele>886.0</ele><time>2026-04-26T14:59:43Z</time></trkpt><trkpt lat="43.7425059920136" lon="7.059655714175291"><ele>886.0</ele><time>2026-04-26T14:59:51Z</time></trkpt><trkpt lat="43.742569514129706" lon="7.059671195041964"><ele>886.0</ele><time>2026-04-26T15:00:02.999Z</time></trkpt><trkpt lat="43.74257469163773" lon="7.059765202401365"><ele>886.0</ele><time>2026-04-26T15:14:58.999Z</time></trkpt><trkpt lat="43.74259820159709" lon="7.059859282715871"><ele>886.0</ele><time>2026-04-26T15:15:07.999Z</time></trkpt><trkpt lat="43.74262184226819" lon="7.059944764614643"><ele>886.0</ele><time>2026-04-26T15:15:10.999Z</time></trkpt><trkpt lat="43.74266285789103" lon="7.060021492857907"><ele>885.4999999999999</ele><time>2026-04-26T15:15:14.999Z</time></trkpt><trkpt lat="43.74271233244175" lon="7.0600835286194705"><ele>885.0</ele><time>2026-04-26T15:15:19.999Z</time></trkpt><trkpt lat="43.74276764798442" lon="7.060131541601921"><ele>884.5</ele><time>2026-04-26T15:15:32.999Z</time></trkpt><trkpt lat="43.742839076400486" lon="7.060152369331837"><ele>884.0</ele><time>2026-04-26T15:15:38.999Z</time></trkpt><trkpt lat="43.74287460743183" lon="7.060244084240721"><ele>883.4999999999999</ele><time>2026-04-26T15:15:43.998Z</time></trkpt><trkpt lat="43.74292980071217" lon="7.060173908224626"><ele>883.0</ele><time>2026-04-26T15:15:51Z</time></trkpt><trkpt lat="43.74315118654738" lon="7.060147698166401"><ele>887.3333333333333</ele><time>2026-04-26T15:16:04Z</time></trkpt><trkpt lat="43.7432554523925" lon="7.060161061482794"><ele>891.6666666666666</ele><time>2026-04-26T15:16:09Z</time></trkpt><trkpt lat="43.74326382976538" lon="7.060285077713865"><ele>896.0</ele><time>2026-04-26T15:16:13Z</time></trkpt><trkpt lat="43.743258018559956" lon="7.0603905478277715"><ele>900.3333333333333</ele><time>2026-04-26T15:16:18Z</time></trkpt><trkpt lat="43.74329418296249" lon="7.060474025574904"><ele>904.6666666666666</ele><time>2026-04-26T15:16:20Z</time></trkpt><trkpt lat="43.74332711891029" lon="7.060565169084259"><ele>909.0</ele><time>2026-04-26T15:16:22Z</time></trkpt><trkpt lat="43.74331867394261" lon="7.060673841666358"><ele>909.0</ele><time>2026-04-26T15:16:24Z</time></trkpt><trkpt lat="43.74333048684367" lon="7.060771420337272"><ele>909.0</ele><time>2026-04-26T15:16:26Z</time></trkpt><trkpt lat="43.74332094670674" lon="7.060862724598353"><ele>909.0</ele><time>2026-04-26T15:16:28Z</time></trkpt><trkpt lat="43.74331650252788" lon="7.060961452763206"><ele>909.0</ele><time>2026-04-26T15:16:30Z</time></trkpt><trkpt lat="43.74329023289938" lon="7.061080046770871"><ele>909.0</ele><time>2026-04-26T15:16:32Z</time></trkpt><trkpt lat="43.74328725926269" lon="7.0611972455403"><ele>909.0</ele><time>2026-04-26T15:16:34Z</time></trkpt><trkpt lat="43.74334816191515" lon="7.06125366160519"><ele>909.3333333333334</ele><time>2026-04-26T15:16:36Z</time></trkpt><trkpt lat="43.743371299708784" lon="7.0613451861691905"><ele>909.6666666666667</ele><time>2026-04-26T15:16:39Z</time></trkpt><trkpt lat="43.74337090101689" lon="7.061471240422544"><ele>910.0</ele><time>2026-04-26T15:16:42Z</time></trkpt><trkpt lat="43.743386423099295" lon="7.061566753619915"><ele>910.3333333333334</ele><time>2026-04-26T15:16:44Z</time></trkpt><trkpt lat="43.743403577120084" lon="7.061691098959901"><ele>910.6666666666667</ele><time>2026-04-26T15:16:47Z</time></trkpt><trkpt lat="43.74345932710059" lon="7.061799413587753"><ele>911.0</ele><time>2026-04-26T15:16:49Z</time></trkpt><trkpt lat="43.74351569871121" lon="7.061863943405634"><ele>911.0</ele><time>2026-04-26T15:16:51.999Z</time></trkpt><trkpt lat="43.743554480996444" lon="7.061950289468621"><ele>910.9999999999999</ele><time>2026-04-26T15:16:54.999Z</time></trkpt><trkpt lat="43.74361311012971" lon="7.062020237529045"><ele>910.9999999999999</ele><time>2026-04-26T15:16:57.999Z</time></trkpt><trkpt lat="43.7436903015479" lon="7.062061513545805"><ele>911.0</ele><time>2026-04-26T15:16:59.999Z</time></trkpt><trkpt lat="43.74383962074939" lon="7.061935733377877"><ele>911.0</ele><time>2026-04-26T15:17:03.999Z</time></trkpt><trkpt lat="43.74386091488433" lon="7.061846791187629"><ele>911.0000000000001</ele><time>2026-04-26T15:17:04.999Z</time></trkpt><trkpt lat="43.74388413270006" lon="7.061753988771347"><ele>911.0</ele><time>2026-04-26T15:17:05.999Z</time></trkpt><trkpt lat="43.743914695202676" lon="7.061677510458361"><ele>911.0</ele><time>2026-04-26T15:17:06.999Z</time></trkpt><trkpt lat="43.743949416275164" lon="7.061526379602207"><ele>911.0</ele><time>2026-04-26T15:17:08.999Z</time></trkpt><trkpt lat="43.74396739342274" lon="7.061441343298021"><ele>911.0000000000001</ele><time>2026-04-26T15:17:09.999Z</time></trkpt><trkpt lat="43.74400007605563" lon="7.06127854543396"><ele>911.0</ele><time>2026-04-26T15:17:11.999Z</time></trkpt><trkpt lat="43.744016894889" lon="7.061119588515816"><ele>911.4</ele><time>2026-04-26T15:17:13.999Z</time></trkpt><trkpt lat="43.7440469876772" lon="7.060971544357023"><ele>911.8</ele><time>2026-04-26T15:17:15.999Z</time></trkpt><trkpt lat="43.744060066763595" lon="7.060791863196801"><ele>912.1999999999999</ele><time>2026-04-26T15:17:17.999Z</time></trkpt><trkpt lat="43.74406268654317" lon="7.060679372276383"><ele>912.5999999999999</ele><time>2026-04-26T15:17:18.999Z</time></trkpt><trkpt lat="43.74407349231081" lon="7.060564022085795"><ele>913.0</ele><time>2026-04-26T15:17:19.999Z</time></trkpt><trkpt lat="43.74409500355064" lon="7.06044814407744"><ele>912.9999999999999</ele><time>2026-04-26T15:17:20.999Z</time></trkpt><trkpt lat="43.74411927939192" lon="7.060342423789685"><ele>913.0</ele><time>2026-04-26T15:17:21.999Z</time></trkpt><trkpt lat="43.74413818454095" lon="7.0602493562752295"><ele>913.0</ele><time>2026-04-26T15:17:22.999Z</time></trkpt><trkpt lat="43.744135503026065" lon="7.0601548366428855"><ele>913.0</ele><time>2026-04-26T15:17:23.999Z</time></trkpt><trkpt lat="43.744131281055196" lon="7.060067331626977"><ele>912.9999999999999</ele><time>2026-04-26T15:17:24.999Z</time></trkpt><trkpt lat="43.74411476032384" lon="7.059932013942965"><ele>913.0</ele><time>2026-04-26T15:17:26.999Z</time></trkpt><trkpt lat="43.74410604491178" lon="7.059788831806897"><ele>913.4</ele><time>2026-04-26T15:17:28.999Z</time></trkpt><trkpt lat="43.74411186879187" lon="7.059618482346113"><ele>913.8</ele><time>2026-04-26T15:17:30.999Z</time></trkpt><trkpt lat="43.74412907108848" lon="7.059529075478927"><ele>914.2</ele><time>2026-04-26T15:17:31.999Z</time></trkpt><trkpt lat="43.74414542360704" lon="7.059439726941958"><ele>914.6</ele><time>2026-04-26T15:17:32.999Z</time></trkpt><trkpt lat="43.74416459648315" lon="7.05934506157619"><ele>915.0</ele><time>2026-04-26T15:17:33.999Z</time></trkpt><trkpt lat="43.744148491589115" lon="7.059164512011356"><ele>916.4</ele><time>2026-04-26T15:17:35.999Z</time></trkpt><trkpt lat="43.744164831276464" lon="7.05900944566866"><ele>917.8</ele><time>2026-04-26T15:17:37.999Z</time></trkpt><trkpt lat="43.74418308268731" lon="7.058922278349305"><ele>919.2</ele><time>2026-04-26T15:17:38.999Z</time></trkpt><trkpt lat="43.74420303311776" lon="7.0588195544256"><ele>920.6</ele><time>2026-04-26T15:17:39.999Z</time></trkpt><trkpt lat="43.744233764383864" lon="7.058667319423324"><ele>922.0</ele><time>2026-04-26T15:17:41.999Z</time></trkpt><trkpt lat="43.744269612176744" lon="7.058530314414825"><ele>922.0</ele><time>2026-04-26T15:17:43.999Z</time></trkpt><trkpt lat="43.744331621780766" lon="7.058419368279452"><ele>922.0</ele><time>2026-04-26T15:17:45.999Z</time></trkpt><trkpt lat="43.74442095568515" lon="7.058342018027791"><ele>922.0</ele><time>2026-04-26T15:17:47.999Z</time></trkpt><trkpt lat="43.74452680557194" lon="7.058322865225714"><ele>922.0</ele><time>2026-04-26T15:17:49.999Z</time></trkpt><trkpt lat="43.74460568578211" lon="7.058354628836493"><ele>922.0</ele><time>2026-04-26T15:17:51.999Z</time></trkpt><trkpt lat="43.74470762907097" lon="7.058447844669305"><ele>922.8</ele><time>2026-04-26T15:17:53.998Z</time></trkpt><trkpt lat="43.74479668418465" lon="7.058530292732255"><ele>923.6</ele><time>2026-04-26T15:17:56Z</time></trkpt><trkpt lat="43.744903725115925" lon="7.058550336182586"><ele>924.3999999999999</ele><time>2026-04-26T15:17:58Z</time></trkpt><trkpt lat="43.745026382593025" lon="7.058584115101382"><ele>925.1999999999999</ele><time>2026-04-26T15:18:00Z</time></trkpt><trkpt lat="43.74512243497542" lon="7.058621318084117"><ele>926.0</ele><time>2026-04-26T15:18:02Z</time></trkpt><trkpt lat="43.74530846114252" lon="7.058609495291556"><ele>927.0000000000001</ele><time>2026-04-26T15:18:07Z</time></trkpt><trkpt lat="43.745406722081825" lon="7.0585448592869"><ele>928.0</ele><time>2026-04-26T15:18:09Z</time></trkpt><trkpt lat="43.74546172980625" lon="7.058444187380905"><ele>929.0</ele><time>2026-04-26T15:18:11Z</time></trkpt><trkpt lat="43.74552299203546" lon="7.058346941717558"><ele>930.0</ele><time>2026-04-26T15:18:13Z</time></trkpt><trkpt lat="43.74555485170108" lon="7.0582566333730785"><ele>931.0000000000001</ele><time>2026-04-26T15:18:15Z</time></trkpt><trkpt lat="43.745610166670076" lon="7.058175697494713"><ele>932.0</ele><time>2026-04-26T15:18:17Z</time></trkpt><trkpt lat="43.745702512290585" lon="7.058102506699711"><ele>932.5000000000001</ele><time>2026-04-26T15:18:19Z</time></trkpt><trkpt lat="43.74577001942996" lon="7.058075413635465"><ele>933.0</ele><time>2026-04-26T15:18:20Z</time></trkpt><trkpt lat="43.745834550023105" lon="7.058056776123856"><ele>933.5</ele><time>2026-04-26T15:18:21Z</time></trkpt><trkpt lat="43.74592615291627" lon="7.0581068149080695"><ele>934.0</ele><time>2026-04-26T15:18:23Z</time></trkpt><trkpt lat="43.74596920683442" lon="7.0581734197220145"><ele>934.5000000000001</ele><time>2026-04-26T15:18:24Z</time></trkpt><trkpt lat="43.7460284698993" lon="7.058231595536997"><ele>935.0</ele><time>2026-04-26T15:18:25Z</time></trkpt><trkpt lat="43.74609985800074" lon="7.058284824970095"><ele>935.0000000000001</ele><time>2026-04-26T15:18:26Z</time></trkpt><trkpt lat="43.746164037224375" lon="7.058350104756762"><ele>935.0</ele><time>2026-04-26T15:18:27Z</time></trkpt><trkpt lat="43.74622177292555" lon="7.058388291384273"><ele>935.0000000000001</ele><time>2026-04-26T15:18:28Z</time></trkpt><trkpt lat="43.74628737274021" lon="7.058387262622686"><ele>935.0000000000001</ele><time>2026-04-26T15:18:29Z</time></trkpt><trkpt lat="43.74636851174581" lon="7.058351602798623"><ele>935.0</ele><time>2026-04-26T15:18:30Z</time></trkpt><trkpt lat="43.74644136309759" lon="7.058318518952867"><ele>935.0000000000001</ele><time>2026-04-26T15:18:31Z</time></trkpt><trkpt lat="43.74651111209188" lon="7.058320677482372"><ele>935.0000000000001</ele><time>2026-04-26T15:18:32Z</time></trkpt><trkpt lat="43.74660035804102" lon="7.058434245352217"><ele>935.0000000000001</ele><time>2026-04-26T15:18:34Z</time></trkpt><trkpt lat="43.746705032282264" lon="7.058519370656286"><ele>935.0</ele><time>2026-04-26T15:18:36Z</time></trkpt><trkpt lat="43.74676505525411" lon="7.058558559257662"><ele>935.0</ele><time>2026-04-26T15:18:37Z</time></trkpt><trkpt lat="43.746876274442805" lon="7.058570420201103"><ele>935.0</ele><time>2026-04-26T15:18:39Z</time></trkpt><trkpt lat="43.74694586099808" lon="7.058564528600143"><ele>935.0000000000001</ele><time>2026-04-26T15:18:40Z</time></trkpt><trkpt lat="43.74700088620469" lon="7.058607769174699"><ele>935.0</ele><time>2026-04-26T15:18:41Z</time></trkpt><trkpt lat="43.74705255406649" lon="7.058713117691761"><ele>936.0000000000001</ele><time>2026-04-26T15:18:42Z</time></trkpt><trkpt lat="43.74709274053372" lon="7.05880678026298"><ele>937.0</ele><time>2026-04-26T15:18:43Z</time></trkpt><trkpt lat="43.7472057966784" lon="7.058853323177064"><ele>938.0</ele><time>2026-04-26T15:18:45Z</time></trkpt><trkpt lat="43.74727336094144" lon="7.058884891249842"><ele>939.0</ele><time>2026-04-26T15:18:46Z</time></trkpt><trkpt lat="43.74733761316299" lon="7.058941712075489"><ele>940.0000000000001</ele><time>2026-04-26T15:18:47Z</time></trkpt><trkpt lat="43.747385413401624" lon="7.05900357374218"><ele>941.0</ele><time>2026-04-26T15:18:48Z</time></trkpt><trkpt lat="43.747461314615244" lon="7.059115422183634"><ele>941.0000000000001</ele><time>2026-04-26T15:18:50Z</time></trkpt><trkpt lat="43.74751819994308" lon="7.05915581957958"><ele>941.0</ele><time>2026-04-26T15:18:51Z</time></trkpt><trkpt lat="43.74762248940292" lon="7.059137004090298"><ele>941.0</ele><time>2026-04-26T15:18:53Z</time></trkpt><trkpt lat="43.747700854054195" lon="7.059027070644566"><ele>941.0</ele><time>2026-04-26T15:18:55Z</time></trkpt><trkpt lat="43.747758138694124" lon="7.058971103521431"><ele>941.0000000000001</ele><time>2026-04-26T15:18:56Z</time></trkpt><trkpt lat="43.747809885794666" lon="7.058920554835398"><ele>941.0</ele><time>2026-04-26T15:18:57Z</time></trkpt><trkpt lat="43.74786873241277" lon="7.058865280129994"><ele>942.0</ele><time>2026-04-26T15:18:57.999Z</time></trkpt><trkpt lat="43.74793317649214" lon="7.058752705484844"><ele>942.9999999999999</ele><time>2026-04-26T15:18:59.999Z</time></trkpt><trkpt lat="43.74797645091522" lon="7.058632199564198"><ele>943.9999999999999</ele><time>2026-04-26T15:19:01.999Z</time></trkpt><trkpt lat="43.74801947867009" lon="7.0585319114030485"><ele>945.0</ele><time>2026-04-26T15:19:03.999Z</time></trkpt><trkpt lat="43.748084722122705" lon="7.05845602084827"><ele>946.0</ele><time>2026-04-26T15:19:05.999Z</time></trkpt><trkpt lat="43.74814782694813" lon="7.0583642249842935"><ele>945.9999999999999</ele><time>2026-04-26T15:19:07.999Z</time></trkpt><trkpt lat="43.74826396184314" lon="7.058336393425651"><ele>946.0</ele><time>2026-04-26T15:19:09.999Z</time></trkpt><trkpt lat="43.74837652224691" lon="7.058305241396568"><ele>946.0</ele><time>2026-04-26T15:19:11.999Z</time></trkpt><trkpt lat="43.74843803443378" lon="7.058259015913864"><ele>946.0</ele><time>2026-04-26T15:19:12.999Z</time></trkpt><trkpt lat="43.748510719718325" lon="7.058232520203351"><ele>945.9999999999999</ele><time>2026-04-26T15:19:13.999Z</time></trkpt><trkpt lat="43.74857390101536" lon="7.05824019869437"><ele>946.0</ele><time>2026-04-26T15:19:14.999Z</time></trkpt><trkpt lat="43.74863526967839" lon="7.0582696252626205"><ele>947.8333333333333</ele><time>2026-04-26T15:19:15.999Z</time></trkpt><trkpt lat="43.74870757969385" lon="7.058289721433755"><ele>949.6666666666666</ele><time>2026-04-26T15:19:16.999Z</time></trkpt><trkpt lat="43.74877552999227" lon="7.058307725846998"><ele>951.5</ele><time>2026-04-26T15:19:17.999Z</time></trkpt><trkpt lat="43.74884132892422" lon="7.058319218407972"><ele>953.3333333333333</ele><time>2026-04-26T15:19:18.999Z</time></trkpt><trkpt lat="43.74895079957802" lon="7.058310809569461"><ele>955.1666666666666</ele><time>2026-04-26T15:19:20.999Z</time></trkpt><trkpt lat="43.74904697086856" lon="7.058258940764857"><ele>957.0</ele><time>2026-04-26T15:19:22.999Z</time></trkpt><trkpt lat="43.74912362715631" lon="7.058228705562411"><ele>958.0</ele><time>2026-04-26T15:19:24.999Z</time></trkpt><trkpt lat="43.74919526840678" lon="7.058162882583104"><ele>959.0</ele><time>2026-04-26T15:19:26.999Z</time></trkpt><trkpt lat="43.749283604341194" lon="7.058028299297963"><ele>960.0</ele><time>2026-04-26T15:19:28.999Z</time></trkpt><trkpt lat="43.74933638959794" lon="7.057951584791924"><ele>961.0</ele><time>2026-04-26T15:19:29.999Z</time></trkpt><trkpt lat="43.749393407104165" lon="7.057821945321848"><ele>962.0</ele><time>2026-04-26T15:19:31.999Z</time></trkpt><trkpt lat="43.749475163524686" lon="7.057683738711613"><ele>963.0</ele><time>2026-04-26T15:19:33.999Z</time></trkpt><trkpt lat="43.74952479569452" lon="7.057591046868387"><ele>964.0</ele><time>2026-04-26T15:19:34.999Z</time></trkpt><trkpt lat="43.74957910974942" lon="7.057485037677966"><ele>965.0</ele><time>2026-04-26T15:19:35.999Z</time></trkpt><trkpt lat="43.74963552095723" lon="7.057373569700684"><ele>966.0</ele><time>2026-04-26T15:19:36.999Z</time></trkpt><trkpt lat="43.74968893341822" lon="7.0572680272385435"><ele>967.0</ele><time>2026-04-26T15:19:37.999Z</time></trkpt><trkpt lat="43.749739760486065" lon="7.057171798065854"><ele>967.4999999999999</ele><time>2026-04-26T15:19:38.999Z</time></trkpt><trkpt lat="43.74978402922471" lon="7.057088144733858"><ele>968.0</ele><time>2026-04-26T15:19:39.999Z</time></trkpt><trkpt lat="43.7498387635155" lon="7.056992062461582"><ele>968.5</ele><time>2026-04-26T15:19:40.999Z</time></trkpt><trkpt lat="43.74988773959388" lon="7.056910955189495"><ele>969.0</ele><time>2026-04-26T15:19:41.999Z</time></trkpt><trkpt lat="43.74995691208198" lon="7.056818829828413"><ele>969.4999999999999</ele><time>2026-04-26T15:19:43.999Z</time></trkpt><trkpt lat="43.75006715383298" lon="7.056796541487581"><ele>970.0</ele><time>2026-04-26T15:19:45.999Z</time></trkpt><trkpt lat="43.75019925528317" lon="7.056767580748913"><ele>970.1666666666666</ele><time>2026-04-26T15:19:47.999Z</time></trkpt><trkpt lat="43.75026674668075" lon="7.056696679392968"><ele>970.3333333333333</ele><time>2026-04-26T15:19:48.999Z</time></trkpt><trkpt lat="43.75032931314122" lon="7.056631938376745"><ele>970.5</ele><time>2026-04-26T15:19:49.999Z</time></trkpt><trkpt lat="43.75038049325775" lon="7.056569490850752"><ele>970.6666666666667</ele><time>2026-04-26T15:19:50.999Z</time></trkpt><trkpt lat="43.75042886690546" lon="7.056493134712703"><ele>970.8333333333334</ele><time>2026-04-26T15:19:51.999Z</time></trkpt><trkpt lat="43.750445172041694" lon="7.05640118275971"><ele>971.0</ele><time>2026-04-26T15:19:52.999Z</time></trkpt><trkpt lat="43.7504905085729" lon="7.056268836899406"><ele>971.0</ele><time>2026-04-26T15:19:54.999Z</time></trkpt><trkpt lat="43.750579502459296" lon="7.05617160450249"><ele>970.9999999999999</ele><time>2026-04-26T15:19:56.999Z</time></trkpt><trkpt lat="43.75064690674705" lon="7.056114977661106"><ele>970.9999999999999</ele><time>2026-04-26T15:19:57.999Z</time></trkpt><trkpt lat="43.75071679294331" lon="7.056045243375924"><ele>971.0</ele><time>2026-04-26T15:19:58.999Z</time></trkpt><trkpt lat="43.750798103900905" lon="7.055962080137137"><ele>971.0</ele><time>2026-04-26T15:19:59.999Z</time></trkpt><trkpt lat="43.75088410690592" lon="7.055874117992477"><ele>971.0000000000001</ele><time>2026-04-26T15:20:01Z</time></trkpt><trkpt lat="43.75096606610109" lon="7.055793500199782"><ele>971.0</ele><time>2026-04-26T15:20:02Z</time></trkpt><trkpt lat="43.75104407564571" lon="7.0557246110932175"><ele>971.0</ele><time>2026-04-26T15:20:03Z</time></trkpt><trkpt lat="43.751122523482564" lon="7.055667183147441"><ele>971.0</ele><time>2026-04-26T15:20:04Z</time></trkpt><trkpt lat="43.751197965043104" lon="7.055617352972327"><ele>971.0000000000001</ele><time>2026-04-26T15:20:05Z</time></trkpt><trkpt lat="43.75126915659025" lon="7.055579905843076"><ele>971.0</ele><time>2026-04-26T15:20:06Z</time></trkpt><trkpt lat="43.75134002060729" lon="7.055539520793023"><ele>970.1666666666667</ele><time>2026-04-26T15:20:07Z</time></trkpt><trkpt lat="43.751389521674014" lon="7.055456142102153"><ele>969.3333333333334</ele><time>2026-04-26T15:20:08Z</time></trkpt><trkpt lat="43.75145143395852" lon="7.055391439168015"><ele>968.5</ele><time>2026-04-26T15:20:09Z</time></trkpt><trkpt lat="43.751506396805226" lon="7.055303672630715"><ele>967.6666666666667</ele><time>2026-04-26T15:20:10Z</time></trkpt><trkpt lat="43.75156618035645" lon="7.055208655463163"><ele>966.8333333333334</ele><time>2026-04-26T15:20:11Z</time></trkpt><trkpt lat="43.75162331192392" lon="7.055117717421233"><ele>966.0</ele><time>2026-04-26T15:20:12Z</time></trkpt><trkpt lat="43.751690114134895" lon="7.0550234764279605"><ele>966.1999999999999</ele><time>2026-04-26T15:20:13Z</time></trkpt><trkpt lat="43.751762521616406" lon="7.054916954804225"><ele>966.3999999999999</ele><time>2026-04-26T15:20:14Z</time></trkpt><trkpt lat="43.751853280984506" lon="7.05480219071814"><ele>966.6</ele><time>2026-04-26T15:20:15Z</time></trkpt><trkpt lat="43.751941190648836" lon="7.054719043867191"><ele>966.8</ele><time>2026-04-26T15:20:16Z</time></trkpt><trkpt lat="43.75204073096306" lon="7.0546577420441"><ele>967.0</ele><time>2026-04-26T15:20:17Z</time></trkpt><trkpt lat="43.75213778676842" lon="7.054597862143288"><ele>966.9999999999999</ele><time>2026-04-26T15:20:18Z</time></trkpt><trkpt lat="43.75221335492895" lon="7.05453828275348"><ele>967.0</ele><time>2026-04-26T15:20:19Z</time></trkpt><trkpt lat="43.75227833756948" lon="7.054481501014635"><ele>967.0</ele><time>2026-04-26T15:20:20Z</time></trkpt><trkpt lat="43.75233190744676" lon="7.054425563936991"><ele>967.0</ele><time>2026-04-26T15:20:21Z</time></trkpt><trkpt lat="43.75238552999346" lon="7.054373326969057"><ele>966.9999999999999</ele><time>2026-04-26T15:20:22Z</time></trkpt><trkpt lat="43.752444846113605" lon="7.054304152095964"><ele>967.0</ele><time>2026-04-26T15:20:23Z</time></trkpt><trkpt lat="43.75250050863929" lon="7.054224050697263"><ele>966.9999999999999</ele><time>2026-04-26T15:20:24Z</time></trkpt><trkpt lat="43.75255765829462" lon="7.054150036795636"><ele>967.0</ele><time>2026-04-26T15:20:25Z</time></trkpt><trkpt lat="43.75262013699494" lon="7.054084864753421"><ele>967.0</ele><time>2026-04-26T15:20:26Z</time></trkpt><trkpt lat="43.752685597766714" lon="7.053957386962897"><ele>967.0</ele><time>2026-04-26T15:20:28Z</time></trkpt><trkpt lat="43.752702002623" lon="7.05386986205587"><ele>966.9999999999999</ele><time>2026-04-26T15:20:29Z</time></trkpt><trkpt lat="43.75271335688362" lon="7.053779805649434"><ele>967.0</ele><time>2026-04-26T15:20:30Z</time></trkpt><trkpt lat="43.7527303229787" lon="7.0536926303975855"><ele>967.1666666666666</ele><time>2026-04-26T15:20:31Z</time></trkpt><trkpt lat="43.7527722109288" lon="7.053611810582627"><ele>967.3333333333333</ele><time>2026-04-26T15:20:32Z</time></trkpt><trkpt lat="43.752832861250674" lon="7.053560234829038"><ele>967.5</ele><time>2026-04-26T15:20:33Z</time></trkpt><trkpt lat="43.75287431006334" lon="7.053427435349075"><ele>967.6666666666667</ele><time>2026-04-26T15:20:35Z</time></trkpt><trkpt lat="43.752900244714105" lon="7.053327911255048"><ele>967.8333333333334</ele><time>2026-04-26T15:20:36Z</time></trkpt><trkpt lat="43.75291565420165" lon="7.053219406856662"><ele>968.0</ele><time>2026-04-26T15:20:37Z</time></trkpt><trkpt lat="43.75293052351294" lon="7.053131618492824"><ele>968.5999999999999</ele><time>2026-04-26T15:20:38Z</time></trkpt><trkpt lat="43.75298273564271" lon="7.053005893488456"><ele>969.1999999999999</ele><time>2026-04-26T15:20:40Z</time></trkpt><trkpt lat="43.7530325966607" lon="7.0529438362433945"><ele>969.8</ele><time>2026-04-26T15:20:41Z</time></trkpt><trkpt lat="43.75308989455714" lon="7.052854976831567"><ele>970.4</ele><time>2026-04-26T15:20:42Z</time></trkpt><trkpt lat="43.75315519824661" lon="7.052755344887526"><ele>971.0</ele><time>2026-04-26T15:20:43Z</time></trkpt><trkpt lat="43.753226209581534" lon="7.052647004969084"><ele>971.0</ele><time>2026-04-26T15:20:44Z</time></trkpt><trkpt lat="43.75330163056555" lon="7.052534389720484"><ele>971.0</ele><time>2026-04-26T15:20:45Z</time></trkpt><trkpt lat="43.75338522813651" lon="7.0524107621366525"><ele>971.0</ele><time>2026-04-26T15:20:46Z</time></trkpt><trkpt lat="43.75347281674905" lon="7.052281233797135"><ele>971.0</ele><time>2026-04-26T15:20:47Z</time></trkpt><trkpt lat="43.75354771963748" lon="7.052166779420177"><ele>971.1999999999999</ele><time>2026-04-26T15:20:48Z</time></trkpt><trkpt lat="43.75361307964169" lon="7.0520589309071156"><ele>971.3999999999999</ele><time>2026-04-26T15:20:49Z</time></trkpt><trkpt lat="43.75367811288411" lon="7.0519442263760705"><ele>971.6</ele><time>2026-04-26T15:20:50Z</time></trkpt><trkpt lat="43.75374081400552" lon="7.051825881195457"><ele>971.8</ele><time>2026-04-26T15:20:51Z</time></trkpt><trkpt lat="43.75379770784544" lon="7.051711733837532"><ele>972.0</ele><time>2026-04-26T15:20:52Z</time></trkpt><trkpt lat="43.753850001101775" lon="7.051614022354752"><ele>972.1666666666666</ele><time>2026-04-26T15:20:53Z</time></trkpt><trkpt lat="43.75390703483232" lon="7.051520664607697"><ele>972.3333333333333</ele><time>2026-04-26T15:20:54Z</time></trkpt><trkpt lat="43.75396687011857" lon="7.051462395304181"><ele>972.5</ele><time>2026-04-26T15:20:55Z</time></trkpt><trkpt lat="43.75403846974111" lon="7.051416761683725"><ele>972.6666666666666</ele><time>2026-04-26T15:20:56Z</time></trkpt><trkpt lat="43.75412208878231" lon="7.0514053651226245"><ele>972.8333333333333</ele><time>2026-04-26T15:20:57Z</time></trkpt><trkpt lat="43.754193597367326" lon="7.051374201414782"><ele>973.0</ele><time>2026-04-26T15:20:58Z</time></trkpt><trkpt lat="43.754262481023396" lon="7.051330334534735"><ele>972.9999999999999</ele><time>2026-04-26T15:20:59Z</time></trkpt><trkpt lat="43.75432416669763" lon="7.051275605760349"><ele>973.0</ele><time>2026-04-26T15:21:00Z</time></trkpt><trkpt lat="43.754376060578245" lon="7.0512030797202065"><ele>973.0</ele><time>2026-04-26T15:21:01Z</time></trkpt><trkpt lat="43.75440597717426" lon="7.051097727564683"><ele>973.0</ele><time>2026-04-26T15:21:02Z</time></trkpt><trkpt lat="43.75444557020231" lon="7.05098655193375"><ele>972.9999999999999</ele><time>2026-04-26T15:21:02.999Z</time></trkpt><trkpt lat="43.75448454350666" lon="7.05089727162691"><ele>973.0</ele><time>2026-04-26T15:21:03.999Z</time></trkpt><trkpt lat="43.75451554037957" lon="7.050804501118551"><ele>972.8</ele><time>2026-04-26T15:21:04.999Z</time></trkpt><trkpt lat="43.754530056117865" lon="7.050687017759679"><ele>972.5999999999999</ele><time>2026-04-26T15:21:05.999Z</time></trkpt><trkpt lat="43.754545645048225" lon="7.050539426038655"><ele>972.4000000000001</ele><time>2026-04-26T15:21:06.999Z</time></trkpt><trkpt lat="43.75456483558166" lon="7.0503832548349745"><ele>972.2</ele><time>2026-04-26T15:21:07.999Z</time></trkpt><trkpt lat="43.75458848376661" lon="7.050206995413"><ele>972.0</ele><time>2026-04-26T15:21:08.999Z</time></trkpt><trkpt lat="43.75460241221915" lon="7.0500353959417295"><ele>971.6666666666666</ele><time>2026-04-26T15:21:09.999Z</time></trkpt><trkpt lat="43.754614397971615" lon="7.0499116652443155"><ele>971.3333333333333</ele><time>2026-04-26T15:21:10.999Z</time></trkpt><trkpt lat="43.754645895353804" lon="7.04981334085177"><ele>971.0</ele><time>2026-04-26T15:21:11.999Z</time></trkpt><trkpt lat="43.75469555581914" lon="7.049748032535698"><ele>970.6666666666666</ele><time>2026-04-26T15:21:12.999Z</time></trkpt><trkpt lat="43.754779356977025" lon="7.049733490495488"><ele>970.3333333333333</ele><time>2026-04-26T15:21:13.999Z</time></trkpt><trkpt lat="43.75486906053607" lon="7.049659393549504"><ele>970.0</ele><time>2026-04-26T15:21:15.999Z</time></trkpt><trkpt lat="43.754945456807086" lon="7.049512857556918"><ele>969.9999999999999</ele><time>2026-04-26T15:21:17.999Z</time></trkpt><trkpt lat="43.754973492451555" lon="7.049421723167146"><ele>970.0</ele><time>2026-04-26T15:21:18.999Z</time></trkpt><trkpt lat="43.75498839153997" lon="7.049326027636813"><ele>970.0</ele><time>2026-04-26T15:21:19.999Z</time></trkpt><trkpt lat="43.75499949034516" lon="7.049233246346053"><ele>970.0</ele><time>2026-04-26T15:21:20.999Z</time></trkpt><trkpt lat="43.75501217094577" lon="7.0491053720516"><ele>969.9999999999999</ele><time>2026-04-26T15:21:21.999Z</time></trkpt><trkpt lat="43.755035450993866" lon="7.048975825060313"><ele>970.0</ele><time>2026-04-26T15:21:22.999Z</time></trkpt><trkpt lat="43.75504505367764" lon="7.048831369840245"><ele>969.4</ele><time>2026-04-26T15:21:23.999Z</time></trkpt><trkpt lat="43.75505403084305" lon="7.048707606041478"><ele>968.8</ele><time>2026-04-26T15:21:24.999Z</time></trkpt><trkpt lat="43.755074255139654" lon="7.04859130676155"><ele>968.2</ele><time>2026-04-26T15:21:25.999Z</time></trkpt><trkpt lat="43.7551027036813" lon="7.0484606799358875"><ele>967.6</ele><time>2026-04-26T15:21:26.999Z</time></trkpt><trkpt lat="43.75516001244964" lon="7.048307779747513"><ele>967.0</ele><time>2026-04-26T15:21:27.999Z</time></trkpt><trkpt lat="43.75522972328156" lon="7.048153949561622"><ele>966.0</ele><time>2026-04-26T15:21:28.999Z</time></trkpt><trkpt lat="43.7552817613956" lon="7.047999111185069"><ele>965.0</ele><time>2026-04-26T15:21:29.999Z</time></trkpt><trkpt lat="43.755322692616424" lon="7.047862338894101"><ele>964.0</ele><time>2026-04-26T15:21:30.999Z</time></trkpt><trkpt lat="43.75537520251765" lon="7.047726588677822"><ele>963.0</ele><time>2026-04-26T15:21:31.999Z</time></trkpt><trkpt lat="43.75544294233552" lon="7.047607551354096"><ele>963.0</ele><time>2026-04-26T15:21:32.999Z</time></trkpt><trkpt lat="43.7555138471328" lon="7.047471093746061"><ele>963.0</ele><time>2026-04-26T15:21:33.999Z</time></trkpt><trkpt lat="43.75557751682235" lon="7.047376581587949"><ele>963.0</ele><time>2026-04-26T15:21:34.999Z</time></trkpt><trkpt lat="43.75564908822707" lon="7.047299444007857"><ele>963.0</ele><time>2026-04-26T15:21:35.999Z</time></trkpt><trkpt lat="43.75572356476645" lon="7.047210031655769"><ele>963.0</ele><time>2026-04-26T15:21:36.999Z</time></trkpt><trkpt lat="43.755799161198986" lon="7.047110323791771"><ele>963.5</ele><time>2026-04-26T15:21:37.999Z</time></trkpt><trkpt lat="43.75587140265794" lon="7.047021343283101"><ele>964.0</ele><time>2026-04-26T15:21:38.999Z</time></trkpt><trkpt lat="43.7559359606779" lon="7.046938244226531"><ele>964.5</ele><time>2026-04-26T15:21:39.999Z</time></trkpt><trkpt lat="43.755997893435655" lon="7.046855809609703"><ele>965.0</ele><time>2026-04-26T15:21:40.999Z</time></trkpt><trkpt lat="43.75605091014195" lon="7.046783657940706"><ele>965.5</ele><time>2026-04-26T15:21:41.999Z</time></trkpt><trkpt lat="43.756102823163936" lon="7.046718949920506"><ele>966.0</ele><time>2026-04-26T15:21:42.999Z</time></trkpt><trkpt lat="43.756208246891354" lon="7.046629289849232"><ele>966.5999999999999</ele><time>2026-04-26T15:21:44.999Z</time></trkpt><trkpt lat="43.756323772591486" lon="7.046537635954081"><ele>967.1999999999999</ele><time>2026-04-26T15:21:46.999Z</time></trkpt><trkpt lat="43.75639555148152" lon="7.046464290328212"><ele>967.8000000000001</ele><time>2026-04-26T15:21:47.999Z</time></trkpt><trkpt lat="43.75649568720285" lon="7.046439478341687"><ele>968.4000000000001</ele><time>2026-04-26T15:21:48.999Z</time></trkpt><trkpt lat="43.75656398519961" lon="7.0463693534663925"><ele>969.0</ele><time>2026-04-26T15:21:49.999Z</time></trkpt><trkpt lat="43.75662462331216" lon="7.046295048219874"><ele>969.0</ele><time>2026-04-26T15:21:50.999Z</time></trkpt><trkpt lat="43.75667948729446" lon="7.0462309221068535"><ele>969.0</ele><time>2026-04-26T15:21:51.999Z</time></trkpt><trkpt lat="43.75673410602756" lon="7.046168770446085"><ele>969.0</ele><time>2026-04-26T15:21:52.999Z</time></trkpt><trkpt lat="43.75679361592106" lon="7.046106846828438"><ele>969.0</ele><time>2026-04-26T15:21:53.999Z</time></trkpt><trkpt lat="43.75686483534121" lon="7.046036450414626"><ele>969.0</ele><time>2026-04-26T15:21:54.999Z</time></trkpt><trkpt lat="43.756926354503975" lon="7.045969697362007"><ele>969.0</ele><time>2026-04-26T15:21:55.999Z</time></trkpt><trkpt lat="43.75693115704196" lon="7.0458433530095315"><ele>969.5</ele><time>2026-04-26T15:21:59.999Z</time></trkpt><trkpt lat="43.75693876998999" lon="7.04574615524456"><ele>970.0</ele><time>2026-04-26T15:22:01.999Z</time></trkpt><trkpt lat="43.75699247569962" lon="7.045693278765403"><ele>970.5</ele><time>2026-04-26T15:22:04.999Z</time></trkpt><trkpt lat="43.7570572016797" lon="7.045638584409117"><ele>971.0</ele><time>2026-04-26T15:22:08Z</time></trkpt><trkpt lat="43.757147050382834" lon="7.045545487469744"><ele>971.5</ele><time>2026-04-26T15:22:23Z</time></trkpt><trkpt lat="43.75705688756778" lon="7.045497869061064"><ele>972.0</ele><time>2026-04-26T15:22:26Z</time></trkpt><trkpt lat="43.75699610109773" lon="7.0454587193319735"><ele>972.0</ele><time>2026-04-26T15:22:28Z</time></trkpt><trkpt lat="43.75696324224936" lon="7.045546375426122"><ele>972.0</ele><time>2026-04-26T15:22:31Z</time></trkpt><trkpt lat="43.756879132676595" lon="7.045509316258458"><ele>972.0</ele><time>2026-04-26T15:22:34Z</time></trkpt><trkpt lat="43.7568060391322" lon="7.0454968578138795"><ele>972.0</ele><time>2026-04-26T15:22:36Z</time></trkpt><trkpt lat="43.75675393044546" lon="7.045437090366066"><ele>972.0</ele><time>2026-04-26T15:22:37Z</time></trkpt><trkpt lat="43.75670414263665" lon="7.045354523891066"><ele>972.0</ele><time>2026-04-26T15:22:38Z</time></trkpt><trkpt lat="43.75669739245608" lon="7.045244099363732"><ele>972.0</ele><time>2026-04-26T15:22:40Z</time></trkpt><trkpt lat="43.75666177411681" lon="7.045139920650124"><ele>972.0</ele><time>2026-04-26T15:22:42Z</time></trkpt><trkpt lat="43.756636015811985" lon="7.045056235853138"><ele>972.0</ele><time>2026-04-26T15:22:43Z</time></trkpt><trkpt lat="43.75659312462406" lon="7.04493973532496"><ele>972.0</ele><time>2026-04-26T15:22:45Z</time></trkpt><trkpt lat="43.75669256237526" lon="7.044740636289226"><ele>972.0</ele><time>2026-04-26T15:22:52Z</time></trkpt><trkpt lat="43.75676307834812" lon="7.044630998651224"><ele>972.0</ele><time>2026-04-26T15:22:53Z</time></trkpt><trkpt lat="43.756806642834995" lon="7.044530094653993"><ele>972.0</ele><time>2026-04-26T15:22:54Z</time></trkpt><trkpt lat="43.756857897901824" lon="7.044438569105094"><ele>972.0</ele><time>2026-04-26T15:22:55Z</time></trkpt><trkpt lat="43.75691635709903" lon="7.044371489976213"><ele>972.0</ele><time>2026-04-26T15:22:56Z</time></trkpt><trkpt lat="43.75697448184754" lon="7.044328573008587"><ele>972.0</ele><time>2026-04-26T15:22:57Z</time></trkpt><trkpt lat="43.75703118623394" lon="7.044280470010497"><ele>972.0</ele><time>2026-04-26T15:22:58Z</time></trkpt><trkpt lat="43.75709811187477" lon="7.044263551133059"><ele>972.0</ele><time>2026-04-26T15:22:59Z</time></trkpt><trkpt lat="43.75717517956603" lon="7.044271093192454"><ele>972.2</ele><time>2026-04-26T15:23:01Z</time></trkpt><trkpt lat="43.75730045038024" lon="7.044205408537998"><ele>972.4000000000001</ele><time>2026-04-26T15:23:19.999Z</time></trkpt><trkpt lat="43.757349401784545" lon="7.044095860092789"><ele>972.5999999999999</ele><time>2026-04-26T15:23:20.999Z</time></trkpt><trkpt lat="43.75741524810406" lon="7.044011018969564"><ele>972.8</ele><time>2026-04-26T15:23:21.999Z</time></trkpt><trkpt lat="43.75747063572822" lon="7.043900365103942"><ele>973.0</ele><time>2026-04-26T15:23:22.999Z</time></trkpt><trkpt lat="43.757502303493425" lon="7.043801536936628"><ele>972.8333333333333</ele><time>2026-04-26T15:23:23.999Z</time></trkpt><trkpt lat="43.75752903965472" lon="7.043692473798303"><ele>972.6666666666666</ele><time>2026-04-26T15:23:24.999Z</time></trkpt><trkpt lat="43.75754849468324" lon="7.04358080456843"><ele>972.5</ele><time>2026-04-26T15:23:25.999Z</time></trkpt><trkpt lat="43.75757596700795" lon="7.043475085617727"><ele>972.3333333333333</ele><time>2026-04-26T15:23:26.999Z</time></trkpt><trkpt lat="43.75763053550281" lon="7.043383832245907"><ele>972.1666666666666</ele><time>2026-04-26T15:23:27.999Z</time></trkpt><trkpt lat="43.75770207579684" lon="7.043317848772975"><ele>972.0</ele><time>2026-04-26T15:23:28.999Z</time></trkpt><trkpt lat="43.75778515425202" lon="7.043268920288988"><ele>971.6</ele><time>2026-04-26T15:23:29.999Z</time></trkpt><trkpt lat="43.75787699110116" lon="7.043207665127157"><ele>971.2</ele><time>2026-04-26T15:23:30.999Z</time></trkpt><trkpt lat="43.75794280311137" lon="7.043161749904958"><ele>970.8</ele><time>2026-04-26T15:23:31.999Z</time></trkpt><trkpt lat="43.7580274947024" lon="7.043082642588699"><ele>970.4</ele><time>2026-04-26T15:23:33.999Z</time></trkpt><trkpt lat="43.758048701078316" lon="7.042889345689431"><ele>970.0</ele><time>2026-04-26T15:23:35.999Z</time></trkpt><trkpt lat="43.75804915224392" lon="7.042730609555796"><ele>970.0</ele><time>2026-04-26T15:23:36.999Z</time></trkpt><trkpt lat="43.75804801557678" lon="7.0425721909847105"><ele>970.0</ele><time>2026-04-26T15:23:37.999Z</time></trkpt><trkpt lat="43.75803443590773" lon="7.042455054501563"><ele>970.0</ele><time>2026-04-26T15:23:38.999Z</time></trkpt><trkpt lat="43.75808317161847" lon="7.042328445822237"><ele>970.0</ele><time>2026-04-26T15:23:40.999Z</time></trkpt><trkpt lat="43.758166345556056" lon="7.042188810752159"><ele>970.0</ele><time>2026-04-26T15:23:42.999Z</time></trkpt><trkpt lat="43.75820157022948" lon="7.042099516449586"><ele>969.8333333333333</ele><time>2026-04-26T15:23:43.999Z</time></trkpt><trkpt lat="43.7582414607117" lon="7.0420053595445085"><ele>969.6666666666666</ele><time>2026-04-26T15:23:44.999Z</time></trkpt><trkpt lat="43.758295651586295" lon="7.04191638532732"><ele>969.5</ele><time>2026-04-26T15:23:45.999Z</time></trkpt><trkpt lat="43.75835943487365" lon="7.041850966150626"><ele>969.3333333333333</ele><time>2026-04-26T15:23:46.999Z</time></trkpt><trkpt lat="43.75844122144599" lon="7.041796926357969"><ele>969.1666666666666</ele><time>2026-04-26T15:23:47.999Z</time></trkpt><trkpt lat="43.75852510028842" lon="7.041759284193395"><ele>969.0</ele><time>2026-04-26T15:23:48.999Z</time></trkpt><trkpt lat="43.758602529487064" lon="7.041721462572051"><ele>968.8333333333334</ele><time>2026-04-26T15:23:49.999Z</time></trkpt><trkpt lat="43.75868036219146" lon="7.041685039373537"><ele>968.6666666666667</ele><time>2026-04-26T15:23:50.999Z</time></trkpt><trkpt lat="43.75874698953597" lon="7.041678809447046"><ele>968.5</ele><time>2026-04-26T15:23:51.999Z</time></trkpt><trkpt lat="43.75881791198452" lon="7.04168453237513"><ele>968.3333333333334</ele><time>2026-04-26T15:23:52.999Z</time></trkpt><trkpt lat="43.758881431579546" lon="7.041674316284227"><ele>968.1666666666667</ele><time>2026-04-26T15:23:53.999Z</time></trkpt><trkpt lat="43.758990382947516" lon="7.0415793639161794"><ele>968.0</ele><time>2026-04-26T15:23:55.999Z</time></trkpt><trkpt lat="43.759066100523924" lon="7.0415104283566246"><ele>967.3333333333334</ele><time>2026-04-26T15:23:57.999Z</time></trkpt><trkpt lat="43.759119843848715" lon="7.04143296004919"><ele>966.6666666666667</ele><time>2026-04-26T15:23:59.999Z</time></trkpt><trkpt lat="43.759182608222034" lon="7.041391289686406"><ele>966.0</ele><time>2026-04-26T15:24:01.999Z</time></trkpt><trkpt lat="43.759221564102326" lon="7.041301145696813"><ele>965.3333333333333</ele><time>2026-04-26T15:24:03.999Z</time></trkpt><trkpt lat="43.75919655174731" lon="7.041156969210494"><ele>964.6666666666666</ele><time>2026-04-26T15:24:05.999Z</time></trkpt><trkpt lat="43.75910908041151" lon="7.041090220521695"><ele>964.0</ele><time>2026-04-26T15:24:07.999Z</time></trkpt><trkpt lat="43.759026452352145" lon="7.040985883313598"><ele>964.0</ele><time>2026-04-26T15:24:09.999Z</time></trkpt><trkpt lat="43.758939171436474" lon="7.0408557464271055"><ele>964.0000000000001</ele><time>2026-04-26T15:24:11.999Z</time></trkpt><trkpt lat="43.758850274891955" lon="7.040808473901299"><ele>964.0000000000001</ele><time>2026-04-26T15:24:13Z</time></trkpt><trkpt lat="43.75875803035741" lon="7.040775392419859"><ele>964.0</ele><time>2026-04-26T15:24:14Z</time></trkpt><trkpt lat="43.758678066185546" lon="7.040733590698423"><ele>964.0</ele><time>2026-04-26T15:24:15Z</time></trkpt><trkpt lat="43.75861807030861" lon="7.0406793203609315"><ele>963.9999999999999</ele><time>2026-04-26T15:24:16Z</time></trkpt><trkpt lat="43.758568591495695" lon="7.040590995907344"><ele>964.0</ele><time>2026-04-26T15:24:17Z</time></trkpt><trkpt lat="43.758538251767504" lon="7.040464353486638"><ele>964.0</ele><time>2026-04-26T15:24:18Z</time></trkpt><trkpt lat="43.75852579930493" lon="7.040343649686029"><ele>964.0</ele><time>2026-04-26T15:24:19Z</time></trkpt><trkpt lat="43.758501540851505" lon="7.040257663227144"><ele>963.9999999999999</ele><time>2026-04-26T15:24:20Z</time></trkpt><trkpt lat="43.758451392725135" lon="7.0401948877291405"><ele>964.0</ele><time>2026-04-26T15:24:21Z</time></trkpt><trkpt lat="43.75837933244987" lon="7.040149987551625"><ele>963.6666666666666</ele><time>2026-04-26T15:24:22Z</time></trkpt><trkpt lat="43.758311821611855" lon="7.040082710219581"><ele>963.3333333333333</ele><time>2026-04-26T15:24:23Z</time></trkpt><trkpt lat="43.75826844917756" lon="7.039980317367105"><ele>963.0</ele><time>2026-04-26T15:24:24Z</time></trkpt><trkpt lat="43.75823585733198" lon="7.039856913862919"><ele>962.6666666666667</ele><time>2026-04-26T15:24:25Z</time></trkpt><trkpt lat="43.75820841293181" lon="7.039742929583474"><ele>962.3333333333334</ele><time>2026-04-26T15:24:26Z</time></trkpt><trkpt lat="43.75818818005592" lon="7.03965138316172"><ele>962.0</ele><time>2026-04-26T15:24:27Z</time></trkpt><trkpt lat="43.75819913968707" lon="7.0395596350884055"><ele>962.0</ele><time>2026-04-26T15:24:28Z</time></trkpt><trkpt lat="43.75824031004603" lon="7.039450208326099"><ele>962.0</ele><time>2026-04-26T15:24:29Z</time></trkpt><trkpt lat="43.75826903658544" lon="7.03932790594305"><ele>962.0</ele><time>2026-04-26T15:24:30Z</time></trkpt><trkpt lat="43.75825690260801" lon="7.039211732928413"><ele>962.0</ele><time>2026-04-26T15:24:31Z</time></trkpt><trkpt lat="43.75822067698409" lon="7.039090556116832"><ele>962.0</ele><time>2026-04-26T15:24:32Z</time></trkpt><trkpt lat="43.75818702255077" lon="7.038953063950787"><ele>962.0000000000001</ele><time>2026-04-26T15:24:33Z</time></trkpt><trkpt lat="43.75815740282637" lon="7.038811026563923"><ele>962.0</ele><time>2026-04-26T15:24:34Z</time></trkpt><trkpt lat="43.7581213350148" lon="7.038700937292736"><ele>962.0</ele><time>2026-04-26T15:24:35Z</time></trkpt><trkpt lat="43.758063836802535" lon="7.038606221712565"><ele>962.0</ele><time>2026-04-26T15:24:36Z</time></trkpt><trkpt lat="43.7580020762015" lon="7.038519548040662"><ele>962.0000000000001</ele><time>2026-04-26T15:24:37Z</time></trkpt><trkpt lat="43.75799137870335" lon="7.038429602327961"><ele>962.0</ele><time>2026-04-26T15:24:38Z</time></trkpt><trkpt lat="43.75802164452503" lon="7.038338831957305"><ele>961.2</ele><time>2026-04-26T15:24:39Z</time></trkpt><trkpt lat="43.758093809024295" lon="7.038241401402379"><ele>960.4000000000001</ele><time>2026-04-26T15:24:41Z</time></trkpt><trkpt lat="43.758209184794886" lon="7.0382046602042605"><ele>959.5999999999999</ele><time>2026-04-26T15:24:43Z</time></trkpt><trkpt lat="43.758299880313814" lon="7.038187314329331"><ele>958.8</ele><time>2026-04-26T15:24:44Z</time></trkpt><trkpt lat="43.758372028551626" lon="7.038162174862925"><ele>958.0</ele><time>2026-04-26T15:24:45Z</time></trkpt><trkpt lat="43.75845808886085" lon="7.038045635951686"><ele>958.0</ele><time>2026-04-26T15:24:47Z</time></trkpt><trkpt lat="43.758499808182144" lon="7.037965410302351"><ele>958.0</ele><time>2026-04-26T15:24:48Z</time></trkpt><trkpt lat="43.75854998737452" lon="7.037905560797227"><ele>958.0</ele><time>2026-04-26T15:24:49Z</time></trkpt><trkpt lat="43.75861095479687" lon="7.03776595090202"><ele>958.0</ele><time>2026-04-26T15:24:51Z</time></trkpt><trkpt lat="43.758549398224275" lon="7.0376125712436925"><ele>958.0</ele><time>2026-04-26T15:24:53Z</time></trkpt><trkpt lat="43.758503833778214" lon="7.037515347874492"><ele>956.4999999999999</ele><time>2026-04-26T15:24:54Z</time></trkpt><trkpt lat="43.75848221957595" lon="7.037399368132691"><ele>955.0</ele><time>2026-04-26T15:24:55Z</time></trkpt><trkpt lat="43.75846398473011" lon="7.037295456719818"><ele>953.5</ele><time>2026-04-26T15:24:56Z</time></trkpt><trkpt lat="43.758426487479944" lon="7.037221367007679"><ele>952.0</ele><time>2026-04-26T15:24:57Z</time></trkpt><trkpt lat="43.7583544727148" lon="7.0371676865664465"><ele>950.4999999999999</ele><time>2026-04-26T15:24:58Z</time></trkpt><trkpt lat="43.758267298124984" lon="7.037102083020487"><ele>949.0</ele><time>2026-04-26T15:24:59Z</time></trkpt><trkpt lat="43.75818254077547" lon="7.037035859657718"><ele>948.9999999999999</ele><time>2026-04-26T15:25:00Z</time></trkpt><trkpt lat="43.75812579261729" lon="7.036974135563705"><ele>949.0</ele><time>2026-04-26T15:25:01Z</time></trkpt><trkpt lat="43.75809858863234" lon="7.0368758774665725"><ele>949.0</ele><time>2026-04-26T15:25:02Z</time></trkpt><trkpt lat="43.75807978878875" lon="7.036746149499139"><ele>949.0</ele><time>2026-04-26T15:25:03Z</time></trkpt><trkpt lat="43.75806322637111" lon="7.036629295203778"><ele>948.9999999999999</ele><time>2026-04-26T15:25:04Z</time></trkpt><trkpt lat="43.7580571243021" lon="7.03651812119017"><ele>949.0</ele><time>2026-04-26T15:25:05Z</time></trkpt><trkpt lat="43.75806473835297" lon="7.0364053904023525"><ele>948.4999999999999</ele><time>2026-04-26T15:25:06Z</time></trkpt><trkpt lat="43.75807965345969" lon="7.036292894763735"><ele>948.0</ele><time>2026-04-26T15:25:07Z</time></trkpt><trkpt lat="43.75808163803407" lon="7.036193051018385"><ele>947.5</ele><time>2026-04-26T15:25:08Z</time></trkpt><trkpt lat="43.758061081429794" lon="7.036086317408311"><ele>947.0</ele><time>2026-04-26T15:25:09Z</time></trkpt><trkpt lat="43.75803220231264" lon="7.035964279854602"><ele>946.4999999999999</ele><time>2026-04-26T15:25:10Z</time></trkpt><trkpt lat="43.7580249735052" lon="7.035830658679996"><ele>946.0</ele><time>2026-04-26T15:25:10.999Z</time></trkpt><trkpt lat="43.758032138594594" lon="7.035680498680002"><ele>945.0</ele><time>2026-04-26T15:25:11.999Z</time></trkpt><trkpt lat="43.75804043090311" lon="7.035513400542236"><ele>943.9999999999999</ele><time>2026-04-26T15:25:12.999Z</time></trkpt><trkpt lat="43.75803055894897" lon="7.035348562309568"><ele>942.9999999999999</ele><time>2026-04-26T15:25:13.999Z</time></trkpt><trkpt lat="43.75800949227558" lon="7.035211410449637"><ele>942.0</ele><time>2026-04-26T15:25:14.999Z</time></trkpt><trkpt lat="43.75799067420642" lon="7.035107689111945"><ele>941.0</ele><time>2026-04-26T15:25:15.999Z</time></trkpt><trkpt lat="43.75796171011644" lon="7.035007829517046"><ele>940.5999999999999</ele><time>2026-04-26T15:25:16.999Z</time></trkpt><trkpt lat="43.757910526220975" lon="7.034908348311766"><ele>940.1999999999999</ele><time>2026-04-26T15:25:17.999Z</time></trkpt><trkpt lat="43.7578512535533" lon="7.034806251876993"><ele>939.8000000000001</ele><time>2026-04-26T15:25:18.999Z</time></trkpt><trkpt lat="43.757796918777295" lon="7.0346886268264655"><ele>939.4000000000001</ele><time>2026-04-26T15:25:19.999Z</time></trkpt><trkpt lat="43.75774649604401" lon="7.03458713144176"><ele>939.0</ele><time>2026-04-26T15:25:20.999Z</time></trkpt><trkpt lat="43.75768999607193" lon="7.034508914316486"><ele>939.3333333333334</ele><time>2026-04-26T15:25:21.999Z</time></trkpt><trkpt lat="43.757643922032564" lon="7.034441411171974"><ele>939.6666666666667</ele><time>2026-04-26T15:25:22.999Z</time></trkpt><trkpt lat="43.7576230834666" lon="7.034353123131538"><ele>940.0</ele><time>2026-04-26T15:25:23.999Z</time></trkpt><trkpt lat="43.75760400228963" lon="7.034248998810745"><ele>940.3333333333334</ele><time>2026-04-26T15:25:24.999Z</time></trkpt><trkpt lat="43.75758145922407" lon="7.0341493832435855"><ele>940.6666666666667</ele><time>2026-04-26T15:25:25.999Z</time></trkpt><trkpt lat="43.75750503639619" lon="7.034008549714722"><ele>941.0</ele><time>2026-04-26T15:25:27.999Z</time></trkpt><trkpt lat="43.75744065646068" lon="7.033922206123592"><ele>941.0</ele><time>2026-04-26T15:25:28.999Z</time></trkpt><trkpt lat="43.75737254647303" lon="7.033810108841563"><ele>940.9999999999999</ele><time>2026-04-26T15:25:29.999Z</time></trkpt><trkpt lat="43.75730924050374" lon="7.033724677078242"><ele>940.9999999999999</ele><time>2026-04-26T15:25:30.999Z</time></trkpt><trkpt lat="43.7572541911436" lon="7.033653391522972"><ele>941.0</ele><time>2026-04-26T15:25:31.999Z</time></trkpt><trkpt lat="43.7572346185783" lon="7.033476675872383"><ele>941.0</ele><time>2026-04-26T15:25:33.999Z</time></trkpt><trkpt lat="43.75723153317722" lon="7.0333559509491534"><ele>941.4</ele><time>2026-04-26T15:25:34.999Z</time></trkpt><trkpt lat="43.75720511095938" lon="7.0332421166434385"><ele>941.8</ele><time>2026-04-26T15:25:35.999Z</time></trkpt><trkpt lat="43.75715585683666" lon="7.033141937146003"><ele>942.1999999999999</ele><time>2026-04-26T15:25:36.999Z</time></trkpt><trkpt lat="43.75708473617082" lon="7.033077597701656"><ele>942.5999999999999</ele><time>2026-04-26T15:25:37.999Z</time></trkpt><trkpt lat="43.75699642536943" lon="7.033000892716087"><ele>943.0</ele><time>2026-04-26T15:25:38.999Z</time></trkpt><trkpt lat="43.75693147876268" lon="7.032918668448003"><ele>942.9999999999999</ele><time>2026-04-26T15:25:39.999Z</time></trkpt><trkpt lat="43.75690322956939" lon="7.032831159894112"><ele>943.0</ele><time>2026-04-26T15:25:40.999Z</time></trkpt><trkpt lat="43.75688217205312" lon="7.032716025164386"><ele>943.0</ele><time>2026-04-26T15:25:41.999Z</time></trkpt><trkpt lat="43.756855053925634" lon="7.0326066326377"><ele>943.0</ele><time>2026-04-26T15:25:42.999Z</time></trkpt><trkpt lat="43.75680316719063" lon="7.03251362055091"><ele>942.9999999999999</ele><time>2026-04-26T15:25:43.999Z</time></trkpt><trkpt lat="43.75673524626646" lon="7.0324457059733865"><ele>943.0</ele><time>2026-04-26T15:25:44.999Z</time></trkpt><trkpt lat="43.7566813537477" lon="7.03235185590559"><ele>943.1666666666666</ele><time>2026-04-26T15:25:45.999Z</time></trkpt><trkpt lat="43.75662908588946" lon="7.0322404249120245"><ele>943.3333333333333</ele><time>2026-04-26T15:25:46.999Z</time></trkpt><trkpt lat="43.75656573659925" lon="7.032148827670246"><ele>943.5</ele><time>2026-04-26T15:25:47.999Z</time></trkpt><trkpt lat="43.75650645543508" lon="7.032069028447936"><ele>943.6666666666667</ele><time>2026-04-26T15:25:48.999Z</time></trkpt><trkpt lat="43.75647892439421" lon="7.031966981901681"><ele>943.8333333333334</ele><time>2026-04-26T15:25:49.999Z</time></trkpt><trkpt lat="43.756454863201704" lon="7.031841776888258"><ele>944.0</ele><time>2026-04-26T15:25:50.999Z</time></trkpt><trkpt lat="43.756421900570146" lon="7.031707810868393"><ele>944.4000000000001</ele><time>2026-04-26T15:25:51.999Z</time></trkpt><trkpt lat="43.75639942473716" lon="7.0315546911227935"><ele>944.8000000000001</ele><time>2026-04-26T15:25:52.999Z</time></trkpt><trkpt lat="43.75639193644306" lon="7.031405982683418"><ele>945.1999999999999</ele><time>2026-04-26T15:25:53.999Z</time></trkpt><trkpt lat="43.75636869018733" lon="7.031281510201237"><ele>945.5999999999999</ele><time>2026-04-26T15:25:54.999Z</time></trkpt><trkpt lat="43.756354649336544" lon="7.031161585551191"><ele>946.0</ele><time>2026-04-26T15:25:55.999Z</time></trkpt><trkpt lat="43.756371088056184" lon="7.031019495868919"><ele>946.0</ele><time>2026-04-26T15:25:56.999Z</time></trkpt><trkpt lat="43.756392573449475" lon="7.030871857215497"><ele>945.9999999999999</ele><time>2026-04-26T15:25:57.999Z</time></trkpt><trkpt lat="43.756389972247725" lon="7.030726426972981"><ele>945.9999999999999</ele><time>2026-04-26T15:25:58.999Z</time></trkpt><trkpt lat="43.75636893700696" lon="7.030596247270444"><ele>946.0</ele><time>2026-04-26T15:25:59.999Z</time></trkpt><trkpt lat="43.756330769358165" lon="7.0304715239286795"><ele>946.0</ele><time>2026-04-26T15:26:00.999Z</time></trkpt><trkpt lat="43.756273326306335" lon="7.030370414136107"><ele>945.5999999999999</ele><time>2026-04-26T15:26:01.999Z</time></trkpt><trkpt lat="43.75620263884869" lon="7.030265128704815"><ele>945.1999999999999</ele><time>2026-04-26T15:26:02.999Z</time></trkpt><trkpt lat="43.75613138940311" lon="7.030137238747543"><ele>944.8000000000001</ele><time>2026-04-26T15:26:03.999Z</time></trkpt><trkpt lat="43.75605963541644" lon="7.03002331416251"><ele>944.4000000000001</ele><time>2026-04-26T15:26:04.999Z</time></trkpt><trkpt lat="43.75597769267129" lon="7.029930530715132"><ele>944.0</ele><time>2026-04-26T15:26:05.999Z</time></trkpt><trkpt lat="43.75591265103044" lon="7.0298508049903035"><ele>944.0</ele><time>2026-04-26T15:26:06.999Z</time></trkpt><trkpt lat="43.75586357594727" lon="7.029708097307253"><ele>944.0000000000001</ele><time>2026-04-26T15:26:08.999Z</time></trkpt><trkpt lat="43.75590277625461" lon="7.029613050554887"><ele>944.0000000000001</ele><time>2026-04-26T15:26:10.999Z</time></trkpt><trkpt lat="43.755989603420886" lon="7.02949974176853"><ele>944.0</ele><time>2026-04-26T15:26:12.999Z</time></trkpt><trkpt lat="43.756063099292675" lon="7.029413616430566"><ele>944.0</ele><time>2026-04-26T15:26:13.998Z</time></trkpt><trkpt lat="43.75614859920122" lon="7.029371442391498"><ele>943.6666666666667</ele><time>2026-04-26T15:26:14.998Z</time></trkpt><trkpt lat="43.7562273950775" lon="7.029368002229465"><ele>943.3333333333334</ele><time>2026-04-26T15:26:15.998Z</time></trkpt><trkpt lat="43.756301961896064" lon="7.029365928386795"><ele>943.0</ele><time>2026-04-26T15:26:16.998Z</time></trkpt><trkpt lat="43.75636430228704" lon="7.029309048540441"><ele>942.6666666666667</ele><time>2026-04-26T15:26:17.998Z</time></trkpt><trkpt lat="43.75642973924492" lon="7.029204666638922"><ele>942.3333333333334</ele><time>2026-04-26T15:26:19Z</time></trkpt><trkpt lat="43.756499835756536" lon="7.029132679884329"><ele>942.0</ele><time>2026-04-26T15:26:20Z</time></trkpt><trkpt lat="43.75656914060845" lon="7.029106398604304"><ele>941.5</ele><time>2026-04-26T15:26:21Z</time></trkpt><trkpt lat="43.756640958067585" lon="7.0291078378433625"><ele>941.0</ele><time>2026-04-26T15:26:22Z</time></trkpt><trkpt lat="43.756723324642756" lon="7.029105305241869"><ele>940.5</ele><time>2026-04-26T15:26:23Z</time></trkpt><trkpt lat="43.75681302804113" lon="7.029086412798978"><ele>940.0</ele><time>2026-04-26T15:26:24Z</time></trkpt><trkpt lat="43.756894447031286" lon="7.029041068800169"><ele>939.5</ele><time>2026-04-26T15:26:25Z</time></trkpt><trkpt lat="43.75697065283086" lon="7.029005371158803"><ele>939.0</ele><time>2026-04-26T15:26:26Z</time></trkpt><trkpt lat="43.75704253280843" lon="7.0289757990315405"><ele>939.0</ele><time>2026-04-26T15:26:27Z</time></trkpt><trkpt lat="43.75710441889142" lon="7.028825343628609"><ele>939.0000000000001</ele><time>2026-04-26T15:26:29Z</time></trkpt><trkpt lat="43.75710124035901" lon="7.028724371899748"><ele>939.0000000000001</ele><time>2026-04-26T15:26:30Z</time></trkpt><trkpt lat="43.757104087989234" lon="7.028609500020778"><ele>939.0</ele><time>2026-04-26T15:26:31Z</time></trkpt><trkpt lat="43.75712100674952" lon="7.028479677015697"><ele>939.0</ele><time>2026-04-26T15:26:32Z</time></trkpt><trkpt lat="43.75713954458795" lon="7.028345754039252"><ele>939.0</ele><time>2026-04-26T15:26:33Z</time></trkpt><trkpt lat="43.757159264753696" lon="7.028206999158216"><ele>939.0000000000001</ele><time>2026-04-26T15:26:34Z</time></trkpt><trkpt lat="43.757168852670524" lon="7.028056770471374"><ele>939.0000000000001</ele><time>2026-04-26T15:26:35Z</time></trkpt><trkpt lat="43.757159724116924" lon="7.027907108349207"><ele>939.0</ele><time>2026-04-26T15:26:36Z</time></trkpt><trkpt lat="43.75714662312527" lon="7.027760783866452"><ele>939.0</ele><time>2026-04-26T15:26:37Z</time></trkpt><trkpt lat="43.75714093902222" lon="7.02763686619615"><ele>939.0</ele><time>2026-04-26T15:26:38Z</time></trkpt><trkpt lat="43.75712408411011" lon="7.027524217302238"><ele>939.0</ele><time>2026-04-26T15:26:39Z</time></trkpt><trkpt lat="43.75712463821329" lon="7.027434582488149"><ele>939.0</ele><time>2026-04-26T15:26:40Z</time></trkpt><trkpt lat="43.757223222056226" lon="7.027380263651387"><ele>939.0</ele><time>2026-04-26T15:26:42Z</time></trkpt><trkpt lat="43.757286931683346" lon="7.027391081400222"><ele>939.0</ele><time>2026-04-26T15:26:43Z</time></trkpt><trkpt lat="43.75740235690588" lon="7.027336595071623"><ele>939.0</ele><time>2026-04-26T15:26:45Z</time></trkpt><trkpt lat="43.75745961032744" lon="7.027281109177352"><ele>939.2</ele><time>2026-04-26T15:26:46Z</time></trkpt><trkpt lat="43.75753026706243" lon="7.027289057426565"><ele>939.4000000000001</ele><time>2026-04-26T15:26:47Z</time></trkpt><trkpt lat="43.75759904145603" lon="7.027256532259734"><ele>939.6</ele><time>2026-04-26T15:26:48Z</time></trkpt><trkpt lat="43.757647990536704" lon="7.027171968026641"><ele>939.8</ele><time>2026-04-26T15:26:49Z</time></trkpt><trkpt lat="43.75760493639725" lon="7.026992662091973"><ele>940.0</ele><time>2026-04-26T15:26:51Z</time></trkpt><trkpt lat="43.75754105771193" lon="7.0268815849696615"><ele>939.9999999999999</ele><time>2026-04-26T15:26:53Z</time></trkpt><trkpt lat="43.75750402918467" lon="7.0268071714274605"><ele>940.0</ele><time>2026-04-26T15:26:54Z</time></trkpt><trkpt lat="43.757503043602206" lon="7.026704992786845"><ele>940.0</ele><time>2026-04-26T15:26:55Z</time></trkpt><trkpt lat="43.75749063876706" lon="7.026591049047726"><ele>940.0</ele><time>2026-04-26T15:26:56Z</time></trkpt><trkpt lat="43.757437807980736" lon="7.026505586925507"><ele>939.9999999999999</ele><time>2026-04-26T15:26:57Z</time></trkpt><trkpt lat="43.75738366545737" lon="7.026428412928311"><ele>940.0</ele><time>2026-04-26T15:26:58Z</time></trkpt><trkpt lat="43.75731170572964" lon="7.026350502789842"><ele>939.5</ele><time>2026-04-26T15:26:59Z</time></trkpt><trkpt lat="43.75724254125441" lon="7.026226513827951"><ele>939.0</ele><time>2026-04-26T15:27:00Z</time></trkpt><trkpt lat="43.75714539074131" lon="7.026103252887413"><ele>938.5</ele><time>2026-04-26T15:27:01Z</time></trkpt><trkpt lat="43.757044969505706" lon="7.025984422427232"><ele>938.0</ele><time>2026-04-26T15:27:02Z</time></trkpt><trkpt lat="43.75695517206714" lon="7.0258901542729255"><ele>938.0</ele><time>2026-04-26T15:27:03Z</time></trkpt><trkpt lat="43.75685517413915" lon="7.0258212710626555"><ele>938.0</ele><time>2026-04-26T15:27:04Z</time></trkpt><trkpt lat="43.7567679649814" lon="7.025708614816373"><ele>938.0</ele><time>2026-04-26T15:27:05Z</time></trkpt><trkpt lat="43.756681216149396" lon="7.02562204063757"><ele>938.0</ele><time>2026-04-26T15:27:06Z</time></trkpt><trkpt lat="43.756596475734504" lon="7.0255368136701115"><ele>938.0</ele><time>2026-04-26T15:27:07Z</time></trkpt><trkpt lat="43.75651123897396" lon="7.025501768142469"><ele>938.0</ele><time>2026-04-26T15:27:08Z</time></trkpt><trkpt lat="43.756427045236435" lon="7.025458670481739"><ele>938.0</ele><time>2026-04-26T15:27:09Z</time></trkpt><trkpt lat="43.75633662386033" lon="7.025387905976726"><ele>938.0</ele><time>2026-04-26T15:27:10Z</time></trkpt><trkpt lat="43.75624437427702" lon="7.025327506601474"><ele>938.0</ele><time>2026-04-26T15:27:11Z</time></trkpt><trkpt lat="43.756132727444054" lon="7.025282023904465"><ele>938.0</ele><time>2026-04-26T15:27:12Z</time></trkpt><trkpt lat="43.75604408647788" lon="7.025196308210765"><ele>938.5999999999999</ele><time>2026-04-26T15:27:13Z</time></trkpt><trkpt lat="43.755969319252294" lon="7.0251126577925875"><ele>939.1999999999999</ele><time>2026-04-26T15:27:14Z</time></trkpt><trkpt lat="43.755882287077064" lon="7.025025795892952"><ele>939.8</ele><time>2026-04-26T15:27:15Z</time></trkpt><trkpt lat="43.75578384497027" lon="7.024934511373849"><ele>940.4</ele><time>2026-04-26T15:27:16Z</time></trkpt><trkpt lat="43.755695834661445" lon="7.024868304697232"><ele>941.0</ele><time>2026-04-26T15:27:17Z</time></trkpt><trkpt lat="43.75561400175925" lon="7.0248140860141906"><ele>941.0</ele><time>2026-04-26T15:27:18Z</time></trkpt><trkpt lat="43.75554493604232" lon="7.024789815574382"><ele>940.9999999999999</ele><time>2026-04-26T15:27:19Z</time></trkpt><trkpt lat="43.755431979180884" lon="7.024797459867474"><ele>940.9999999999999</ele><time>2026-04-26T15:27:21Z</time></trkpt><trkpt lat="43.7553177686386" lon="7.024772303625832"><ele>941.0</ele><time>2026-04-26T15:27:22.999Z</time></trkpt><trkpt lat="43.75526197919325" lon="7.024712340669851"><ele>941.0</ele><time>2026-04-26T15:27:23.999Z</time></trkpt><trkpt lat="43.75519839769603" lon="7.024637270788795"><ele>941.8</ele><time>2026-04-26T15:27:24.999Z</time></trkpt><trkpt lat="43.75512626334126" lon="7.024587264866039"><ele>942.5999999999999</ele><time>2026-04-26T15:27:25.999Z</time></trkpt><trkpt lat="43.75499628995842" lon="7.02454620388646"><ele>943.4</ele><time>2026-04-26T15:27:27.999Z</time></trkpt><trkpt lat="43.7549095966568" lon="7.024534356317995"><ele>944.2</ele><time>2026-04-26T15:27:28.999Z</time></trkpt><trkpt lat="43.75482691139531" lon="7.024499706566804"><ele>945.0</ele><time>2026-04-26T15:27:29.999Z</time></trkpt><trkpt lat="43.75477727126178" lon="7.02442557614303"><ele>945.0</ele><time>2026-04-26T15:27:30.999Z</time></trkpt><trkpt lat="43.75472979414759" lon="7.024336723532983"><ele>945.0</ele><time>2026-04-26T15:27:31.999Z</time></trkpt><trkpt lat="43.75467128633914" lon="7.024271814882405"><ele>945.0</ele><time>2026-04-26T15:27:32.999Z</time></trkpt><trkpt lat="43.75460163566053" lon="7.024226913254828"><ele>945.0</ele><time>2026-04-26T15:27:33.999Z</time></trkpt><trkpt lat="43.754524561375376" lon="7.024189750191529"><ele>945.0</ele><time>2026-04-26T15:27:34.999Z</time></trkpt><trkpt lat="43.754447185036824" lon="7.024109798057523"><ele>945.0</ele><time>2026-04-26T15:27:35.999Z</time></trkpt><trkpt lat="43.75437796249452" lon="7.024026176534098"><ele>944.6</ele><time>2026-04-26T15:27:36.999Z</time></trkpt><trkpt lat="43.754303873810365" lon="7.02393793586896"><ele>944.2</ele><time>2026-04-26T15:27:37.999Z</time></trkpt><trkpt lat="43.754240117392186" lon="7.0238397297356885"><ele>943.8</ele><time>2026-04-26T15:27:38.999Z</time></trkpt><trkpt lat="43.75419708354101" lon="7.023722727736959"><ele>943.4</ele><time>2026-04-26T15:27:39.999Z</time></trkpt><trkpt lat="43.7541507056879" lon="7.023609200177963"><ele>943.0</ele><time>2026-04-26T15:27:40.999Z</time></trkpt><trkpt lat="43.75411772388924" lon="7.023509709141072"><ele>942.9999999999999</ele><time>2026-04-26T15:27:41.999Z</time></trkpt><trkpt lat="43.75405383436805" lon="7.023449702125214"><ele>943.0</ele><time>2026-04-26T15:27:42.999Z</time></trkpt><trkpt lat="43.75398139968134" lon="7.023398091781152"><ele>943.0</ele><time>2026-04-26T15:27:43.999Z</time></trkpt><trkpt lat="43.753930429156604" lon="7.023296451263548"><ele>943.0</ele><time>2026-04-26T15:27:44.999Z</time></trkpt><trkpt lat="43.753853757472825" lon="7.0232884212626985"><ele>942.9999999999999</ele><time>2026-04-26T15:27:45.999Z</time></trkpt><trkpt lat="43.75379405689911" lon="7.023255981893317"><ele>943.0</ele><time>2026-04-26T15:27:46.999Z</time></trkpt><trkpt lat="43.75371702305514" lon="7.023199267682023"><ele>942.6666666666666</ele><time>2026-04-26T15:27:47.999Z</time></trkpt><trkpt lat="43.7536419973314" lon="7.023138914036221"><ele>942.3333333333333</ele><time>2026-04-26T15:27:48.999Z</time></trkpt><trkpt lat="43.75371510433597" lon="7.022656043128403"><ele>942.0</ele><time>2026-04-26T15:27:49.999Z</time></trkpt><trkpt lat="43.7536838541787" lon="7.022527098182704"><ele>941.8</ele><time>2026-04-26T15:27:50.999Z</time></trkpt><trkpt lat="43.75365357887044" lon="7.022412053744866"><ele>941.6</ele><time>2026-04-26T15:27:51.999Z</time></trkpt><trkpt lat="43.75365232819333" lon="7.022300978834565"><ele>941.3999999999999</ele><time>2026-04-26T15:27:52.999Z</time></trkpt><trkpt lat="43.75368586564133" lon="7.022180471146974"><ele>941.1999999999999</ele><time>2026-04-26T15:27:53.999Z</time></trkpt><trkpt lat="43.75371691655924" lon="7.02203051707258"><ele>941.0</ele><time>2026-04-26T15:27:54.999Z</time></trkpt><trkpt lat="43.753719424964565" lon="7.021872862698693"><ele>941.0</ele><time>2026-04-26T15:27:55.999Z</time></trkpt><trkpt lat="43.75370852045295" lon="7.021725940488"><ele>941.0</ele><time>2026-04-26T15:27:56.999Z</time></trkpt><trkpt lat="43.75369579112027" lon="7.021576136327885"><ele>941.0</ele><time>2026-04-26T15:27:57.999Z</time></trkpt><trkpt lat="43.75369726938117" lon="7.021473907258685"><ele>941.0</ele><time>2026-04-26T15:27:58.999Z</time></trkpt><trkpt lat="43.75355010187666" lon="7.021359210862189"><ele>941.25</ele><time>2026-04-26T15:28:03.999Z</time></trkpt><trkpt lat="43.753518020361334" lon="7.0211833986750305"><ele>941.5</ele><time>2026-04-26T15:28:05.999Z</time></trkpt><trkpt lat="43.75351509393995" lon="7.021059557520748"><ele>941.75</ele><time>2026-04-26T15:28:06.999Z</time></trkpt><trkpt lat="43.75349563307674" lon="7.020913449314965"><ele>942.0</ele><time>2026-04-26T15:28:07.999Z</time></trkpt><trkpt lat="43.753470942934285" lon="7.020744561609473"><ele>942.5</ele><time>2026-04-26T15:28:08.999Z</time></trkpt><trkpt lat="43.753454715534346" lon="7.02057992112457"><ele>943.0</ele><time>2026-04-26T15:28:09.999Z</time></trkpt><trkpt lat="43.753437233631566" lon="7.0204175788932615"><ele>943.5</ele><time>2026-04-26T15:28:10.999Z</time></trkpt><trkpt lat="43.75342762685316" lon="7.020255458863826"><ele>944.0</ele><time>2026-04-26T15:28:11.999Z</time></trkpt><trkpt lat="43.75341719246965" lon="7.020080956346574"><ele>944.25</ele><time>2026-04-26T15:28:12.999Z</time></trkpt><trkpt lat="43.75340440961414" lon="7.019898490657444"><ele>944.5</ele><time>2026-04-26T15:28:13.999Z</time></trkpt><trkpt lat="43.75338768679214" lon="7.019725276364067"><ele>944.75</ele><time>2026-04-26T15:28:14.999Z</time></trkpt><trkpt lat="43.75336623932117" lon="7.019538215500005"><ele>945.0</ele><time>2026-04-26T15:28:15.999Z</time></trkpt><trkpt lat="43.75335610777874" lon="7.019345340225749"><ele>945.0</ele><time>2026-04-26T15:28:16.999Z</time></trkpt><trkpt lat="43.75335167589652" lon="7.019184735041041"><ele>945.0</ele><time>2026-04-26T15:28:17.999Z</time></trkpt><trkpt lat="43.753358530815" lon="7.0190719990528425"><ele>945.0</ele><time>2026-04-26T15:28:18.999Z</time></trkpt><trkpt lat="43.753389847408855" lon="7.018979836982254"><ele>945.0</ele><time>2026-04-26T15:28:19.999Z</time></trkpt><trkpt lat="43.75343533690614" lon="7.018900850366971"><ele>945.0</ele><time>2026-04-26T15:28:20.999Z</time></trkpt><trkpt lat="43.75349068473789" lon="7.018824321957451"><ele>945.0</ele><time>2026-04-26T15:28:21.999Z</time></trkpt><trkpt lat="43.75351710919479" lon="7.018734886832778"><ele>945.0</ele><time>2026-04-26T15:28:22.999Z</time></trkpt><trkpt lat="43.75350552060894" lon="7.018553478421842"><ele>945.0</ele><time>2026-04-26T15:28:25Z</time></trkpt><trkpt lat="43.753503124327324" lon="7.018440649881792"><ele>945.0</ele><time>2026-04-26T15:28:26Z</time></trkpt><trkpt lat="43.753523238587164" lon="7.018353365165537"><ele>945.0</ele><time>2026-04-26T15:28:28Z</time></trkpt><trkpt lat="43.75349026601279" lon="7.018269287598252"><ele>945.0</ele><time>2026-04-26T15:28:30Z</time></trkpt><trkpt lat="43.75346026058748" lon="7.018189233677322"><ele>945.0</ele><time>2026-04-26T15:28:32Z</time></trkpt><trkpt lat="43.75344956184506" lon="7.018053896039213"><ele>942.8333333333334</ele><time>2026-04-26T15:28:35Z</time></trkpt><trkpt lat="43.75340010641186" lon="7.017961606843721"><ele>940.6666666666667</ele><time>2026-04-26T15:28:37Z</time></trkpt><trkpt lat="43.75336874866993" lon="7.017855985755516"><ele>938.5</ele><time>2026-04-26T15:28:39Z</time></trkpt><trkpt lat="43.75333088666533" lon="7.017761644845359"><ele>936.3333333333334</ele><time>2026-04-26T15:28:41Z</time></trkpt><trkpt lat="43.75325745833107" lon="7.017717384069126"><ele>934.1666666666667</ele><time>2026-04-26T15:28:43Z</time></trkpt><trkpt lat="43.75318898884527" lon="7.017669932149668"><ele>932.0</ele><time>2026-04-26T15:28:45Z</time></trkpt><trkpt lat="43.753129389953294" lon="7.017621146365283"><ele>932.0000000000001</ele><time>2026-04-26T15:28:47Z</time></trkpt><trkpt lat="43.75305670119261" lon="7.017556491782959"><ele>932.0</ele><time>2026-04-26T15:28:50Z</time></trkpt><trkpt lat="43.75298736582689" lon="7.017501797985387"><ele>932.0</ele><time>2026-04-26T15:28:53Z</time></trkpt><trkpt lat="43.752916749109126" lon="7.017449432634139"><ele>932.0</ele><time>2026-04-26T15:28:56Z</time></trkpt><trkpt lat="43.75285365485186" lon="7.017404826839196"><ele>932.0000000000001</ele><time>2026-04-26T15:29:00Z</time></trkpt><trkpt lat="43.75279499808512" lon="7.017347085202921"><ele>932.0</ele><time>2026-04-26T15:29:03Z</time></trkpt><trkpt lat="43.752710934728356" lon="7.017270784970974"><ele>929.8</ele><time>2026-04-26T15:29:05Z</time></trkpt><trkpt lat="43.75265530685094" lon="7.017223635993767"><ele>927.6</ele><time>2026-04-26T15:29:06Z</time></trkpt><trkpt lat="43.752587043237945" lon="7.0171566588585454"><ele>925.3999999999999</ele><time>2026-04-26T15:29:07Z</time></trkpt><trkpt lat="43.75249794173945" lon="7.017076050993364"><ele>923.1999999999999</ele><time>2026-04-26T15:29:08Z</time></trkpt><trkpt lat="43.752401149120814" lon="7.016990426568198"><ele>921.0</ele><time>2026-04-26T15:29:09Z</time></trkpt><trkpt lat="43.75231374882902" lon="7.016918902855798"><ele>921.0</ele><time>2026-04-26T15:29:10Z</time></trkpt><trkpt lat="43.75222726081211" lon="7.016850068567384"><ele>921.0</ele><time>2026-04-26T15:29:11Z</time></trkpt><trkpt lat="43.75215066906721" lon="7.016785768488575"><ele>921.0</ele><time>2026-04-26T15:29:12Z</time></trkpt><trkpt lat="43.75207763426741" lon="7.016728993851475"><ele>921.0</ele><time>2026-04-26T15:29:13Z</time></trkpt><trkpt lat="43.752011827082065" lon="7.01667153756259"><ele>921.0</ele><time>2026-04-26T15:29:14Z</time></trkpt><trkpt lat="43.751940986438534" lon="7.016578865074336"><ele>921.0</ele><time>2026-04-26T15:29:15Z</time></trkpt><trkpt lat="43.75185423941807" lon="7.016468893823606"><ele>919.1999999999999</ele><time>2026-04-26T15:29:16Z</time></trkpt><trkpt lat="43.75176811473685" lon="7.016387659241903"><ele>917.3999999999999</ele><time>2026-04-26T15:29:17Z</time></trkpt><trkpt lat="43.751691951542476" lon="7.016315728080281"><ele>915.6</ele><time>2026-04-26T15:29:18Z</time></trkpt><trkpt lat="43.75160669926932" lon="7.0162573168968665"><ele>913.8</ele><time>2026-04-26T15:29:19Z</time></trkpt><trkpt lat="43.75150229963067" lon="7.016212119037796"><ele>912.0</ele><time>2026-04-26T15:29:20Z</time></trkpt><trkpt lat="43.751392114613864" lon="7.016166922678769"><ele>912.0</ele><time>2026-04-26T15:29:21Z</time></trkpt><trkpt lat="43.75129595508391" lon="7.016118878751459"><ele>912.0</ele><time>2026-04-26T15:29:22Z</time></trkpt><trkpt lat="43.751204833374466" lon="7.016080739174767"><ele>912.0</ele><time>2026-04-26T15:29:23Z</time></trkpt><trkpt lat="43.751134464866496" lon="7.01606082183339"><ele>912.0</ele><time>2026-04-26T15:29:23.999Z</time></trkpt><trkpt lat="43.75103878922325" lon="7.016050713745667"><ele>912.0</ele><time>2026-04-26T15:29:25.999Z</time></trkpt><trkpt lat="43.75097569867693" lon="7.016067624748096"><ele>912.0</ele><time>2026-04-26T15:29:27.999Z</time></trkpt><trkpt lat="43.75093654993969" lon="7.01614370401477"><ele>911.8333333333334</ele><time>2026-04-26T15:29:29.999Z</time></trkpt><trkpt lat="43.75089458886197" lon="7.016222768214304"><ele>911.6666666666667</ele><time>2026-04-26T15:29:32.999Z</time></trkpt><trkpt lat="43.75080891165098" lon="7.01627864497325"><ele>911.5</ele><time>2026-04-26T15:29:35.999Z</time></trkpt><trkpt lat="43.75073692826556" lon="7.016306798352071"><ele>911.3333333333334</ele><time>2026-04-26T15:29:38.999Z</time></trkpt><trkpt lat="43.750655300278545" lon="7.0162507548617175"><ele>911.1666666666667</ele><time>2026-04-26T15:29:40.999Z</time></trkpt><trkpt lat="43.75056937329134" lon="7.0162500437849715"><ele>911.0</ele><time>2026-04-26T15:29:42.999Z</time></trkpt><trkpt lat="43.75048002891268" lon="7.016238803907307"><ele>911.0</ele><time>2026-04-26T15:29:44.999Z</time></trkpt><trkpt lat="43.75038876281246" lon="7.01624243802859"><ele>910.9999999999999</ele><time>2026-04-26T15:29:46.999Z</time></trkpt><trkpt lat="43.7502840989846" lon="7.016206176562823"><ele>910.9999999999999</ele><time>2026-04-26T15:29:48.999Z</time></trkpt><trkpt lat="43.750174606305116" lon="7.016196139016284"><ele>911.0</ele><time>2026-04-26T15:29:50.999Z</time></trkpt><trkpt lat="43.75009724408566" lon="7.016182681358462"><ele>911.0</ele><time>2026-04-26T15:29:52.999Z</time></trkpt><trkpt lat="43.750008523436534" lon="7.016156309275197"><ele>909.3333333333334</ele><time>2026-04-26T15:29:55.999Z</time></trkpt><trkpt lat="43.74991469901908" lon="7.016129567011053"><ele>907.6666666666667</ele><time>2026-04-26T15:29:57.999Z</time></trkpt><trkpt lat="43.74984597003874" lon="7.016122950575264"><ele>906.0</ele><time>2026-04-26T15:29:59.999Z</time></trkpt><trkpt lat="43.74977025523769" lon="7.01610891482184"><ele>904.3333333333333</ele><time>2026-04-26T15:30:02.999Z</time></trkpt><trkpt lat="43.74969578004509" lon="7.016097888090742"><ele>902.6666666666666</ele><time>2026-04-26T15:30:05.999Z</time></trkpt><trkpt lat="43.74961897873323" lon="7.016066097598356"><ele>901.0</ele><time>2026-04-26T15:30:08.999Z</time></trkpt><trkpt lat="43.749544849290665" lon="7.016030166295699"><ele>900.9999999999999</ele><time>2026-04-26T15:30:11.999Z</time></trkpt><trkpt lat="43.749460354425075" lon="7.015985498547694"><ele>901.0</ele><time>2026-04-26T15:30:13.999Z</time></trkpt><trkpt lat="43.74937588710012" lon="7.015956046688005"><ele>901.0</ele><time>2026-04-26T15:30:15.999Z</time></trkpt><trkpt lat="43.74929980413353" lon="7.015904997284599"><ele>901.0</ele><time>2026-04-26T15:30:17.999Z</time></trkpt><trkpt lat="43.74922989502905" lon="7.015871296511172"><ele>900.9999999999999</ele><time>2026-04-26T15:30:19.999Z</time></trkpt><trkpt lat="43.74913019353691" lon="7.015832719568399"><ele>901.0</ele><time>2026-04-26T15:30:21.999Z</time></trkpt><trkpt lat="43.74905878289679" lon="7.015824236037381"><ele>893.4</ele><time>2026-04-26T15:30:23.999Z</time></trkpt><trkpt lat="43.74897877528171" lon="7.015771867701881"><ele>885.8</ele><time>2026-04-26T15:30:25.999Z</time></trkpt><trkpt lat="43.748873170080685" lon="7.015730861792078"><ele>878.1999999999999</ele><time>2026-04-26T15:30:27.998Z</time></trkpt><trkpt lat="43.74876330533011" lon="7.015677071476827"><ele>870.5999999999999</ele><time>2026-04-26T15:30:29.998Z</time></trkpt><trkpt lat="43.74868085406406" lon="7.015603365929565"><ele>863.0</ele><time>2026-04-26T15:30:32Z</time></trkpt><trkpt lat="43.74861084393556" lon="7.015554161145251"><ele>863.0000000000001</ele><time>2026-04-26T15:30:34Z</time></trkpt><trkpt lat="43.74855237635036" lon="7.015483689375698"><ele>863.0</ele><time>2026-04-26T15:30:36Z</time></trkpt><trkpt lat="43.74848315611985" lon="7.015393067109412"><ele>863.0</ele><time>2026-04-26T15:30:38Z</time></trkpt><trkpt lat="43.74842765874126" lon="7.015258197506775"><ele>863.0</ele><time>2026-04-26T15:30:40Z</time></trkpt><trkpt lat="43.748384427516164" lon="7.015185590335039"><ele>863.0000000000001</ele><time>2026-04-26T15:30:41Z</time></trkpt><trkpt lat="43.748331695818315" lon="7.015093541479028"><ele>863.0</ele><time>2026-04-26T15:30:42Z</time></trkpt><trkpt lat="43.748271366785715" lon="7.014994373800416"><ele>862.8</ele><time>2026-04-26T15:30:43Z</time></trkpt><trkpt lat="43.74819941918421" lon="7.014900601295214"><ele>862.5999999999999</ele><time>2026-04-26T15:30:44Z</time></trkpt><trkpt lat="43.74813639484143" lon="7.014807198281591"><ele>862.4000000000001</ele><time>2026-04-26T15:30:45Z</time></trkpt><trkpt lat="43.74808798678723" lon="7.014729284457641"><ele>862.2</ele><time>2026-04-26T15:30:46Z</time></trkpt><trkpt lat="43.748018948009936" lon="7.0146284889101365"><ele>862.0</ele><time>2026-04-26T15:30:48Z</time></trkpt><trkpt lat="43.74794675882727" lon="7.014560554902563"><ele>862.0</ele><time>2026-04-26T15:30:50Z</time></trkpt><trkpt lat="43.74787952733378" lon="7.014534924016343"><ele>862.0</ele><time>2026-04-26T15:30:52Z</time></trkpt><trkpt lat="43.747791260094736" lon="7.014434536261969"><ele>862.0</ele><time>2026-04-26T15:30:54Z</time></trkpt><trkpt lat="43.74772090957838" lon="7.014343879183212"><ele>862.0</ele><time>2026-04-26T15:30:55Z</time></trkpt><trkpt lat="43.74763655765245" lon="7.014229464990313"><ele>862.0</ele><time>2026-04-26T15:30:56Z</time></trkpt><trkpt lat="43.747560902733724" lon="7.014130632887983"><ele>860.9999999999999</ele><time>2026-04-26T15:30:57Z</time></trkpt><trkpt lat="43.747495626105966" lon="7.014052737926867"><ele>860.0</ele><time>2026-04-26T15:30:58Z</time></trkpt><trkpt lat="43.74743200963262" lon="7.013992321429497"><ele>859.0</ele><time>2026-04-26T15:30:59Z</time></trkpt><trkpt lat="43.747369327143815" lon="7.013960527393978"><ele>858.0</ele><time>2026-04-26T15:31:00Z</time></trkpt><trkpt lat="43.747291105870346" lon="7.014004955556851"><ele>856.9999999999999</ele><time>2026-04-26T15:31:02Z</time></trkpt><trkpt lat="43.74724495774427" lon="7.014070840291503"><ele>856.0</ele><time>2026-04-26T15:31:04Z</time></trkpt><trkpt lat="43.74718229152675" lon="7.014143836483936"><ele>861.5999999999999</ele><time>2026-04-26T15:31:06Z</time></trkpt><trkpt lat="43.747138353953815" lon="7.014274222573947"><ele>867.1999999999999</ele><time>2026-04-26T15:31:08Z</time></trkpt><trkpt lat="43.74706235289858" lon="7.0144083673327895"><ele>872.8000000000001</ele><time>2026-04-26T15:31:10Z</time></trkpt><trkpt lat="43.7470281126426" lon="7.014490622157909"><ele>878.4000000000001</ele><time>2026-04-26T15:31:11Z</time></trkpt><trkpt lat="43.746963428573245" lon="7.014613827958957"><ele>884.0</ele><time>2026-04-26T15:31:13Z</time></trkpt><trkpt lat="43.746892325209714" lon="7.014736104056945"><ele>884.2</ele><time>2026-04-26T15:31:15Z</time></trkpt><trkpt lat="43.74680242764939" lon="7.014862771718729"><ele>884.4000000000001</ele><time>2026-04-26T15:31:17Z</time></trkpt><trkpt lat="43.74674301659185" lon="7.014919691427034"><ele>884.6</ele><time>2026-04-26T15:31:18Z</time></trkpt><trkpt lat="43.74669111700883" lon="7.014982318976761"><ele>884.8</ele><time>2026-04-26T15:31:19Z</time></trkpt><trkpt lat="43.74660834904604" lon="7.015096175739238"><ele>885.0</ele><time>2026-04-26T15:31:21Z</time></trkpt><trkpt lat="43.74649996944079" lon="7.0151761626788165"><ele>885.0</ele><time>2026-04-26T15:31:23Z</time></trkpt><trkpt lat="43.746434551871346" lon="7.015217919053901"><ele>885.0</ele><time>2026-04-26T15:31:24Z</time></trkpt><trkpt lat="43.74635821801594" lon="7.015246085859968"><ele>885.0</ele><time>2026-04-26T15:31:25Z</time></trkpt><trkpt lat="43.74629403870728" lon="7.0152741874281705"><ele>885.0</ele><time>2026-04-26T15:31:26Z</time></trkpt><trkpt lat="43.74623115819201" lon="7.015290540062656"><ele>885.0</ele><time>2026-04-26T15:31:27Z</time></trkpt><trkpt lat="43.7461677502647" lon="7.0153095143974"><ele>885.0</ele><time>2026-04-26T15:31:28Z</time></trkpt><trkpt lat="43.746043499740395" lon="7.015298720657158"><ele>880.8333333333334</ele><time>2026-04-26T15:31:30Z</time></trkpt><trkpt lat="43.74592125487007" lon="7.015323752187337"><ele>876.6666666666667</ele><time>2026-04-26T15:31:32Z</time></trkpt><trkpt lat="43.74584152121451" lon="7.01534497167398"><ele>872.5</ele><time>2026-04-26T15:31:32.999Z</time></trkpt><trkpt lat="43.74576767427053" lon="7.015370455315281"><ele>868.3333333333334</ele><time>2026-04-26T15:31:33.999Z</time></trkpt><trkpt lat="43.74570364010349" lon="7.015405620944427"><ele>864.1666666666667</ele><time>2026-04-26T15:31:34.999Z</time></trkpt><trkpt lat="43.74563446490163" lon="7.015437459804617"><ele>860.0</ele><time>2026-04-26T15:31:35.999Z</time></trkpt><trkpt lat="43.74551479741788" lon="7.015454015558396"><ele>860.0</ele><time>2026-04-26T15:31:37.999Z</time></trkpt><trkpt lat="43.74543237402477" lon="7.0154536055883865"><ele>860.0</ele><time>2026-04-26T15:31:38.999Z</time></trkpt><trkpt lat="43.74535572422719" lon="7.01548087023054"><ele>860.0</ele><time>2026-04-26T15:31:39.999Z</time></trkpt><trkpt lat="43.745293042882224" lon="7.01552501073064"><ele>860.0</ele><time>2026-04-26T15:31:40.999Z</time></trkpt><trkpt lat="43.74522683685456" lon="7.015648265900381"><ele>860.0</ele><time>2026-04-26T15:31:42.999Z</time></trkpt><trkpt lat="43.74514579200596" lon="7.015768332842131"><ele>861.3333333333334</ele><time>2026-04-26T15:31:44.999Z</time></trkpt><trkpt lat="43.74509704205914" lon="7.015848314323407"><ele>862.6666666666667</ele><time>2026-04-26T15:31:45.999Z</time></trkpt><trkpt lat="43.74504763598242" lon="7.015907292212201"><ele>864.0</ele><time>2026-04-26T15:31:46.999Z</time></trkpt><trkpt lat="43.744951339310354" lon="7.015997136973172"><ele>865.3333333333333</ele><time>2026-04-26T15:31:48.999Z</time></trkpt><trkpt lat="43.74490140308983" lon="7.016059623042427"><ele>866.6666666666666</ele><time>2026-04-26T15:31:49.999Z</time></trkpt><trkpt lat="43.74484103294171" lon="7.016091314027933"><ele>868.0</ele><time>2026-04-26T15:31:50.999Z</time></trkpt><trkpt lat="43.74474212379114" lon="7.0161781252498026"><ele>868.0</ele><time>2026-04-26T15:31:52.999Z</time></trkpt><trkpt lat="43.7446720910167" lon="7.016287082630214"><ele>868.0</ele><time>2026-04-26T15:31:54.999Z</time></trkpt><trkpt lat="43.74458695344754" lon="7.016373112731545"><ele>868.0</ele><time>2026-04-26T15:31:56.999Z</time></trkpt><trkpt lat="43.74447613515996" lon="7.016480650912836"><ele>868.0</ele><time>2026-04-26T15:31:58.999Z</time></trkpt><trkpt lat="43.744427501190614" lon="7.016536855114147"><ele>868.0</ele><time>2026-04-26T15:31:59.999Z</time></trkpt><trkpt lat="43.74433749742226" lon="7.01666143210548"><ele>867.4999999999999</ele><time>2026-04-26T15:32:01.999Z</time></trkpt><trkpt lat="43.744264380453906" lon="7.0167249375216105"><ele>867.0</ele><time>2026-04-26T15:32:02.999Z</time></trkpt><trkpt lat="43.7442012184957" lon="7.016789775247432"><ele>866.5</ele><time>2026-04-26T15:32:03.999Z</time></trkpt><trkpt lat="43.74414548390762" lon="7.0168583165866565"><ele>866.0</ele><time>2026-04-26T15:32:04.999Z</time></trkpt><trkpt lat="43.74406001517475" lon="7.016907529742248"><ele>865.4999999999999</ele><time>2026-04-26T15:32:05.999Z</time></trkpt><trkpt lat="43.74396458231432" lon="7.016949055894095"><ele>865.0</ele><time>2026-04-26T15:32:06.999Z</time></trkpt><trkpt lat="43.743888351639775" lon="7.017025170801645"><ele>864.9999999999999</ele><time>2026-04-26T15:32:07.999Z</time></trkpt><trkpt lat="43.74382689304987" lon="7.017089830064885"><ele>865.0</ele><time>2026-04-26T15:32:08.999Z</time></trkpt><trkpt lat="43.743772933563996" lon="7.017153793949253"><ele>865.0</ele><time>2026-04-26T15:32:09.999Z</time></trkpt><trkpt lat="43.74371200347488" lon="7.017214959620885"><ele>865.0</ele><time>2026-04-26T15:32:10.999Z</time></trkpt><trkpt lat="43.74363975551405" lon="7.017275795421593"><ele>864.9999999999999</ele><time>2026-04-26T15:32:11.999Z</time></trkpt><trkpt lat="43.743570833271086" lon="7.017344226837325"><ele>865.0</ele><time>2026-04-26T15:32:12.999Z</time></trkpt><trkpt lat="43.74350904772697" lon="7.017417319468621"><ele>865.6</ele><time>2026-04-26T15:32:13.999Z</time></trkpt><trkpt lat="43.74345773599427" lon="7.017483889525807"><ele>866.2</ele><time>2026-04-26T15:32:14.999Z</time></trkpt><trkpt lat="43.74333391934844" lon="7.017522101400307"><ele>866.8</ele><time>2026-04-26T15:32:16.999Z</time></trkpt><trkpt lat="43.74324934882558" lon="7.017552735308925"><ele>867.4</ele><time>2026-04-26T15:32:17.999Z</time></trkpt><trkpt lat="43.7431541303504" lon="7.017595823475203"><ele>868.0</ele><time>2026-04-26T15:32:18.999Z</time></trkpt><trkpt lat="43.743077148481575" lon="7.017644892032515"><ele>868.0</ele><time>2026-04-26T15:32:19.999Z</time></trkpt><trkpt lat="43.7430136566967" lon="7.017691341078242"><ele>868.0</ele><time>2026-04-26T15:32:20.999Z</time></trkpt><trkpt lat="43.74294483560167" lon="7.017714131289272"><ele>868.0</ele><time>2026-04-26T15:32:21.999Z</time></trkpt><trkpt lat="43.74285793900772" lon="7.017735334814653"><ele>868.0</ele><time>2026-04-26T15:32:22.999Z</time></trkpt><trkpt lat="43.742742733542116" lon="7.01776876526042"><ele>868.0</ele><time>2026-04-26T15:32:23.999Z</time></trkpt><trkpt lat="43.742625770701004" lon="7.0177965260556165"><ele>864.8333333333333</ele><time>2026-04-26T15:32:24.999Z</time></trkpt><trkpt lat="43.74253047986995" lon="7.017807690767595"><ele>861.6666666666666</ele><time>2026-04-26T15:32:25.999Z</time></trkpt><trkpt lat="43.742452940778165" lon="7.017823067690758"><ele>858.5</ele><time>2026-04-26T15:32:26.999Z</time></trkpt><trkpt lat="43.742375273312035" lon="7.01785200806816"><ele>855.3333333333333</ele><time>2026-04-26T15:32:27.999Z</time></trkpt><trkpt lat="43.74229182187056" lon="7.017889383054546"><ele>852.1666666666666</ele><time>2026-04-26T15:32:28.999Z</time></trkpt><trkpt lat="43.74218985524184" lon="7.01792796514584"><ele>849.0</ele><time>2026-04-26T15:32:29.999Z</time></trkpt><trkpt lat="43.74206801388912" lon="7.017954007094801"><ele>849.0</ele><time>2026-04-26T15:32:30.999Z</time></trkpt><trkpt lat="43.74195188909728" lon="7.017989894753728"><ele>849.0</ele><time>2026-04-26T15:32:31.999Z</time></trkpt><trkpt lat="43.74185233875572" lon="7.018019400156207"><ele>849.0</ele><time>2026-04-26T15:32:32.999Z</time></trkpt><trkpt lat="43.74175969831932" lon="7.018033508364232"><ele>849.0</ele><time>2026-04-26T15:32:33.999Z</time></trkpt><trkpt lat="43.741680103194156" lon="7.018052482779511"><ele>849.0</ele><time>2026-04-26T15:32:34.999Z</time></trkpt><trkpt lat="43.74160468806724" lon="7.018073001153096"><ele>847.0</ele><time>2026-04-26T15:32:36Z</time></trkpt><trkpt lat="43.741532127510744" lon="7.018090550138903"><ele>845.0</ele><time>2026-04-26T15:32:37Z</time></trkpt><trkpt lat="43.74146237098222" lon="7.018120998380373"><ele>843.0</ele><time>2026-04-26T15:32:38Z</time></trkpt><trkpt lat="43.74139203607987" lon="7.018167439578357"><ele>841.0</ele><time>2026-04-26T15:32:39Z</time></trkpt><trkpt lat="43.74131495205426" lon="7.018202195045622"><ele>839.0</ele><time>2026-04-26T15:32:40Z</time></trkpt><trkpt lat="43.741229470098446" lon="7.0182103691089095"><ele>837.0</ele><time>2026-04-26T15:32:41Z</time></trkpt><trkpt lat="43.74114080283596" lon="7.018207398186199"><ele>837.0</ele><time>2026-04-26T15:32:42Z</time></trkpt><trkpt lat="43.741053806628706" lon="7.018205878775998"><ele>837.0</ele><time>2026-04-26T15:32:43Z</time></trkpt><trkpt lat="43.740972983074286" lon="7.018202366633721"><ele>837.0</ele><time>2026-04-26T15:32:44Z</time></trkpt><trkpt lat="43.74088974122954" lon="7.018171796194653"><ele>837.0</ele><time>2026-04-26T15:32:45Z</time></trkpt><trkpt lat="43.74078463083617" lon="7.018126196682338"><ele>837.0</ele><time>2026-04-26T15:32:46Z</time></trkpt><trkpt lat="43.74065973123253" lon="7.018081281904292"><ele>836.6</ele><time>2026-04-26T15:32:47Z</time></trkpt><trkpt lat="43.74054515525157" lon="7.0180517520584"><ele>836.2</ele><time>2026-04-26T15:32:48Z</time></trkpt><trkpt lat="43.74043318254862" lon="7.018001079206897"><ele>835.8</ele><time>2026-04-26T15:32:49Z</time></trkpt><trkpt lat="43.74035721120018" lon="7.017968168693296"><ele>835.4</ele><time>2026-04-26T15:32:50Z</time></trkpt><trkpt lat="43.7402903508636" lon="7.017927562754654"><ele>835.0</ele><time>2026-04-26T15:32:51Z</time></trkpt><trkpt lat="43.74022111114196" lon="7.017890699635162"><ele>836.0</ele><time>2026-04-26T15:32:52Z</time></trkpt><trkpt lat="43.74015264777196" lon="7.0178925455567285"><ele>837.0</ele><time>2026-04-26T15:32:53Z</time></trkpt><trkpt lat="43.74006113983949" lon="7.017882363376082"><ele>838.0</ele><time>2026-04-26T15:32:54Z</time></trkpt><trkpt lat="43.73995892831794" lon="7.017851611535347"><ele>839.0</ele><time>2026-04-26T15:32:55Z</time></trkpt><trkpt lat="43.73983828370856" lon="7.017814340758225"><ele>840.0</ele><time>2026-04-26T15:32:56Z</time></trkpt><trkpt lat="43.73971437974069" lon="7.017760381226344"><ele>840.0</ele><time>2026-04-26T15:32:57Z</time></trkpt><trkpt lat="43.73959142712215" lon="7.017698848025204"><ele>840.0</ele><time>2026-04-26T15:32:58Z</time></trkpt><trkpt lat="43.73950141408791" lon="7.01767589496318"><ele>840.0</ele><time>2026-04-26T15:32:59Z</time></trkpt><trkpt lat="43.739410395002324" lon="7.017686501148287"><ele>840.0</ele><time>2026-04-26T15:33:00Z</time></trkpt><trkpt lat="43.739302506014205" lon="7.017709298618607"><ele>840.0</ele><time>2026-04-26T15:33:01Z</time></trkpt><trkpt lat="43.73921263526654" lon="7.017717214234671"><ele>839.4</ele><time>2026-04-26T15:33:02Z</time></trkpt><trkpt lat="43.7391475083422" lon="7.017731047295921"><ele>838.8</ele><time>2026-04-26T15:33:03Z</time></trkpt><trkpt lat="43.73905657960168" lon="7.017770895511451"><ele>838.2</ele><time>2026-04-26T15:33:05Z</time></trkpt><trkpt lat="43.73897339015236" lon="7.0177995938128666"><ele>837.6</ele><time>2026-04-26T15:33:07Z</time></trkpt><trkpt lat="43.738854112453886" lon="7.017799249550606"><ele>837.0</ele><time>2026-04-26T15:33:09Z</time></trkpt><trkpt lat="43.73875954044723" lon="7.017833679356849"><ele>837.0</ele><time>2026-04-26T15:33:10Z</time></trkpt><trkpt lat="43.73866660011113" lon="7.017839037757818"><ele>837.0</ele><time>2026-04-26T15:33:11Z</time></trkpt><trkpt lat="43.73858303890343" lon="7.017817874046448"><ele>837.0</ele><time>2026-04-26T15:33:12Z</time></trkpt><trkpt lat="43.7384446638294" lon="7.017821306999302"><ele>837.0</ele><time>2026-04-26T15:33:14Z</time></trkpt><trkpt lat="43.738344690778035" lon="7.017829505718278"><ele>837.0</ele><time>2026-04-26T15:33:15Z</time></trkpt><trkpt lat="43.738254898194654" lon="7.017827994714171"><ele>835.8333333333334</ele><time>2026-04-26T15:33:16Z</time></trkpt><trkpt lat="43.73818791141008" lon="7.017840307782151"><ele>834.6666666666667</ele><time>2026-04-26T15:33:19Z</time></trkpt><trkpt lat="43.73811969673914" lon="7.017889588483426"><ele>833.5</ele><time>2026-04-26T15:33:22Z</time></trkpt><trkpt lat="43.73802911461641" lon="7.017895575474695"><ele>832.3333333333334</ele><time>2026-04-26T15:33:24Z</time></trkpt><trkpt lat="43.7379414340515" lon="7.017894304966881"><ele>831.1666666666667</ele><time>2026-04-26T15:33:25Z</time></trkpt><trkpt lat="43.7378443252432" lon="7.017896616826518"><ele>830.0</ele><time>2026-04-26T15:33:26Z</time></trkpt><trkpt lat="43.73774506979426" lon="7.0179067940931565"><ele>830.0000000000001</ele><time>2026-04-26T15:33:27Z</time></trkpt><trkpt lat="43.73766017791037" lon="7.017911805902069"><ele>830.0</ele><time>2026-04-26T15:33:28Z</time></trkpt><trkpt lat="43.737584432123775" lon="7.0179108381457915"><ele>830.0</ele><time>2026-04-26T15:33:29Z</time></trkpt><trkpt lat="43.73751059679905" lon="7.0179313825250595"><ele>830.0</ele><time>2026-04-26T15:33:30Z</time></trkpt><trkpt lat="43.73743169028757" lon="7.017938561460821"><ele>830.0000000000001</ele><time>2026-04-26T15:33:31Z</time></trkpt><trkpt lat="43.73734427068898" lon="7.017911972848674"><ele>830.0</ele><time>2026-04-26T15:33:32Z</time></trkpt><trkpt lat="43.73726568114608" lon="7.017886309749937"><ele>830.0</ele><time>2026-04-26T15:33:33Z</time></trkpt><trkpt lat="43.737167289558975" lon="7.017906656595882"><ele>830.0</ele><time>2026-04-26T15:33:35Z</time></trkpt><trkpt lat="43.73710285763135" lon="7.0179628731682895"><ele>830.0</ele><time>2026-04-26T15:33:36Z</time></trkpt><trkpt lat="43.73701311036155" lon="7.017996298397385"><ele>830.0</ele><time>2026-04-26T15:33:37Z</time></trkpt><trkpt lat="43.73689676932509" lon="7.0180283605928455"><ele>830.0</ele><time>2026-04-26T15:33:37.999Z</time></trkpt><trkpt lat="43.73676158432475" lon="7.018040203852998"><ele>829.0</ele><time>2026-04-26T15:33:38.999Z</time></trkpt><trkpt lat="43.73664630332442" lon="7.018033792607937"><ele>828.0</ele><time>2026-04-26T15:33:39.999Z</time></trkpt><trkpt lat="43.73655130105187" lon="7.018026315588707"><ele>827.0</ele><time>2026-04-26T15:33:40.999Z</time></trkpt><trkpt lat="43.73647259073504" lon="7.018031228920751"><ele>826.0</ele><time>2026-04-26T15:33:41.999Z</time></trkpt><trkpt lat="43.73638336504207" lon="7.017994646519335"><ele>825.0</ele><time>2026-04-26T15:33:42.999Z</time></trkpt><trkpt lat="43.736322606633706" lon="7.017947002897165"><ele>825.0</ele><time>2026-04-26T15:33:43.999Z</time></trkpt><trkpt lat="43.73624116492637" lon="7.0179185678242195"><ele>825.0</ele><time>2026-04-26T15:33:45.999Z</time></trkpt><trkpt lat="43.736153148254964" lon="7.0178571620176635"><ele>825.0</ele><time>2026-04-26T15:33:47.999Z</time></trkpt><trkpt lat="43.73608869474109" lon="7.017843869336556"><ele>825.0</ele><time>2026-04-26T15:33:48.999Z</time></trkpt><trkpt lat="43.736006866665754" lon="7.017764101708382"><ele>825.0</ele><time>2026-04-26T15:33:50.999Z</time></trkpt><trkpt lat="43.73591080447193" lon="7.017735570191109"><ele>825.0</ele><time>2026-04-26T15:33:52.999Z</time></trkpt><trkpt lat="43.735826491332276" lon="7.017762575841252"><ele>826.3333333333334</ele><time>2026-04-26T15:33:54.999Z</time></trkpt><trkpt lat="43.73574115334638" lon="7.017908654753779"><ele>827.6666666666667</ele><time>2026-04-26T15:33:56.999Z</time></trkpt><trkpt lat="43.73563941377915" lon="7.01790231557989"><ele>829.0</ele><time>2026-04-26T15:33:58.999Z</time></trkpt><trkpt lat="43.735571300021284" lon="7.017870443394949"><ele>830.3333333333334</ele><time>2026-04-26T15:33:59.999Z</time></trkpt><trkpt lat="43.73551822464151" lon="7.0178232109869985"><ele>831.6666666666667</ele><time>2026-04-26T15:34:00.999Z</time></trkpt><trkpt lat="43.735462185717104" lon="7.017776257671888"><ele>833.0</ele><time>2026-04-26T15:34:01.999Z</time></trkpt><trkpt lat="43.73537217448596" lon="7.017677291718471"><ele>833.0000000000001</ele><time>2026-04-26T15:34:03.999Z</time></trkpt><trkpt lat="43.73532679873295" lon="7.017595149385408"><ele>833.0</ele><time>2026-04-26T15:34:04.999Z</time></trkpt><trkpt lat="43.7353100549225" lon="7.017480412479829"><ele>833.0</ele><time>2026-04-26T15:34:05.999Z</time></trkpt><trkpt lat="43.73530287655121" lon="7.017373582872164"><ele>833.0</ele><time>2026-04-26T15:34:06.999Z</time></trkpt><trkpt lat="43.73529947031661" lon="7.017260422413134"><ele>833.0000000000001</ele><time>2026-04-26T15:34:07.999Z</time></trkpt><trkpt lat="43.735299935678164" lon="7.017156665378386"><ele>833.0</ele><time>2026-04-26T15:34:08.999Z</time></trkpt><trkpt lat="43.7352936651288" lon="7.017061114480088"><ele>834.5999999999999</ele><time>2026-04-26T15:34:09.999Z</time></trkpt><trkpt lat="43.735232971653225" lon="7.0169588119495385"><ele>836.1999999999999</ele><time>2026-04-26T15:34:11.999Z</time></trkpt><trkpt lat="43.73515316174491" lon="7.016839804279458"><ele>837.8</ele><time>2026-04-26T15:34:13.999Z</time></trkpt><trkpt lat="43.73507320778491" lon="7.016697476541546"><ele>839.4</ele><time>2026-04-26T15:34:15.999Z</time></trkpt><trkpt lat="43.73498349784332" lon="7.01662121152357"><ele>841.0</ele><time>2026-04-26T15:34:16.999Z</time></trkpt><trkpt lat="43.734907380589355" lon="7.016526595414705"><ele>837.0</ele><time>2026-04-26T15:34:17.999Z</time></trkpt><trkpt lat="43.73483737542433" lon="7.016468479526934"><ele>833.0</ele><time>2026-04-26T15:34:18.999Z</time></trkpt><trkpt lat="43.73475350561829" lon="7.016419430712049"><ele>829.0</ele><time>2026-04-26T15:34:19.999Z</time></trkpt><trkpt lat="43.73467626060555" lon="7.016375468301432"><ele>825.0</ele><time>2026-04-26T15:34:20.999Z</time></trkpt><trkpt lat="43.73459490330656" lon="7.0163147971413204"><ele>821.0</ele><time>2026-04-26T15:34:21.999Z</time></trkpt><trkpt lat="43.734504760498815" lon="7.016251355443289"><ele>821.0</ele><time>2026-04-26T15:34:22.999Z</time></trkpt><trkpt lat="43.734421938751936" lon="7.016167957979014"><ele>821.0</ele><time>2026-04-26T15:34:23.999Z</time></trkpt><trkpt lat="43.734347978331826" lon="7.016090117750722"><ele>821.0</ele><time>2026-04-26T15:34:24.999Z</time></trkpt><trkpt lat="43.73426393572093" lon="7.016014964797225"><ele>821.0</ele><time>2026-04-26T15:34:25.999Z</time></trkpt><trkpt lat="43.73418797824064" lon="7.015948236040548"><ele>821.0</ele><time>2026-04-26T15:34:26.999Z</time></trkpt><trkpt lat="43.734104995250696" lon="7.01587883819038"><ele>821.3333333333334</ele><time>2026-04-26T15:34:27.999Z</time></trkpt><trkpt lat="43.73402914003743" lon="7.015796568029592"><ele>821.6666666666667</ele><time>2026-04-26T15:34:28.999Z</time></trkpt><trkpt lat="43.73396723320234" lon="7.015741558887417"><ele>822.0</ele><time>2026-04-26T15:34:29.999Z</time></trkpt><trkpt lat="43.733908088282035" lon="7.015696687608511"><ele>822.3333333333333</ele><time>2026-04-26T15:34:30.999Z</time></trkpt><trkpt lat="43.73383437684485" lon="7.015652774495482"><ele>822.6666666666666</ele><time>2026-04-26T15:34:31.999Z</time></trkpt><trkpt lat="43.73375309995132" lon="7.015594478048607"><ele>823.0</ele><time>2026-04-26T15:34:32.999Z</time></trkpt><trkpt lat="43.73365529925907" lon="7.015526660703602"><ele>826.75</ele><time>2026-04-26T15:34:33.999Z</time></trkpt><trkpt lat="43.73355293515402" lon="7.015433116631439"><ele>830.5</ele><time>2026-04-26T15:34:34.999Z</time></trkpt><trkpt lat="43.73347916675728" lon="7.015345358487372"><ele>834.25</ele><time>2026-04-26T15:34:35.999Z</time></trkpt><trkpt lat="43.73342068682792" lon="7.015223622095703"><ele>838.0</ele><time>2026-04-26T15:34:36.999Z</time></trkpt><trkpt lat="43.733337136542055" lon="7.015091802860258"><ele>836.2</ele><time>2026-04-26T15:34:37.999Z</time></trkpt><trkpt lat="43.73326433057668" lon="7.014972034253166"><ele>834.4</ele><time>2026-04-26T15:34:38.999Z</time></trkpt><trkpt lat="43.733200320359444" lon="7.014878610319374"><ele>832.6</ele><time>2026-04-26T15:34:39.998Z</time></trkpt><trkpt lat="43.733150207636875" lon="7.0148095178083745"><ele>830.8000000000001</ele><time>2026-04-26T15:34:41Z</time></trkpt><trkpt lat="43.73308961776213" lon="7.014739983646341"><ele>829.0</ele><time>2026-04-26T15:34:42Z</time></trkpt><trkpt lat="43.733010171402086" lon="7.014663986131592"><ele>828.9999999999999</ele><time>2026-04-26T15:34:43Z</time></trkpt><trkpt lat="43.732931171441884" lon="7.014581134291323"><ele>829.0</ele><time>2026-04-26T15:34:44Z</time></trkpt><trkpt lat="43.732861416889406" lon="7.0145094904835315"><ele>829.0</ele><time>2026-04-26T15:34:45Z</time></trkpt><trkpt lat="43.732798550463166" lon="7.014447748650626"><ele>829.0</ele><time>2026-04-26T15:34:46Z</time></trkpt><trkpt lat="43.73273214957421" lon="7.01439750070525"><ele>828.9999999999999</ele><time>2026-04-26T15:34:47Z</time></trkpt><trkpt lat="43.73263944901884" lon="7.01433682895505"><ele>829.0</ele><time>2026-04-26T15:34:49Z</time></trkpt><trkpt lat="43.73255452393881" lon="7.014198465571855"><ele>831.0</ele><time>2026-04-26T15:34:51Z</time></trkpt><trkpt lat="43.73251242525661" lon="7.014106887161153"><ele>833.0</ele><time>2026-04-26T15:34:52Z</time></trkpt><trkpt lat="43.73247033020931" lon="7.014013021727168"><ele>835.0</ele><time>2026-04-26T15:34:53Z</time></trkpt><trkpt lat="43.73244166078961" lon="7.013890766469143"><ele>837.0</ele><time>2026-04-26T15:34:54Z</time></trkpt><trkpt lat="43.73244388435347" lon="7.013739125759517"><ele>839.0</ele><time>2026-04-26T15:34:55Z</time></trkpt><trkpt lat="43.73247295002347" lon="7.01359932738426"><ele>839.0</ele><time>2026-04-26T15:34:56Z</time></trkpt><trkpt lat="43.73250411825223" lon="7.013468888759768"><ele>839.0</ele><time>2026-04-26T15:34:57Z</time></trkpt><trkpt lat="43.73252112464514" lon="7.013377663498557"><ele>839.0</ele><time>2026-04-26T15:34:58Z</time></trkpt><trkpt lat="43.732545375152995" lon="7.0132487564321"><ele>839.0</ele><time>2026-04-26T15:35:00Z</time></trkpt><trkpt lat="43.732605973552936" lon="7.013210362583056"><ele>839.0</ele><time>2026-04-26T15:35:01Z</time></trkpt><trkpt lat="43.732799059695964" lon="7.013250702450481"><ele>836.25</ele><time>2026-04-26T15:35:03Z</time></trkpt><trkpt lat="43.732828454079794" lon="7.013021814571196"><ele>833.5</ele><time>2026-04-26T15:35:07Z</time></trkpt><trkpt lat="43.73291003715024" lon="7.012962815496844"><ele>830.75</ele><time>2026-04-26T15:35:09Z</time></trkpt><trkpt lat="43.733009547047814" lon="7.0128901059605315"><ele>828.0</ele><time>2026-04-26T15:35:10Z</time></trkpt><trkpt lat="43.73307820986235" lon="7.012806027708028"><ele>828.0</ele><time>2026-04-26T15:35:11Z</time></trkpt><trkpt lat="43.73319576104989" lon="7.012735914576272"><ele>828.0</ele><time>2026-04-26T15:35:12Z</time></trkpt><trkpt lat="43.73328241256202" lon="7.012666963060888"><ele>828.0</ele><time>2026-04-26T15:35:13Z</time></trkpt><trkpt lat="43.73339094537392" lon="7.0126204030654"><ele>828.0</ele><time>2026-04-26T15:35:14Z</time></trkpt><trkpt lat="43.73345232951513" lon="7.012584457362326"><ele>828.0</ele><time>2026-04-26T15:35:15Z</time></trkpt><trkpt lat="43.73352337848827" lon="7.0124813878031516"><ele>828.4</ele><time>2026-04-26T15:35:17Z</time></trkpt><trkpt lat="43.73353324429183" lon="7.012368427647703"><ele>828.8</ele><time>2026-04-26T15:35:18Z</time></trkpt><trkpt lat="43.73353996765521" lon="7.012258891729166"><ele>829.2</ele><time>2026-04-26T15:35:19Z</time></trkpt><trkpt lat="43.733486772658445" lon="7.012108800768856"><ele>829.6</ele><time>2026-04-26T15:35:21Z</time></trkpt><trkpt lat="43.733467719058" lon="7.011928419988532"><ele>830.0</ele><time>2026-04-26T15:35:23Z</time></trkpt><trkpt lat="43.73347333603065" lon="7.011834079331168"><ele>830.0</ele><time>2026-04-26T15:35:24Z</time></trkpt><trkpt lat="43.73351912904285" lon="7.01174231363943"><ele>830.0</ele><time>2026-04-26T15:35:26Z</time></trkpt><trkpt lat="43.733695363594215" lon="7.011722908808306"><ele>830.0</ele><time>2026-04-26T15:35:28Z</time></trkpt><trkpt lat="43.73376429228947" lon="7.011664913175723"><ele>830.0</ele><time>2026-04-26T15:35:29Z</time></trkpt><trkpt lat="43.73382598858774" lon="7.011591023818405"><ele>830.0</ele><time>2026-04-26T15:35:30Z</time></trkpt><trkpt lat="43.733885481782686" lon="7.011455993032789"><ele>826.6666666666667</ele><time>2026-04-26T15:35:32Z</time></trkpt><trkpt lat="43.733954510094" lon="7.01130574706077"><ele>823.3333333333334</ele><time>2026-04-26T15:35:34Z</time></trkpt><trkpt lat="43.73401403743653" lon="7.011265797750001"><ele>820.0</ele><time>2026-04-26T15:35:35Z</time></trkpt><trkpt lat="43.73408048115704" lon="7.011284590677988"><ele>816.6666666666667</ele><time>2026-04-26T15:35:36Z</time></trkpt><trkpt lat="43.73417080539069" lon="7.011307330280292"><ele>813.3333333333334</ele><time>2026-04-26T15:35:37Z</time></trkpt><trkpt lat="43.73422908271279" lon="7.0113544241744785"><ele>810.0</ele><time>2026-04-26T15:35:38Z</time></trkpt><trkpt lat="43.73427667152697" lon="7.011463674991234"><ele>810.0</ele><time>2026-04-26T15:35:40Z</time></trkpt><trkpt lat="43.73428076784382" lon="7.011621785063436"><ele>810.0</ele><time>2026-04-26T15:35:41Z</time></trkpt><trkpt lat="43.73432085557581" lon="7.011689787034055"><ele>810.0</ele><time>2026-04-26T15:35:42Z</time></trkpt><trkpt lat="43.73435908664945" lon="7.011804083550661"><ele>810.0</ele><time>2026-04-26T15:35:43.999Z</time></trkpt><trkpt lat="43.73437696061735" lon="7.011895690316241"><ele>810.0</ele><time>2026-04-26T15:35:44.999Z</time></trkpt><trkpt lat="43.734403198276446" lon="7.0119907657452645"><ele>810.0</ele><time>2026-04-26T15:35:45.999Z</time></trkpt><trkpt lat="43.7344668966381" lon="7.01212496615891"><ele>809.4</ele><time>2026-04-26T15:35:47.999Z</time></trkpt><trkpt lat="43.734514624502076" lon="7.012206939510591"><ele>808.8</ele><time>2026-04-26T15:35:48.999Z</time></trkpt><trkpt lat="43.734545192390144" lon="7.012311625251781"><ele>808.2</ele><time>2026-04-26T15:35:49.999Z</time></trkpt><trkpt lat="43.734603524063836" lon="7.012432001227586"><ele>807.6</ele><time>2026-04-26T15:35:50.999Z</time></trkpt><trkpt lat="43.73464700452486" lon="7.012526953603328"><ele>807.0</ele><time>2026-04-26T15:35:51.999Z</time></trkpt><trkpt lat="43.734740534037414" lon="7.0126460528020935"><ele>807.0</ele><time>2026-04-26T15:35:53.999Z</time></trkpt><trkpt lat="43.734799259017365" lon="7.012708867392673"><ele>807.0</ele><time>2026-04-26T15:35:54.999Z</time></trkpt><trkpt lat="43.734865614346866" lon="7.012758986640316"><ele>807.0</ele><time>2026-04-26T15:35:55.999Z</time></trkpt><trkpt lat="43.73493898146704" lon="7.012790418314182"><ele>807.0</ele><time>2026-04-26T15:35:56.999Z</time></trkpt><trkpt lat="43.735011408851214" lon="7.012812348730473"><ele>807.0</ele><time>2026-04-26T15:35:57.999Z</time></trkpt><trkpt lat="43.73509123564967" lon="7.012847083270128"><ele>807.0</ele><time>2026-04-26T15:35:58.999Z</time></trkpt><trkpt lat="43.73514908701332" lon="7.012908462658844"><ele>807.0000000000001</ele><time>2026-04-26T15:35:59.999Z</time></trkpt><trkpt lat="43.73519502931462" lon="7.012969362618099"><ele>807.0</ele><time>2026-04-26T15:36:00.999Z</time></trkpt><trkpt lat="43.73518964715195" lon="7.013057645004693"><ele>807.0</ele><time>2026-04-26T15:36:02.999Z</time></trkpt><trkpt lat="43.73514519412386" lon="7.013123967095731"><ele>807.0</ele><time>2026-04-26T15:36:03.999Z</time></trkpt><trkpt lat="43.73510174942106" lon="7.0131883871060685"><ele>807.0</ele><time>2026-04-26T15:36:04.999Z</time></trkpt><trkpt lat="43.73504740537302" lon="7.013240451203857"><ele>807.0000000000001</ele><time>2026-04-26T15:36:05.999Z</time></trkpt><trkpt lat="43.73498507818891" lon="7.0132961672012595"><ele>807.0</ele><time>2026-04-26T15:36:06.999Z</time></trkpt><trkpt lat="43.734888096192776" lon="7.013404262361191"><ele>806.6666666666666</ele><time>2026-04-26T15:36:08.999Z</time></trkpt><trkpt lat="43.73481899916954" lon="7.013472719729638"><ele>806.3333333333333</ele><time>2026-04-26T15:36:09.999Z</time></trkpt><trkpt lat="43.7347443866896" lon="7.0135338674877525"><ele>806.0</ele><time>2026-04-26T15:36:10.999Z</time></trkpt><trkpt lat="43.73467905809231" lon="7.013603644404388"><ele>805.6666666666666</ele><time>2026-04-26T15:36:11.999Z</time></trkpt><trkpt lat="43.73461985150438" lon="7.013704875499109"><ele>805.3333333333333</ele><time>2026-04-26T15:36:12.999Z</time></trkpt><trkpt lat="43.73457480849203" lon="7.013824125422234"><ele>805.0</ele><time>2026-04-26T15:36:13.999Z</time></trkpt><trkpt lat="43.73452808792858" lon="7.013941725876521"><ele>804.9999999999999</ele><time>2026-04-26T15:36:14.999Z</time></trkpt><trkpt lat="43.73450602704169" lon="7.014073015448141"><ele>805.0</ele><time>2026-04-26T15:36:15.999Z</time></trkpt><trkpt lat="43.73449637111377" lon="7.0141980163138165"><ele>805.0</ele><time>2026-04-26T15:36:16.999Z</time></trkpt><trkpt lat="43.73450228927715" lon="7.014310137806138"><ele>805.0</ele><time>2026-04-26T15:36:17.999Z</time></trkpt><trkpt lat="43.73448793177189" lon="7.014410564544894"><ele>804.9999999999999</ele><time>2026-04-26T15:36:18.999Z</time></trkpt><trkpt lat="43.734480977317105" lon="7.014524181054567"><ele>805.0</ele><time>2026-04-26T15:36:20.999Z</time></trkpt><trkpt lat="43.73454808587861" lon="7.0145775375431505"><ele>803.9999999999999</ele><time>2026-04-26T15:36:22.999Z</time></trkpt><trkpt lat="43.73461112728462" lon="7.01462109397882"><ele>803.0</ele><time>2026-04-26T15:36:23.999Z</time></trkpt><trkpt lat="43.734677355556634" lon="7.014649928935835"><ele>802.0</ele><time>2026-04-26T15:36:24.999Z</time></trkpt><trkpt lat="43.734741148032505" lon="7.014674038660623"><ele>801.0</ele><time>2026-04-26T15:36:25.999Z</time></trkpt><trkpt lat="43.73479724139005" lon="7.014752995884259"><ele>799.9999999999999</ele><time>2026-04-26T15:36:26.999Z</time></trkpt><trkpt lat="43.734856917464406" lon="7.014821897150423"><ele>799.0</ele><time>2026-04-26T15:36:27.999Z</time></trkpt><trkpt lat="43.73494796923748" lon="7.014853311959084"><ele>798.9999999999999</ele><time>2026-04-26T15:36:29.999Z</time></trkpt><trkpt lat="43.735011807817" lon="7.014809668611846"><ele>799.0</ele><time>2026-04-26T15:36:30.999Z</time></trkpt><trkpt lat="43.73507822836936" lon="7.014773885824848"><ele>799.0</ele><time>2026-04-26T15:36:31.999Z</time></trkpt><trkpt lat="43.73520654984071" lon="7.014738432359497"><ele>799.0</ele><time>2026-04-26T15:36:33.999Z</time></trkpt><trkpt lat="43.73526154211042" lon="7.01466650478889"><ele>798.9999999999999</ele><time>2026-04-26T15:36:34.999Z</time></trkpt><trkpt lat="43.735313596905094" lon="7.0146075749504835"><ele>799.0</ele><time>2026-04-26T15:36:35.999Z</time></trkpt><trkpt lat="43.735445860526866" lon="7.014572330976969"><ele>796.8000000000001</ele><time>2026-04-26T15:36:37.999Z</time></trkpt><trkpt lat="43.735541124966225" lon="7.0145974209102455"><ele>794.6</ele><time>2026-04-26T15:36:38.999Z</time></trkpt><trkpt lat="43.73563873664643" lon="7.0146487997528775"><ele>792.4</ele><time>2026-04-26T15:36:39.999Z</time></trkpt><trkpt lat="43.735720899071914" lon="7.01471199935557"><ele>790.2</ele><time>2026-04-26T15:36:40.999Z</time></trkpt><trkpt lat="43.7357946375052" lon="7.014718479451203"><ele>788.0</ele><time>2026-04-26T15:36:41.999Z</time></trkpt><trkpt lat="43.73591295220761" lon="7.014609305860323"><ele>788.0</ele><time>2026-04-26T15:36:43.999Z</time></trkpt><trkpt lat="43.73598769845154" lon="7.014529123511653"><ele>788.0</ele><time>2026-04-26T15:36:44.999Z</time></trkpt><trkpt lat="43.73605953871343" lon="7.014498627423481"><ele>788.0</ele><time>2026-04-26T15:36:45.998Z</time></trkpt><trkpt lat="43.73614520060248" lon="7.014517508026592"><ele>788.0</ele><time>2026-04-26T15:36:47Z</time></trkpt><trkpt lat="43.73625176758266" lon="7.014532455413071"><ele>788.0</ele><time>2026-04-26T15:36:49Z</time></trkpt><trkpt lat="43.73635024862415" lon="7.0146017929439575"><ele>786.0000000000001</ele><time>2026-04-26T15:38:18.999Z</time></trkpt><trkpt lat="43.736369737292186" lon="7.014491637469778"><ele>784.0</ele><time>2026-04-26T15:46:45.999Z</time></trkpt><trkpt lat="43.73637997496669" lon="7.014397003036958"><ele>782.0</ele><time>2026-04-26T15:46:47.999Z</time></trkpt><trkpt lat="43.736375165894756" lon="7.014309331654068"><ele>780.0</ele><time>2026-04-26T15:46:49.999Z</time></trkpt><trkpt lat="43.736367622012075" lon="7.014184556467814"><ele>778.0000000000001</ele><time>2026-04-26T15:46:51.999Z</time></trkpt><trkpt lat="43.73640446628927" lon="7.0140615350933775"><ele>776.0</ele><time>2026-04-26T15:46:53.999Z</time></trkpt><trkpt lat="43.736456243443385" lon="7.0139745016312105"><ele>775.5000000000001</ele><time>2026-04-26T15:46:58.999Z</time></trkpt><trkpt lat="43.73645468469169" lon="7.013864307301288"><ele>775.0</ele><time>2026-04-26T15:47:01.999Z</time></trkpt><trkpt lat="43.73641976126574" lon="7.0137906455764"><ele>774.5</ele><time>2026-04-26T15:47:02.999Z</time></trkpt><trkpt lat="43.73639732233452" lon="7.0137047339741585"><ele>774.0</ele><time>2026-04-26T15:47:03.999Z</time></trkpt><trkpt lat="43.73644196884395" lon="7.013631056911352"><ele>773.5000000000001</ele><time>2026-04-26T15:47:06.999Z</time></trkpt><trkpt lat="43.736546579681" lon="7.013710931638997"><ele>773.0</ele><time>2026-04-26T15:47:09.999Z</time></trkpt><trkpt lat="43.736615335858325" lon="7.013769200520825"><ele>773.0000000000001</ele><time>2026-04-26T15:47:11.999Z</time></trkpt><trkpt lat="43.73664068815742" lon="7.013875949665511"><ele>773.0</ele><time>2026-04-26T15:47:13.999Z</time></trkpt><trkpt lat="43.736710154130506" lon="7.0138925254659865"><ele>773.0</ele><time>2026-04-26T15:47:16Z</time></trkpt><trkpt lat="43.736763807386744" lon="7.0137584538178785"><ele>773.0</ele><time>2026-04-26T15:47:18Z</time></trkpt><trkpt lat="43.7367960792728" lon="7.013639033270982"><ele>773.0000000000001</ele><time>2026-04-26T15:47:19Z</time></trkpt><trkpt lat="43.7368344211929" lon="7.013525671735735"><ele>773.0</ele><time>2026-04-26T15:47:20Z</time></trkpt><trkpt lat="43.73686256703602" lon="7.013418175756426"><ele>770.4</ele><time>2026-04-26T15:47:21Z</time></trkpt><trkpt lat="43.736924006727406" lon="7.0133311427130085"><ele>767.8</ele><time>2026-04-26T15:47:23Z</time></trkpt><trkpt lat="43.73700211364367" lon="7.013301030659923"><ele>765.2</ele><time>2026-04-26T15:47:25Z</time></trkpt><trkpt lat="43.73702132225084" lon="7.013175651585437"><ele>762.6</ele><time>2026-04-26T15:47:27Z</time></trkpt><trkpt lat="43.736947461156916" lon="7.013038359778343"><ele>760.0</ele><time>2026-04-26T15:47:29Z</time></trkpt><trkpt lat="43.736900096129204" lon="7.012939056878571"><ele>760.8</ele><time>2026-04-26T15:47:30Z</time></trkpt><trkpt lat="43.736848827827934" lon="7.012855851333073"><ele>761.6</ele><time>2026-04-26T15:47:31Z</time></trkpt><trkpt lat="43.73677986303772" lon="7.012796269144873"><ele>762.4000000000001</ele><time>2026-04-26T15:47:33Z</time></trkpt><trkpt lat="43.73675383763558" lon="7.012652306478719"><ele>763.2</ele><time>2026-04-26T15:47:36Z</time></trkpt><trkpt lat="43.73672609440528" lon="7.012573641947989"><ele>764.0</ele><time>2026-04-26T15:47:37Z</time></trkpt><trkpt lat="43.73660858876341" lon="7.012483654402169"><ele>764.0</ele><time>2026-04-26T15:47:39Z</time></trkpt><trkpt lat="43.73654191434892" lon="7.012436802045847"><ele>764.0</ele><time>2026-04-26T15:47:40Z</time></trkpt><trkpt lat="43.73647613187958" lon="7.012378948436524"><ele>764.0</ele><time>2026-04-26T15:47:41Z</time></trkpt><trkpt lat="43.736396795870256" lon="7.012284912904222"><ele>764.0</ele><time>2026-04-26T15:47:42Z</time></trkpt><trkpt lat="43.7363310186654" lon="7.012228347539938"><ele>764.0</ele><time>2026-04-26T15:47:43Z</time></trkpt><trkpt lat="43.73627943219707" lon="7.0121329697806045"><ele>764.0</ele><time>2026-04-26T15:47:44Z</time></trkpt><trkpt lat="43.736239464105374" lon="7.0120294500797264"><ele>764.0</ele><time>2026-04-26T15:47:45Z</time></trkpt><trkpt lat="43.73619141683186" lon="7.0119105767859375"><ele>764.0</ele><time>2026-04-26T15:47:46Z</time></trkpt><trkpt lat="43.73617439328366" lon="7.0117872539332255"><ele>764.0</ele><time>2026-04-26T15:47:47Z</time></trkpt><trkpt lat="43.73618202550867" lon="7.011693399378042"><ele>764.0</ele><time>2026-04-26T15:47:48Z</time></trkpt><trkpt lat="43.736186831873695" lon="7.0115841012674345"><ele>764.0</ele><time>2026-04-26T15:47:49Z</time></trkpt><trkpt lat="43.73618469818779" lon="7.01146587996905"><ele>764.0</ele><time>2026-04-26T15:47:50Z</time></trkpt><trkpt lat="43.73614843070097" lon="7.011348241745306"><ele>765.3333333333333</ele><time>2026-04-26T15:47:51Z</time></trkpt><trkpt lat="43.736121006827965" lon="7.011254496098913"><ele>766.6666666666666</ele><time>2026-04-26T15:47:52Z</time></trkpt><trkpt lat="43.736125566513415" lon="7.011144393306614"><ele>768.0</ele><time>2026-04-26T15:47:54Z</time></trkpt><trkpt lat="43.73605709042775" lon="7.01118421507335"><ele>769.3333333333333</ele><time>2026-04-26T15:47:57Z</time></trkpt><trkpt lat="43.735977205038274" lon="7.011126032107358"><ele>770.6666666666666</ele><time>2026-04-26T15:48:00Z</time></trkpt><trkpt lat="43.735951388902066" lon="7.01094864551055"><ele>772.0</ele><time>2026-04-26T15:48:02Z</time></trkpt><trkpt lat="43.73596215373885" lon="7.010850886993813"><ele>771.6666666666666</ele><time>2026-04-26T15:48:03Z</time></trkpt><trkpt lat="43.73600156033985" lon="7.010718313880884"><ele>771.3333333333333</ele><time>2026-04-26T15:48:05Z</time></trkpt><trkpt lat="43.73603402733645" lon="7.010622005138629"><ele>771.0</ele><time>2026-04-26T15:48:06Z</time></trkpt><trkpt lat="43.73604979060721" lon="7.010525407249815"><ele>770.6666666666667</ele><time>2026-04-26T15:48:07Z</time></trkpt><trkpt lat="43.73604376281047" lon="7.0104209319753386"><ele>770.3333333333334</ele><time>2026-04-26T15:48:08Z</time></trkpt><trkpt lat="43.736016732649745" lon="7.010302002356469"><ele>770.0</ele><time>2026-04-26T15:48:09Z</time></trkpt><trkpt lat="43.73598910241511" lon="7.010183251676572"><ele>770.0000000000001</ele><time>2026-04-26T15:48:10Z</time></trkpt><trkpt lat="43.73598215151295" lon="7.010064602605967"><ele>770.0</ele><time>2026-04-26T15:48:11Z</time></trkpt><trkpt lat="43.735976290539526" lon="7.009951316289597"><ele>770.0</ele><time>2026-04-26T15:48:12Z</time></trkpt><trkpt lat="43.7359645131936" lon="7.009842494088921"><ele>770.0</ele><time>2026-04-26T15:48:13Z</time></trkpt><trkpt lat="43.735948638910756" lon="7.009738044198364"><ele>770.0000000000001</ele><time>2026-04-26T15:48:14Z</time></trkpt><trkpt lat="43.73595502828877" lon="7.009597680844933"><ele>770.0</ele><time>2026-04-26T15:48:16Z</time></trkpt><trkpt lat="43.735885893396485" lon="7.009600630628979"><ele>770.4285714285714</ele><time>2026-04-26T15:48:27.999Z</time></trkpt><trkpt lat="43.735943132031785" lon="7.0095118673423515"><ele>770.8571428571429</ele><time>2026-04-26T15:48:36.999Z</time></trkpt><trkpt lat="43.73595807368625" lon="7.009422526509167"><ele>771.2857142857142</ele><time>2026-04-26T15:48:37.999Z</time></trkpt><trkpt lat="43.735967623271485" lon="7.009336165718635"><ele>771.7142857142858</ele><time>2026-04-26T15:48:40.999Z</time></trkpt><trkpt lat="43.73596904350869" lon="7.009244802240513"><ele>772.1428571428571</ele><time>2026-04-26T15:48:48.999Z</time></trkpt><trkpt lat="43.73597295800139" lon="7.009359643241351"><ele>772.5714285714286</ele><time>2026-04-26T15:48:57.999Z</time></trkpt><trkpt lat="43.73597991128757" lon="7.00946928086189"><ele>773.0</ele><time>2026-04-26T15:49:00.999Z</time></trkpt><trkpt lat="43.735987964704876" lon="7.009598859819282"><ele>773.0</ele><time>2026-04-26T15:49:03.999Z</time></trkpt><trkpt lat="43.73598034704919" lon="7.009742130544859"><ele>773.0</ele><time>2026-04-26T15:49:05.999Z</time></trkpt><trkpt lat="43.73601878349702" lon="7.009872221223794"><ele>773.0</ele><time>2026-04-26T15:49:07.999Z</time></trkpt><trkpt lat="43.73603407380429" lon="7.009995668940089"><ele>773.0</ele><time>2026-04-26T15:49:08.999Z</time></trkpt><trkpt lat="43.73605608902478" lon="7.010103799545894"><ele>773.0</ele><time>2026-04-26T15:49:09.999Z</time></trkpt><trkpt lat="43.73605879858271" lon="7.010219869699797"><ele>772.8</ele><time>2026-04-26T15:49:10.999Z</time></trkpt><trkpt lat="43.736064837755094" lon="7.010352362246587"><ele>772.5999999999999</ele><time>2026-04-26T15:49:11.999Z</time></trkpt><trkpt lat="43.73610014264867" lon="7.010455699072872"><ele>772.4000000000001</ele><time>2026-04-26T15:49:12.999Z</time></trkpt><trkpt lat="43.736060906754936" lon="7.010613876345209"><ele>772.2</ele><time>2026-04-26T15:49:14.999Z</time></trkpt><trkpt lat="43.73602940099222" lon="7.010728269291873"><ele>772.0</ele><time>2026-04-26T15:49:15.999Z</time></trkpt><trkpt lat="43.73600906320792" lon="7.010826687397834"><ele>771.9999999999999</ele><time>2026-04-26T15:49:16.999Z</time></trkpt><trkpt lat="43.73601209837264" lon="7.010990346243566"><ele>772.0</ele><time>2026-04-26T15:49:18.999Z</time></trkpt><trkpt lat="43.73600769688628" lon="7.011091177919524"><ele>772.0</ele><time>2026-04-26T15:49:19.998Z</time></trkpt><trkpt lat="43.73608651080927" lon="7.011123424967772"><ele>772.0</ele><time>2026-04-26T15:49:22Z</time></trkpt><trkpt lat="43.73614607227965" lon="7.011093792648168"><ele>771.9999999999999</ele><time>2026-04-26T15:49:25Z</time></trkpt><trkpt lat="43.73618871150027" lon="7.011209985939679"><ele>772.0</ele><time>2026-04-26T15:49:27Z</time></trkpt><trkpt lat="43.73621830217393" lon="7.011335129585509"><ele>770.4000000000001</ele><time>2026-04-26T15:49:28Z</time></trkpt><trkpt lat="43.73624531256398" lon="7.011465925572697"><ele>768.8000000000001</ele><time>2026-04-26T15:49:29Z</time></trkpt><trkpt lat="43.73623949756153" lon="7.011583759226206"><ele>767.2</ele><time>2026-04-26T15:49:30Z</time></trkpt><trkpt lat="43.73620798013023" lon="7.0117045807140945"><ele>765.6</ele><time>2026-04-26T15:49:31Z</time></trkpt><trkpt lat="43.736213693023764" lon="7.01181251484371"><ele>764.0</ele><time>2026-04-26T15:49:32Z</time></trkpt><trkpt lat="43.736263097678005" lon="7.011934578753061"><ele>764.0</ele><time>2026-04-26T15:49:33Z</time></trkpt><trkpt lat="43.736310815152336" lon="7.0120432041582355"><ele>764.0</ele><time>2026-04-26T15:49:34Z</time></trkpt><trkpt lat="43.736352497453375" lon="7.012143968985935"><ele>764.0</ele><time>2026-04-26T15:49:35Z</time></trkpt><trkpt lat="43.736433742631995" lon="7.0122470714913945"><ele>764.0</ele><time>2026-04-26T15:49:36Z</time></trkpt><trkpt lat="43.73652410381434" lon="7.012359465631459"><ele>764.0</ele><time>2026-04-26T15:49:37Z</time></trkpt><trkpt lat="43.73661572352054" lon="7.012466775201689"><ele>763.2</ele><time>2026-04-26T15:49:38Z</time></trkpt><trkpt lat="43.73669184981669" lon="7.012522124996843"><ele>762.4000000000001</ele><time>2026-04-26T15:49:39Z</time></trkpt><trkpt lat="43.736768013251094" lon="7.012658057456296"><ele>761.6</ele><time>2026-04-26T15:49:41Z</time></trkpt><trkpt lat="43.73679565619461" lon="7.012783685325366"><ele>760.8</ele><time>2026-04-26T15:49:43Z</time></trkpt><trkpt lat="43.736857531563885" lon="7.012841688964224"><ele>760.0</ele><time>2026-04-26T15:49:45Z</time></trkpt><trkpt lat="43.73692854670505" lon="7.012916570625664"><ele>760.0</ele><time>2026-04-26T15:49:46Z</time></trkpt><trkpt lat="43.736968357512254" lon="7.0130183574777165"><ele>760.0</ele><time>2026-04-26T15:49:47Z</time></trkpt><trkpt lat="43.737023477806005" lon="7.013124790916368"><ele>760.0</ele><time>2026-04-26T15:49:48Z</time></trkpt><trkpt lat="43.73705011813522" lon="7.013242828548818"><ele>760.0</ele><time>2026-04-26T15:49:50Z</time></trkpt><trkpt lat="43.737003826926966" lon="7.013344996301609"><ele>760.0</ele><time>2026-04-26T15:49:52Z</time></trkpt><trkpt lat="43.73690700615655" lon="7.013344365431197"><ele>762.6</ele><time>2026-04-26T15:49:54Z</time></trkpt><trkpt lat="43.73684468412876" lon="7.013488517352674"><ele>765.2</ele><time>2026-04-26T15:49:56Z</time></trkpt><trkpt lat="43.736813685216454" lon="7.01364591624179"><ele>767.8</ele><time>2026-04-26T15:49:57Z</time></trkpt><trkpt lat="43.736780262903636" lon="7.013768212921515"><ele>770.4</ele><time>2026-04-26T15:49:58Z</time></trkpt><trkpt lat="43.73675863674923" lon="7.013861156579559"><ele>773.0</ele><time>2026-04-26T15:49:59Z</time></trkpt><trkpt lat="43.736693416047736" lon="7.0138909264090765"><ele>773.0</ele><time>2026-04-26T15:50:01Z</time></trkpt><trkpt lat="43.73664582042789" lon="7.013773710077592"><ele>773.0</ele><time>2026-04-26T15:50:03Z</time></trkpt><trkpt lat="43.736596613403286" lon="7.01370274409136"><ele>773.0</ele><time>2026-04-26T15:50:04Z</time></trkpt><trkpt lat="43.736491177842005" lon="7.013624044433266"><ele>773.0</ele><time>2026-04-26T15:50:06Z</time></trkpt><trkpt lat="43.73641343905311" lon="7.013660812495581"><ele>773.0</ele><time>2026-04-26T15:50:08Z</time></trkpt><trkpt lat="43.73641785511443" lon="7.013798063745297"><ele>773.0</ele><time>2026-04-26T15:50:10Z</time></trkpt><trkpt lat="43.736463195349835" lon="7.013889351808396"><ele>773.0</ele><time>2026-04-26T15:50:11Z</time></trkpt><trkpt lat="43.7364898027653" lon="7.013987890629945"><ele>773.0</ele><time>2026-04-26T15:50:12Z</time></trkpt><trkpt lat="43.736374278140666" lon="7.014113199842136"><ele>773.0</ele><time>2026-04-26T15:50:14Z</time></trkpt><trkpt lat="43.736357563744264" lon="7.014236349018202"><ele>773.0</ele><time>2026-04-26T15:50:15Z</time></trkpt><trkpt lat="43.73636782894085" lon="7.014375699720242"><ele>773.5000000000001</ele><time>2026-04-26T15:50:16Z</time></trkpt><trkpt lat="43.736369874187" lon="7.014490633601529"><ele>774.0</ele><time>2026-04-26T15:50:17Z</time></trkpt><trkpt lat="43.736343896414475" lon="7.014584026848858"><ele>774.5</ele><time>2026-04-26T15:50:18Z</time></trkpt><trkpt lat="43.7363952045509" lon="7.014693118914792"><ele>775.0</ele><time>2026-04-26T15:50:20Z</time></trkpt><trkpt lat="43.73647405252616" lon="7.014776186627654"><ele>775.5000000000001</ele><time>2026-04-26T15:50:22Z</time></trkpt><trkpt lat="43.73652800615332" lon="7.014728370564938"><ele>776.0</ele><time>2026-04-26T15:50:24Z</time></trkpt><trkpt lat="43.73659817267223" lon="7.014706069006936"><ele>776.0</ele><time>2026-04-26T15:50:26.999Z</time></trkpt><trkpt lat="43.73670541890046" lon="7.01465617369816"><ele>776.0</ele><time>2026-04-26T15:50:29.999Z</time></trkpt><trkpt lat="43.736776941458885" lon="7.014606475024605"><ele>776.0</ele><time>2026-04-26T15:50:30.999Z</time></trkpt><trkpt lat="43.736851651033014" lon="7.01455700360871"><ele>776.0</ele><time>2026-04-26T15:50:32.999Z</time></trkpt><trkpt lat="43.73692863182699" lon="7.0144615009873945"><ele>776.0</ele><time>2026-04-26T15:50:34.999Z</time></trkpt><trkpt lat="43.7370037100875" lon="7.014377930754713"><ele>773.0</ele><time>2026-04-26T15:50:36.999Z</time></trkpt><trkpt lat="43.73710033011774" lon="7.014360495628472"><ele>770.0</ele><time>2026-04-26T15:50:38.999Z</time></trkpt><trkpt lat="43.7371668935402" lon="7.014390647403877"><ele>767.0</ele><time>2026-04-26T15:50:39.999Z</time></trkpt><trkpt lat="43.73728777837394" lon="7.0144387484236566"><ele>764.0</ele><time>2026-04-26T15:50:41.999Z</time></trkpt><trkpt lat="43.73740993077114" lon="7.014503480958985"><ele>761.0</ele><time>2026-04-26T15:50:43.999Z</time></trkpt><trkpt lat="43.73747902401849" lon="7.014543003490172"><ele>761.0</ele><time>2026-04-26T15:50:44.999Z</time></trkpt><trkpt lat="43.73754832756066" lon="7.014564280424645"><ele>761.0</ele><time>2026-04-26T15:50:45.999Z</time></trkpt><trkpt lat="43.73761509998877" lon="7.014582768981587"><ele>761.0</ele><time>2026-04-26T15:50:46.999Z</time></trkpt><trkpt lat="43.737691463356605" lon="7.014612941195622"><ele>761.0</ele><time>2026-04-26T15:50:47.999Z</time></trkpt><trkpt lat="43.737766104985646" lon="7.01465571729086"><ele>761.0</ele><time>2026-04-26T15:50:48.999Z</time></trkpt><trkpt lat="43.737821773215465" lon="7.014713224451874"><ele>761.0</ele><time>2026-04-26T15:50:49.999Z</time></trkpt><trkpt lat="43.7379275244619" lon="7.014766711197845"><ele>759.5999999999999</ele><time>2026-04-26T15:50:51.999Z</time></trkpt><trkpt lat="43.738009840791435" lon="7.014697413464689"><ele>758.2</ele><time>2026-04-26T15:50:53.999Z</time></trkpt><trkpt lat="43.73800653533289" lon="7.0145273451099746"><ele>756.8</ele><time>2026-04-26T15:50:55.999Z</time></trkpt><trkpt lat="43.73798916268654" lon="7.0144272111176"><ele>755.4000000000001</ele><time>2026-04-26T15:50:56.999Z</time></trkpt><trkpt lat="43.738013327760065" lon="7.01430722483955"><ele>754.0</ele><time>2026-04-26T15:50:58.999Z</time></trkpt><trkpt lat="43.738081838720625" lon="7.014217889053935"><ele>751.2</ele><time>2026-04-26T15:51:00.999Z</time></trkpt><trkpt lat="43.73817517624077" lon="7.014089716962151"><ele>748.4000000000001</ele><time>2026-04-26T15:51:02.999Z</time></trkpt><trkpt lat="43.73819794422587" lon="7.013936798142975"><ele>745.6</ele><time>2026-04-26T15:51:04.999Z</time></trkpt><trkpt lat="43.73819067483213" lon="7.013755166700065"><ele>742.8</ele><time>2026-04-26T15:51:06.999Z</time></trkpt><trkpt lat="43.73820002853223" lon="7.013661798422601"><ele>740.0</ele><time>2026-04-26T15:51:07.999Z</time></trkpt><trkpt lat="43.73824090898383" lon="7.013575495892879"><ele>740.0</ele><time>2026-04-26T15:51:08.999Z</time></trkpt><trkpt lat="43.73828051406841" lon="7.013473386378737"><ele>740.0</ele><time>2026-04-26T15:51:09.999Z</time></trkpt><trkpt lat="43.73832185350792" lon="7.013402902802545"><ele>740.0</ele><time>2026-04-26T15:51:10.999Z</time></trkpt><trkpt lat="43.73840792906611" lon="7.013311754506934"><ele>740.0</ele><time>2026-04-26T15:51:12.999Z</time></trkpt><trkpt lat="43.73849242385303" lon="7.013243802292878"><ele>740.0</ele><time>2026-04-26T15:51:14.999Z</time></trkpt><trkpt lat="43.73858984407403" lon="7.013174694377231"><ele>735.2</ele><time>2026-04-26T15:51:16.999Z</time></trkpt><trkpt lat="43.738700563150715" lon="7.0131290049955455"><ele>730.4</ele><time>2026-04-26T15:51:18.999Z</time></trkpt><trkpt lat="43.73876639905676" lon="7.013106359809112"><ele>725.5999999999999</ele><time>2026-04-26T15:51:19.999Z</time></trkpt><trkpt lat="43.73884165037593" lon="7.013082203758175"><ele>720.8</ele><time>2026-04-26T15:51:20.999Z</time></trkpt><trkpt lat="43.739001353859614" lon="7.013063494415587"><ele>716.0</ele><time>2026-04-26T15:51:22.999Z</time></trkpt><trkpt lat="43.739084625016986" lon="7.01304591540841"><ele>716.0</ele><time>2026-04-26T15:51:23.999Z</time></trkpt><trkpt lat="43.73916041080411" lon="7.013034221333617"><ele>716.0</ele><time>2026-04-26T15:51:24.999Z</time></trkpt><trkpt lat="43.73922605523035" lon="7.013024002710891"><ele>716.0</ele><time>2026-04-26T15:51:25.999Z</time></trkpt><trkpt lat="43.739329962636035" lon="7.013008538553144"><ele>716.0</ele><time>2026-04-26T15:51:28Z</time></trkpt><trkpt lat="43.73941096679429" lon="7.0129385594449705"><ele>716.0</ele><time>2026-04-26T15:51:30Z</time></trkpt><trkpt lat="43.73948484390629" lon="7.01283873961571"><ele>716.0</ele><time>2026-04-26T15:51:32Z</time></trkpt><trkpt lat="43.7395833183918" lon="7.012824963550773"><ele>715.8333333333333</ele><time>2026-04-26T15:51:34Z</time></trkpt><trkpt lat="43.73967454449868" lon="7.01286567198712"><ele>715.6666666666666</ele><time>2026-04-26T15:51:36Z</time></trkpt><trkpt lat="43.73978439191442" lon="7.012898369363687"><ele>715.5</ele><time>2026-04-26T15:51:55Z</time></trkpt><trkpt lat="43.73984153983807" lon="7.012858083138015"><ele>715.3333333333334</ele><time>2026-04-26T15:52:03Z</time></trkpt><trkpt lat="43.73990800755348" lon="7.012816505344198"><ele>715.1666666666667</ele><time>2026-04-26T15:52:06Z</time></trkpt><trkpt lat="43.73999443401193" lon="7.012766014735411"><ele>715.0</ele><time>2026-04-26T15:52:09Z</time></trkpt><trkpt lat="43.740049520858406" lon="7.01272168223484"><ele>715.0</ele><time>2026-04-26T15:52:11Z</time></trkpt><trkpt lat="43.74010666136867" lon="7.012675750752115"><ele>715.0</ele><time>2026-04-26T15:52:13Z</time></trkpt><trkpt lat="43.74016567889093" lon="7.012643923022501"><ele>715.0</ele><time>2026-04-26T15:52:15Z</time></trkpt><trkpt lat="43.7402467037534" lon="7.012579498306013"><ele>715.0</ele><time>2026-04-26T15:52:17Z</time></trkpt><trkpt lat="43.740306988623594" lon="7.012550974662366"><ele>715.0</ele><time>2026-04-26T15:52:18Z</time></trkpt><trkpt lat="43.740374131923225" lon="7.012536110892043"><ele>715.0</ele><time>2026-04-26T15:52:19Z</time></trkpt><trkpt lat="43.74049880241311" lon="7.012580073645387"><ele>714.2</ele><time>2026-04-26T15:52:21Z</time></trkpt><trkpt lat="43.74058082652136" lon="7.012630698990401"><ele>713.4</ele><time>2026-04-26T15:52:22Z</time></trkpt><trkpt lat="43.740688693228094" lon="7.012704985619106"><ele>712.5999999999999</ele><time>2026-04-26T15:52:23Z</time></trkpt><trkpt lat="43.74079266555977" lon="7.0127424695556995"><ele>711.8</ele><time>2026-04-26T15:52:24Z</time></trkpt><trkpt lat="43.74090870680302" lon="7.012816730946488"><ele>711.0</ele><time>2026-04-26T15:52:25Z</time></trkpt><trkpt lat="43.74101120250846" lon="7.012890236667306"><ele>709.0</ele><time>2026-04-26T15:52:26Z</time></trkpt><trkpt lat="43.74109584476848" lon="7.012973737046371"><ele>707.0</ele><time>2026-04-26T15:52:27Z</time></trkpt><trkpt lat="43.7411583643927" lon="7.0130171429555945"><ele>705.0</ele><time>2026-04-26T15:52:28Z</time></trkpt><trkpt lat="43.741272137391285" lon="7.013036450284286"><ele>703.0</ele><time>2026-04-26T15:52:29.999Z</time></trkpt><trkpt lat="43.74133720512714" lon="7.013003457643061"><ele>701.0</ele><time>2026-04-26T15:52:30.999Z</time></trkpt><trkpt lat="43.74142928855819" lon="7.012939955824816"><ele>701.0</ele><time>2026-04-26T15:52:31.999Z</time></trkpt><trkpt lat="43.741536494553415" lon="7.012905127247113"><ele>701.0</ele><time>2026-04-26T15:52:32.999Z</time></trkpt><trkpt lat="43.74163498097444" lon="7.012902641294259"><ele>701.0</ele><time>2026-04-26T15:52:33.999Z</time></trkpt><trkpt lat="43.74169949612415" lon="7.012906008395237"><ele>701.0</ele><time>2026-04-26T15:52:34.999Z</time></trkpt><trkpt lat="43.74175304722242" lon="7.012831590910235"><ele>701.0</ele><time>2026-04-26T15:52:36.999Z</time></trkpt><trkpt lat="43.74167105290611" lon="7.012699449250241"><ele>701.0</ele><time>2026-04-26T15:52:38.999Z</time></trkpt><trkpt lat="43.741599385916295" lon="7.012644008399347"><ele>701.0</ele><time>2026-04-26T15:52:39.999Z</time></trkpt><trkpt lat="43.74150298774186" lon="7.012541530012135"><ele>701.0</ele><time>2026-04-26T15:52:40.999Z</time></trkpt><trkpt lat="43.741401929510246" lon="7.012427143100137"><ele>701.0</ele><time>2026-04-26T15:52:41.999Z</time></trkpt><trkpt lat="43.74132807824849" lon="7.01236075065258"><ele>701.0</ele><time>2026-04-26T15:52:42.999Z</time></trkpt><trkpt lat="43.74123305761957" lon="7.012327831270672"><ele>698.1666666666666</ele><time>2026-04-26T15:52:43.999Z</time></trkpt><trkpt lat="43.74116360961755" lon="7.01226915577485"><ele>695.3333333333333</ele><time>2026-04-26T15:52:44.999Z</time></trkpt><trkpt lat="43.74110920774402" lon="7.012192150421068"><ele>692.5</ele><time>2026-04-26T15:52:45.999Z</time></trkpt><trkpt lat="43.74108167979333" lon="7.012082377909505"><ele>689.6666666666666</ele><time>2026-04-26T15:52:46.999Z</time></trkpt><trkpt lat="43.74107243467427" lon="7.011968355891512"><ele>686.8333333333334</ele><time>2026-04-26T15:52:47.999Z</time></trkpt><trkpt lat="43.741074572934046" lon="7.0118218012516635"><ele>684.0</ele><time>2026-04-26T15:52:48.999Z</time></trkpt><trkpt lat="43.741076394958974" lon="7.01172210162582"><ele>684.0</ele><time>2026-04-26T15:52:49.999Z</time></trkpt><trkpt lat="43.741136000814016" lon="7.011650130971511"><ele>684.0</ele><time>2026-04-26T15:52:51.999Z</time></trkpt><trkpt lat="43.74118912362717" lon="7.011749136853024"><ele>684.0</ele><time>2026-04-26T15:52:53.999Z</time></trkpt><trkpt lat="43.741204623158275" lon="7.011837022505271"><ele>684.0</ele><time>2026-04-26T15:52:54.999Z</time></trkpt><trkpt lat="43.74123611685703" lon="7.011934880045914"><ele>684.0</ele><time>2026-04-26T15:52:55.999Z</time></trkpt><trkpt lat="43.741274908983826" lon="7.012025122407825"><ele>684.0</ele><time>2026-04-26T15:52:56.999Z</time></trkpt><trkpt lat="43.74139742076716" lon="7.012042505330374"><ele>684.0</ele><time>2026-04-26T15:52:58.999Z</time></trkpt><trkpt lat="43.7414773551415" lon="7.011943133464236"><ele>684.0</ele><time>2026-04-26T15:53:00.999Z</time></trkpt><trkpt lat="43.74153626965076" lon="7.011889850669377"><ele>684.0</ele><time>2026-04-26T15:53:01.999Z</time></trkpt><trkpt lat="43.741596701931904" lon="7.011823278366185"><ele>684.0</ele><time>2026-04-26T15:53:02.999Z</time></trkpt><trkpt lat="43.74165230684902" lon="7.011751957708967"><ele>684.0</ele><time>2026-04-26T15:53:03.999Z</time></trkpt><trkpt lat="43.741722626977335" lon="7.011682941206842"><ele>684.0</ele><time>2026-04-26T15:53:04.999Z</time></trkpt><trkpt lat="43.74179572125747" lon="7.011626681175349"><ele>680.8333333333334</ele><time>2026-04-26T15:53:05.999Z</time></trkpt><trkpt lat="43.74186237582093" lon="7.011580044787409"><ele>677.6666666666666</ele><time>2026-04-26T15:53:06.999Z</time></trkpt><trkpt lat="43.74192095774225" lon="7.011529173951381"><ele>674.5</ele><time>2026-04-26T15:53:07.999Z</time></trkpt><trkpt lat="43.741988868485464" lon="7.011474860756844"><ele>671.3333333333333</ele><time>2026-04-26T15:53:08.999Z</time></trkpt><trkpt lat="43.74206965385206" lon="7.011436445882172"><ele>668.1666666666666</ele><time>2026-04-26T15:53:09.999Z</time></trkpt><trkpt lat="43.74216442656658" lon="7.011384400000958"><ele>665.0</ele><time>2026-04-26T15:53:10.999Z</time></trkpt><trkpt lat="43.742276928977894" lon="7.011324404122511"><ele>664.3333333333333</ele><time>2026-04-26T15:53:11.999Z</time></trkpt><trkpt lat="43.74237363837111" lon="7.011274337424204"><ele>663.6666666666666</ele><time>2026-04-26T15:53:12.999Z</time></trkpt><trkpt lat="43.742450151253394" lon="7.011216413631931"><ele>663.0</ele><time>2026-04-26T15:53:13.999Z</time></trkpt><trkpt lat="43.74252773061578" lon="7.011169095005923"><ele>662.3333333333334</ele><time>2026-04-26T15:53:14.999Z</time></trkpt><trkpt lat="43.74259687902657" lon="7.011136957155914"><ele>661.6666666666667</ele><time>2026-04-26T15:53:15.999Z</time></trkpt><trkpt lat="43.74265437693769" lon="7.011080320421697"><ele>661.0</ele><time>2026-04-26T15:53:16.999Z</time></trkpt><trkpt lat="43.74272417292906" lon="7.0110234582346"><ele>660.5999999999999</ele><time>2026-04-26T15:53:17.999Z</time></trkpt><trkpt lat="43.74276934651285" lon="7.010932668213072"><ele>660.2</ele><time>2026-04-26T15:53:18.999Z</time></trkpt><trkpt lat="43.742812890363126" lon="7.0108201330592355"><ele>659.8</ele><time>2026-04-26T15:53:19.999Z</time></trkpt><trkpt lat="43.74285672829272" lon="7.010725130692037"><ele>659.4000000000001</ele><time>2026-04-26T15:53:20.999Z</time></trkpt><trkpt lat="43.742937100779805" lon="7.010594391840445"><ele>659.0</ele><time>2026-04-26T15:53:22.999Z</time></trkpt><trkpt lat="43.74299011724705" lon="7.010524464925546"><ele>656.4000000000001</ele><time>2026-04-26T15:53:23.999Z</time></trkpt><trkpt lat="43.74306619268747" lon="7.010454475825632"><ele>653.8</ele><time>2026-04-26T15:53:24.999Z</time></trkpt><trkpt lat="43.743131809988256" lon="7.010380762372274"><ele>651.2</ele><time>2026-04-26T15:53:25.999Z</time></trkpt><trkpt lat="43.74319095715775" lon="7.010297431775132"><ele>648.5999999999999</ele><time>2026-04-26T15:53:26.999Z</time></trkpt><trkpt lat="43.74324049424827" lon="7.010211719028165"><ele>646.0</ele><time>2026-04-26T15:53:27.999Z</time></trkpt><trkpt lat="43.74333966076634" lon="7.0100902276840715"><ele>646.0</ele><time>2026-04-26T15:53:29.999Z</time></trkpt><trkpt lat="43.7433972741628" lon="7.010053207317894"><ele>646.0</ele><time>2026-04-26T15:53:30.999Z</time></trkpt><trkpt lat="43.743444538100704" lon="7.009991209287273"><ele>646.0</ele><time>2026-04-26T15:53:31.999Z</time></trkpt><trkpt lat="43.743516641329855" lon="7.009904330467941"><ele>646.0</ele><time>2026-04-26T15:53:34Z</time></trkpt><trkpt lat="43.74357472457275" lon="7.009857661453789"><ele>646.0</ele><time>2026-04-26T15:53:36Z</time></trkpt><trkpt lat="43.74361134722772" lon="7.009749690828704"><ele>646.0</ele><time>2026-04-26T15:53:38Z</time></trkpt><trkpt lat="43.74364955710657" lon="7.0096347431055515"><ele>642.3333333333334</ele><time>2026-04-26T15:53:40Z</time></trkpt><trkpt lat="43.743693106819244" lon="7.009555554328905"><ele>638.6666666666667</ele><time>2026-04-26T15:53:42Z</time></trkpt><trkpt lat="43.74374171121138" lon="7.00949868530886"><ele>635.0</ele><time>2026-04-26T15:53:45Z</time></trkpt><trkpt lat="43.74380470832776" lon="7.009468509499873"><ele>631.3333333333334</ele><time>2026-04-26T15:53:48Z</time></trkpt><trkpt lat="43.74372487525739" lon="7.0095687410364045"><ele>627.6666666666666</ele><time>2026-04-26T15:54:08Z</time></trkpt><trkpt lat="43.74363494707278" lon="7.0097157626616875"><ele>624.0</ele><time>2026-04-26T15:54:10Z</time></trkpt><trkpt lat="43.74359102290767" lon="7.009823320652404"><ele>625.8</ele><time>2026-04-26T15:54:11Z</time></trkpt><trkpt lat="43.74354266821479" lon="7.009913243990797"><ele>627.5999999999999</ele><time>2026-04-26T15:54:12Z</time></trkpt><trkpt lat="43.74346573550696" lon="7.009999852317853"><ele>629.4</ele><time>2026-04-26T15:54:13Z</time></trkpt><trkpt lat="43.7433858778587" lon="7.010090633924234"><ele>631.1999999999999</ele><time>2026-04-26T15:54:14Z</time></trkpt><trkpt lat="43.74329355126412" lon="7.010163577615668"><ele>633.0</ele><time>2026-04-26T15:54:15Z</time></trkpt><trkpt lat="43.743213263803504" lon="7.010259139731759"><ele>635.5999999999999</ele><time>2026-04-26T15:54:16Z</time></trkpt><trkpt lat="43.74314496446051" lon="7.01037321340746"><ele>638.1999999999999</ele><time>2026-04-26T15:54:17Z</time></trkpt><trkpt lat="43.74308081136781" lon="7.0104763944785775"><ele>640.8</ele><time>2026-04-26T15:54:18Z</time></trkpt><trkpt lat="43.743015393867836" lon="7.01057301912587"><ele>643.4</ele><time>2026-04-26T15:54:19Z</time></trkpt><trkpt lat="43.74293024433724" lon="7.010655778475262"><ele>646.0</ele><time>2026-04-26T15:54:20Z</time></trkpt><trkpt lat="43.74287280834674" lon="7.010728678065458"><ele>646.0</ele><time>2026-04-26T15:54:21Z</time></trkpt><trkpt lat="43.74282443261319" lon="7.010821723878676"><ele>646.0</ele><time>2026-04-26T15:54:22Z</time></trkpt><trkpt lat="43.74277397231395" lon="7.010945593306168"><ele>646.0</ele><time>2026-04-26T15:54:23Z</time></trkpt><trkpt lat="43.74272957974932" lon="7.011068479894967"><ele>646.0</ele><time>2026-04-26T15:54:24Z</time></trkpt><trkpt lat="43.74267683246633" lon="7.011135653465123"><ele>646.0</ele><time>2026-04-26T15:54:25Z</time></trkpt><trkpt lat="43.74259871035379" lon="7.011177910119029"><ele>646.0</ele><time>2026-04-26T15:54:26Z</time></trkpt><trkpt lat="43.74249945499091" lon="7.011215516165436"><ele>649.0</ele><time>2026-04-26T15:54:27Z</time></trkpt><trkpt lat="43.74241576931835" lon="7.011286142822374"><ele>652.0</ele><time>2026-04-26T15:54:28Z</time></trkpt><trkpt lat="43.742306331011314" lon="7.011346028547465"><ele>655.0</ele><time>2026-04-26T15:54:29Z</time></trkpt><trkpt lat="43.742221187471806" lon="7.011394790806625"><ele>658.0</ele><time>2026-04-26T15:54:30Z</time></trkpt><trkpt lat="43.742110732253856" lon="7.011460927823083"><ele>661.0</ele><time>2026-04-26T15:54:32Z</time></trkpt><trkpt lat="43.74204063502244" lon="7.011474786777618"><ele>661.0</ele><time>2026-04-26T15:54:33Z</time></trkpt><trkpt lat="43.74197138151865" lon="7.0115003755199385"><ele>661.0</ele><time>2026-04-26T15:54:34Z</time></trkpt><trkpt lat="43.741906417018576" lon="7.011543930584489"><ele>661.0</ele><time>2026-04-26T15:54:35Z</time></trkpt><trkpt lat="43.74180169556453" lon="7.011616261801818"><ele>661.0</ele><time>2026-04-26T15:54:36.999Z</time></trkpt><trkpt lat="43.74173680617742" lon="7.011677594532007"><ele>661.0</ele><time>2026-04-26T15:54:37.999Z</time></trkpt><trkpt lat="43.74166962031509" lon="7.01172055178093"><ele>661.0</ele><time>2026-04-26T15:54:38.999Z</time></trkpt><trkpt lat="43.74157385444271" lon="7.011832069248215"><ele>664.8333333333334</ele><time>2026-04-26T15:54:40.999Z</time></trkpt><trkpt lat="43.74152316115912" lon="7.0119017366089"><ele>668.6666666666667</ele><time>2026-04-26T15:54:41.999Z</time></trkpt><trkpt lat="43.74146934131768" lon="7.011979345418917"><ele>672.5</ele><time>2026-04-26T15:54:42.999Z</time></trkpt><trkpt lat="43.74138962255928" lon="7.01204878823754"><ele>676.3333333333334</ele><time>2026-04-26T15:54:44.999Z</time></trkpt><trkpt lat="43.741292764087504" lon="7.01201697855883"><ele>680.1666666666666</ele><time>2026-04-26T15:54:46.999Z</time></trkpt><trkpt lat="43.7412381669718" lon="7.011951307987141"><ele>684.0</ele><time>2026-04-26T15:54:47.999Z</time></trkpt><trkpt lat="43.74120367787976" lon="7.011870734590735"><ele>683.9999999999999</ele><time>2026-04-26T15:54:48.999Z</time></trkpt><trkpt lat="43.74118306736449" lon="7.011776508078484"><ele>684.0</ele><time>2026-04-26T15:54:49.999Z</time></trkpt><trkpt lat="43.74116946411797" lon="7.011690704810413"><ele>684.0</ele><time>2026-04-26T15:54:50.999Z</time></trkpt><trkpt lat="43.74111414295828" lon="7.011633218630378"><ele>684.0</ele><time>2026-04-26T15:54:51.999Z</time></trkpt><trkpt lat="43.7410857353336" lon="7.011764475012042"><ele>684.0</ele><time>2026-04-26T15:54:53.999Z</time></trkpt><trkpt lat="43.74109191396742" lon="7.011851921485616"><ele>683.9999999999999</ele><time>2026-04-26T15:54:54.999Z</time></trkpt><trkpt lat="43.74110587719858" lon="7.011944488821827"><ele>684.0</ele><time>2026-04-26T15:54:55.999Z</time></trkpt><trkpt lat="43.741130010693745" lon="7.012058873596406"><ele>683.9999999999999</ele><time>2026-04-26T15:54:56.999Z</time></trkpt><trkpt lat="43.74115005528211" lon="7.012175253837641"><ele>684.0</ele><time>2026-04-26T15:54:57.999Z</time></trkpt><trkpt lat="43.74118937381013" lon="7.012254148888085"><ele>684.0</ele><time>2026-04-26T15:54:58.999Z</time></trkpt><trkpt lat="43.74124250384476" lon="7.01230385840452"><ele>684.0</ele><time>2026-04-26T15:54:59.999Z</time></trkpt><trkpt lat="43.741298709140146" lon="7.012369718474773"><ele>684.0</ele><time>2026-04-26T15:55:00.999Z</time></trkpt><trkpt lat="43.741372575472965" lon="7.01242058936892"><ele>683.9999999999999</ele><time>2026-04-26T15:55:01.999Z</time></trkpt><trkpt lat="43.74143841686333" lon="7.012448819668077"><ele>684.0</ele><time>2026-04-26T15:55:02.999Z</time></trkpt><trkpt lat="43.74149455205988" lon="7.01250177872286"><ele>687.4000000000001</ele><time>2026-04-26T15:55:03.999Z</time></trkpt><trkpt lat="43.7415841417539" lon="7.012610136448311"><ele>690.8</ele><time>2026-04-26T15:55:05.999Z</time></trkpt><trkpt lat="43.74163177380942" lon="7.01268289128552"><ele>694.2</ele><time>2026-04-26T15:55:06.999Z</time></trkpt><trkpt lat="43.74168842447926" lon="7.012743131609472"><ele>697.5999999999999</ele><time>2026-04-26T15:55:07.999Z</time></trkpt><trkpt lat="43.74174485069194" lon="7.012842338337613"><ele>701.0</ele><time>2026-04-26T15:55:09.999Z</time></trkpt><trkpt lat="43.741693792288395" lon="7.0129576909117475"><ele>701.0</ele><time>2026-04-26T15:55:11.999Z</time></trkpt><trkpt lat="43.741628417091" lon="7.01297044762163"><ele>701.0</ele><time>2026-04-26T15:55:12.999Z</time></trkpt><trkpt lat="43.7415304924869" lon="7.01296351440761"><ele>701.0</ele><time>2026-04-26T15:55:13.999Z</time></trkpt><trkpt lat="43.741425444801784" lon="7.0129645533740765"><ele>701.0</ele><time>2026-04-26T15:55:14.999Z</time></trkpt><trkpt lat="43.74133100440962" lon="7.013003839679026"><ele>701.0</ele><time>2026-04-26T15:55:15.999Z</time></trkpt><trkpt lat="43.74123050927022" lon="7.013065909586373"><ele>701.0</ele><time>2026-04-26T15:55:16.999Z</time></trkpt><trkpt lat="43.74115466000853" lon="7.01308418255798"><ele>701.0</ele><time>2026-04-26T15:55:17.999Z</time></trkpt><trkpt lat="43.74108150876851" lon="7.013015071746407"><ele>701.0</ele><time>2026-04-26T15:55:19.999Z</time></trkpt><trkpt lat="43.74100958483836" lon="7.012952880642394"><ele>701.0</ele><time>2026-04-26T15:55:21.999Z</time></trkpt><trkpt lat="43.74092403515063" lon="7.0128838699310885"><ele>701.0</ele><time>2026-04-26T15:55:23.999Z</time></trkpt><trkpt lat="43.74086950089382" lon="7.0128254507602445"><ele>701.0</ele><time>2026-04-26T15:55:24.999Z</time></trkpt><trkpt lat="43.7408054123382" lon="7.01279194952302"><ele>703.5</ele><time>2026-04-26T15:55:25.999Z</time></trkpt><trkpt lat="43.740705184266275" lon="7.012741865664812"><ele>706.0</ele><time>2026-04-26T15:55:26.999Z</time></trkpt><trkpt lat="43.74058968679965" lon="7.0126737945487365"><ele>708.5</ele><time>2026-04-26T15:55:27.999Z</time></trkpt><trkpt lat="43.74047212235066" lon="7.012592397277859"><ele>711.0</ele><time>2026-04-26T15:55:28.999Z</time></trkpt><trkpt lat="43.740402320599834" lon="7.012510127233811"><ele>711.0</ele><time>2026-04-26T15:55:29.999Z</time></trkpt><trkpt lat="43.74033805715859" lon="7.012511090854223"><ele>711.0</ele><time>2026-04-26T15:55:30.999Z</time></trkpt><trkpt lat="43.740218106840004" lon="7.0125791848196215"><ele>711.0</ele><time>2026-04-26T15:55:32.999Z</time></trkpt><trkpt lat="43.740124962042366" lon="7.012644366765238"><ele>711.0</ele><time>2026-04-26T15:55:33.999Z</time></trkpt><trkpt lat="43.740031168290095" lon="7.012730911524052"><ele>711.0</ele><time>2026-04-26T15:55:34.999Z</time></trkpt><trkpt lat="43.73993126346338" lon="7.012805934316413"><ele>711.8</ele><time>2026-04-26T15:55:35.999Z</time></trkpt><trkpt lat="43.73984994015216" lon="7.0128482713959865"><ele>712.5999999999999</ele><time>2026-04-26T15:55:36.999Z</time></trkpt><trkpt lat="43.7397819681845" lon="7.012880148206503"><ele>713.4</ele><time>2026-04-26T15:55:37.999Z</time></trkpt><trkpt lat="43.7396605446255" lon="7.012880015827253"><ele>714.2</ele><time>2026-04-26T15:55:40Z</time></trkpt><trkpt lat="43.739597308668756" lon="7.012846296564583"><ele>715.0</ele><time>2026-04-26T15:55:41Z</time></trkpt><trkpt lat="43.73948999777996" lon="7.012897763533136"><ele>715.0</ele><time>2026-04-26T15:55:43Z</time></trkpt><trkpt lat="43.73944528098415" lon="7.012963650996724"><ele>715.0</ele><time>2026-04-26T15:55:44Z</time></trkpt><trkpt lat="43.73939228485115" lon="7.013024043690501"><ele>715.0</ele><time>2026-04-26T15:55:45Z</time></trkpt><trkpt lat="43.739256066627156" lon="7.013046600070137"><ele>715.0</ele><time>2026-04-26T15:55:47Z</time></trkpt><trkpt lat="43.739159033783274" lon="7.013049197266253"><ele>715.0</ele><time>2026-04-26T15:55:48Z</time></trkpt><trkpt lat="43.73905698454197" lon="7.0130577946590815"><ele>715.1666666666667</ele><time>2026-04-26T15:55:49Z</time></trkpt><trkpt lat="43.738960906038606" lon="7.01308708211192"><ele>715.3333333333334</ele><time>2026-04-26T15:55:50Z</time></trkpt><trkpt lat="43.73888568254023" lon="7.013098450952236"><ele>715.5</ele><time>2026-04-26T15:55:51Z</time></trkpt><trkpt lat="43.738803983411074" lon="7.013107794564196"><ele>715.6666666666666</ele><time>2026-04-26T15:55:53Z</time></trkpt><trkpt lat="43.73878029519832" lon="7.0130071348230745"><ele>715.8333333333333</ele><time>2026-04-26T15:56:06Z</time></trkpt><trkpt lat="43.73872372734241" lon="7.012966188915718"><ele>716.0</ele><time>2026-04-26T15:56:08Z</time></trkpt><trkpt lat="43.73864385058583" lon="7.01296362054523"><ele>716.0</ele><time>2026-04-26T15:56:10Z</time></trkpt><trkpt lat="43.73855290199781" lon="7.01290781720471"><ele>716.0</ele><time>2026-04-26T15:56:13Z</time></trkpt><trkpt lat="43.738488147233966" lon="7.0128891456904965"><ele>716.0</ele><time>2026-04-26T15:56:14Z</time></trkpt><trkpt lat="43.73837254978209" lon="7.012950753745828"><ele>716.0</ele><time>2026-04-26T15:56:16Z</time></trkpt><trkpt lat="43.73832662812931" lon="7.013030759161931"><ele>716.0</ele><time>2026-04-26T15:56:17Z</time></trkpt><trkpt lat="43.73827921577052" lon="7.013093599194277"><ele>716.0</ele><time>2026-04-26T15:56:18Z</time></trkpt><trkpt lat="43.73818147319859" lon="7.013219658587514"><ele>720.8</ele><time>2026-04-26T15:56:20Z</time></trkpt><trkpt lat="43.738125974723495" lon="7.0133304282215105"><ele>725.5999999999999</ele><time>2026-04-26T15:56:21Z</time></trkpt><trkpt lat="43.73807285844649" lon="7.013426470068238"><ele>730.4</ele><time>2026-04-26T15:56:22Z</time></trkpt><trkpt lat="43.73804769087444" lon="7.013575937001396"><ele>735.2</ele><time>2026-04-26T15:56:24Z</time></trkpt><trkpt lat="43.73799609080951" lon="7.013696841069185"><ele>740.0</ele><time>2026-04-26T15:56:26Z</time></trkpt><trkpt lat="43.73791778032818" lon="7.013795403578004"><ele>740.0</ele><time>2026-04-26T15:56:28Z</time></trkpt><trkpt lat="43.737835767817366" lon="7.013848157483597"><ele>740.0</ele><time>2026-04-26T15:56:30Z</time></trkpt><trkpt lat="43.73774209937657" lon="7.013823603779946"><ele>740.0</ele><time>2026-04-26T15:56:32Z</time></trkpt><trkpt lat="43.7376282535934" lon="7.013807269052819"><ele>740.0</ele><time>2026-04-26T15:56:34Z</time></trkpt><trkpt lat="43.737555381038725" lon="7.013779824299966"><ele>740.0</ele><time>2026-04-26T15:56:36Z</time></trkpt><trkpt lat="43.73746946755622" lon="7.013760604410024"><ele>742.4285714285713</ele><time>2026-04-26T15:56:38.999Z</time></trkpt><trkpt lat="43.737398745188415" lon="7.013806895763171"><ele>744.8571428571429</ele><time>2026-04-26T15:56:41.999Z</time></trkpt><trkpt lat="43.73733897310998" lon="7.013861686543238"><ele>747.2857142857142</ele><time>2026-04-26T15:56:44.999Z</time></trkpt><trkpt lat="43.73727482128429" lon="7.013880253252013"><ele>749.7142857142857</ele><time>2026-04-26T15:56:51.999Z</time></trkpt><trkpt lat="43.73720428305057" lon="7.01388297693815"><ele>752.1428571428571</ele><time>2026-04-26T15:56:58.999Z</time></trkpt><trkpt lat="43.73714489683341" lon="7.01392030078955"><ele>754.5714285714286</ele><time>2026-04-26T15:57:15.999Z</time></trkpt><trkpt lat="43.73708181348388" lon="7.0139287012099745"><ele>757.0</ele><time>2026-04-26T15:57:28.999Z</time></trkpt><trkpt lat="43.737020683145126" lon="7.013991573438748"><ele>757.0</ele><time>2026-04-26T15:57:30.999Z</time></trkpt><trkpt lat="43.736940784806954" lon="7.014028491119083"><ele>757.0</ele><time>2026-04-26T15:57:59Z</time></trkpt><trkpt lat="43.73687402109184" lon="7.014071448240651"><ele>757.0</ele><time>2026-04-26T15:58:19Z</time></trkpt><trkpt lat="43.73682933820143" lon="7.014141275538405"><ele>757.0</ele><time>2026-04-26T15:58:25Z</time></trkpt><trkpt lat="43.736770576585315" lon="7.014199613517065"><ele>757.0</ele><time>2026-04-26T15:59:19.999Z</time></trkpt><trkpt lat="43.73676527582932" lon="7.014087556191742"><ele>757.0</ele><time>2026-04-26T15:59:36.999Z</time></trkpt><trkpt lat="43.736750924641" lon="7.013947512177878"><ele>759.6666666666667</ele><time>2026-04-26T15:59:39.999Z</time></trkpt><trkpt lat="43.73668014864376" lon="7.013910804461141"><ele>762.3333333333334</ele><time>2026-04-26T15:59:43.999Z</time></trkpt><trkpt lat="43.736640990064714" lon="7.013816248532476"><ele>765.0</ele><time>2026-04-26T15:59:46.999Z</time></trkpt><trkpt lat="43.73657670567041" lon="7.0137226663225105"><ele>767.6666666666667</ele><time>2026-04-26T15:59:48.999Z</time></trkpt><trkpt lat="43.73649567222029" lon="7.013664329241709"><ele>770.3333333333334</ele><time>2026-04-26T15:59:50.999Z</time></trkpt><trkpt lat="43.73642801662191" lon="7.013693480931028"><ele>773.0</ele><time>2026-04-26T15:59:54Z</time></trkpt><trkpt lat="43.736417923936195" lon="7.0137846748063835"><ele>773.0000000000001</ele><time>2026-04-26T15:59:56Z</time></trkpt><trkpt lat="43.736441988445186" lon="7.013881958117773"><ele>773.0</ele><time>2026-04-26T15:59:58Z</time></trkpt><trkpt lat="43.73645044410807" lon="7.0140045031449825"><ele>773.0</ele><time>2026-04-26T16:00:00Z</time></trkpt><trkpt lat="43.73640264278282" lon="7.014074710081309"><ele>773.0</ele><time>2026-04-26T16:00:01Z</time></trkpt><trkpt lat="43.73636885128295" lon="7.014160165118767"><ele>773.0000000000001</ele><time>2026-04-26T16:00:02Z</time></trkpt><trkpt lat="43.736367851790476" lon="7.014340019415395"><ele>773.0</ele><time>2026-04-26T16:00:04Z</time></trkpt><trkpt lat="43.73637905078974" lon="7.014435282257458"><ele>773.5000000000001</ele><time>2026-04-26T16:00:05Z</time></trkpt><trkpt lat="43.73633554160844" lon="7.014566532118494"><ele>774.0</ele><time>2026-04-26T16:00:07Z</time></trkpt><trkpt lat="43.736357558936" lon="7.014671970074953"><ele>774.5</ele><time>2026-04-26T16:00:11Z</time></trkpt><trkpt lat="43.73641384046878" lon="7.014749500297162"><ele>775.0</ele><time>2026-04-26T16:00:13Z</time></trkpt><trkpt lat="43.736502869231714" lon="7.014769704540444"><ele>775.5000000000001</ele><time>2026-04-26T16:00:15Z</time></trkpt><trkpt lat="43.73649582623974" lon="7.014872690550013"><ele>776.0</ele><time>2026-04-26T16:00:17Z</time></trkpt><trkpt lat="43.73648574676793" lon="7.014977981411293"><ele>777.0</ele><time>2026-04-26T16:00:18Z</time></trkpt><trkpt lat="43.73650040948089" lon="7.015091640214337"><ele>778.0</ele><time>2026-04-26T16:00:19Z</time></trkpt><trkpt lat="43.736504672401146" lon="7.015222590778647"><ele>779.0</ele><time>2026-04-26T16:00:20Z</time></trkpt><trkpt lat="43.736484328516106" lon="7.015362656445489"><ele>780.0</ele><time>2026-04-26T16:00:21Z</time></trkpt><trkpt lat="43.736442492669156" lon="7.015499240404516"><ele>781.0</ele><time>2026-04-26T16:00:22Z</time></trkpt><trkpt lat="43.736405578406746" lon="7.015635559831833"><ele>780.9999999999999</ele><time>2026-04-26T16:00:23Z</time></trkpt><trkpt lat="43.7363879755394" lon="7.015757628088982"><ele>781.0</ele><time>2026-04-26T16:00:24Z</time></trkpt><trkpt lat="43.736365930483885" lon="7.015860035789104"><ele>781.0</ele><time>2026-04-26T16:00:25Z</time></trkpt><trkpt lat="43.736375835904354" lon="7.015963103285723"><ele>781.0</ele><time>2026-04-26T16:00:26Z</time></trkpt><trkpt lat="43.73639163362504" lon="7.016065904365622"><ele>780.9999999999999</ele><time>2026-04-26T16:00:27Z</time></trkpt><trkpt lat="43.736383963680304" lon="7.016159928725589"><ele>781.0</ele><time>2026-04-26T16:00:28Z</time></trkpt><trkpt lat="43.73631008417551" lon="7.016251700444086"><ele>783.5999999999999</ele><time>2026-04-26T16:00:30Z</time></trkpt><trkpt lat="43.73625361694701" lon="7.016328183703046"><ele>786.2</ele><time>2026-04-26T16:00:31Z</time></trkpt><trkpt lat="43.73616732786686" lon="7.016463057765693"><ele>788.8</ele><time>2026-04-26T16:00:33Z</time></trkpt><trkpt lat="43.73614511046416" lon="7.016615360695131"><ele>791.4000000000001</ele><time>2026-04-26T16:00:35Z</time></trkpt><trkpt lat="43.73615231707028" lon="7.016712975339667"><ele>794.0</ele><time>2026-04-26T16:00:36Z</time></trkpt><trkpt lat="43.73615484264548" lon="7.016860091216657"><ele>796.5000000000001</ele><time>2026-04-26T16:00:38Z</time></trkpt><trkpt lat="43.73609964108483" lon="7.016995067551271"><ele>799.0</ele><time>2026-04-26T16:00:40Z</time></trkpt><trkpt lat="43.73606159869634" lon="7.017090205452063"><ele>801.5</ele><time>2026-04-26T16:00:42Z</time></trkpt><trkpt lat="43.73602053043469" lon="7.017196592501918"><ele>804.0</ele><time>2026-04-26T16:00:45Z</time></trkpt><trkpt lat="43.7359725228334" lon="7.017273134783867"><ele>806.5000000000001</ele><time>2026-04-26T16:00:50Z</time></trkpt><trkpt lat="43.735926419791" lon="7.0173415093837"><ele>809.0</ele><time>2026-04-26T16:01:15.999Z</time></trkpt><trkpt lat="43.73593788507088" lon="7.017436652388925"><ele>813.0000000000001</ele><time>2026-04-26T16:01:25.999Z</time></trkpt><trkpt lat="43.73592714995795" lon="7.017552715228559"><ele>817.0</ele><time>2026-04-26T16:01:27.999Z</time></trkpt><trkpt lat="43.735898232146695" lon="7.01765084093528"><ele>821.0</ele><time>2026-04-26T16:01:29.999Z</time></trkpt><trkpt lat="43.73583648777471" lon="7.0177418336474675"><ele>825.0</ele><time>2026-04-26T16:01:46.999Z</time></trkpt><trkpt lat="43.73578611435015" lon="7.017800556118523"><ele>829.0000000000001</ele><time>2026-04-26T16:01:49.999Z</time></trkpt><trkpt lat="43.73574106597096" lon="7.017887821305468"><ele>833.0</ele><time>2026-04-26T16:01:53.999Z</time></trkpt><trkpt lat="43.73564166641995" lon="7.017885089533607"><ele>833.0000000000001</ele><time>2026-04-26T16:01:55.999Z</time></trkpt><trkpt lat="43.735581975870865" lon="7.017843855662666"><ele>833.0</ele><time>2026-04-26T16:01:56.999Z</time></trkpt><trkpt lat="43.73551795307458" lon="7.017789467012925"><ele>833.0</ele><time>2026-04-26T16:01:58Z</time></trkpt><trkpt lat="43.73544984926926" lon="7.017739875886793"><ele>833.0</ele><time>2026-04-26T16:01:59Z</time></trkpt><trkpt lat="43.73537718163401" lon="7.017681149683619"><ele>833.0000000000001</ele><time>2026-04-26T16:02:01Z</time></trkpt><trkpt lat="43.73538615370439" lon="7.017581514905313"><ele>833.0</ele><time>2026-04-26T16:02:03Z</time></trkpt><trkpt lat="43.735385551430596" lon="7.017424275056718"><ele>834.3333333333334</ele><time>2026-04-26T16:02:05Z</time></trkpt><trkpt lat="43.735378181790864" lon="7.017334916467663"><ele>835.6666666666667</ele><time>2026-04-26T16:02:06Z</time></trkpt><trkpt lat="43.73537576515941" lon="7.017223091568888"><ele>837.0</ele><time>2026-04-26T16:02:07Z</time></trkpt><trkpt lat="43.73537794273852" lon="7.017135206607782"><ele>838.3333333333333</ele><time>2026-04-26T16:02:08Z</time></trkpt><trkpt lat="43.735304048143504" lon="7.017042020803099"><ele>839.6666666666666</ele><time>2026-04-26T16:02:11Z</time></trkpt><trkpt lat="43.7352460806784" lon="7.016982002995476"><ele>841.0</ele><time>2026-04-26T16:02:12Z</time></trkpt><trkpt lat="43.73518465211793" lon="7.016910553241806"><ele>840.9999999999999</ele><time>2026-04-26T16:02:13Z</time></trkpt><trkpt lat="43.735119993537026" lon="7.016836564865222"><ele>841.0</ele><time>2026-04-26T16:02:14Z</time></trkpt><trkpt lat="43.73505713870865" lon="7.016742126940277"><ele>841.0</ele><time>2026-04-26T16:02:15Z</time></trkpt><trkpt lat="43.735000425833896" lon="7.016660987625426"><ele>841.0</ele><time>2026-04-26T16:02:16Z</time></trkpt><trkpt lat="43.73494010334603" lon="7.016590940960322"><ele>840.9999999999999</ele><time>2026-04-26T16:02:17Z</time></trkpt><trkpt lat="43.734879322288336" lon="7.0165282687791874"><ele>841.0</ele><time>2026-04-26T16:02:18Z</time></trkpt><trkpt lat="43.73481249059442" lon="7.016479825991127"><ele>840.4</ele><time>2026-04-26T16:02:19Z</time></trkpt><trkpt lat="43.73473298919868" lon="7.016435760253456"><ele>839.8</ele><time>2026-04-26T16:02:20Z</time></trkpt><trkpt lat="43.73464821319489" lon="7.016375657502694"><ele>839.1999999999999</ele><time>2026-04-26T16:02:21Z</time></trkpt><trkpt lat="43.73454474124573" lon="7.016322717702341"><ele>838.5999999999999</ele><time>2026-04-26T16:02:22Z</time></trkpt><trkpt lat="43.73443991722019" lon="7.016239484923019"><ele>838.0</ele><time>2026-04-26T16:02:23Z</time></trkpt><trkpt lat="43.73433409834736" lon="7.016158800989252"><ele>838.0</ele><time>2026-04-26T16:02:24Z</time></trkpt><trkpt lat="43.734234746986665" lon="7.016047041621199"><ele>838.0</ele><time>2026-04-26T16:02:25Z</time></trkpt><trkpt lat="43.73414566232978" lon="7.015957245628106"><ele>838.0</ele><time>2026-04-26T16:02:26Z</time></trkpt><trkpt lat="43.7340519588566" lon="7.015881938350572"><ele>838.0</ele><time>2026-04-26T16:02:27Z</time></trkpt><trkpt lat="43.733972071812936" lon="7.015807553430681"><ele>838.0</ele><time>2026-04-26T16:02:28Z</time></trkpt><trkpt lat="43.73389955374611" lon="7.015749350613344"><ele>838.0</ele><time>2026-04-26T16:02:29Z</time></trkpt><trkpt lat="43.733836487795735" lon="7.015713893972318"><ele>838.0</ele><time>2026-04-26T16:02:30Z</time></trkpt><trkpt lat="43.73374890397153" lon="7.01564505346415"><ele>838.0</ele><time>2026-04-26T16:02:31Z</time></trkpt><trkpt lat="43.73363836129633" lon="7.015569672002747"><ele>838.0</ele><time>2026-04-26T16:02:32Z</time></trkpt><trkpt lat="43.73353156095933" lon="7.015481051784507"><ele>838.0</ele><time>2026-04-26T16:02:33Z</time></trkpt><trkpt lat="43.73345326980984" lon="7.015400647120295"><ele>838.0</ele><time>2026-04-26T16:02:34Z</time></trkpt><trkpt lat="43.73337449104875" lon="7.015277078170967"><ele>838.0</ele><time>2026-04-26T16:02:35Z</time></trkpt><trkpt lat="43.73328620547167" lon="7.015139078397925"><ele>838.0</ele><time>2026-04-26T16:02:36Z</time></trkpt><trkpt lat="43.733215733210784" lon="7.0150310021390565"><ele>838.0</ele><time>2026-04-26T16:02:37Z</time></trkpt><trkpt lat="43.733143854460614" lon="7.014923034692392"><ele>836.2</ele><time>2026-04-26T16:02:38Z</time></trkpt><trkpt lat="43.73307669052082" lon="7.0148284526752045"><ele>834.4</ele><time>2026-04-26T16:02:39Z</time></trkpt><trkpt lat="43.733003405234776" lon="7.014742418958813"><ele>832.6</ele><time>2026-04-26T16:02:40Z</time></trkpt><trkpt lat="43.73292442259343" lon="7.014661765108956"><ele>830.8000000000001</ele><time>2026-04-26T16:02:41Z</time></trkpt><trkpt lat="43.732853052417674" lon="7.014574517915523"><ele>829.0</ele><time>2026-04-26T16:02:42Z</time></trkpt><trkpt lat="43.732771134483436" lon="7.014491423336648"><ele>831.0</ele><time>2026-04-26T16:02:43Z</time></trkpt><trkpt lat="43.73269150368136" lon="7.014430095531052"><ele>833.0</ele><time>2026-04-26T16:02:44Z</time></trkpt><trkpt lat="43.73262074709796" lon="7.014386263411726"><ele>835.0</ele><time>2026-04-26T16:02:45Z</time></trkpt><trkpt lat="43.73255226587603" lon="7.0142685017785915"><ele>837.0</ele><time>2026-04-26T16:02:47Z</time></trkpt><trkpt lat="43.73249195447625" lon="7.014189697764616"><ele>839.0</ele><time>2026-04-26T16:02:48Z</time></trkpt><trkpt lat="43.73244399932335" lon="7.014066537897081"><ele>839.0</ele><time>2026-04-26T16:02:49Z</time></trkpt><trkpt lat="43.732413620950425" lon="7.013929856639972"><ele>839.0</ele><time>2026-04-26T16:02:50Z</time></trkpt><trkpt lat="43.73242740177739" lon="7.013791257049138"><ele>839.0</ele><time>2026-04-26T16:02:51Z</time></trkpt><trkpt lat="43.73243946751882" lon="7.013674899230751"><ele>839.0</ele><time>2026-04-26T16:02:52Z</time></trkpt><trkpt lat="43.73245246375844" lon="7.013526603560884"><ele>839.0</ele><time>2026-04-26T16:02:53Z</time></trkpt><trkpt lat="43.732457490818454" lon="7.013430773993799"><ele>839.0000000000001</ele><time>2026-04-26T16:02:54Z</time></trkpt><trkpt lat="43.732513237755406" lon="7.013374330332655"><ele>839.0</ele><time>2026-04-26T16:02:55Z</time></trkpt><trkpt lat="43.73259961126556" lon="7.013325297407064"><ele>839.0</ele><time>2026-04-26T16:02:56Z</time></trkpt><trkpt lat="43.73271489456185" lon="7.013310083146194"><ele>839.0</ele><time>2026-04-26T16:02:57Z</time></trkpt><trkpt lat="43.73279895778323" lon="7.01330214907271"><ele>839.0000000000001</ele><time>2026-04-26T16:02:58Z</time></trkpt><trkpt lat="43.732861383905394" lon="7.013279757770702"><ele>839.0</ele><time>2026-04-26T16:03:00Z</time></trkpt><trkpt lat="43.73285150667642" lon="7.013168484480543"><ele>836.25</ele><time>2026-04-26T16:03:02Z</time></trkpt><trkpt lat="43.732930613374634" lon="7.013093097424667"><ele>833.5</ele><time>2026-04-26T16:03:03.999Z</time></trkpt><trkpt lat="43.73303108376441" lon="7.012991308422344"><ele>830.75</ele><time>2026-04-26T16:03:05.999Z</time></trkpt><trkpt lat="43.73314725148305" lon="7.012866552370528"><ele>828.0</ele><time>2026-04-26T16:03:13.999Z</time></trkpt><trkpt lat="43.73322498617523" lon="7.012794410861024"><ele>828.0000000000001</ele><time>2026-04-26T16:03:14.999Z</time></trkpt><trkpt lat="43.733294125493146" lon="7.012746226901673"><ele>828.0</ele><time>2026-04-26T16:03:15.999Z</time></trkpt><trkpt lat="43.733349545221245" lon="7.012704554094922"><ele>828.0</ele><time>2026-04-26T16:03:16.999Z</time></trkpt><trkpt lat="43.733412214952764" lon="7.012672367168845"><ele>828.0</ele><time>2026-04-26T16:03:17.999Z</time></trkpt><trkpt lat="43.733468678116246" lon="7.012624308816849"><ele>828.0</ele><time>2026-04-26T16:03:18.999Z</time></trkpt><trkpt lat="43.73352578135109" lon="7.012574773277083"><ele>828.0000000000001</ele><time>2026-04-26T16:03:19.999Z</time></trkpt><trkpt lat="43.73355253621209" lon="7.012441095512776"><ele>828.0</ele><time>2026-04-26T16:03:21.999Z</time></trkpt><trkpt lat="43.733557131500945" lon="7.012333118346594"><ele>828.4</ele><time>2026-04-26T16:03:22.999Z</time></trkpt><trkpt lat="43.73351326887749" lon="7.012190707053788"><ele>828.8</ele><time>2026-04-26T16:03:24.999Z</time></trkpt><trkpt lat="43.73348005850379" lon="7.012116463620977"><ele>829.2</ele><time>2026-04-26T16:03:25.999Z</time></trkpt><trkpt lat="43.73346298084895" lon="7.0119617350939585"><ele>829.6</ele><time>2026-04-26T16:03:27.999Z</time></trkpt><trkpt lat="43.73350389567246" lon="7.011823328165278"><ele>830.0</ele><time>2026-04-26T16:03:29.999Z</time></trkpt><trkpt lat="43.73361284269209" lon="7.011777796798161"><ele>827.8333333333334</ele><time>2026-04-26T16:03:31.999Z</time></trkpt><trkpt lat="43.73372421758809" lon="7.01176006930841"><ele>825.6666666666667</ele><time>2026-04-26T16:03:32.999Z</time></trkpt><trkpt lat="43.733791061256696" lon="7.011723088491945"><ele>823.5</ele><time>2026-04-26T16:03:33.999Z</time></trkpt><trkpt lat="43.733853719719455" lon="7.011646673181715"><ele>821.3333333333333</ele><time>2026-04-26T16:03:34.999Z</time></trkpt><trkpt lat="43.73388523379362" lon="7.011565190972107"><ele>819.1666666666666</ele><time>2026-04-26T16:03:35.999Z</time></trkpt><trkpt lat="43.73392062583684" lon="7.0116952653202915"><ele>817.0</ele><time>2026-04-26T16:03:56.999Z</time></trkpt><trkpt lat="43.73394743933117" lon="7.011797518041261"><ele>817.0</ele><time>2026-04-26T16:03:57.999Z</time></trkpt><trkpt lat="43.734045006284276" lon="7.011868802780965"><ele>817.0</ele><time>2026-04-26T16:03:59.999Z</time></trkpt><trkpt lat="43.73412794698909" lon="7.011898334078172"><ele>817.0</ele><time>2026-04-26T16:04:01.999Z</time></trkpt><trkpt lat="43.73418782072829" lon="7.01198840051063"><ele>817.0</ele><time>2026-04-26T16:04:05Z</time></trkpt><trkpt lat="43.734227650934216" lon="7.0120703502955815"><ele>817.0</ele><time>2026-04-26T16:04:07Z</time></trkpt><trkpt lat="43.73428727729767" lon="7.012175748188943"><ele>816.9999999999999</ele><time>2026-04-26T16:04:10Z</time></trkpt><trkpt lat="43.73433258789087" lon="7.012246185393903"><ele>817.0</ele><time>2026-04-26T16:04:11Z</time></trkpt><trkpt lat="43.73438530681782" lon="7.012315901563967"><ele>817.0</ele><time>2026-04-26T16:04:12Z</time></trkpt><trkpt lat="43.73445781622592" lon="7.012356498307623"><ele>817.0</ele><time>2026-04-26T16:04:14Z</time></trkpt><trkpt lat="43.7344872860316" lon="7.012441069471142"><ele>817.0</ele><time>2026-04-26T16:04:16Z</time></trkpt><trkpt lat="43.73451041594207" lon="7.012532284983864"><ele>816.9999999999999</ele><time>2026-04-26T16:04:18Z</time></trkpt><trkpt lat="43.73455354968045" lon="7.01260469820257"><ele>817.0</ele><time>2026-04-26T16:04:20Z</time></trkpt><trkpt lat="43.73477517631099" lon="7.012593341444312"><ele>815.0</ele><time>2026-04-26T16:04:30Z</time></trkpt><trkpt lat="43.73483883423037" lon="7.012602192711119"><ele>813.0</ele><time>2026-04-26T16:04:41Z</time></trkpt><trkpt lat="43.73492202912117" lon="7.012696980274722"><ele>811.0</ele><time>2026-04-26T16:04:46Z</time></trkpt><trkpt lat="43.73500625911281" lon="7.0127717496020985"><ele>809.0</ele><time>2026-04-26T16:04:48Z</time></trkpt><trkpt lat="43.73512293842026" lon="7.012823228590729"><ele>807.0</ele><time>2026-04-26T16:04:50Z</time></trkpt><trkpt lat="43.735183576728694" lon="7.012850573980518"><ele>807.0</ele><time>2026-04-26T16:04:51Z</time></trkpt><trkpt lat="43.73526743843055" lon="7.012958154400483"><ele>807.0</ele><time>2026-04-26T16:04:53Z</time></trkpt><trkpt lat="43.73528857483562" lon="7.013110647447889"><ele>807.0</ele><time>2026-04-26T16:04:55Z</time></trkpt><trkpt lat="43.735194176283564" lon="7.013241318429323"><ele>807.0</ele><time>2026-04-26T16:04:57Z</time></trkpt><trkpt lat="43.73511705340375" lon="7.013298777494841"><ele>807.0</ele><time>2026-04-26T16:04:58Z</time></trkpt><trkpt lat="43.73502154562092" lon="7.013356720886211"><ele>806.6666666666666</ele><time>2026-04-26T16:04:59Z</time></trkpt><trkpt lat="43.73496107399964" lon="7.013421050774496"><ele>806.3333333333333</ele><time>2026-04-26T16:05:00Z</time></trkpt><trkpt lat="43.73490983404403" lon="7.013484028967904"><ele>806.0</ele><time>2026-04-26T16:05:01Z</time></trkpt><trkpt lat="43.73484822666518" lon="7.013543425271333"><ele>805.6666666666666</ele><time>2026-04-26T16:05:02Z</time></trkpt><trkpt lat="43.73476373276749" lon="7.013563384197078"><ele>805.3333333333333</ele><time>2026-04-26T16:05:03Z</time></trkpt><trkpt lat="43.734680978127635" lon="7.013646090576897"><ele>805.0</ele><time>2026-04-26T16:05:05Z</time></trkpt><trkpt lat="43.73460696464978" lon="7.013893343100997"><ele>805.0</ele><time>2026-04-26T16:05:06Z</time></trkpt><trkpt lat="43.73456889218473" lon="7.014039376131105"><ele>805.0</ele><time>2026-04-26T16:05:06.999Z</time></trkpt><trkpt lat="43.734542416645354" lon="7.014145379213711"><ele>805.0</ele><time>2026-04-26T16:05:07.999Z</time></trkpt><trkpt lat="43.734509610323144" lon="7.014255714455233"><ele>805.0</ele><time>2026-04-26T16:05:08.999Z</time></trkpt><trkpt lat="43.73450208862357" lon="7.014358039330452"><ele>805.0</ele><time>2026-04-26T16:05:09.999Z</time></trkpt><trkpt lat="43.73449522726674" lon="7.014524336665096"><ele>803.9999999999999</ele><time>2026-04-26T16:05:11.999Z</time></trkpt><trkpt lat="43.734530863693365" lon="7.014617903665372"><ele>803.0</ele><time>2026-04-26T16:05:13.999Z</time></trkpt><trkpt lat="43.734639903896685" lon="7.014646948848386"><ele>802.0</ele><time>2026-04-26T16:05:15.999Z</time></trkpt><trkpt lat="43.7347056291573" lon="7.014689195008075"><ele>801.0</ele><time>2026-04-26T16:05:16.999Z</time></trkpt><trkpt lat="43.73475829809189" lon="7.014739857176743"><ele>799.9999999999999</ele><time>2026-04-26T16:05:17.999Z</time></trkpt><trkpt lat="43.73480259317391" lon="7.014822839032765"><ele>799.0</ele><time>2026-04-26T16:05:18.999Z</time></trkpt><trkpt lat="43.73491735972795" lon="7.014893036680609"><ele>798.9999999999999</ele><time>2026-04-26T16:05:20.999Z</time></trkpt><trkpt lat="43.734983119923605" lon="7.014887593929165"><ele>799.0</ele><time>2026-04-26T16:05:21.999Z</time></trkpt><trkpt lat="43.735056211415824" lon="7.014847867649459"><ele>799.0</ele><time>2026-04-26T16:05:22.999Z</time></trkpt><trkpt lat="43.73513440922252" lon="7.014832374490257"><ele>799.0</ele><time>2026-04-26T16:05:23.999Z</time></trkpt><trkpt lat="43.73521024926557" lon="7.014800597951986"><ele>798.9999999999999</ele><time>2026-04-26T16:05:24.999Z</time></trkpt><trkpt lat="43.735277955855565" lon="7.014739578454408"><ele>799.0</ele><time>2026-04-26T16:05:25.999Z</time></trkpt><trkpt lat="43.73532204499406" lon="7.0146541412846455"><ele>796.8000000000001</ele><time>2026-04-26T16:05:26.999Z</time></trkpt><trkpt lat="43.73538617583951" lon="7.014569369809257"><ele>794.6</ele><time>2026-04-26T16:05:27.999Z</time></trkpt><trkpt lat="43.7354567301233" lon="7.014587965532912"><ele>792.4</ele><time>2026-04-26T16:05:28.999Z</time></trkpt><trkpt lat="43.73554597356994" lon="7.0146022232897725"><ele>790.2</ele><time>2026-04-26T16:05:29.999Z</time></trkpt><trkpt lat="43.7356517765113" lon="7.014653322986961"><ele>788.0</ele><time>2026-04-26T16:05:30.999Z</time></trkpt><trkpt lat="43.73573326704045" lon="7.01473306905169"><ele>788.0</ele><time>2026-04-26T16:05:31.999Z</time></trkpt><trkpt lat="43.73584764144352" lon="7.014702013476065"><ele>788.0</ele><time>2026-04-26T16:05:33.999Z</time></trkpt><trkpt lat="43.73592983799929" lon="7.014618814773991"><ele>788.0</ele><time>2026-04-26T16:05:34.999Z</time></trkpt><trkpt lat="43.73600395084682" lon="7.014548763317954"><ele>788.0</ele><time>2026-04-26T16:05:35.999Z</time></trkpt><trkpt lat="43.73607641930679" lon="7.014524116908342"><ele>788.0</ele><time>2026-04-26T16:05:36.999Z</time></trkpt><trkpt lat="43.73616225413286" lon="7.0145389788515455"><ele>786.0000000000001</ele><time>2026-04-26T16:05:37.999Z</time></trkpt><trkpt lat="43.73623230596036" lon="7.0145476426901485"><ele>784.0</ele><time>2026-04-26T16:05:38.999Z</time></trkpt><trkpt lat="43.73629579420283" lon="7.0145541319725515"><ele>782.0</ele><time>2026-04-26T16:05:39.999Z</time></trkpt><trkpt lat="43.73635841418571" lon="7.014605891519535"><ele>780.0</ele><time>2026-04-26T16:05:41.999Z</time></trkpt><trkpt lat="43.73640098137927" lon="7.01472879878252"><ele>778.0000000000001</ele><time>2026-04-26T16:05:43.999Z</time></trkpt><trkpt lat="43.73646607466027" lon="7.014721410776286"><ele>776.0</ele><time>2026-04-26T16:05:44.999Z</time></trkpt><trkpt lat="43.73654647108303" lon="7.0146962358406055"><ele>776.0</ele><time>2026-04-26T16:05:59.999Z</time></trkpt><trkpt lat="43.736520235671684" lon="7.014800922594573"><ele>776.0</ele><time>2026-04-26T16:06:12Z</time></trkpt><trkpt lat="43.736511056476914" lon="7.0149353728356045"><ele>776.0</ele><time>2026-04-26T16:06:15Z</time></trkpt><trkpt lat="43.73650523009754" lon="7.0150382123790855"><ele>776.0</ele><time>2026-04-26T16:06:17Z</time></trkpt><trkpt lat="43.73650909419262" lon="7.015171032221942"><ele>776.0</ele><time>2026-04-26T16:06:19Z</time></trkpt><trkpt lat="43.736491967335716" lon="7.015324432925316"><ele>777.0</ele><time>2026-04-26T16:06:21Z</time></trkpt><trkpt lat="43.7364664008756" lon="7.015422378128661"><ele>778.0</ele><time>2026-04-26T16:06:22Z</time></trkpt><trkpt lat="43.73643639859687" lon="7.015502342515243"><ele>779.0</ele><time>2026-04-26T16:06:23Z</time></trkpt><trkpt lat="43.736409785254274" lon="7.015620856944626"><ele>780.0</ele><time>2026-04-26T16:06:25Z</time></trkpt><trkpt lat="43.73637777965915" lon="7.015766330358747"><ele>781.0</ele><time>2026-04-26T16:06:27Z</time></trkpt><trkpt lat="43.736373209223565" lon="7.015953858298833"><ele>783.5999999999999</ele><time>2026-04-26T16:06:29Z</time></trkpt><trkpt lat="43.7363814823289" lon="7.016049314707375"><ele>786.2</ele><time>2026-04-26T16:06:30Z</time></trkpt><trkpt lat="43.736343858108256" lon="7.0162042492720245"><ele>788.8</ele><time>2026-04-26T16:06:32Z</time></trkpt><trkpt lat="43.736257049119885" lon="7.016298440663132"><ele>791.4000000000001</ele><time>2026-04-26T16:06:34Z</time></trkpt><trkpt lat="43.73618014218169" lon="7.016438065413191"><ele>794.0</ele><time>2026-04-26T16:06:36Z</time></trkpt><trkpt lat="43.7361472281794" lon="7.01659425079852"><ele>797.0</ele><time>2026-04-26T16:06:38Z</time></trkpt><trkpt lat="43.73615393976328" lon="7.016682376170017"><ele>800.0</ele><time>2026-04-26T16:06:39Z</time></trkpt><trkpt lat="43.73615227255867" lon="7.016866699071204"><ele>803.0</ele><time>2026-04-26T16:06:41Z</time></trkpt><trkpt lat="43.73610743382501" lon="7.017004422915818"><ele>806.0</ele><time>2026-04-26T16:06:43Z</time></trkpt><trkpt lat="43.73604531806274" lon="7.017114948319283"><ele>809.0</ele><time>2026-04-26T16:06:45Z</time></trkpt><trkpt lat="43.73600070407091" lon="7.017218917152912"><ele>810.5714285714286</ele><time>2026-04-26T16:06:47Z</time></trkpt><trkpt lat="43.73594811360362" lon="7.017268184314586"><ele>812.1428571428571</ele><time>2026-04-26T16:07:17.999Z</time></trkpt><trkpt lat="43.73593558023908" lon="7.017376421918783"><ele>813.7142857142858</ele><time>2026-04-26T16:07:29.999Z</time></trkpt><trkpt lat="43.73594102117186" lon="7.017474579177207"><ele>815.2857142857142</ele><time>2026-04-26T16:07:31.999Z</time></trkpt><trkpt lat="43.735930522425654" lon="7.017580816481964"><ele>816.8571428571428</ele><time>2026-04-26T16:07:33.999Z</time></trkpt><trkpt lat="43.735895379429856" lon="7.017688133039316"><ele>818.4285714285714</ele><time>2026-04-26T16:07:35.999Z</time></trkpt><trkpt lat="43.73585724862043" lon="7.017759404572871"><ele>820.0</ele><time>2026-04-26T16:07:36.999Z</time></trkpt><trkpt lat="43.735787878313666" lon="7.017834679881305"><ele>822.1666666666666</ele><time>2026-04-26T16:07:37.999Z</time></trkpt><trkpt lat="43.735738749662524" lon="7.017894345156413"><ele>824.3333333333333</ele><time>2026-04-26T16:07:38.999Z</time></trkpt><trkpt lat="43.735650962461015" lon="7.017872657046245"><ele>826.5</ele><time>2026-04-26T16:07:40.999Z</time></trkpt><trkpt lat="43.735593610034" lon="7.017827773273812"><ele>828.6666666666667</ele><time>2026-04-26T16:07:41.999Z</time></trkpt><trkpt lat="43.73552680404051" lon="7.017786501046255"><ele>830.8333333333334</ele><time>2026-04-26T16:07:42.999Z</time></trkpt><trkpt lat="43.73546523138769" lon="7.017741604356587"><ele>833.0</ele><time>2026-04-26T16:07:43.999Z</time></trkpt><trkpt lat="43.73539280363539" lon="7.0176750130978816"><ele>833.0</ele><time>2026-04-26T16:07:45.999Z</time></trkpt><trkpt lat="43.73539248826325" lon="7.017517317509283"><ele>833.0</ele><time>2026-04-26T16:07:47.999Z</time></trkpt><trkpt lat="43.73537885558055" lon="7.017407412471462"><ele>833.0</ele><time>2026-04-26T16:07:48.999Z</time></trkpt><trkpt lat="43.73538289005691" lon="7.017287270454019"><ele>833.0</ele><time>2026-04-26T16:07:49.999Z</time></trkpt><trkpt lat="43.73537619380494" lon="7.0171590075365415"><ele>833.0</ele><time>2026-04-26T16:07:50.999Z</time></trkpt><trkpt lat="43.73533132686882" lon="7.017059195387335"><ele>834.5999999999999</ele><time>2026-04-26T16:07:52.999Z</time></trkpt><trkpt lat="43.735265863060405" lon="7.017016627139211"><ele>836.1999999999999</ele><time>2026-04-26T16:07:53.999Z</time></trkpt><trkpt lat="43.735197747355265" lon="7.016956802353509"><ele>837.8</ele><time>2026-04-26T16:07:54.999Z</time></trkpt><trkpt lat="43.73511415712007" lon="7.016853129550365"><ele>839.4</ele><time>2026-04-26T16:07:55.999Z</time></trkpt><trkpt lat="43.735016907906726" lon="7.016736726469133"><ele>841.0</ele><time>2026-04-26T16:07:56.999Z</time></trkpt><trkpt lat="43.73493315055219" lon="7.016640006778127"><ele>837.6666666666666</ele><time>2026-04-26T16:07:57.999Z</time></trkpt><trkpt lat="43.734866364444606" lon="7.016547660317769"><ele>834.3333333333333</ele><time>2026-04-26T16:07:58.999Z</time></trkpt><trkpt lat="43.734797146943365" lon="7.016483548260203"><ele>831.0</ele><time>2026-04-26T16:07:59.999Z</time></trkpt><trkpt lat="43.73472397530991" lon="7.0164355172882065"><ele>827.6666666666667</ele><time>2026-04-26T16:08:00.999Z</time></trkpt><trkpt lat="43.73465007876537" lon="7.01639791440287"><ele>824.3333333333334</ele><time>2026-04-26T16:08:01.999Z</time></trkpt><trkpt lat="43.73457282964169" lon="7.016346848211202"><ele>821.0</ele><time>2026-04-26T16:08:02.999Z</time></trkpt><trkpt lat="43.734480790312624" lon="7.016274644171281"><ele>825.25</ele><time>2026-04-26T16:08:03.999Z</time></trkpt><trkpt lat="43.734382617319326" lon="7.016182270892708"><ele>829.5</ele><time>2026-04-26T16:08:04.999Z</time></trkpt><trkpt lat="43.734264915786504" lon="7.016061284084285"><ele>833.75</ele><time>2026-04-26T16:08:05.999Z</time></trkpt><trkpt lat="43.73416667239256" lon="7.015966406212749"><ele>838.0</ele><time>2026-04-26T16:08:06.999Z</time></trkpt><trkpt lat="43.73406786248099" lon="7.015870786974191"><ele>835.0</ele><time>2026-04-26T16:08:07.999Z</time></trkpt><trkpt lat="43.73396280561264" lon="7.015777308226227"><ele>832.0</ele><time>2026-04-26T16:08:08.999Z</time></trkpt><trkpt lat="43.733882305471774" lon="7.015725368588875"><ele>829.0</ele><time>2026-04-26T16:08:09.999Z</time></trkpt><trkpt lat="43.73380085377368" lon="7.015662788306433"><ele>826.0</ele><time>2026-04-26T16:08:10.999Z</time></trkpt><trkpt lat="43.733690980971836" lon="7.015575886493892"><ele>823.0</ele><time>2026-04-26T16:08:11.999Z</time></trkpt><trkpt lat="43.73357120038632" lon="7.015485547483595"><ele>824.5</ele><time>2026-04-26T16:08:12.999Z</time></trkpt><trkpt lat="43.733473055501825" lon="7.015400878648979"><ele>826.0</ele><time>2026-04-26T16:08:14Z</time></trkpt><trkpt lat="43.733393488810044" lon="7.015280271014724"><ele>827.5</ele><time>2026-04-26T16:08:15Z</time></trkpt><trkpt lat="43.733300319230544" lon="7.015122586962692"><ele>829.0</ele><time>2026-04-26T16:08:16Z</time></trkpt><trkpt lat="43.73320831009773" lon="7.014967800993807"><ele>829.0</ele><time>2026-04-26T16:08:17Z</time></trkpt><trkpt lat="43.73313050075269" lon="7.014851483123045"><ele>829.0</ele><time>2026-04-26T16:08:18Z</time></trkpt><trkpt lat="43.73305534590805" lon="7.01475941804348"><ele>829.0</ele><time>2026-04-26T16:08:19Z</time></trkpt><trkpt lat="43.73297300185545" lon="7.014694855063097"><ele>829.0</ele><time>2026-04-26T16:08:20Z</time></trkpt><trkpt lat="43.73290210710836" lon="7.014620574018022"><ele>829.0</ele><time>2026-04-26T16:08:21Z</time></trkpt><trkpt lat="43.732833749581516" lon="7.014547395018575"><ele>829.0</ele><time>2026-04-26T16:08:22Z</time></trkpt><trkpt lat="43.73275323495771" lon="7.014468800398594"><ele>829.0</ele><time>2026-04-26T16:08:23Z</time></trkpt><trkpt lat="43.73268322708065" lon="7.014413761952339"><ele>829.0</ele><time>2026-04-26T16:08:24Z</time></trkpt><trkpt lat="43.73261847493744" lon="7.014350923892867"><ele>829.0</ele><time>2026-04-26T16:08:26Z</time></trkpt><trkpt lat="43.732561946388024" lon="7.014258757963336"><ele>829.0</ele><time>2026-04-26T16:08:29Z</time></trkpt><trkpt lat="43.73248477746471" lon="7.014148452299527"><ele>831.0</ele><time>2026-04-26T16:08:31Z</time></trkpt><trkpt lat="43.7324448000468" lon="7.0139968456188075"><ele>833.0</ele><time>2026-04-26T16:08:33Z</time></trkpt><trkpt lat="43.73242895405973" lon="7.01388985460021"><ele>835.0</ele><time>2026-04-26T16:08:34Z</time></trkpt><trkpt lat="43.732425452394104" lon="7.013785647366255"><ele>837.0</ele><time>2026-04-26T16:08:35Z</time></trkpt><trkpt lat="43.73243573153582" lon="7.013663421986089"><ele>839.0</ele><time>2026-04-26T16:08:36Z</time></trkpt><trkpt lat="43.73245306710216" lon="7.013527318501574"><ele>839.0</ele><time>2026-04-26T16:08:37Z</time></trkpt><trkpt lat="43.732467094184706" lon="7.013404111492447"><ele>839.0</ele><time>2026-04-26T16:08:38Z</time></trkpt><trkpt lat="43.7324892798709" lon="7.013253512819814"><ele>839.0</ele><time>2026-04-26T16:08:40Z</time></trkpt><trkpt lat="43.73253274619786" lon="7.013177805199579"><ele>839.0</ele><time>2026-04-26T16:08:41Z</time></trkpt><trkpt lat="43.732772276794535" lon="7.013196878199683"><ele>837.4285714285714</ele><time>2026-04-26T16:08:44Z</time></trkpt><trkpt lat="43.7328311852794" lon="7.013230215348481"><ele>835.8571428571429</ele><time>2026-04-26T16:08:45Z</time></trkpt><trkpt lat="43.732894751510116" lon="7.013226607425807"><ele>834.2857142857143</ele><time>2026-04-26T16:08:46Z</time></trkpt><trkpt lat="43.73289513793907" lon="7.013113674035045"><ele>832.7142857142858</ele><time>2026-04-26T16:08:47Z</time></trkpt><trkpt lat="43.73289616564589" lon="7.013011507101343"><ele>831.1428571428571</ele><time>2026-04-26T16:08:48Z</time></trkpt><trkpt lat="43.73296550060469" lon="7.012988587736492"><ele>829.5714285714287</ele><time>2026-04-26T16:08:49Z</time></trkpt><trkpt lat="43.73303960150952" lon="7.012937733958936"><ele>828.0</ele><time>2026-04-26T16:08:50Z</time></trkpt><trkpt lat="43.733136619349416" lon="7.012847158562877"><ele>828.0</ele><time>2026-04-26T16:08:51Z</time></trkpt><trkpt lat="43.7332336636746" lon="7.012757994351126"><ele>828.0</ele><time>2026-04-26T16:08:52Z</time></trkpt><trkpt lat="43.73333629739133" lon="7.0126943008771425"><ele>828.0</ele><time>2026-04-26T16:08:53Z</time></trkpt><trkpt lat="43.73343696897747" lon="7.012637263164342"><ele>828.0</ele><time>2026-04-26T16:08:54Z</time></trkpt><trkpt lat="43.7335118400938" lon="7.012587343977733"><ele>828.0</ele><time>2026-04-26T16:08:55Z</time></trkpt><trkpt lat="43.73355086511564" lon="7.012476730939964"><ele>828.4</ele><time>2026-04-26T16:08:57Z</time></trkpt><trkpt lat="43.733549644970026" lon="7.012379549034291"><ele>828.8</ele><time>2026-04-26T16:08:58Z</time></trkpt><trkpt lat="43.73356056289107" lon="7.012269103097413"><ele>829.2</ele><time>2026-04-26T16:08:59Z</time></trkpt><trkpt lat="43.733485247436434" lon="7.012138388307759"><ele>829.6</ele><time>2026-04-26T16:09:01Z</time></trkpt><trkpt lat="43.733461892360886" lon="7.012006965596964"><ele>830.0</ele><time>2026-04-26T16:09:03Z</time></trkpt><trkpt lat="43.733497965673735" lon="7.011855914087785"><ele>827.4</ele><time>2026-04-26T16:09:05Z</time></trkpt><trkpt lat="43.73359672696314" lon="7.011801696924568"><ele>824.8</ele><time>2026-04-26T16:09:07Z</time></trkpt><trkpt lat="43.733719306829805" lon="7.011784862322007"><ele>822.2</ele><time>2026-04-26T16:09:08Z</time></trkpt><trkpt lat="43.733792285119726" lon="7.011741434577111"><ele>819.6</ele><time>2026-04-26T16:09:09Z</time></trkpt><trkpt lat="43.73386211530394" lon="7.011652765251282"><ele>817.0</ele><time>2026-04-26T16:09:10Z</time></trkpt><trkpt lat="43.733899635450534" lon="7.011543716308606"><ele>815.6</ele><time>2026-04-26T16:09:11Z</time></trkpt><trkpt lat="43.7339401635153" lon="7.011426857266157"><ele>814.2</ele><time>2026-04-26T16:09:13Z</time></trkpt><trkpt lat="43.734023902520335" lon="7.011340569716585"><ele>812.8</ele><time>2026-04-26T16:09:15Z</time></trkpt><trkpt lat="43.734113293097884" lon="7.011358635249677"><ele>811.4</ele><time>2026-04-26T16:09:16Z</time></trkpt><trkpt lat="43.73420653687365" lon="7.011375291048023"><ele>810.0</ele><time>2026-04-26T16:09:17Z</time></trkpt><trkpt lat="43.73427785840457" lon="7.011432739804751"><ele>810.0</ele><time>2026-04-26T16:09:18.999Z</time></trkpt><trkpt lat="43.73431033091959" lon="7.011623700815826"><ele>810.0</ele><time>2026-04-26T16:09:20.999Z</time></trkpt><trkpt lat="43.73436469971064" lon="7.011696500720575"><ele>810.0</ele><time>2026-04-26T16:09:21.999Z</time></trkpt><trkpt lat="43.73441755824023" lon="7.011815390584572"><ele>810.0</ele><time>2026-04-26T16:09:23.999Z</time></trkpt><trkpt lat="43.734460644272716" lon="7.011888188381624"><ele>810.0</ele><time>2026-04-26T16:09:24.999Z</time></trkpt><trkpt lat="43.734520536290496" lon="7.011943251491653"><ele>808.2</ele><time>2026-04-26T16:09:25.999Z</time></trkpt><trkpt lat="43.734589866721606" lon="7.012009240554641"><ele>806.4</ele><time>2026-04-26T16:09:26.999Z</time></trkpt><trkpt lat="43.73464865318073" lon="7.01212265158277"><ele>804.5999999999999</ele><time>2026-04-26T16:09:27.999Z</time></trkpt><trkpt lat="43.734700896473484" lon="7.012231820032293"><ele>802.8</ele><time>2026-04-26T16:09:28.999Z</time></trkpt><trkpt lat="43.73475113104807" lon="7.01234962632593"><ele>801.0</ele><time>2026-04-26T16:09:29.999Z</time></trkpt><trkpt lat="43.734803831624816" lon="7.0124719046732675"><ele>802.1999999999999</ele><time>2026-04-26T16:09:30.999Z</time></trkpt><trkpt lat="43.73486317101207" lon="7.012568492358519"><ele>803.4</ele><time>2026-04-26T16:09:31.999Z</time></trkpt><trkpt lat="43.73498472660327" lon="7.012675795185476"><ele>804.6</ele><time>2026-04-26T16:09:33.999Z</time></trkpt><trkpt lat="43.735042583360425" lon="7.012726351670096"><ele>805.8</ele><time>2026-04-26T16:09:34.999Z</time></trkpt><trkpt lat="43.73514085376071" lon="7.012745245493552"><ele>807.0</ele><time>2026-04-26T16:09:36.999Z</time></trkpt><trkpt lat="43.73523611330973" lon="7.012846412690787"><ele>807.0</ele><time>2026-04-26T16:09:38.999Z</time></trkpt><trkpt lat="43.73529468180506" lon="7.012974778270877"><ele>807.0</ele><time>2026-04-26T16:09:40.999Z</time></trkpt><trkpt lat="43.73526464827297" lon="7.013100449525926"><ele>807.0</ele><time>2026-04-26T16:09:43.999Z</time></trkpt><trkpt lat="43.73519847133858" lon="7.012896235008122"><ele>807.0</ele><time>2026-04-26T16:09:54.999Z</time></trkpt><trkpt lat="43.735101389175234" lon="7.012848636681701"><ele>807.0</ele><time>2026-04-26T16:09:56.999Z</time></trkpt><trkpt lat="43.735033098299546" lon="7.01281860786749"><ele>807.0</ele><time>2026-04-26T16:09:57.999Z</time></trkpt><trkpt lat="43.73495695343494" lon="7.012785391567702"><ele>807.0</ele><time>2026-04-26T16:09:59.999Z</time></trkpt><trkpt lat="43.73488526770819" lon="7.012732167143632"><ele>807.0</ele><time>2026-04-26T16:10:01.999Z</time></trkpt><trkpt lat="43.734825052372734" lon="7.012634530721118"><ele>807.0</ele><time>2026-04-26T16:10:04.999Z</time></trkpt><trkpt lat="43.734797509800295" lon="7.012539685348709"><ele>807.0</ele><time>2026-04-26T16:10:16.999Z</time></trkpt><trkpt lat="43.73471866430001" lon="7.012411972861477"><ele>806.0</ele><time>2026-04-26T16:10:19Z</time></trkpt><trkpt lat="43.734670259587844" lon="7.0122991053038355"><ele>805.0</ele><time>2026-04-26T16:10:20Z</time></trkpt><trkpt lat="43.73464636939296" lon="7.01221824665015"><ele>804.0</ele><time>2026-04-26T16:10:22Z</time></trkpt><trkpt lat="43.73460395730832" lon="7.012125358406742"><ele>803.0</ele><time>2026-04-26T16:10:23Z</time></trkpt><trkpt lat="43.73453955351284" lon="7.012052400790983"><ele>802.0</ele><time>2026-04-26T16:10:25Z</time></trkpt><trkpt lat="43.73457182187665" lon="7.01216334937701"><ele>801.0</ele><time>2026-04-26T16:10:38Z</time></trkpt><trkpt lat="43.73460661309798" lon="7.012241627099366"><ele>801.0</ele><time>2026-04-26T16:10:42Z</time></trkpt><trkpt lat="43.73463883194537" lon="7.0123398636710865"><ele>801.0</ele><time>2026-04-26T16:10:48Z</time></trkpt><trkpt lat="43.734709528885126" lon="7.012429455939611"><ele>801.0</ele><time>2026-04-26T16:10:49Z</time></trkpt><trkpt lat="43.7347674196396" lon="7.0125412088626025"><ele>801.0</ele><time>2026-04-26T16:10:50Z</time></trkpt><trkpt lat="43.73481379182795" lon="7.012642386024301"><ele>801.0</ele><time>2026-04-26T16:10:51Z</time></trkpt><trkpt lat="43.73487702981769" lon="7.012694099423535"><ele>801.0</ele><time>2026-04-26T16:10:52Z</time></trkpt><trkpt lat="43.73494669346741" lon="7.012772077540899"><ele>802.0</ele><time>2026-04-26T16:10:53Z</time></trkpt><trkpt lat="43.735012607789145" lon="7.01280587237244"><ele>803.0</ele><time>2026-04-26T16:10:54Z</time></trkpt><trkpt lat="43.73509991137757" lon="7.0128315766135625"><ele>804.0</ele><time>2026-04-26T16:10:56Z</time></trkpt><trkpt lat="43.73520622749152" lon="7.012895514765335"><ele>805.0</ele><time>2026-04-26T16:10:58Z</time></trkpt><trkpt lat="43.735263767285" lon="7.012981844483579"><ele>806.0</ele><time>2026-04-26T16:11:00Z</time></trkpt><trkpt lat="43.735262076784196" lon="7.013070877037356"><ele>807.0</ele><time>2026-04-26T16:11:02Z</time></trkpt><trkpt lat="43.73522263206706" lon="7.013146497378634"><ele>807.0</ele><time>2026-04-26T16:11:05Z</time></trkpt><trkpt lat="43.73514999986678" lon="7.013249248842152"><ele>807.0</ele><time>2026-04-26T16:11:07Z</time></trkpt><trkpt lat="43.73505802810803" lon="7.013326262805865"><ele>807.0</ele><time>2026-04-26T16:11:08Z</time></trkpt><trkpt lat="43.7349909650871" lon="7.013371506335268"><ele>807.0</ele><time>2026-04-26T16:11:09Z</time></trkpt><trkpt lat="43.734881924730736" lon="7.013451025879482"><ele>807.0</ele><time>2026-04-26T16:11:11Z</time></trkpt><trkpt lat="43.734807478580535" lon="7.013513487565931"><ele>806.6666666666666</ele><time>2026-04-26T16:11:12Z</time></trkpt><trkpt lat="43.73470845235509" lon="7.013571383747973"><ele>806.3333333333333</ele><time>2026-04-26T16:11:14Z</time></trkpt><trkpt lat="43.73463727210532" lon="7.013693515811667"><ele>806.0</ele><time>2026-04-26T16:11:16Z</time></trkpt><trkpt lat="43.73462104715676" lon="7.013781256128102"><ele>805.6666666666666</ele><time>2026-04-26T16:11:17Z</time></trkpt><trkpt lat="43.734596105521966" lon="7.013862512438555"><ele>805.3333333333333</ele><time>2026-04-26T16:11:18Z</time></trkpt><trkpt lat="43.734550569177266" lon="7.01397453274411"><ele>805.0</ele><time>2026-04-26T16:11:19Z</time></trkpt><trkpt lat="43.734526014481915" lon="7.014076418212512"><ele>803.9999999999999</ele><time>2026-04-26T16:11:19.999Z</time></trkpt><trkpt lat="43.73449757578148" lon="7.014204731076368"><ele>803.0</ele><time>2026-04-26T16:11:20.999Z</time></trkpt><trkpt lat="43.73448403791401" lon="7.014319318032701"><ele>802.0</ele><time>2026-04-26T16:11:21.999Z</time></trkpt><trkpt lat="43.73449788748412" lon="7.014406997582695"><ele>801.0</ele><time>2026-04-26T16:11:22.999Z</time></trkpt><trkpt lat="43.73450378056361" lon="7.014524873122759"><ele>799.9999999999999</ele><time>2026-04-26T16:11:24.999Z</time></trkpt><trkpt lat="43.73455825726605" lon="7.014602985335121"><ele>799.0</ele><time>2026-04-26T16:11:28.999Z</time></trkpt><trkpt lat="43.73463194204205" lon="7.014637462846582"><ele>798.9999999999999</ele><time>2026-04-26T16:11:32.999Z</time></trkpt><trkpt lat="43.7346935620844" lon="7.014686468984752"><ele>799.0</ele><time>2026-04-26T16:11:34.999Z</time></trkpt><trkpt lat="43.734759160690395" lon="7.014719721464635"><ele>799.0</ele><time>2026-04-26T16:11:36.999Z</time></trkpt><trkpt lat="43.73467724653324" lon="7.014707385134251"><ele>799.0</ele><time>2026-04-26T16:11:58.999Z</time></trkpt><trkpt lat="43.73456165997007" lon="7.014630960439668"><ele>798.9999999999999</ele><time>2026-04-26T16:12:00.999Z</time></trkpt><trkpt lat="43.7344899719099" lon="7.014587487279705"><ele>799.0</ele><time>2026-04-26T16:12:01.999Z</time></trkpt><trkpt lat="43.73446288777578" lon="7.01447885486726"><ele>799.0</ele><time>2026-04-26T16:12:04.999Z</time></trkpt><trkpt lat="43.734501165935626" lon="7.014367856112971"><ele>799.0</ele><time>2026-04-26T16:12:05.999Z</time></trkpt><trkpt lat="43.734517618744405" lon="7.014211758397649"><ele>799.0</ele><time>2026-04-26T16:12:06.999Z</time></trkpt><trkpt lat="43.734531239560255" lon="7.0141059751014065"><ele>799.0</ele><time>2026-04-26T16:12:07.999Z</time></trkpt><trkpt lat="43.734527904050886" lon="7.013967946147444"><ele>799.0</ele><time>2026-04-26T16:12:08.999Z</time></trkpt><trkpt lat="43.73458947145233" lon="7.013797962388628"><ele>800.2</ele><time>2026-04-26T16:12:09.999Z</time></trkpt><trkpt lat="43.7346189132587" lon="7.013669978209454"><ele>801.4000000000001</ele><time>2026-04-26T16:12:10.999Z</time></trkpt><trkpt lat="43.73467589940566" lon="7.01356412878969"><ele>802.6</ele><time>2026-04-26T16:12:11.999Z</time></trkpt><trkpt lat="43.73472065692084" lon="7.013459810410147"><ele>803.8</ele><time>2026-04-26T16:12:12.999Z</time></trkpt><trkpt lat="43.73479259873967" lon="7.013375207792338"><ele>805.0</ele><time>2026-04-26T16:12:14.999Z</time></trkpt><trkpt lat="43.73487424410062" lon="7.013280162630547"><ele>805.4</ele><time>2026-04-26T16:12:15.999Z</time></trkpt><trkpt lat="43.73498077972782" lon="7.0132180342314205"><ele>805.8</ele><time>2026-04-26T16:12:16.999Z</time></trkpt><trkpt lat="43.73506137759065" lon="7.013135297611161"><ele>806.2</ele><time>2026-04-26T16:12:17.999Z</time></trkpt><trkpt lat="43.73511170355066" lon="7.0130518985703425"><ele>806.6</ele><time>2026-04-26T16:12:18.999Z</time></trkpt><trkpt lat="43.735127382458316" lon="7.012959912745585"><ele>807.0</ele><time>2026-04-26T16:12:19.999Z</time></trkpt><trkpt lat="43.735109325081105" lon="7.0128371769858395"><ele>807.0</ele><time>2026-04-26T16:12:21.998Z</time></trkpt><trkpt lat="43.734996151539235" lon="7.012737465467226"><ele>807.0</ele><time>2026-04-26T16:12:24Z</time></trkpt><trkpt lat="43.73492156717342" lon="7.012647172548819"><ele>807.0</ele><time>2026-04-26T16:12:25Z</time></trkpt><trkpt lat="43.73484326044372" lon="7.012554556085956"><ele>807.0</ele><time>2026-04-26T16:12:26Z</time></trkpt><trkpt lat="43.734772917257324" lon="7.012477979244485"><ele>807.0</ele><time>2026-04-26T16:12:27Z</time></trkpt><trkpt lat="43.73472119391996" lon="7.012383018461557"><ele>805.8</ele><time>2026-04-26T16:12:28Z</time></trkpt><trkpt lat="43.73462540610234" lon="7.012267216700444"><ele>804.6</ele><time>2026-04-26T16:12:29Z</time></trkpt><trkpt lat="43.734574995781955" lon="7.012164997937801"><ele>803.4</ele><time>2026-04-26T16:12:30Z</time></trkpt><trkpt lat="43.7345067666228" lon="7.012083557455884"><ele>802.1999999999999</ele><time>2026-04-26T16:12:31Z</time></trkpt><trkpt lat="43.734449988405444" lon="7.011970193505888"><ele>801.0</ele><time>2026-04-26T16:12:32Z</time></trkpt><trkpt lat="43.734408906863855" lon="7.011860575228512"><ele>802.8</ele><time>2026-04-26T16:12:33Z</time></trkpt><trkpt lat="43.73432874672575" lon="7.011720464128259"><ele>804.5999999999999</ele><time>2026-04-26T16:12:35Z</time></trkpt><trkpt lat="43.73428283713239" lon="7.011613148644941"><ele>806.4</ele><time>2026-04-26T16:12:36Z</time></trkpt><trkpt lat="43.73426400843509" lon="7.011523354835554"><ele>808.2</ele><time>2026-04-26T16:12:37Z</time></trkpt><trkpt lat="43.734241292667804" lon="7.011438654245573"><ele>810.0</ele><time>2026-04-26T16:12:38Z</time></trkpt><trkpt lat="43.73410575938406" lon="7.011407855295803"><ele>810.0</ele><time>2026-04-26T16:12:40Z</time></trkpt><trkpt lat="43.73400532622148" lon="7.011397359117217"><ele>810.0</ele><time>2026-04-26T16:12:41Z</time></trkpt><trkpt lat="43.73393008394744" lon="7.011441976550644"><ele>810.0</ele><time>2026-04-26T16:12:43Z</time></trkpt><trkpt lat="43.73392242641942" lon="7.011554958724633"><ele>810.0</ele><time>2026-04-26T16:12:45Z</time></trkpt><trkpt lat="43.73383992330058" lon="7.011524096141102"><ele>810.0</ele><time>2026-04-26T16:13:01Z</time></trkpt><trkpt lat="43.73376970805978" lon="7.01148734320443"><ele>810.0</ele><time>2026-04-26T16:13:03Z</time></trkpt><trkpt lat="43.73374066388648" lon="7.01157148036955"><ele>810.0</ele><time>2026-04-26T16:13:05Z</time></trkpt><trkpt lat="43.73365992105494" lon="7.011492604169863"><ele>810.0</ele><time>2026-04-26T16:13:09Z</time></trkpt><trkpt lat="43.733624460663634" lon="7.011413080991729"><ele>810.0</ele><time>2026-04-26T16:13:16Z</time></trkpt><trkpt lat="43.73358117095327" lon="7.01134580745737"><ele>810.0</ele><time>2026-04-26T16:13:19Z</time></trkpt><trkpt lat="43.7335632921486" lon="7.011234967232078"><ele>810.0</ele><time>2026-04-26T16:13:23Z</time></trkpt><trkpt lat="43.733532595077165" lon="7.011145520277854"><ele>810.0</ele><time>2026-04-26T16:13:26Z</time></trkpt><trkpt lat="43.733500950025565" lon="7.011040893089136"><ele>814.5</ele><time>2026-04-26T16:13:28.999Z</time></trkpt><trkpt lat="43.73349712520464" lon="7.010931691192595"><ele>819.0</ele><time>2026-04-26T16:13:30.999Z</time></trkpt><trkpt lat="43.733488097680244" lon="7.010762903454962"><ele>823.5</ele><time>2026-04-26T16:13:32.999Z</time></trkpt><trkpt lat="43.7334797390498" lon="7.01063741470713"><ele>828.0</ele><time>2026-04-26T16:13:34.999Z</time></trkpt><trkpt lat="43.733442142157095" lon="7.010539262107725"><ele>832.5</ele><time>2026-04-26T16:13:36.999Z</time></trkpt><trkpt lat="43.73341784878501" lon="7.010440035640552"><ele>837.0</ele><time>2026-04-26T16:13:38.999Z</time></trkpt><trkpt lat="43.733406798150504" lon="7.010320338565896"><ele>837.0</ele><time>2026-04-26T16:13:40.999Z</time></trkpt><trkpt lat="43.73338322848659" lon="7.010219489554901"><ele>837.0</ele><time>2026-04-26T16:13:43.999Z</time></trkpt><trkpt lat="43.7332895662078" lon="7.01010766932288"><ele>837.0</ele><time>2026-04-26T16:13:47.999Z</time></trkpt><trkpt lat="43.73320553185537" lon="7.010043085609375"><ele>837.0</ele><time>2026-04-26T16:13:50.999Z</time></trkpt><trkpt lat="43.733119567305096" lon="7.010007990341833"><ele>837.0</ele><time>2026-04-26T16:13:52.999Z</time></trkpt><trkpt lat="43.73299817279934" lon="7.00995131847137"><ele>837.0</ele><time>2026-04-26T16:13:54.999Z</time></trkpt><trkpt lat="43.73288332010236" lon="7.009888736695141"><ele>837.0</ele><time>2026-04-26T16:13:56.999Z</time></trkpt><trkpt lat="43.73279532864362" lon="7.0098578692639"><ele>837.0</ele><time>2026-04-26T16:13:58.999Z</time></trkpt><trkpt lat="43.73273157989935" lon="7.0098051151303205"><ele>837.0</ele><time>2026-04-26T16:14:00.999Z</time></trkpt><trkpt lat="43.73266609248891" lon="7.00974336039695"><ele>837.0</ele><time>2026-04-26T16:14:02.999Z</time></trkpt><trkpt lat="43.7326001660942" lon="7.009712417636297"><ele>837.0</ele><time>2026-04-26T16:14:04.999Z</time></trkpt><trkpt lat="43.73253037457355" lon="7.009674235139181"><ele>838.6666666666666</ele><time>2026-04-26T16:14:06.999Z</time></trkpt><trkpt lat="43.73243155847977" lon="7.009593298829665"><ele>840.3333333333333</ele><time>2026-04-26T16:14:09.999Z</time></trkpt><trkpt lat="43.73235516385526" lon="7.009583003794048"><ele>842.0</ele><time>2026-04-26T16:14:11.999Z</time></trkpt><trkpt lat="43.7322723305409" lon="7.0095875112755825"><ele>843.6666666666666</ele><time>2026-04-26T16:14:12.999Z</time></trkpt><trkpt lat="43.73220759740424" lon="7.009586550506966"><ele>845.3333333333333</ele><time>2026-04-26T16:14:13.999Z</time></trkpt><trkpt lat="43.73212442986378" lon="7.009565878072835"><ele>847.0</ele><time>2026-04-26T16:14:14.999Z</time></trkpt><trkpt lat="43.732055507441174" lon="7.009563136718568"><ele>847.0</ele><time>2026-04-26T16:14:15.999Z</time></trkpt><trkpt lat="43.73191155584793" lon="7.009535732736457"><ele>847.0</ele><time>2026-04-26T16:14:17.999Z</time></trkpt><trkpt lat="43.731839298596604" lon="7.009526894623824"><ele>847.0</ele><time>2026-04-26T16:14:18.999Z</time></trkpt><trkpt lat="43.7317616283034" lon="7.00952020217508"><ele>847.0</ele><time>2026-04-26T16:14:19.999Z</time></trkpt><trkpt lat="43.73168751906097" lon="7.009518615652176"><ele>847.0</ele><time>2026-04-26T16:14:20.999Z</time></trkpt><trkpt lat="43.7315856257937" lon="7.009513810306202"><ele>848.4999999999999</ele><time>2026-04-26T16:14:22.999Z</time></trkpt><trkpt lat="43.73148154915761" lon="7.009512074930809"><ele>850.0</ele><time>2026-04-26T16:14:24.999Z</time></trkpt><trkpt lat="43.73137768722069" lon="7.009499268961514"><ele>851.5</ele><time>2026-04-26T16:14:26.999Z</time></trkpt><trkpt lat="43.731290106293336" lon="7.009496624408877"><ele>853.0</ele><time>2026-04-26T16:14:28.999Z</time></trkpt><trkpt lat="43.73120653597848" lon="7.009493047371681"><ele>854.4999999999999</ele><time>2026-04-26T16:14:31Z</time></trkpt><trkpt lat="43.73113783435072" lon="7.009485228565931"><ele>856.0</ele><time>2026-04-26T16:14:33Z</time></trkpt><trkpt lat="43.731041825311046" lon="7.0094634883004705"><ele>857.6666666666666</ele><time>2026-04-26T16:14:36Z</time></trkpt><trkpt lat="43.730969865707856" lon="7.009468420550402"><ele>859.3333333333333</ele><time>2026-04-26T16:14:38Z</time></trkpt><trkpt lat="43.73088722168861" lon="7.009445042169518"><ele>861.0</ele><time>2026-04-26T16:14:40Z</time></trkpt><trkpt lat="43.73081543004205" lon="7.009422803841201"><ele>862.6666666666667</ele><time>2026-04-26T16:14:42Z</time></trkpt><trkpt lat="43.730722774610264" lon="7.0094211949870076"><ele>864.3333333333334</ele><time>2026-04-26T16:14:45Z</time></trkpt><trkpt lat="43.730645602288064" lon="7.00943471726708"><ele>866.0</ele><time>2026-04-26T16:14:47Z</time></trkpt><trkpt lat="43.73057260050765" lon="7.00948414189848"><ele>866.0000000000001</ele><time>2026-04-26T16:14:50Z</time></trkpt><trkpt lat="43.73048161255012" lon="7.0095149111842545"><ele>866.0</ele><time>2026-04-26T16:14:53Z</time></trkpt><trkpt lat="43.730403738129645" lon="7.0095488227334375"><ele>866.0</ele><time>2026-04-26T16:14:55Z</time></trkpt><trkpt lat="43.7303213917966" lon="7.009546319877063"><ele>866.0</ele><time>2026-04-26T16:14:57Z</time></trkpt><trkpt lat="43.73024891714647" lon="7.0095646032921195"><ele>866.0000000000001</ele><time>2026-04-26T16:14:59Z</time></trkpt><trkpt lat="43.7301470951144" lon="7.009601341477896"><ele>866.0</ele><time>2026-04-26T16:15:01Z</time></trkpt><trkpt lat="43.730040347613624" lon="7.009615587484842"><ele>867.6666666666667</ele><time>2026-04-26T16:15:03Z</time></trkpt><trkpt lat="43.72995683126695" lon="7.009612224253557"><ele>869.3333333333334</ele><time>2026-04-26T16:15:05Z</time></trkpt><trkpt lat="43.72988467273934" lon="7.009586831887287"><ele>871.0</ele><time>2026-04-26T16:15:07Z</time></trkpt><trkpt lat="43.72985747628609" lon="7.009508236992909"><ele>872.6666666666667</ele><time>2026-04-26T16:15:09Z</time></trkpt><trkpt lat="43.729791079023165" lon="7.009466947123465"><ele>874.3333333333334</ele><time>2026-04-26T16:15:11Z</time></trkpt><trkpt lat="43.72971054265942" lon="7.009470965458361"><ele>876.0</ele><time>2026-04-26T16:15:13Z</time></trkpt><trkpt lat="43.729626788986316" lon="7.009454793425873"><ele>876.0</ele><time>2026-04-26T16:15:17Z</time></trkpt><trkpt lat="43.72958913759238" lon="7.009571068499417"><ele>875.9999999999999</ele><time>2026-04-26T16:15:21Z</time></trkpt><trkpt lat="43.72953383022348" lon="7.0096998163267665"><ele>875.9999999999999</ele><time>2026-04-26T16:15:23Z</time></trkpt><trkpt lat="43.729483280807464" lon="7.009776654264628"><ele>876.0</ele><time>2026-04-26T16:15:24Z</time></trkpt><trkpt lat="43.72942188296433" lon="7.0098748789965954"><ele>876.0</ele><time>2026-04-26T16:15:25Z</time></trkpt><trkpt lat="43.729345185224425" lon="7.010003953355942"><ele>877.75</ele><time>2026-04-26T16:15:26Z</time></trkpt><trkpt lat="43.72926300600481" lon="7.010150427603629"><ele>879.5</ele><time>2026-04-26T16:15:27Z</time></trkpt><trkpt lat="43.72918579149592" lon="7.010299383562647"><ele>881.25</ele><time>2026-04-26T16:15:28Z</time></trkpt><trkpt lat="43.72912057913468" lon="7.010439455977731"><ele>883.0</ele><time>2026-04-26T16:15:29Z</time></trkpt><trkpt lat="43.72907682085464" lon="7.010592491829098"><ele>883.0</ele><time>2026-04-26T16:15:30Z</time></trkpt><trkpt lat="43.72902301412439" lon="7.0107583093695105"><ele>883.0</ele><time>2026-04-26T16:15:31Z</time></trkpt><trkpt lat="43.72898185188518" lon="7.0109295423239"><ele>883.0</ele><time>2026-04-26T16:15:31.999Z</time></trkpt><trkpt lat="43.728933597914725" lon="7.011113220102575"><ele>883.0</ele><time>2026-04-26T16:15:32.999Z</time></trkpt><trkpt lat="43.72887198789519" lon="7.011267597871128"><ele>884.0</ele><time>2026-04-26T16:15:33.999Z</time></trkpt><trkpt lat="43.72877171078933" lon="7.01140373909887"><ele>885.0</ele><time>2026-04-26T16:15:34.999Z</time></trkpt><trkpt lat="43.72865518039876" lon="7.01153404133685"><ele>886.0</ele><time>2026-04-26T16:15:35.999Z</time></trkpt><trkpt lat="43.72852731630758" lon="7.011659394755194"><ele>887.0</ele><time>2026-04-26T16:15:36.999Z</time></trkpt><trkpt lat="43.7284363727024" lon="7.011774983257397"><ele>889.6666666666667</ele><time>2026-04-26T16:15:37.999Z</time></trkpt><trkpt lat="43.72838186906113" lon="7.011881164994911"><ele>892.3333333333334</ele><time>2026-04-26T16:15:38.999Z</time></trkpt><trkpt lat="43.72835829592358" lon="7.012003648823535"><ele>895.0</ele><time>2026-04-26T16:15:39.999Z</time></trkpt><trkpt lat="43.728333113305816" lon="7.012120851695022"><ele>897.6666666666667</ele><time>2026-04-26T16:15:40.999Z</time></trkpt><trkpt lat="43.72832071862101" lon="7.012225995967279"><ele>900.3333333333334</ele><time>2026-04-26T16:15:41.999Z</time></trkpt><trkpt lat="43.728337176947015" lon="7.012323741611943"><ele>903.0</ele><time>2026-04-26T16:15:42.999Z</time></trkpt><trkpt lat="43.72837977948768" lon="7.012426833873162"><ele>903.8</ele><time>2026-04-26T16:15:43.999Z</time></trkpt><trkpt lat="43.72843726061913" lon="7.012529182644058"><ele>904.5999999999999</ele><time>2026-04-26T16:15:44.999Z</time></trkpt><trkpt lat="43.72848072192151" lon="7.012630987123899"><ele>905.4000000000001</ele><time>2026-04-26T16:15:45.999Z</time></trkpt><trkpt lat="43.72851122702338" lon="7.012742248447876"><ele>906.2</ele><time>2026-04-26T16:15:46.999Z</time></trkpt><trkpt lat="43.728515293962" lon="7.012881325193631"><ele>907.0</ele><time>2026-04-26T16:15:47.999Z</time></trkpt><trkpt lat="43.72851129807377" lon="7.01304270410366"><ele>907.0</ele><time>2026-04-26T16:15:48.999Z</time></trkpt><trkpt lat="43.728508152072045" lon="7.0131915998724725"><ele>907.0</ele><time>2026-04-26T16:15:49.999Z</time></trkpt><trkpt lat="43.72847128680461" lon="7.013330038180468"><ele>907.0</ele><time>2026-04-26T16:15:50.999Z</time></trkpt><trkpt lat="43.728420215112195" lon="7.013466036739328"><ele>907.0</ele><time>2026-04-26T16:15:51.999Z</time></trkpt><trkpt lat="43.72839567890427" lon="7.01358625110263"><ele>907.0</ele><time>2026-04-26T16:15:52.999Z</time></trkpt><trkpt lat="43.728400083462894" lon="7.01370161596028"><ele>908.3333333333333</ele><time>2026-04-26T16:15:53.999Z</time></trkpt><trkpt lat="43.728421038150735" lon="7.013804093998398"><ele>909.6666666666666</ele><time>2026-04-26T16:15:54.999Z</time></trkpt><trkpt lat="43.72839451590131" lon="7.01388552279335"><ele>911.0</ele><time>2026-04-26T16:15:56.999Z</time></trkpt><trkpt lat="43.72831066031896" lon="7.0138392020663565"><ele>912.3333333333333</ele><time>2026-04-26T16:15:58.999Z</time></trkpt><trkpt lat="43.72826796624672" lon="7.013754130407794"><ele>913.6666666666666</ele><time>2026-04-26T16:15:59.999Z</time></trkpt><trkpt lat="43.72822400787405" lon="7.013661481508355"><ele>915.0</ele><time>2026-04-26T16:16:00.999Z</time></trkpt><trkpt lat="43.72817265225568" lon="7.013600480598256"><ele>915.0</ele><time>2026-04-26T16:16:01.999Z</time></trkpt><trkpt lat="43.72809594238357" lon="7.01356642765294"><ele>915.0</ele><time>2026-04-26T16:16:02.999Z</time></trkpt><trkpt lat="43.727993937472085" lon="7.013517093980676"><ele>915.0</ele><time>2026-04-26T16:16:03.999Z</time></trkpt><trkpt lat="43.72788881589938" lon="7.013456400715259"><ele>915.0</ele><time>2026-04-26T16:16:04.999Z</time></trkpt><trkpt lat="43.727785193153814" lon="7.013374563035599"><ele>915.0</ele><time>2026-04-26T16:16:05.999Z</time></trkpt><trkpt lat="43.72770454711718" lon="7.013270229621621"><ele>919.25</ele><time>2026-04-26T16:16:06.999Z</time></trkpt><trkpt lat="43.727621490260496" lon="7.013134856170454"><ele>923.5</ele><time>2026-04-26T16:16:07.999Z</time></trkpt><trkpt lat="43.72754633791913" lon="7.012969025941392"><ele>927.75</ele><time>2026-04-26T16:16:08.999Z</time></trkpt><trkpt lat="43.72747028634766" lon="7.012809184598247"><ele>932.0</ele><time>2026-04-26T16:16:09.999Z</time></trkpt><trkpt lat="43.72739390202536" lon="7.012659908353"><ele>932.0</ele><time>2026-04-26T16:16:10.999Z</time></trkpt><trkpt lat="43.72731189575668" lon="7.0125398163183394"><ele>932.0</ele><time>2026-04-26T16:16:11.999Z</time></trkpt><trkpt lat="43.7272450038842" lon="7.012431273328834"><ele>932.0</ele><time>2026-04-26T16:16:12.999Z</time></trkpt><trkpt lat="43.72716775276687" lon="7.0123471898730125"><ele>932.0</ele><time>2026-04-26T16:16:13.999Z</time></trkpt><trkpt lat="43.72709243214327" lon="7.012236505029573"><ele>932.0</ele><time>2026-04-26T16:16:14.999Z</time></trkpt><trkpt lat="43.72699635964279" lon="7.0121068739704535"><ele>929.4000000000001</ele><time>2026-04-26T16:16:15.999Z</time></trkpt><trkpt lat="43.726911947767555" lon="7.012010732607038"><ele>926.8000000000001</ele><time>2026-04-26T16:16:16.999Z</time></trkpt><trkpt lat="43.72684181435557" lon="7.011958520151501"><ele>924.2</ele><time>2026-04-26T16:16:17.999Z</time></trkpt><trkpt lat="43.72676099052545" lon="7.011947993019752"><ele>921.6</ele><time>2026-04-26T16:16:18.999Z</time></trkpt><trkpt lat="43.72666310706844" lon="7.0119524003891245"><ele>919.0</ele><time>2026-04-26T16:16:19.999Z</time></trkpt><trkpt lat="43.72657384837846" lon="7.011970477823261"><ele>919.0</ele><time>2026-04-26T16:16:20.999Z</time></trkpt><trkpt lat="43.72649271588994" lon="7.011999578681497"><ele>918.9999999999999</ele><time>2026-04-26T16:16:21.999Z</time></trkpt><trkpt lat="43.72641764546753" lon="7.012027487819544"><ele>919.0</ele><time>2026-04-26T16:16:22.999Z</time></trkpt><trkpt lat="43.72635665293054" lon="7.012059435855165"><ele>919.0</ele><time>2026-04-26T16:16:23.999Z</time></trkpt><trkpt lat="43.726296252771704" lon="7.012104544159967"><ele>918.9999999999999</ele><time>2026-04-26T16:16:24.999Z</time></trkpt><trkpt lat="43.72623452189527" lon="7.012158862156094"><ele>919.0</ele><time>2026-04-26T16:16:25.999Z</time></trkpt><trkpt lat="43.72616779604921" lon="7.01220364600545"><ele>919.0</ele><time>2026-04-26T16:16:26.999Z</time></trkpt><trkpt lat="43.726086581394945" lon="7.012259267398999"><ele>916.0</ele><time>2026-04-26T16:16:27.999Z</time></trkpt><trkpt lat="43.72598822708213" lon="7.012318014187786"><ele>913.0000000000001</ele><time>2026-04-26T16:16:28.999Z</time></trkpt><trkpt lat="43.72588394599807" lon="7.012359341473542"><ele>910.0000000000001</ele><time>2026-04-26T16:16:29.999Z</time></trkpt><trkpt lat="43.72579401738025" lon="7.012397960669682"><ele>907.0</ele><time>2026-04-26T16:16:30.999Z</time></trkpt><trkpt lat="43.725719422192455" lon="7.012432661051358"><ele>904.0</ele><time>2026-04-26T16:16:31.999Z</time></trkpt><trkpt lat="43.725647280653696" lon="7.01247366258749"><ele>908.9999999999999</ele><time>2026-04-26T16:16:32.999Z</time></trkpt><trkpt lat="43.72558704917445" lon="7.0125290493727945"><ele>914.0</ele><time>2026-04-26T16:16:33.999Z</time></trkpt><trkpt lat="43.725531705992545" lon="7.012603757957528"><ele>919.0</ele><time>2026-04-26T16:16:34.999Z</time></trkpt><trkpt lat="43.72546522909635" lon="7.012685925519375"><ele>924.0</ele><time>2026-04-26T16:16:36Z</time></trkpt><trkpt lat="43.72538651776754" lon="7.012765517255936"><ele>928.9999999999999</ele><time>2026-04-26T16:16:37Z</time></trkpt><trkpt lat="43.72531750637756" lon="7.01284400299261"><ele>934.0</ele><time>2026-04-26T16:16:38Z</time></trkpt><trkpt lat="43.725248148225276" lon="7.0129117335386875"><ele>930.4000000000001</ele><time>2026-04-26T16:16:39Z</time></trkpt><trkpt lat="43.7251743125569" lon="7.0129814115452636"><ele>926.8000000000001</ele><time>2026-04-26T16:16:40Z</time></trkpt><trkpt lat="43.7250823592246" lon="7.013054675395694"><ele>923.1999999999999</ele><time>2026-04-26T16:16:41Z</time></trkpt><trkpt lat="43.724975243709586" lon="7.0131246207164155"><ele>919.5999999999999</ele><time>2026-04-26T16:16:42Z</time></trkpt><trkpt lat="43.724876300573314" lon="7.0131887842804606"><ele>916.0</ele><time>2026-04-26T16:16:43Z</time></trkpt><trkpt lat="43.724763325858426" lon="7.0132753005803705"><ele>916.25</ele><time>2026-04-26T16:16:44Z</time></trkpt><trkpt lat="43.7246442897513" lon="7.013358300473624"><ele>916.5</ele><time>2026-04-26T16:16:45Z</time></trkpt><trkpt lat="43.72452450991608" lon="7.013420278911156"><ele>916.75</ele><time>2026-04-26T16:16:46Z</time></trkpt><trkpt lat="43.7244200850016" lon="7.013478316135711"><ele>917.0</ele><time>2026-04-26T16:16:47Z</time></trkpt><trkpt lat="43.72432484815699" lon="7.013547582697675"><ele>917.0</ele><time>2026-04-26T16:16:48Z</time></trkpt><trkpt lat="43.724230933739044" lon="7.013620943144895"><ele>917.0</ele><time>2026-04-26T16:16:49Z</time></trkpt><trkpt lat="43.72413366544511" lon="7.013689768794305"><ele>917.0</ele><time>2026-04-26T16:16:50Z</time></trkpt><trkpt lat="43.72403708937583" lon="7.013759319296926"><ele>917.0</ele><time>2026-04-26T16:16:51Z</time></trkpt><trkpt lat="43.72394085531653" lon="7.013800878477682"><ele>917.0</ele><time>2026-04-26T16:16:52Z</time></trkpt><trkpt lat="43.72384527059117" lon="7.013833406861223"><ele>917.0000000000001</ele><time>2026-04-26T16:16:53Z</time></trkpt><trkpt lat="43.723772976057155" lon="7.013852271289013"><ele>917.0</ele><time>2026-04-26T16:16:54Z</time></trkpt><trkpt lat="43.72371016337205" lon="7.013879530811665"><ele>917.0</ele><time>2026-04-26T16:16:57Z</time></trkpt><trkpt lat="43.723591557749344" lon="7.013963334778361"><ele>917.0</ele><time>2026-04-26T16:17:32Z</time></trkpt><trkpt lat="43.72351493045157" lon="7.013988469844067"><ele>917.0000000000001</ele><time>2026-04-26T16:17:33Z</time></trkpt><trkpt lat="43.72342413558981" lon="7.013994610241518"><ele>917.0</ele><time>2026-04-26T16:17:34Z</time></trkpt><trkpt lat="43.723304113458035" lon="7.014006189182167"><ele>915.0</ele><time>2026-04-26T16:17:35Z</time></trkpt><trkpt lat="43.72318019763331" lon="7.014017736000335"><ele>913.0</ele><time>2026-04-26T16:17:36Z</time></trkpt><trkpt lat="43.723081222323785" lon="7.014031664419719"><ele>911.0</ele><time>2026-04-26T16:17:37Z</time></trkpt><trkpt lat="43.722978274434425" lon="7.014044596470559"><ele>909.0</ele><time>2026-04-26T16:17:38Z</time></trkpt><trkpt lat="43.722872355083084" lon="7.014064842111121"><ele>907.0</ele><time>2026-04-26T16:17:38.999Z</time></trkpt><trkpt lat="43.72277368492856" lon="7.014094080430616"><ele>907.1666666666666</ele><time>2026-04-26T16:17:39.999Z</time></trkpt><trkpt lat="43.72268237930232" lon="7.014140744624577"><ele>907.3333333333333</ele><time>2026-04-26T16:17:40.999Z</time></trkpt><trkpt lat="43.722597742511645" lon="7.014205318009975"><ele>907.5</ele><time>2026-04-26T16:17:41.999Z</time></trkpt><trkpt lat="43.722520963717926" lon="7.014276821444575"><ele>907.6666666666667</ele><time>2026-04-26T16:17:42.999Z</time></trkpt><trkpt lat="43.72244670939548" lon="7.01432944712516"><ele>907.8333333333334</ele><time>2026-04-26T16:17:43.999Z</time></trkpt><trkpt lat="43.72239870331996" lon="7.014410792644136"><ele>908.0</ele><time>2026-04-26T16:17:44.999Z</time></trkpt><trkpt lat="43.72236386236134" lon="7.014498647078455"><ele>908.0</ele><time>2026-04-26T16:17:45.999Z</time></trkpt><trkpt lat="43.722326616343885" lon="7.014578310152797"><ele>908.0</ele><time>2026-04-26T16:17:46.999Z</time></trkpt><trkpt lat="43.722266269184644" lon="7.014702350720188"><ele>908.0</ele><time>2026-04-26T16:17:48.999Z</time></trkpt><trkpt lat="43.72217773196985" lon="7.014645937313726"><ele>908.0</ele><time>2026-04-26T16:17:50.999Z</time></trkpt><trkpt lat="43.72215983188757" lon="7.014470668368815"><ele>908.0</ele><time>2026-04-26T16:17:52.999Z</time></trkpt><trkpt lat="43.722153371078036" lon="7.01432476652804"><ele>908.0</ele><time>2026-04-26T16:17:53.999Z</time></trkpt><trkpt lat="43.72212198704347" lon="7.014189311837413"><ele>908.0</ele><time>2026-04-26T16:17:54.999Z</time></trkpt><trkpt lat="43.72209410745961" lon="7.014052172986528"><ele>908.0</ele><time>2026-04-26T16:17:55.999Z</time></trkpt><trkpt lat="43.72209224605013" lon="7.0138810229797315"><ele>908.0</ele><time>2026-04-26T16:17:56.999Z</time></trkpt><trkpt lat="43.722108886804236" lon="7.0137094974597165"><ele>905.75</ele><time>2026-04-26T16:17:57.999Z</time></trkpt><trkpt lat="43.722128221149916" lon="7.013512437621466"><ele>903.5</ele><time>2026-04-26T16:17:58.999Z</time></trkpt><trkpt lat="43.72213431665367" lon="7.013342038465557"><ele>901.25</ele><time>2026-04-26T16:17:59.999Z</time></trkpt><trkpt lat="43.722140066297264" lon="7.013161354673907"><ele>899.0</ele><time>2026-04-26T16:18:00.999Z</time></trkpt><trkpt lat="43.72215876415972" lon="7.0129984289173395"><ele>896.25</ele><time>2026-04-26T16:18:01.999Z</time></trkpt><trkpt lat="43.7221823920206" lon="7.01282556789185"><ele>893.5</ele><time>2026-04-26T16:18:02.999Z</time></trkpt><trkpt lat="43.7222027351728" lon="7.012658914172582"><ele>890.75</ele><time>2026-04-26T16:18:03.999Z</time></trkpt><trkpt lat="43.722221062047815" lon="7.012504490250344"><ele>888.0</ele><time>2026-04-26T16:18:04.999Z</time></trkpt><trkpt lat="43.722233856362756" lon="7.012374954494891"><ele>886.4</ele><time>2026-04-26T16:18:05.999Z</time></trkpt><trkpt lat="43.722230655693316" lon="7.012264269933739"><ele>884.8</ele><time>2026-04-26T16:18:06.999Z</time></trkpt><trkpt lat="43.722211100667685" lon="7.012176918964228"><ele>883.2</ele><time>2026-04-26T16:18:07.999Z</time></trkpt><trkpt lat="43.72211041863697" lon="7.012110385372387"><ele>881.6</ele><time>2026-04-26T16:18:09.999Z</time></trkpt><trkpt lat="43.72201201278324" lon="7.012116794951383"><ele>880.0</ele><time>2026-04-26T16:18:10.999Z</time></trkpt><trkpt lat="43.721887528754465" lon="7.012127691270607"><ele>880.0</ele><time>2026-04-26T16:18:11.999Z</time></trkpt><trkpt lat="43.72177846551033" lon="7.012144247292374"><ele>880.0</ele><time>2026-04-26T16:18:12.999Z</time></trkpt><trkpt lat="43.72167839693597" lon="7.012183826190522"><ele>880.0</ele><time>2026-04-26T16:18:13.999Z</time></trkpt><trkpt lat="43.7215663658545" lon="7.012219337345951"><ele>880.0</ele><time>2026-04-26T16:18:14.999Z</time></trkpt><trkpt lat="43.72145293371608" lon="7.012233177802828"><ele>880.0</ele><time>2026-04-26T16:18:15.999Z</time></trkpt><trkpt lat="43.72135514180439" lon="7.012233540743387"><ele>880.0</ele><time>2026-04-26T16:18:16.999Z</time></trkpt><trkpt lat="43.72125910896346" lon="7.012195002435667"><ele>880.0</ele><time>2026-04-26T16:18:17.999Z</time></trkpt><trkpt lat="43.721173437511936" lon="7.012134770257162"><ele>880.0</ele><time>2026-04-26T16:18:18.999Z</time></trkpt><trkpt lat="43.7211109069673" lon="7.012066332661536"><ele>880.0</ele><time>2026-04-26T16:18:19.999Z</time></trkpt><trkpt lat="43.72102679100865" lon="7.011981953076078"><ele>880.0</ele><time>2026-04-26T16:18:20.999Z</time></trkpt><trkpt lat="43.72094886523821" lon="7.0118774542899125"><ele>879.0</ele><time>2026-04-26T16:18:21.999Z</time></trkpt><trkpt lat="43.72086255490658" lon="7.011780058763671"><ele>878.0</ele><time>2026-04-26T16:18:22.999Z</time></trkpt><trkpt lat="43.72078085497191" lon="7.011662356684768"><ele>877.0</ele><time>2026-04-26T16:18:23.999Z</time></trkpt><trkpt lat="43.720709769033775" lon="7.011554132440135"><ele>876.0</ele><time>2026-04-26T16:18:24.999Z</time></trkpt><trkpt lat="43.72064353989172" lon="7.01145127792425"><ele>875.0</ele><time>2026-04-26T16:18:25.999Z</time></trkpt><trkpt lat="43.720588014595215" lon="7.011349480836036"><ele>874.0</ele><time>2026-04-26T16:18:26.999Z</time></trkpt><trkpt lat="43.7205515866184" lon="7.011229771622703"><ele>873.0</ele><time>2026-04-26T16:18:27.999Z</time></trkpt><trkpt lat="43.72052816178643" lon="7.0111006325407725"><ele>872.0</ele><time>2026-04-26T16:18:28.999Z</time></trkpt><trkpt lat="43.72051133142304" lon="7.010944698694509"><ele>871.0</ele><time>2026-04-26T16:18:29.999Z</time></trkpt><trkpt lat="43.72048003652519" lon="7.010821484939954"><ele>870.0</ele><time>2026-04-26T16:18:30.999Z</time></trkpt><trkpt lat="43.72043467579384" lon="7.010731099730325"><ele>870.4</ele><time>2026-04-26T16:18:31.999Z</time></trkpt><trkpt lat="43.72032070774858" lon="7.010700061931535"><ele>870.8</ele><time>2026-04-26T16:18:33.999Z</time></trkpt><trkpt lat="43.72025597854823" lon="7.010764429056372"><ele>871.2</ele><time>2026-04-26T16:18:34.999Z</time></trkpt><trkpt lat="43.72021831937373" lon="7.01086828785344"><ele>871.6</ele><time>2026-04-26T16:18:35.999Z</time></trkpt><trkpt lat="43.72019210299168" lon="7.0109971068937655"><ele>872.0</ele><time>2026-04-26T16:18:36.999Z</time></trkpt><trkpt lat="43.72015380012412" lon="7.011163950033498"><ele>872.0</ele><time>2026-04-26T16:18:37.999Z</time></trkpt><trkpt lat="43.720111706907915" lon="7.0113413059931045"><ele>872.0</ele><time>2026-04-26T16:18:38.999Z</time></trkpt><trkpt lat="43.72006897470074" lon="7.011554701533178"><ele>872.0</ele><time>2026-04-26T16:18:39.999Z</time></trkpt><trkpt lat="43.72001793299572" lon="7.011780069215077"><ele>872.5</ele><time>2026-04-26T16:18:41Z</time></trkpt><trkpt lat="43.71996987590027" lon="7.011963664410826"><ele>873.0</ele><time>2026-04-26T16:18:42Z</time></trkpt><trkpt lat="43.719921764201295" lon="7.012132520144778"><ele>873.5</ele><time>2026-04-26T16:18:43Z</time></trkpt><trkpt lat="43.71985805623461" lon="7.012293916653389"><ele>874.0</ele><time>2026-04-26T16:18:44Z</time></trkpt><trkpt lat="43.719794220891835" lon="7.012422573630418"><ele>873.3333333333333</ele><time>2026-04-26T16:18:45Z</time></trkpt><trkpt lat="43.7197539652043" lon="7.012564101152112"><ele>872.6666666666666</ele><time>2026-04-26T16:18:46Z</time></trkpt><trkpt lat="43.71971859923593" lon="7.0126647383939495"><ele>872.0</ele><time>2026-04-26T16:18:47Z</time></trkpt><trkpt lat="43.719694790011076" lon="7.01277847949359"><ele>871.3333333333333</ele><time>2026-04-26T16:18:48Z</time></trkpt><trkpt lat="43.719686447320086" lon="7.012866367477407"><ele>870.6666666666666</ele><time>2026-04-26T16:18:49Z</time></trkpt><trkpt lat="43.71971194161148" lon="7.01295193473894"><ele>870.0</ele><time>2026-04-26T16:18:50Z</time></trkpt><trkpt lat="43.71975502758446" lon="7.013068064721094"><ele>870.0</ele><time>2026-04-26T16:18:51Z</time></trkpt><trkpt lat="43.719808794146864" lon="7.013201587258661"><ele>870.0</ele><time>2026-04-26T16:18:52Z</time></trkpt><trkpt lat="43.71985423453926" lon="7.0133559346578656"><ele>870.0</ele><time>2026-04-26T16:18:53Z</time></trkpt><trkpt lat="43.71989028086216" lon="7.013524725972372"><ele>870.0</ele><time>2026-04-26T16:18:54Z</time></trkpt><trkpt lat="43.719911477636025" lon="7.013710393533426"><ele>869.25</ele><time>2026-04-26T16:18:55Z</time></trkpt><trkpt lat="43.719921600149604" lon="7.013897012846107"><ele>868.5</ele><time>2026-04-26T16:18:56Z</time></trkpt><trkpt lat="43.719925074065344" lon="7.014081484173159"><ele>867.75</ele><time>2026-04-26T16:18:57Z</time></trkpt><trkpt lat="43.71991588153014" lon="7.014246651201576"><ele>867.0</ele><time>2026-04-26T16:18:58Z</time></trkpt><trkpt lat="43.7198846832391" lon="7.014410749039395"><ele>867.0</ele><time>2026-04-26T16:18:59Z</time></trkpt><trkpt lat="43.71982731769891" lon="7.014583867236938"><ele>867.0</ele><time>2026-04-26T16:19:00Z</time></trkpt><trkpt lat="43.71976763679986" lon="7.014757033346921"><ele>867.0</ele><time>2026-04-26T16:19:01Z</time></trkpt><trkpt lat="43.7197169718998" lon="7.014910548319041"><ele>867.0</ele><time>2026-04-26T16:19:02Z</time></trkpt><trkpt lat="43.719663709280724" lon="7.015033498115948"><ele>867.0</ele><time>2026-04-26T16:19:03Z</time></trkpt><trkpt lat="43.719604464971354" lon="7.015124553626295"><ele>867.0</ele><time>2026-04-26T16:19:04Z</time></trkpt><trkpt lat="43.719542241758504" lon="7.015180156121741"><ele>867.0</ele><time>2026-04-26T16:19:05Z</time></trkpt><trkpt lat="43.7194352255106" lon="7.015184124511942"><ele>867.0</ele><time>2026-04-26T16:19:07Z</time></trkpt><trkpt lat="43.719371584376205" lon="7.015156292137183"><ele>867.0</ele><time>2026-04-26T16:19:08Z</time></trkpt><trkpt lat="43.71925728044225" lon="7.015177025116263"><ele>866.1666666666666</ele><time>2026-04-26T16:19:10Z</time></trkpt><trkpt lat="43.71920261987891" lon="7.015282014862295"><ele>865.3333333333333</ele><time>2026-04-26T16:19:12Z</time></trkpt><trkpt lat="43.71922166219801" lon="7.015400549444243"><ele>864.5</ele><time>2026-04-26T16:19:14Z</time></trkpt><trkpt lat="43.71924023812289" lon="7.015483774684532"><ele>863.6666666666666</ele><time>2026-04-26T16:19:15Z</time></trkpt><trkpt lat="43.71926016399819" lon="7.015567189305159"><ele>862.8333333333333</ele><time>2026-04-26T16:19:16Z</time></trkpt><trkpt lat="43.71927384306084" lon="7.015670102499211"><ele>862.0</ele><time>2026-04-26T16:19:17Z</time></trkpt><trkpt lat="43.71929439232764" lon="7.015765217753481"><ele>860.8333333333333</ele><time>2026-04-26T16:19:18Z</time></trkpt><trkpt lat="43.719305122934124" lon="7.015854671922201"><ele>859.6666666666666</ele><time>2026-04-26T16:19:19Z</time></trkpt><trkpt lat="43.719323156823286" lon="7.015957875168955"><ele>858.5</ele><time>2026-04-26T16:19:20Z</time></trkpt><trkpt lat="43.71934200774464" lon="7.016062098831961"><ele>857.3333333333333</ele><time>2026-04-26T16:19:21Z</time></trkpt><trkpt lat="43.71934818483731" lon="7.016181715272109"><ele>856.1666666666666</ele><time>2026-04-26T16:19:22Z</time></trkpt><trkpt lat="43.71934563286569" lon="7.016304446550078"><ele>855.0</ele><time>2026-04-26T16:19:23Z</time></trkpt><trkpt lat="43.71933507308877" lon="7.016399343416935"><ele>855.0</ele><time>2026-04-26T16:19:24Z</time></trkpt><trkpt lat="43.71932441578461" lon="7.016519608414745"><ele>855.0</ele><time>2026-04-26T16:19:26Z</time></trkpt><trkpt lat="43.71932582627899" lon="7.016641892062784"><ele>855.0</ele><time>2026-04-26T16:19:28Z</time></trkpt><trkpt lat="43.71928343325733" lon="7.0167247518751905"><ele>855.0</ele><time>2026-04-26T16:19:30Z</time></trkpt><trkpt lat="43.719187124798815" lon="7.016728652403872"><ele>855.0</ele><time>2026-04-26T16:19:58.999Z</time></trkpt><trkpt lat="43.71908499807721" lon="7.016733048578749"><ele>855.0</ele><time>2026-04-26T16:20:01.999Z</time></trkpt><trkpt lat="43.7190318252571" lon="7.0168063448481215"><ele>853.4</ele><time>2026-04-26T16:20:03.999Z</time></trkpt><trkpt lat="43.71906739988731" lon="7.016901933434139"><ele>851.8</ele><time>2026-04-26T16:20:05.999Z</time></trkpt><trkpt lat="43.71910559513371" lon="7.017042849966799"><ele>850.2</ele><time>2026-04-26T16:20:07.999Z</time></trkpt><trkpt lat="43.71914791497595" lon="7.017194339304799"><ele>848.6</ele><time>2026-04-26T16:20:09.999Z</time></trkpt><trkpt lat="43.71918946028801" lon="7.017294193185342"><ele>847.0</ele><time>2026-04-26T16:20:10.999Z</time></trkpt><trkpt lat="43.71924884729155" lon="7.017401320793921"><ele>846.4000000000001</ele><time>2026-04-26T16:20:11.999Z</time></trkpt><trkpt lat="43.71928770778363" lon="7.017499833337014"><ele>845.8000000000001</ele><time>2026-04-26T16:20:12.999Z</time></trkpt><trkpt lat="43.719285741772474" lon="7.017587293480389"><ele>845.2</ele><time>2026-04-26T16:20:13.999Z</time></trkpt><trkpt lat="43.71924817858526" lon="7.0176867588594"><ele>844.6</ele><time>2026-04-26T16:20:14.999Z</time></trkpt><trkpt lat="43.719177598732365" lon="7.0178248623267265"><ele>844.0</ele><time>2026-04-26T16:20:15.999Z</time></trkpt><trkpt lat="43.71910762381164" lon="7.017992132783788"><ele>844.0</ele><time>2026-04-26T16:20:16.999Z</time></trkpt><trkpt lat="43.71904841644957" lon="7.018127561669895"><ele>844.0</ele><time>2026-04-26T16:20:17.999Z</time></trkpt><trkpt lat="43.71899200395426" lon="7.0182144887896065"><ele>844.0</ele><time>2026-04-26T16:20:18.999Z</time></trkpt><trkpt lat="43.71891591180662" lon="7.018198849437772"><ele>844.0</ele><time>2026-04-26T16:20:21.999Z</time></trkpt><trkpt lat="43.71882045826333" lon="7.0182374213710865"><ele>844.0</ele><time>2026-04-26T16:20:25.999Z</time></trkpt><trkpt lat="43.71871154967134" lon="7.018313174250146"><ele>843.8000000000001</ele><time>2026-04-26T16:20:27.999Z</time></trkpt><trkpt lat="43.71865968201665" lon="7.018375218289345"><ele>843.6</ele><time>2026-04-26T16:20:28.999Z</time></trkpt><trkpt lat="43.71861273971699" lon="7.018438233795158"><ele>843.4</ele><time>2026-04-26T16:20:29.999Z</time></trkpt><trkpt lat="43.7185351550865" lon="7.018540569593469"><ele>843.2</ele><time>2026-04-26T16:20:31.999Z</time></trkpt><trkpt lat="43.718498250098236" lon="7.018676248170324"><ele>843.0</ele><time>2026-04-26T16:20:33.999Z</time></trkpt><trkpt lat="43.71844523377356" lon="7.018844531966488"><ele>841.8333333333334</ele><time>2026-04-26T16:20:35.999Z</time></trkpt><trkpt lat="43.71841928400297" lon="7.018942952059372"><ele>840.6666666666667</ele><time>2026-04-26T16:20:36.999Z</time></trkpt><trkpt lat="43.71840305088437" lon="7.0190308470983975"><ele>839.5</ele><time>2026-04-26T16:20:37.999Z</time></trkpt><trkpt lat="43.718385255838975" lon="7.019122099133622"><ele>838.3333333333334</ele><time>2026-04-26T16:20:38.999Z</time></trkpt><trkpt lat="43.71836286329517" lon="7.019230787054987"><ele>837.1666666666667</ele><time>2026-04-26T16:20:39.999Z</time></trkpt><trkpt lat="43.71833894777797" lon="7.019357043639805"><ele>836.0</ele><time>2026-04-26T16:20:40.999Z</time></trkpt><trkpt lat="43.71830173189211" lon="7.01950685848713"><ele>836.0000000000001</ele><time>2026-04-26T16:20:41.999Z</time></trkpt><trkpt lat="43.718269070773914" lon="7.019623164792338"><ele>836.0</ele><time>2026-04-26T16:20:42.999Z</time></trkpt><trkpt lat="43.71823567806353" lon="7.019756981247504"><ele>836.0</ele><time>2026-04-26T16:20:44.999Z</time></trkpt><trkpt lat="43.71820505788391" lon="7.019842068072999"><ele>836.0</ele><time>2026-04-26T16:20:45.999Z</time></trkpt><trkpt lat="43.718168659087404" lon="7.019967511403751"><ele>836.0000000000001</ele><time>2026-04-26T16:20:48Z</time></trkpt><trkpt lat="43.71812144035091" lon="7.0200468508615765"><ele>836.0</ele><time>2026-04-26T16:21:24Z</time></trkpt><trkpt lat="43.718051300210995" lon="7.02011532140156"><ele>836.0000000000001</ele><time>2026-04-26T16:21:28Z</time></trkpt><trkpt lat="43.717974574006504" lon="7.02010784566089"><ele>836.0</ele><time>2026-04-26T16:21:31Z</time></trkpt><trkpt lat="43.7179052956548" lon="7.020100717564452"><ele>836.0</ele><time>2026-04-26T16:21:33Z</time></trkpt><trkpt lat="43.717846115070024" lon="7.020044173752459"><ele>836.0</ele><time>2026-04-26T16:21:37Z</time></trkpt><trkpt lat="43.71780244132742" lon="7.019937898685468"><ele>836.0000000000001</ele><time>2026-04-26T16:21:40Z</time></trkpt><trkpt lat="43.71769567798865" lon="7.019935605259195"><ele>836.0</ele><time>2026-04-26T16:21:42Z</time></trkpt><trkpt lat="43.71763256172738" lon="7.0199688660084325"><ele>834.1666666666667</ele><time>2026-04-26T16:21:43Z</time></trkpt><trkpt lat="43.71755366995193" lon="7.020026084597131"><ele>832.3333333333334</ele><time>2026-04-26T16:21:44Z</time></trkpt><trkpt lat="43.71747544162995" lon="7.020106064924269"><ele>830.5</ele><time>2026-04-26T16:21:45Z</time></trkpt><trkpt lat="43.71740125351124" lon="7.020175040404015"><ele>828.6666666666667</ele><time>2026-04-26T16:21:46Z</time></trkpt><trkpt lat="43.717328614580246" lon="7.020222551423521"><ele>826.8333333333334</ele><time>2026-04-26T16:21:47Z</time></trkpt><trkpt lat="43.717265532204046" lon="7.020260848727144"><ele>825.0</ele><time>2026-04-26T16:21:48Z</time></trkpt><trkpt lat="43.71719763688568" lon="7.020355367667169"><ele>825.0</ele><time>2026-04-26T16:21:50Z</time></trkpt><trkpt lat="43.71718425434721" lon="7.020457460379208"><ele>825.0</ele><time>2026-04-26T16:21:51Z</time></trkpt><trkpt lat="43.717130281589725" lon="7.020610184463068"><ele>825.0</ele><time>2026-04-26T16:21:52Z</time></trkpt><trkpt lat="43.71709043157193" lon="7.020741825598824"><ele>825.0</ele><time>2026-04-26T16:21:53Z</time></trkpt><trkpt lat="43.71706144808662" lon="7.020899258209765"><ele>825.0</ele><time>2026-04-26T16:21:53.999Z</time></trkpt><trkpt lat="43.71704827165504" lon="7.021067087051773"><ele>826.0</ele><time>2026-04-26T16:21:54.999Z</time></trkpt><trkpt lat="43.71705144724642" lon="7.021240521060425"><ele>827.0</ele><time>2026-04-26T16:21:55.999Z</time></trkpt><trkpt lat="43.7170589928226" lon="7.021445961864841"><ele>828.0</ele><time>2026-04-26T16:21:56.999Z</time></trkpt><trkpt lat="43.71705908581513" lon="7.021651915798994"><ele>829.0</ele><time>2026-04-26T16:21:57.999Z</time></trkpt><trkpt lat="43.717072584407305" lon="7.021823310859774"><ele>830.0</ele><time>2026-04-26T16:21:58.999Z</time></trkpt><trkpt lat="43.717085778577285" lon="7.021997957761329"><ele>831.0</ele><time>2026-04-26T16:21:59.999Z</time></trkpt><trkpt lat="43.7171167454233" lon="7.022168187607818"><ele>832.0</ele><time>2026-04-26T16:22:00.999Z</time></trkpt><trkpt lat="43.717166097036504" lon="7.022348953263842"><ele>833.0</ele><time>2026-04-26T16:22:01.999Z</time></trkpt><trkpt lat="43.7172059228768" lon="7.022549039843446"><ele>833.5</ele><time>2026-04-26T16:22:02.999Z</time></trkpt><trkpt lat="43.71725436360859" lon="7.022753727089988"><ele>834.0</ele><time>2026-04-26T16:22:03.999Z</time></trkpt><trkpt lat="43.71729231743298" lon="7.0229495459066635"><ele>834.5</ele><time>2026-04-26T16:22:04.999Z</time></trkpt><trkpt lat="43.7173408557988" lon="7.0231300481881815"><ele>835.0</ele><time>2026-04-26T16:22:05.999Z</time></trkpt><trkpt lat="43.71738254476678" lon="7.02330516139221"><ele>834.4</ele><time>2026-04-26T16:22:06.999Z</time></trkpt><trkpt lat="43.7174086522501" lon="7.023463884295037"><ele>833.8</ele><time>2026-04-26T16:22:07.999Z</time></trkpt><trkpt lat="43.71744900494202" lon="7.023594086421833"><ele>833.2</ele><time>2026-04-26T16:22:08.999Z</time></trkpt><trkpt lat="43.717506055097566" lon="7.02370703553882"><ele>832.6</ele><time>2026-04-26T16:22:09.999Z</time></trkpt><trkpt lat="43.71756702523139" lon="7.023769279267212"><ele>832.0</ele><time>2026-04-26T16:22:10.999Z</time></trkpt><trkpt lat="43.717661594443456" lon="7.023753748949961"><ele>832.0</ele><time>2026-04-26T16:22:12.999Z</time></trkpt><trkpt lat="43.71768992011271" lon="7.023667770837722"><ele>832.0</ele><time>2026-04-26T16:22:13.999Z</time></trkpt><trkpt lat="43.717699237183304" lon="7.023555776257431"><ele>832.0</ele><time>2026-04-26T16:22:14.999Z</time></trkpt><trkpt lat="43.71770018187773" lon="7.023409764568793"><ele>832.0</ele><time>2026-04-26T16:22:15.999Z</time></trkpt><trkpt lat="43.7177069971802" lon="7.023262065850682"><ele>832.0</ele><time>2026-04-26T16:22:16.999Z</time></trkpt><trkpt lat="43.71774909231119" lon="7.023149256692309"><ele>834.4999999999999</ele><time>2026-04-26T16:22:17.999Z</time></trkpt><trkpt lat="43.71780185936061" lon="7.02305212499452"><ele>837.0</ele><time>2026-04-26T16:22:18.999Z</time></trkpt><trkpt lat="43.7178609797462" lon="7.0229773153751625"><ele>839.5</ele><time>2026-04-26T16:22:19.999Z</time></trkpt><trkpt lat="43.71793038948793" lon="7.022940847078391"><ele>842.0</ele><time>2026-04-26T16:22:20.999Z</time></trkpt><trkpt lat="43.71799781940883" lon="7.022948585055493"><ele>844.4999999999999</ele><time>2026-04-26T16:22:21.999Z</time></trkpt><trkpt lat="43.71806882960255" lon="7.023062872283431"><ele>847.0</ele><time>2026-04-26T16:22:23.999Z</time></trkpt><trkpt lat="43.71807483360279" lon="7.023181983276333"><ele>846.5</ele><time>2026-04-26T16:22:24.999Z</time></trkpt><trkpt lat="43.71805927794893" lon="7.023337187188697"><ele>846.0</ele><time>2026-04-26T16:22:25.999Z</time></trkpt><trkpt lat="43.71806639327874" lon="7.023521764454195"><ele>845.5</ele><time>2026-04-26T16:22:26.999Z</time></trkpt><trkpt lat="43.718092342982274" lon="7.023720593635182"><ele>845.0</ele><time>2026-04-26T16:22:27.999Z</time></trkpt><trkpt lat="43.718116792590024" lon="7.023935411038499"><ele>845.0</ele><time>2026-04-26T16:22:28.999Z</time></trkpt><trkpt lat="43.71814231354875" lon="7.0241423949594415"><ele>845.0</ele><time>2026-04-26T16:22:29.999Z</time></trkpt><trkpt lat="43.718150845032056" lon="7.024345941175143"><ele>845.0</ele><time>2026-04-26T16:22:30.999Z</time></trkpt><trkpt lat="43.718144112937225" lon="7.024547806584546"><ele>845.0</ele><time>2026-04-26T16:22:31.999Z</time></trkpt><trkpt lat="43.71813189966599" lon="7.024753907414681"><ele>845.0</ele><time>2026-04-26T16:22:32.999Z</time></trkpt><trkpt lat="43.718098599727604" lon="7.024934978886134"><ele>845.0</ele><time>2026-04-26T16:22:33.999Z</time></trkpt><trkpt lat="43.71804742022404" lon="7.025110781440011"><ele>845.0</ele><time>2026-04-26T16:22:34.999Z</time></trkpt><trkpt lat="43.71800098968081" lon="7.025311429383285"><ele>845.0</ele><time>2026-04-26T16:22:35.999Z</time></trkpt><trkpt lat="43.71796929364951" lon="7.025459612240689"><ele>845.0</ele><time>2026-04-26T16:22:36.999Z</time></trkpt><trkpt lat="43.71793112118967" lon="7.025618618325516"><ele>845.0</ele><time>2026-04-26T16:22:37.999Z</time></trkpt><trkpt lat="43.71789891610745" lon="7.025767512531615"><ele>845.0</ele><time>2026-04-26T16:22:38.999Z</time></trkpt><trkpt lat="43.7178533271135" lon="7.025886308721168"><ele>845.0</ele><time>2026-04-26T16:22:39.999Z</time></trkpt><trkpt lat="43.71777048070116" lon="7.025994476878059"><ele>845.0</ele><time>2026-04-26T16:22:40.999Z</time></trkpt><trkpt lat="43.717667497984095" lon="7.026076013116017"><ele>843.75</ele><time>2026-04-26T16:22:41.999Z</time></trkpt><trkpt lat="43.71755442062003" lon="7.026140248916597"><ele>842.5</ele><time>2026-04-26T16:22:42.999Z</time></trkpt><trkpt lat="43.71742927116398" lon="7.026196087921514"><ele>841.25</ele><time>2026-04-26T16:22:43.999Z</time></trkpt><trkpt lat="43.71731153799889" lon="7.02624908339602"><ele>840.0</ele><time>2026-04-26T16:22:44.999Z</time></trkpt><trkpt lat="43.71719360001449" lon="7.026277836684557"><ele>840.0</ele><time>2026-04-26T16:22:45.999Z</time></trkpt><trkpt lat="43.71707931829348" lon="7.026302817552714"><ele>840.0</ele><time>2026-04-26T16:22:46.999Z</time></trkpt><trkpt lat="43.71697532935964" lon="7.026362563643117"><ele>840.0</ele><time>2026-04-26T16:22:47.999Z</time></trkpt><trkpt lat="43.7168731266357" lon="7.026431473089371"><ele>840.0</ele><time>2026-04-26T16:22:48.999Z</time></trkpt><trkpt lat="43.71679342232497" lon="7.0265055147474715"><ele>840.0</ele><time>2026-04-26T16:22:49.999Z</time></trkpt><trkpt lat="43.71674656206374" lon="7.02659057369764"><ele>841.2</ele><time>2026-04-26T16:22:50.999Z</time></trkpt><trkpt lat="43.71670665650429" lon="7.026694189338104"><ele>842.4</ele><time>2026-04-26T16:22:52Z</time></trkpt><trkpt lat="43.71667160999566" lon="7.026811706358004"><ele>843.5999999999999</ele><time>2026-04-26T16:22:53Z</time></trkpt><trkpt lat="43.71666397594454" lon="7.026938163031268"><ele>844.8</ele><time>2026-04-26T16:22:54Z</time></trkpt><trkpt lat="43.71667577031891" lon="7.027087478296347"><ele>846.0</ele><time>2026-04-26T16:22:55Z</time></trkpt><trkpt lat="43.716698347706014" lon="7.027226321919671"><ele>846.0</ele><time>2026-04-26T16:22:56Z</time></trkpt><trkpt lat="43.7167321185902" lon="7.027328895362357"><ele>846.0</ele><time>2026-04-26T16:22:57Z</time></trkpt><trkpt lat="43.716772242292286" lon="7.027407753336262"><ele>846.0</ele><time>2026-04-26T16:22:58Z</time></trkpt><trkpt lat="43.71685209988147" lon="7.027509557422066"><ele>846.0</ele><time>2026-04-26T16:23:00Z</time></trkpt><trkpt lat="43.71690550053985" lon="7.027569475401156"><ele>846.0</ele><time>2026-04-26T16:23:01Z</time></trkpt><trkpt lat="43.71697739635052" lon="7.027648645783554"><ele>846.0</ele><time>2026-04-26T16:23:02Z</time></trkpt><trkpt lat="43.717063374362006" lon="7.027745392212441"><ele>848.25</ele><time>2026-04-26T16:23:03Z</time></trkpt><trkpt lat="43.71716029082302" lon="7.027863290273225"><ele>850.5</ele><time>2026-04-26T16:23:04Z</time></trkpt><trkpt lat="43.71726961043266" lon="7.027990867234789"><ele>852.75</ele><time>2026-04-26T16:23:05Z</time></trkpt><trkpt lat="43.71736433036943" lon="7.028128701523508"><ele>855.0</ele><time>2026-04-26T16:23:06Z</time></trkpt><trkpt lat="43.71746138527698" lon="7.028261490879091"><ele>853.25</ele><time>2026-04-26T16:23:07Z</time></trkpt><trkpt lat="43.717553615810594" lon="7.028385364933394"><ele>851.5</ele><time>2026-04-26T16:23:08Z</time></trkpt><trkpt lat="43.71764248515623" lon="7.028515995623771"><ele>849.75</ele><time>2026-04-26T16:23:09Z</time></trkpt><trkpt lat="43.7177350303548" lon="7.028665817248038"><ele>848.0</ele><time>2026-04-26T16:23:10Z</time></trkpt><trkpt lat="43.7178316183967" lon="7.02881006550678"><ele>848.75</ele><time>2026-04-26T16:23:11Z</time></trkpt><trkpt lat="43.71792546703956" lon="7.028949428417453"><ele>849.5</ele><time>2026-04-26T16:23:12Z</time></trkpt><trkpt lat="43.71801133257117" lon="7.029082022390589"><ele>850.25</ele><time>2026-04-26T16:23:13Z</time></trkpt><trkpt lat="43.718090845546776" lon="7.029197379759311"><ele>851.0</ele><time>2026-04-26T16:23:14Z</time></trkpt><trkpt lat="43.718169010119226" lon="7.029299561889423"><ele>851.0</ele><time>2026-04-26T16:23:15Z</time></trkpt><trkpt lat="43.71824080998542" lon="7.029396620339946"><ele>851.0</ele><time>2026-04-26T16:23:16Z</time></trkpt><trkpt lat="43.718307925171914" lon="7.029489250178887"><ele>851.0</ele><time>2026-04-26T16:23:17Z</time></trkpt><trkpt lat="43.718372102208896" lon="7.029579005385033"><ele>851.0</ele><time>2026-04-26T16:23:18Z</time></trkpt><trkpt lat="43.71844451812249" lon="7.029662364419163"><ele>851.0</ele><time>2026-04-26T16:23:19Z</time></trkpt><trkpt lat="43.71852027201976" lon="7.029740815091954"><ele>851.8</ele><time>2026-04-26T16:23:20Z</time></trkpt><trkpt lat="43.718585794815" lon="7.029810091720957"><ele>852.5999999999999</ele><time>2026-04-26T16:23:21Z</time></trkpt><trkpt lat="43.71864685755271" lon="7.0299090089042595"><ele>853.4</ele><time>2026-04-26T16:23:22Z</time></trkpt><trkpt lat="43.718713545564995" lon="7.03002188783108"><ele>854.2</ele><time>2026-04-26T16:23:23Z</time></trkpt><trkpt lat="43.71877122686007" lon="7.030140592937247"><ele>855.0</ele><time>2026-04-26T16:23:24Z</time></trkpt><trkpt lat="43.71884018405356" lon="7.030232110690002"><ele>855.0</ele><time>2026-04-26T16:23:25Z</time></trkpt><trkpt lat="43.718891665498525" lon="7.030341801366396"><ele>855.0</ele><time>2026-04-26T16:23:26Z</time></trkpt><trkpt lat="43.7189360620093" lon="7.030432910138465"><ele>855.0</ele><time>2026-04-26T16:23:27Z</time></trkpt><trkpt lat="43.718981637931165" lon="7.0305181060441795"><ele>855.0</ele><time>2026-04-26T16:23:28Z</time></trkpt><trkpt lat="43.719023920851505" lon="7.0306053754143125"><ele>855.0</ele><time>2026-04-26T16:23:29Z</time></trkpt><trkpt lat="43.719059482922134" lon="7.030690107047778"><ele>855.0</ele><time>2026-04-26T16:23:30Z</time></trkpt><trkpt lat="43.71910286546538" lon="7.0308541300558725"><ele>851.75</ele><time>2026-04-26T16:23:32Z</time></trkpt><trkpt lat="43.71912768889281" lon="7.030970874837307"><ele>848.5</ele><time>2026-04-26T16:23:33Z</time></trkpt><trkpt lat="43.71915400864577" lon="7.031118159106969"><ele>845.25</ele><time>2026-04-26T16:23:34Z</time></trkpt><trkpt lat="43.71918073442194" lon="7.031285627833413"><ele>842.0</ele><time>2026-04-26T16:23:35Z</time></trkpt><trkpt lat="43.71919090980195" lon="7.0314664089099"><ele>840.6</ele><time>2026-04-26T16:23:36Z</time></trkpt><trkpt lat="43.71920087781209" lon="7.031642104487245"><ele>839.2</ele><time>2026-04-26T16:23:37Z</time></trkpt><trkpt lat="43.719194285243695" lon="7.0317991645594695"><ele>837.8</ele><time>2026-04-26T16:23:38Z</time></trkpt><trkpt lat="43.71918337244229" lon="7.031942492503921"><ele>836.4</ele><time>2026-04-26T16:23:39Z</time></trkpt><trkpt lat="43.71918585390967" lon="7.032071183238163"><ele>835.0</ele><time>2026-04-26T16:23:40Z</time></trkpt><trkpt lat="43.719210007529725" lon="7.032198135635757"><ele>834.9999999999999</ele><time>2026-04-26T16:23:41Z</time></trkpt><trkpt lat="43.71924665363744" lon="7.032323019455125"><ele>835.0</ele><time>2026-04-26T16:23:42Z</time></trkpt><trkpt lat="43.71929031543237" lon="7.032403630204984"><ele>835.0</ele><time>2026-04-26T16:23:43Z</time></trkpt><trkpt lat="43.719335704027664" lon="7.032467369109893"><ele>835.0</ele><time>2026-04-26T16:23:44Z</time></trkpt><trkpt lat="43.71940054971926" lon="7.032530563216611"><ele>834.9999999999999</ele><time>2026-04-26T16:23:45Z</time></trkpt><trkpt lat="43.71948658566011" lon="7.032611083478072"><ele>835.0</ele><time>2026-04-26T16:23:46Z</time></trkpt><trkpt lat="43.71957856058232" lon="7.032714648723195"><ele>840.25</ele><time>2026-04-26T16:23:47Z</time></trkpt><trkpt lat="43.71967421840503" lon="7.032853872795212"><ele>845.5</ele><time>2026-04-26T16:23:48Z</time></trkpt><trkpt lat="43.71976228410472" lon="7.032983222040073"><ele>850.75</ele><time>2026-04-26T16:23:49Z</time></trkpt><trkpt lat="43.719837341880265" lon="7.033107733475844"><ele>856.0</ele><time>2026-04-26T16:23:50Z</time></trkpt><trkpt lat="43.71989792755387" lon="7.033260973621591"><ele>851.25</ele><time>2026-04-26T16:23:51Z</time></trkpt><trkpt lat="43.71995379790202" lon="7.033418055393322"><ele>846.5</ele><time>2026-04-26T16:23:52Z</time></trkpt><trkpt lat="43.7200168337959" lon="7.033563028839859"><ele>841.75</ele><time>2026-04-26T16:23:52.999Z</time></trkpt><trkpt lat="43.720083070841646" lon="7.033697618539167"><ele>837.0</ele><time>2026-04-26T16:23:53.999Z</time></trkpt><trkpt lat="43.72015623715204" lon="7.033814963228389"><ele>837.0</ele><time>2026-04-26T16:23:54.999Z</time></trkpt><trkpt lat="43.720226928747316" lon="7.033925685710133"><ele>837.0</ele><time>2026-04-26T16:23:55.999Z</time></trkpt><trkpt lat="43.72028549574911" lon="7.034043362733421"><ele>837.0</ele><time>2026-04-26T16:23:56.999Z</time></trkpt><trkpt lat="43.720326146457126" lon="7.0341758543784785"><ele>837.0</ele><time>2026-04-26T16:23:57.999Z</time></trkpt><trkpt lat="43.72036032296006" lon="7.034317325167759"><ele>837.0</ele><time>2026-04-26T16:23:58.999Z</time></trkpt><trkpt lat="43.72037578907389" lon="7.0344689260763085"><ele>835.8</ele><time>2026-04-26T16:23:59.999Z</time></trkpt><trkpt lat="43.7203837664789" lon="7.034643397106822"><ele>834.6</ele><time>2026-04-26T16:24:00.999Z</time></trkpt><trkpt lat="43.72039656362767" lon="7.034798867838386"><ele>833.4</ele><time>2026-04-26T16:24:01.999Z</time></trkpt><trkpt lat="43.72040585760153" lon="7.034940137388588"><ele>832.1999999999999</ele><time>2026-04-26T16:24:02.999Z</time></trkpt><trkpt lat="43.72042920172988" lon="7.035040153932058"><ele>831.0</ele><time>2026-04-26T16:24:03.999Z</time></trkpt><trkpt lat="43.72047798450047" lon="7.035107792405387"><ele>831.0</ele><time>2026-04-26T16:24:04.999Z</time></trkpt><trkpt lat="43.72056196475122" lon="7.0351839698346605"><ele>831.0</ele><time>2026-04-26T16:24:05.999Z</time></trkpt><trkpt lat="43.720660749039794" lon="7.03526611077522"><ele>831.0</ele><time>2026-04-26T16:24:06.999Z</time></trkpt><trkpt lat="43.72076870512216" lon="7.035379041145396"><ele>831.0</ele><time>2026-04-26T16:24:07.999Z</time></trkpt><trkpt lat="43.72088347473761" lon="7.035509027430236"><ele>831.0</ele><time>2026-04-26T16:24:08.999Z</time></trkpt><trkpt lat="43.72099992600958" lon="7.035650932815617"><ele>831.0</ele><time>2026-04-26T16:24:09.999Z</time></trkpt><trkpt lat="43.721099183149406" lon="7.035793773851078"><ele>831.0</ele><time>2026-04-26T16:24:10.999Z</time></trkpt><trkpt lat="43.72119686695156" lon="7.03591781742667"><ele>831.0</ele><time>2026-04-26T16:24:11.999Z</time></trkpt><trkpt lat="43.721285817353476" lon="7.036042421618955"><ele>831.4</ele><time>2026-04-26T16:24:12.999Z</time></trkpt><trkpt lat="43.72134982970505" lon="7.036142934254594"><ele>831.8</ele><time>2026-04-26T16:24:13.999Z</time></trkpt><trkpt lat="43.72141238221702" lon="7.03623936674208"><ele>832.1999999999999</ele><time>2026-04-26T16:24:14.999Z</time></trkpt><trkpt lat="43.72146837684997" lon="7.036332424676196"><ele>832.5999999999999</ele><time>2026-04-26T16:24:15.999Z</time></trkpt><trkpt lat="43.721514907457895" lon="7.036440448748333"><ele>833.0</ele><time>2026-04-26T16:24:16.999Z</time></trkpt><trkpt lat="43.7215506640879" lon="7.036551593095656"><ele>830.75</ele><time>2026-04-26T16:24:17.999Z</time></trkpt><trkpt lat="43.72156518102969" lon="7.036659711989678"><ele>828.5</ele><time>2026-04-26T16:24:18.999Z</time></trkpt><trkpt lat="43.72153519322328" lon="7.036798099756349"><ele>826.25</ele><time>2026-04-26T16:24:19.999Z</time></trkpt><trkpt lat="43.72146907177058" lon="7.0369927522348155"><ele>824.0</ele><time>2026-04-26T16:24:20.999Z</time></trkpt><trkpt lat="43.721399785158845" lon="7.037129211499114"><ele>824.0</ele><time>2026-04-26T16:24:21.999Z</time></trkpt><trkpt lat="43.721343400388065" lon="7.037264918092871"><ele>824.0</ele><time>2026-04-26T16:24:22.999Z</time></trkpt><trkpt lat="43.72130714017762" lon="7.037385109419374"><ele>824.0</ele><time>2026-04-26T16:24:23.999Z</time></trkpt><trkpt lat="43.721292223645634" lon="7.0375154812192955"><ele>824.0</ele><time>2026-04-26T16:24:24.999Z</time></trkpt><trkpt lat="43.72128265129591" lon="7.03766077278477"><ele>824.0</ele><time>2026-04-26T16:24:25.999Z</time></trkpt><trkpt lat="43.72127836280792" lon="7.037793370900462"><ele>824.0000000000001</ele><time>2026-04-26T16:24:26.999Z</time></trkpt><trkpt lat="43.721263514750405" lon="7.037899674777844"><ele>824.0</ele><time>2026-04-26T16:24:27.999Z</time></trkpt><trkpt lat="43.7212506208071" lon="7.037985766496359"><ele>824.0</ele><time>2026-04-26T16:24:28.999Z</time></trkpt><trkpt lat="43.721250936661974" lon="7.038122771076233"><ele>824.0</ele><time>2026-04-26T16:24:30.999Z</time></trkpt><trkpt lat="43.721270472003305" lon="7.038250983058596"><ele>824.0000000000001</ele><time>2026-04-26T16:24:32.999Z</time></trkpt><trkpt lat="43.721299164748054" lon="7.038390033060479"><ele>824.0</ele><time>2026-04-26T16:24:34.999Z</time></trkpt><trkpt lat="43.72131674961653" lon="7.038481721853489"><ele>823.8000000000001</ele><time>2026-04-26T16:24:35.999Z</time></trkpt><trkpt lat="43.721331067805274" lon="7.038607223446136"><ele>823.6</ele><time>2026-04-26T16:24:36.999Z</time></trkpt><trkpt lat="43.7213761245631" lon="7.038740222410333"><ele>823.4</ele><time>2026-04-26T16:24:37.999Z</time></trkpt><trkpt lat="43.72144054916544" lon="7.038880175777992"><ele>823.2</ele><time>2026-04-26T16:24:38.999Z</time></trkpt><trkpt lat="43.721506231020356" lon="7.0389978773889075"><ele>823.0</ele><time>2026-04-26T16:24:39.999Z</time></trkpt><trkpt lat="43.72155400028163" lon="7.039118823751542"><ele>824.1666666666666</ele><time>2026-04-26T16:24:40.999Z</time></trkpt><trkpt lat="43.72160151808292" lon="7.039199376191569"><ele>825.3333333333333</ele><time>2026-04-26T16:24:41.999Z</time></trkpt><trkpt lat="43.721653946446594" lon="7.039276111740808"><ele>826.5</ele><time>2026-04-26T16:24:42.999Z</time></trkpt><trkpt lat="43.72171696616618" lon="7.0393443281701895"><ele>827.6666666666667</ele><time>2026-04-26T16:24:43.999Z</time></trkpt><trkpt lat="43.72179171113126" lon="7.039411613002534"><ele>828.8333333333334</ele><time>2026-04-26T16:24:44.999Z</time></trkpt><trkpt lat="43.72188495301596" lon="7.039474414266947"><ele>830.0</ele><time>2026-04-26T16:24:45.999Z</time></trkpt><trkpt lat="43.72200328249065" lon="7.039549986619505"><ele>830.0</ele><time>2026-04-26T16:24:46.999Z</time></trkpt><trkpt lat="43.72210961036551" lon="7.039638865037945"><ele>830.0</ele><time>2026-04-26T16:24:47.999Z</time></trkpt><trkpt lat="43.722213034758695" lon="7.039689938965538"><ele>830.0</ele><time>2026-04-26T16:24:48.999Z</time></trkpt><trkpt lat="43.72231402382899" lon="7.039730688251555"><ele>830.0</ele><time>2026-04-26T16:24:49.999Z</time></trkpt><trkpt lat="43.72240380729014" lon="7.039757958054006"><ele>830.0</ele><time>2026-04-26T16:24:50.999Z</time></trkpt><trkpt lat="43.722473439820334" lon="7.039775020052072"><ele>830.0000000000001</ele><time>2026-04-26T16:24:51.999Z</time></trkpt><trkpt lat="43.72254841838319" lon="7.039807735949056"><ele>830.0</ele><time>2026-04-26T16:24:53.999Z</time></trkpt><trkpt lat="43.72261362030525" lon="7.039807435565896"><ele>830.0</ele><time>2026-04-26T16:25:37Z</time></trkpt><trkpt lat="43.722673464040376" lon="7.039835291940596"><ele>830.0</ele><time>2026-04-26T16:25:38Z</time></trkpt><trkpt lat="43.722749968063994" lon="7.039861222215606"><ele>830.0000000000001</ele><time>2026-04-26T16:25:39Z</time></trkpt><trkpt lat="43.72284170461184" lon="7.03988804707471"><ele>830.0</ele><time>2026-04-26T16:25:40Z</time></trkpt><trkpt lat="43.72293991995436" lon="7.039909669593199"><ele>830.75</ele><time>2026-04-26T16:25:41Z</time></trkpt><trkpt lat="43.7230398073348" lon="7.039944173743919"><ele>831.5</ele><time>2026-04-26T16:25:42Z</time></trkpt><trkpt lat="43.7231642127042" lon="7.039957779192145"><ele>832.25</ele><time>2026-04-26T16:25:43Z</time></trkpt><trkpt lat="43.723302479331096" lon="7.0399664435013"><ele>833.0</ele><time>2026-04-26T16:25:44Z</time></trkpt><trkpt lat="43.72341775407971" lon="7.039952919060795"><ele>833.0</ele><time>2026-04-26T16:25:45Z</time></trkpt><trkpt lat="43.7234934224765" lon="7.039907471397363"><ele>833.0</ele><time>2026-04-26T16:25:46Z</time></trkpt><trkpt lat="43.72357584439153" lon="7.0398420329884575"><ele>833.0</ele><time>2026-04-26T16:25:47Z</time></trkpt><trkpt lat="43.72367446091765" lon="7.039752068977741"><ele>833.0</ele><time>2026-04-26T16:25:48Z</time></trkpt><trkpt lat="43.723784012822506" lon="7.0396334776353955"><ele>833.0</ele><time>2026-04-26T16:25:49Z</time></trkpt><trkpt lat="43.723878811692614" lon="7.039546131354918"><ele>832.3333333333334</ele><time>2026-04-26T16:25:50Z</time></trkpt><trkpt lat="43.723961532179054" lon="7.0394851715492575"><ele>831.6666666666667</ele><time>2026-04-26T16:25:51Z</time></trkpt><trkpt lat="43.72403921811902" lon="7.039412108353992"><ele>831.0</ele><time>2026-04-26T16:25:52Z</time></trkpt><trkpt lat="43.7241168114287" lon="7.0393790297169145"><ele>830.3333333333333</ele><time>2026-04-26T16:25:53Z</time></trkpt><trkpt lat="43.724180415723104" lon="7.039387756576046"><ele>829.6666666666666</ele><time>2026-04-26T16:25:54Z</time></trkpt><trkpt lat="43.7242447066898" lon="7.03950627526405"><ele>829.0</ele><time>2026-04-26T16:25:56Z</time></trkpt><trkpt lat="43.72426981876056" lon="7.039590207274427"><ele>829.0</ele><time>2026-04-26T16:25:57Z</time></trkpt><trkpt lat="43.7243196014834" lon="7.039719372302721"><ele>829.0</ele><time>2026-04-26T16:25:58Z</time></trkpt><trkpt lat="43.72438251649533" lon="7.039847750727842"><ele>829.0</ele><time>2026-04-26T16:25:59Z</time></trkpt><trkpt lat="43.724476206420114" lon="7.039952929766097"><ele>829.0</ele><time>2026-04-26T16:25:59.999Z</time></trkpt><trkpt lat="43.72454919781708" lon="7.040043135174466"><ele>829.0</ele><time>2026-04-26T16:26:00.999Z</time></trkpt><trkpt lat="43.72462878844125" lon="7.040115462807925"><ele>828.6</ele><time>2026-04-26T16:26:01.999Z</time></trkpt><trkpt lat="43.72470840488285" lon="7.040206584449765"><ele>828.2</ele><time>2026-04-26T16:26:02.999Z</time></trkpt><trkpt lat="43.72478087318037" lon="7.04026008225922"><ele>827.8000000000001</ele><time>2026-04-26T16:26:03.999Z</time></trkpt><trkpt lat="43.724872034354725" lon="7.040279222373224"><ele>827.4000000000001</ele><time>2026-04-26T16:26:04.999Z</time></trkpt><trkpt lat="43.72496825781084" lon="7.040314188296898"><ele>827.0</ele><time>2026-04-26T16:26:05.999Z</time></trkpt><trkpt lat="43.725071167562085" lon="7.040341350566271"><ele>827.0</ele><time>2026-04-26T16:26:06.999Z</time></trkpt><trkpt lat="43.72520244124178" lon="7.040402928049404"><ele>827.0</ele><time>2026-04-26T16:26:07.999Z</time></trkpt><trkpt lat="43.72532516417336" lon="7.040491267409695"><ele>827.0</ele><time>2026-04-26T16:26:08.999Z</time></trkpt><trkpt lat="43.72543343180543" lon="7.040574798583705"><ele>827.0</ele><time>2026-04-26T16:26:09.999Z</time></trkpt><trkpt lat="43.72553008554286" lon="7.040636486849608"><ele>829.2</ele><time>2026-04-26T16:26:10.999Z</time></trkpt><trkpt lat="43.72562817730346" lon="7.040680538518391"><ele>831.4000000000001</ele><time>2026-04-26T16:26:11.999Z</time></trkpt><trkpt lat="43.725720850092536" lon="7.040706154391194"><ele>833.5999999999999</ele><time>2026-04-26T16:26:12.999Z</time></trkpt><trkpt lat="43.72581656245393" lon="7.040712230477862"><ele>835.8</ele><time>2026-04-26T16:26:13.999Z</time></trkpt><trkpt lat="43.72589887432292" lon="7.040718368510455"><ele>838.0</ele><time>2026-04-26T16:26:14.999Z</time></trkpt><trkpt lat="43.72596427612104" lon="7.0407903750412295"><ele>835.4</ele><time>2026-04-26T16:26:15.999Z</time></trkpt><trkpt lat="43.72603075281413" lon="7.040899850948436"><ele>832.8</ele><time>2026-04-26T16:26:16.999Z</time></trkpt><trkpt lat="43.726098566356875" lon="7.040973847772049"><ele>830.2</ele><time>2026-04-26T16:26:17.999Z</time></trkpt><trkpt lat="43.72618829248549" lon="7.040992095384667"><ele>827.6</ele><time>2026-04-26T16:26:18.999Z</time></trkpt><trkpt lat="43.72628640640175" lon="7.040992419988854"><ele>825.0</ele><time>2026-04-26T16:26:19.999Z</time></trkpt><trkpt lat="43.72639636384747" lon="7.0409817086403645"><ele>825.0</ele><time>2026-04-26T16:26:20.999Z</time></trkpt><trkpt lat="43.72649943098354" lon="7.041000438919661"><ele>825.0</ele><time>2026-04-26T16:26:21.999Z</time></trkpt><trkpt lat="43.726609624962" lon="7.0410741551730975"><ele>825.0</ele><time>2026-04-26T16:26:22.999Z</time></trkpt><trkpt lat="43.7267362070884" lon="7.041162652930346"><ele>825.0</ele><time>2026-04-26T16:26:23.999Z</time></trkpt><trkpt lat="43.72683830921464" lon="7.04124570676522"><ele>826.3333333333334</ele><time>2026-04-26T16:26:24.999Z</time></trkpt><trkpt lat="43.72693092927016" lon="7.041290489587394"><ele>827.6666666666667</ele><time>2026-04-26T16:26:25.999Z</time></trkpt><trkpt lat="43.72701221178537" lon="7.041338150592031"><ele>829.0</ele><time>2026-04-26T16:26:26.999Z</time></trkpt><trkpt lat="43.72708247387823" lon="7.041361127024781"><ele>830.3333333333334</ele><time>2026-04-26T16:26:27.999Z</time></trkpt><trkpt lat="43.72718934586847" lon="7.041360330739819"><ele>831.6666666666667</ele><time>2026-04-26T16:26:29.999Z</time></trkpt><trkpt lat="43.72725375757816" lon="7.041356839266875"><ele>833.0</ele><time>2026-04-26T16:26:31.999Z</time></trkpt><trkpt lat="43.72737630614581" lon="7.04137921328663"><ele>833.0</ele><time>2026-04-26T16:26:54.999Z</time></trkpt><trkpt lat="43.72745967380893" lon="7.0413757044598695"><ele>833.0</ele><time>2026-04-26T16:26:55.999Z</time></trkpt><trkpt lat="43.72755092330933" lon="7.041367244176141"><ele>833.0</ele><time>2026-04-26T16:26:56.999Z</time></trkpt><trkpt lat="43.727621940735965" lon="7.041356565326926"><ele>833.0</ele><time>2026-04-26T16:26:57.999Z</time></trkpt><trkpt lat="43.727729252509306" lon="7.041291129630778"><ele>833.0</ele><time>2026-04-26T16:26:59.999Z</time></trkpt><trkpt lat="43.72781409156758" lon="7.041270685377514"><ele>834.0000000000001</ele><time>2026-04-26T16:27:00.999Z</time></trkpt><trkpt lat="43.72789867125895" lon="7.041201057859304"><ele>835.0</ele><time>2026-04-26T16:27:01.999Z</time></trkpt><trkpt lat="43.7279811461296" lon="7.041162207118553"><ele>836.0</ele><time>2026-04-26T16:27:02.998Z</time></trkpt><trkpt lat="43.728045554876736" lon="7.041141707306226"><ele>837.0</ele><time>2026-04-26T16:27:04Z</time></trkpt><trkpt lat="43.72811787386549" lon="7.041163512412829"><ele>838.0000000000001</ele><time>2026-04-26T16:27:05Z</time></trkpt><trkpt lat="43.72819392918138" lon="7.041214088392695"><ele>839.0</ele><time>2026-04-26T16:27:06Z</time></trkpt><trkpt lat="43.72830099124984" lon="7.041233891282104"><ele>839.0000000000001</ele><time>2026-04-26T16:27:07Z</time></trkpt><trkpt lat="43.72838495541963" lon="7.041266024459282"><ele>839.0</ele><time>2026-04-26T16:27:08Z</time></trkpt><trkpt lat="43.728448956110064" lon="7.041289563350941"><ele>839.0</ele><time>2026-04-26T16:27:09Z</time></trkpt><trkpt lat="43.728523653993044" lon="7.041303921752189"><ele>839.0</ele><time>2026-04-26T16:27:10Z</time></trkpt><trkpt lat="43.72860822440999" lon="7.041312718116558"><ele>839.0000000000001</ele><time>2026-04-26T16:27:11Z</time></trkpt><trkpt lat="43.728694528157924" lon="7.041317791880208"><ele>839.0</ele><time>2026-04-26T16:27:12Z</time></trkpt><trkpt lat="43.72878569582975" lon="7.04132213791699"><ele>841.0</ele><time>2026-04-26T16:27:13Z</time></trkpt><trkpt lat="43.728900856819116" lon="7.041325897336315"><ele>843.0</ele><time>2026-04-26T16:27:14Z</time></trkpt><trkpt lat="43.72903237567435" lon="7.041335428494466"><ele>845.0</ele><time>2026-04-26T16:27:15Z</time></trkpt><trkpt lat="43.729154380720416" lon="7.041330279393007"><ele>847.0</ele><time>2026-04-26T16:27:16Z</time></trkpt><trkpt lat="43.729270412852685" lon="7.041335611045686"><ele>846.9999999999999</ele><time>2026-04-26T16:27:17Z</time></trkpt><trkpt lat="43.72937754520229" lon="7.041349956936573"><ele>847.0</ele><time>2026-04-26T16:27:18Z</time></trkpt><trkpt lat="43.72945669536962" lon="7.041372876731059"><ele>847.0</ele><time>2026-04-26T16:27:19Z</time></trkpt><trkpt lat="43.72951754756132" lon="7.041412177255139"><ele>847.0</ele><time>2026-04-26T16:27:20Z</time></trkpt><trkpt lat="43.729562030668966" lon="7.041562860299851"><ele>846.9999999999999</ele><time>2026-04-26T16:27:22Z</time></trkpt><trkpt lat="43.72956522136992" lon="7.0416539356794585"><ele>847.0</ele><time>2026-04-26T16:27:23Z</time></trkpt><trkpt lat="43.72953789830645" lon="7.04177130871465"><ele>847.8</ele><time>2026-04-26T16:27:24Z</time></trkpt><trkpt lat="43.729486868927395" lon="7.041895195620101"><ele>848.6</ele><time>2026-04-26T16:27:25Z</time></trkpt><trkpt lat="43.72945976060275" lon="7.042000470399947"><ele>849.4</ele><time>2026-04-26T16:27:26Z</time></trkpt><trkpt lat="43.72945857082917" lon="7.042116063278817"><ele>850.1999999999999</ele><time>2026-04-26T16:27:27Z</time></trkpt><trkpt lat="43.72945036229572" lon="7.0422427502743625"><ele>851.0</ele><time>2026-04-26T16:27:28Z</time></trkpt><trkpt lat="43.72945201644225" lon="7.0423800789153"><ele>852.25</ele><time>2026-04-26T16:27:29Z</time></trkpt><trkpt lat="43.729457243168994" lon="7.042573992005181"><ele>853.5</ele><time>2026-04-26T16:27:30Z</time></trkpt><trkpt lat="43.729455848319496" lon="7.042748583030426"><ele>854.75</ele><time>2026-04-26T16:27:31Z</time></trkpt><trkpt lat="43.729437198792986" lon="7.042904122283398"><ele>856.0</ele><time>2026-04-26T16:27:32Z</time></trkpt><trkpt lat="43.72942167309033" lon="7.043045585715582"><ele>856.0</ele><time>2026-04-26T16:27:33Z</time></trkpt><trkpt lat="43.729415749776216" lon="7.043194238360751"><ele>856.0</ele><time>2026-04-26T16:27:34Z</time></trkpt><trkpt lat="43.72941330604834" lon="7.043348615165231"><ele>856.0</ele><time>2026-04-26T16:27:35Z</time></trkpt><trkpt lat="43.72941687717533" lon="7.04351295836516"><ele>856.0</ele><time>2026-04-26T16:27:36Z</time></trkpt><trkpt lat="43.72942032363717" lon="7.0436768604744175"><ele>856.5</ele><time>2026-04-26T16:27:37Z</time></trkpt><trkpt lat="43.729426217963955" lon="7.043845541452982"><ele>857.0</ele><time>2026-04-26T16:27:38Z</time></trkpt><trkpt lat="43.729426370257414" lon="7.044028772221344"><ele>857.5</ele><time>2026-04-26T16:27:39Z</time></trkpt><trkpt lat="43.729424090705564" lon="7.044180264598705"><ele>858.0</ele><time>2026-04-26T16:27:40Z</time></trkpt><trkpt lat="43.72941703331577" lon="7.044305637050922"><ele>858.75</ele><time>2026-04-26T16:27:41Z</time></trkpt><trkpt lat="43.72941628307921" lon="7.0444445705640035"><ele>859.5</ele><time>2026-04-26T16:27:42Z</time></trkpt><trkpt lat="43.72940087390606" lon="7.044606659508797"><ele>860.25</ele><time>2026-04-26T16:27:43Z</time></trkpt><trkpt lat="43.72936754619134" lon="7.044769645927707"><ele>861.0</ele><time>2026-04-26T16:27:44Z</time></trkpt><trkpt lat="43.729327424860664" lon="7.044924576108333"><ele>860.1666666666666</ele><time>2026-04-26T16:27:45Z</time></trkpt><trkpt lat="43.72929126807832" lon="7.045063214596368"><ele>859.3333333333333</ele><time>2026-04-26T16:27:46Z</time></trkpt><trkpt lat="43.72927863614722" lon="7.045153979207893"><ele>858.5</ele><time>2026-04-26T16:27:47Z</time></trkpt><trkpt lat="43.72931138513376" lon="7.045262926847365"><ele>857.6666666666666</ele><time>2026-04-26T16:27:49Z</time></trkpt><trkpt lat="43.72936873654884" lon="7.045312686763683"><ele>856.8333333333333</ele><time>2026-04-26T16:27:50Z</time></trkpt><trkpt lat="43.72944119828191" lon="7.045369799356119"><ele>856.0</ele><time>2026-04-26T16:27:51Z</time></trkpt><trkpt lat="43.729535485017756" lon="7.045438167702365"><ele>856.0</ele><time>2026-04-26T16:27:52Z</time></trkpt><trkpt lat="43.729639662171344" lon="7.0455145104347725"><ele>856.0</ele><time>2026-04-26T16:27:53Z</time></trkpt><trkpt lat="43.72975623294806" lon="7.045609609728891"><ele>856.0</ele><time>2026-04-26T16:27:54Z</time></trkpt><trkpt lat="43.729871945469284" lon="7.045714840542559"><ele>856.0</ele><time>2026-04-26T16:27:55Z</time></trkpt><trkpt lat="43.72998151025032" lon="7.045816960391623"><ele>856.25</ele><time>2026-04-26T16:27:56Z</time></trkpt><trkpt lat="43.73009213682518" lon="7.045916812708087"><ele>856.5</ele><time>2026-04-26T16:27:57Z</time></trkpt><trkpt lat="43.73020040700874" lon="7.046023481505907"><ele>856.75</ele><time>2026-04-26T16:27:58Z</time></trkpt><trkpt lat="43.73029976152575" lon="7.046134865677902"><ele>857.0</ele><time>2026-04-26T16:27:59Z</time></trkpt><trkpt lat="43.7303964392442" lon="7.046244727353662"><ele>857.0</ele><time>2026-04-26T16:28:00Z</time></trkpt><trkpt lat="43.73048332823745" lon="7.046368256797012"><ele>857.0</ele><time>2026-04-26T16:28:01Z</time></trkpt><trkpt lat="43.730568024488946" lon="7.046484572158154"><ele>857.0</ele><time>2026-04-26T16:28:02Z</time></trkpt><trkpt lat="43.730644984785926" lon="7.046610209859551"><ele>857.0</ele><time>2026-04-26T16:28:03Z</time></trkpt><trkpt lat="43.73072196691522" lon="7.046726493941814"><ele>856.2</ele><time>2026-04-26T16:28:04Z</time></trkpt><trkpt lat="43.730801109044066" lon="7.046830680731872"><ele>855.4000000000001</ele><time>2026-04-26T16:28:05Z</time></trkpt><trkpt lat="43.73089122934531" lon="7.046940919602565"><ele>854.5999999999999</ele><time>2026-04-26T16:28:06Z</time></trkpt><trkpt lat="43.730968555929095" lon="7.0470433055125"><ele>853.8</ele><time>2026-04-26T16:28:07Z</time></trkpt><trkpt lat="43.7310391089619" lon="7.04712758706514"><ele>853.0</ele><time>2026-04-26T16:28:08Z</time></trkpt><trkpt lat="43.731099187173534" lon="7.047217131775536"><ele>852.9999999999999</ele><time>2026-04-26T16:28:09Z</time></trkpt><trkpt lat="43.73115241949712" lon="7.047278624528772"><ele>853.0</ele><time>2026-04-26T16:28:09.999Z</time></trkpt><trkpt lat="43.731202201834144" lon="7.047338074893499"><ele>853.0</ele><time>2026-04-26T16:28:10.999Z</time></trkpt><trkpt lat="43.73126341916633" lon="7.047388524242969"><ele>853.0</ele><time>2026-04-26T16:28:11.999Z</time></trkpt><trkpt lat="43.73134947675193" lon="7.047429218023595"><ele>852.9999999999999</ele><time>2026-04-26T16:28:12.999Z</time></trkpt><trkpt lat="43.73144267987295" lon="7.047463427825349"><ele>853.0</ele><time>2026-04-26T16:28:13.999Z</time></trkpt><trkpt lat="43.731526030828356" lon="7.0474879144472595"><ele>850.5999999999999</ele><time>2026-04-26T16:28:14.999Z</time></trkpt><trkpt lat="43.7316225267022" lon="7.047501363463207"><ele>848.1999999999999</ele><time>2026-04-26T16:28:15.999Z</time></trkpt><trkpt lat="43.73174046924495" lon="7.047507481785559"><ele>845.8</ele><time>2026-04-26T16:28:16.999Z</time></trkpt><trkpt lat="43.73184992670429" lon="7.047527975423977"><ele>843.4</ele><time>2026-04-26T16:28:17.999Z</time></trkpt><trkpt lat="43.73194117391872" lon="7.047554933708677"><ele>841.0</ele><time>2026-04-26T16:28:18.999Z</time></trkpt><trkpt lat="43.73202883536222" lon="7.047605951998476"><ele>841.0</ele><time>2026-04-26T16:28:19.999Z</time></trkpt><trkpt lat="43.73211751806063" lon="7.047671083519031"><ele>841.0</ele><time>2026-04-26T16:28:20.999Z</time></trkpt><trkpt lat="43.73219836384755" lon="7.047735360817659"><ele>841.0</ele><time>2026-04-26T16:28:21.999Z</time></trkpt><trkpt lat="43.73227728193068" lon="7.04776749524181"><ele>841.0</ele><time>2026-04-26T16:28:22.999Z</time></trkpt><trkpt lat="43.73237235832174" lon="7.047805592020501"><ele>841.0</ele><time>2026-04-26T16:28:23.999Z</time></trkpt><trkpt lat="43.732460608662066" lon="7.047860897667191"><ele>841.0</ele><time>2026-04-26T16:28:24.999Z</time></trkpt><trkpt lat="43.732514919359986" lon="7.047919735668788"><ele>841.0</ele><time>2026-04-26T16:28:25.999Z</time></trkpt><trkpt lat="43.73254288683677" lon="7.048092819021672"><ele>841.0</ele><time>2026-04-26T16:28:27.999Z</time></trkpt><trkpt lat="43.73255622778663" lon="7.0482096477823335"><ele>841.0</ele><time>2026-04-26T16:28:28.999Z</time></trkpt><trkpt lat="43.73260306679883" lon="7.048357392375777"><ele>841.0</ele><time>2026-04-26T16:28:29.999Z</time></trkpt><trkpt lat="43.73265878798303" lon="7.0485197436724185"><ele>842.1999999999999</ele><time>2026-04-26T16:28:30.999Z</time></trkpt><trkpt lat="43.73271326154241" lon="7.048679881451143"><ele>843.4</ele><time>2026-04-26T16:28:31.999Z</time></trkpt><trkpt lat="43.73276185842762" lon="7.048815606802782"><ele>844.6</ele><time>2026-04-26T16:28:32.999Z</time></trkpt><trkpt lat="43.73280302629545" lon="7.048944680181802"><ele>845.8</ele><time>2026-04-26T16:28:33.999Z</time></trkpt><trkpt lat="43.7328447293194" lon="7.04906196907784"><ele>847.0</ele><time>2026-04-26T16:28:34.999Z</time></trkpt><trkpt lat="43.732888892797305" lon="7.049172455500476"><ele>844.8333333333333</ele><time>2026-04-26T16:28:35.999Z</time></trkpt><trkpt lat="43.732931598119244" lon="7.049269740345254"><ele>842.6666666666666</ele><time>2026-04-26T16:28:36.999Z</time></trkpt><trkpt lat="43.73297465887607" lon="7.04936550831061"><ele>840.5</ele><time>2026-04-26T16:28:37.999Z</time></trkpt><trkpt lat="43.73302110584074" lon="7.0494406116611"><ele>838.3333333333333</ele><time>2026-04-26T16:28:38.999Z</time></trkpt><trkpt lat="43.73307345679773" lon="7.0495024412285145"><ele>836.1666666666666</ele><time>2026-04-26T16:28:39.999Z</time></trkpt><trkpt lat="43.73313580413073" lon="7.049541996626969"><ele>834.0</ele><time>2026-04-26T16:28:40.999Z</time></trkpt><trkpt lat="43.73321646530872" lon="7.049585391751955"><ele>834.0</ele><time>2026-04-26T16:28:41.999Z</time></trkpt><trkpt lat="43.733285610853805" lon="7.049648850311398"><ele>834.0</ele><time>2026-04-26T16:28:42.999Z</time></trkpt><trkpt lat="43.73336191767465" lon="7.049740398952165"><ele>834.0</ele><time>2026-04-26T16:28:44.999Z</time></trkpt><trkpt lat="43.73340955644906" lon="7.049828883254072"><ele>834.0</ele><time>2026-04-26T16:28:46.999Z</time></trkpt><trkpt lat="43.73348817229009" lon="7.049882465223013"><ele>834.0</ele><time>2026-04-26T16:28:48.999Z</time></trkpt><trkpt lat="43.733564599377075" lon="7.049898999316646"><ele>834.0</ele><time>2026-04-26T16:28:50.999Z</time></trkpt><trkpt lat="43.73363443057242" lon="7.049932607838394"><ele>834.0</ele><time>2026-04-26T16:28:52.999Z</time></trkpt><trkpt lat="43.733723339316796" lon="7.0499931374248135"><ele>834.0</ele><time>2026-04-26T16:28:54.999Z</time></trkpt><trkpt lat="43.73381380135715" lon="7.0500815293452215"><ele>834.0</ele><time>2026-04-26T16:28:56.999Z</time></trkpt><trkpt lat="43.733870675773474" lon="7.0501224875372435"><ele>834.0</ele><time>2026-04-26T16:28:57.999Z</time></trkpt><trkpt lat="43.733922286268715" lon="7.050173038596219"><ele>834.0</ele><time>2026-04-26T16:28:58.999Z</time></trkpt><trkpt lat="43.73396892434086" lon="7.050234152340317"><ele>834.0</ele><time>2026-04-26T16:28:59.999Z</time></trkpt><trkpt lat="43.73407470076369" lon="7.05031856535423"><ele>834.0</ele><time>2026-04-26T16:29:01.999Z</time></trkpt><trkpt lat="43.73414486178269" lon="7.050429698189312"><ele>834.0</ele><time>2026-04-26T16:29:03.999Z</time></trkpt><trkpt lat="43.73417269353128" lon="7.050570647533432"><ele>834.0</ele><time>2026-04-26T16:29:05.999Z</time></trkpt><trkpt lat="43.73417796495687" lon="7.050678810403813"><ele>834.0</ele><time>2026-04-26T16:29:06.999Z</time></trkpt><trkpt lat="43.73418921301831" lon="7.0508143583118015"><ele>834.0</ele><time>2026-04-26T16:29:07.999Z</time></trkpt><trkpt lat="43.73420591935362" lon="7.050942524995474"><ele>831.4000000000001</ele><time>2026-04-26T16:29:08.999Z</time></trkpt><trkpt lat="43.73422665394414" lon="7.051100683435749"><ele>828.8</ele><time>2026-04-26T16:29:10Z</time></trkpt><trkpt lat="43.73424489185433" lon="7.051244046709436"><ele>826.2</ele><time>2026-04-26T16:29:11Z</time></trkpt><trkpt lat="43.73426810284017" lon="7.051352230218409"><ele>823.5999999999999</ele><time>2026-04-26T16:29:12Z</time></trkpt><trkpt lat="43.734287653862246" lon="7.051475105920374"><ele>821.0</ele><time>2026-04-26T16:29:13Z</time></trkpt><trkpt lat="43.734310722654946" lon="7.051663415393276"><ele>819.5999999999999</ele><time>2026-04-26T16:29:14Z</time></trkpt><trkpt lat="43.734334772323145" lon="7.0518467125764515"><ele>818.2</ele><time>2026-04-26T16:29:15Z</time></trkpt><trkpt lat="43.73435157084649" lon="7.051992029560035"><ele>816.8</ele><time>2026-04-26T16:29:16Z</time></trkpt><trkpt lat="43.734368501591575" lon="7.052122231616993"><ele>815.4000000000001</ele><time>2026-04-26T16:29:17Z</time></trkpt><trkpt lat="43.7343820676255" lon="7.052247022315443"><ele>814.0</ele><time>2026-04-26T16:29:18Z</time></trkpt><trkpt lat="43.73439390814202" lon="7.052357919857322"><ele>817.2</ele><time>2026-04-26T16:29:19Z</time></trkpt><trkpt lat="43.73442464193085" lon="7.052464340163188"><ele>820.4000000000001</ele><time>2026-04-26T16:29:20Z</time></trkpt><trkpt lat="43.73447065832145" lon="7.052597222672051"><ele>823.6</ele><time>2026-04-26T16:29:21Z</time></trkpt><trkpt lat="43.73452086360755" lon="7.052737789534107"><ele>826.8</ele><time>2026-04-26T16:29:22Z</time></trkpt><trkpt lat="43.7345543412522" lon="7.0528926555143165"><ele>830.0</ele><time>2026-04-26T16:29:23Z</time></trkpt><trkpt lat="43.73457712793617" lon="7.0530414040526805"><ele>830.0</ele><time>2026-04-26T16:29:24Z</time></trkpt><trkpt lat="43.7346030220216" lon="7.053162227713061"><ele>830.0</ele><time>2026-04-26T16:29:25Z</time></trkpt><trkpt lat="43.73460800309839" lon="7.053298732317583"><ele>830.0</ele><time>2026-04-26T16:29:26Z</time></trkpt><trkpt lat="43.7346229227206" lon="7.053428933416029"><ele>830.0</ele><time>2026-04-26T16:29:27Z</time></trkpt><trkpt lat="43.73464147250267" lon="7.053540041643391"><ele>830.0</ele><time>2026-04-26T16:29:28Z</time></trkpt><trkpt lat="43.73466546987315" lon="7.053682282652694"><ele>829.2</ele><time>2026-04-26T16:29:29Z</time></trkpt><trkpt lat="43.73468063156082" lon="7.053826492814495"><ele>828.4</ele><time>2026-04-26T16:29:30Z</time></trkpt><trkpt lat="43.73469775627177" lon="7.0539508939292395"><ele>827.5999999999999</ele><time>2026-04-26T16:29:31Z</time></trkpt><trkpt lat="43.73472502670713" lon="7.0540565531691275"><ele>826.8</ele><time>2026-04-26T16:29:32Z</time></trkpt><trkpt lat="43.73474919193041" lon="7.0541568157443315"><ele>826.0</ele><time>2026-04-26T16:29:33Z</time></trkpt><trkpt lat="43.734787139012354" lon="7.054300542322393"><ele>825.4285714285714</ele><time>2026-04-26T16:29:35Z</time></trkpt><trkpt lat="43.73479953706058" lon="7.0543945969147375"><ele>824.8571428571429</ele><time>2026-04-26T16:29:38Z</time></trkpt><trkpt lat="43.734727971751155" lon="7.054443330710272"><ele>824.2857142857142</ele><time>2026-04-26T16:29:42Z</time></trkpt><trkpt lat="43.73465307556809" lon="7.054486203292381"><ele>823.7142857142858</ele><time>2026-04-26T16:29:50Z</time></trkpt><trkpt lat="43.73458092448157" lon="7.05450774229576"><ele>823.1428571428571</ele><time>2026-04-26T16:29:53Z</time></trkpt><trkpt lat="43.734516535598104" lon="7.054554860794827"><ele>822.5714285714286</ele><time>2026-04-26T16:42:21Z</time></trkpt><trkpt lat="43.73445415575583" lon="7.054604506372008"><ele>822.0</ele><time>2026-04-26T16:42:23Z</time></trkpt><trkpt lat="43.73436777750182" lon="7.05467108052335"><ele>819.3333333333334</ele><time>2026-04-26T16:42:25Z</time></trkpt><trkpt lat="43.734273474477256" lon="7.054791591219122"><ele>816.6666666666667</ele><time>2026-04-26T16:42:27Z</time></trkpt><trkpt lat="43.73422952687788" lon="7.054866308894675"><ele>814.0</ele><time>2026-04-26T16:42:28Z</time></trkpt><trkpt lat="43.73418850723784" lon="7.054952878435045"><ele>811.3333333333334</ele><time>2026-04-26T16:42:29Z</time></trkpt><trkpt lat="43.734153749848005" lon="7.055027777430524"><ele>808.6666666666667</ele><time>2026-04-26T16:42:30Z</time></trkpt><trkpt lat="43.73409516522708" lon="7.0551381890269"><ele>806.0</ele><time>2026-04-26T16:42:31Z</time></trkpt><trkpt lat="43.734044153362596" lon="7.0552470729919925"><ele>805.1999999999999</ele><time>2026-04-26T16:42:32Z</time></trkpt><trkpt lat="43.733997976932734" lon="7.055344120766376"><ele>804.4</ele><time>2026-04-26T16:42:33Z</time></trkpt><trkpt lat="43.73394155233512" lon="7.055409927370822"><ele>803.6</ele><time>2026-04-26T16:42:34Z</time></trkpt><trkpt lat="43.73386740791187" lon="7.055509397210299"><ele>802.8</ele><time>2026-04-26T16:42:36Z</time></trkpt><trkpt lat="43.73375435463094" lon="7.055495940722239"><ele>802.0</ele><time>2026-04-26T16:42:38Z</time></trkpt><trkpt lat="43.73367400124141" lon="7.05539650527575"><ele>802.0</ele><time>2026-04-26T16:42:40Z</time></trkpt><trkpt lat="43.73363146467519" lon="7.055231111768701"><ele>802.0</ele><time>2026-04-26T16:42:42Z</time></trkpt><trkpt lat="43.733618417118905" lon="7.055139324523323"><ele>802.0</ele><time>2026-04-26T16:42:43Z</time></trkpt><trkpt lat="43.73355001103749" lon="7.055008713325062"><ele>802.0</ele><time>2026-04-26T16:42:45Z</time></trkpt><trkpt lat="43.73347893513048" lon="7.054990242763476"><ele>802.0</ele><time>2026-04-26T16:42:46Z</time></trkpt><trkpt lat="43.733401845242334" lon="7.055080560222231"><ele>800.5714285714286</ele><time>2026-04-26T16:42:47Z</time></trkpt><trkpt lat="43.73333686641735" lon="7.055150934395882"><ele>799.1428571428571</ele><time>2026-04-26T16:42:48Z</time></trkpt><trkpt lat="43.73325943338955" lon="7.055154497386425"><ele>797.7142857142858</ele><time>2026-04-26T16:42:49Z</time></trkpt><trkpt lat="43.73319371806578" lon="7.055158564462791"><ele>796.2857142857142</ele><time>2026-04-26T16:42:49.999Z</time></trkpt><trkpt lat="43.73312313283439" lon="7.055152968149869"><ele>794.8571428571428</ele><time>2026-04-26T16:42:50.999Z</time></trkpt><trkpt lat="43.73305487048449" lon="7.05514864134281"><ele>793.4285714285714</ele><time>2026-04-26T16:42:51.999Z</time></trkpt><trkpt lat="43.732990755060015" lon="7.055166667622393"><ele>792.0</ele><time>2026-04-26T16:42:52.999Z</time></trkpt><trkpt lat="43.73286947203405" lon="7.0551843197976165"><ele>792.0</ele><time>2026-04-26T16:42:54.999Z</time></trkpt><trkpt lat="43.73274975432883" lon="7.055219451229658"><ele>792.0</ele><time>2026-04-26T16:42:56.999Z</time></trkpt><trkpt lat="43.73268685181273" lon="7.055233809229069"><ele>792.0</ele><time>2026-04-26T16:42:57.999Z</time></trkpt><trkpt lat="43.73262251621536" lon="7.0552526249278795"><ele>792.0</ele><time>2026-04-26T16:42:58.999Z</time></trkpt><trkpt lat="43.732561177414794" lon="7.05528966191228"><ele>792.0</ele><time>2026-04-26T16:42:59.999Z</time></trkpt><trkpt lat="43.732506447047925" lon="7.055346789220313"><ele>792.0</ele><time>2026-04-26T16:43:00.999Z</time></trkpt><trkpt lat="43.73244969409063" lon="7.055419083288472"><ele>790.3333333333334</ele><time>2026-04-26T16:43:01.999Z</time></trkpt><trkpt lat="43.73239062071523" lon="7.055509541484797"><ele>788.6666666666667</ele><time>2026-04-26T16:43:02.999Z</time></trkpt><trkpt lat="43.73233725266894" lon="7.055614100947529"><ele>787.0</ele><time>2026-04-26T16:43:03.999Z</time></trkpt><trkpt lat="43.73229255856698" lon="7.055710677564995"><ele>785.3333333333334</ele><time>2026-04-26T16:43:04.999Z</time></trkpt><trkpt lat="43.73225685852895" lon="7.055802024776847"><ele>783.6666666666667</ele><time>2026-04-26T16:43:05.999Z</time></trkpt><trkpt lat="43.73222231286277" lon="7.0558917790659"><ele>782.0</ele><time>2026-04-26T16:43:06.999Z</time></trkpt><trkpt lat="43.73218008298738" lon="7.055983624187668"><ele>782.0000000000001</ele><time>2026-04-26T16:43:07.999Z</time></trkpt><trkpt lat="43.732133488150616" lon="7.056072311553406"><ele>782.0</ele><time>2026-04-26T16:43:08.999Z</time></trkpt><trkpt lat="43.73208659197" lon="7.056156999659231"><ele>782.0</ele><time>2026-04-26T16:43:09.999Z</time></trkpt><trkpt lat="43.73203726350115" lon="7.056240262593618"><ele>782.0</ele><time>2026-04-26T16:43:10.999Z</time></trkpt><trkpt lat="43.73198537899916" lon="7.0563095982604285"><ele>782.0000000000001</ele><time>2026-04-26T16:43:11.999Z</time></trkpt><trkpt lat="43.73192373274442" lon="7.056366129254285"><ele>782.0</ele><time>2026-04-26T16:43:12.999Z</time></trkpt><trkpt lat="43.73185401671483" lon="7.056414304731401"><ele>779.1666666666667</ele><time>2026-04-26T16:43:13.999Z</time></trkpt><trkpt lat="43.73178450676705" lon="7.056455237693165"><ele>776.3333333333334</ele><time>2026-04-26T16:43:14.999Z</time></trkpt><trkpt lat="43.73170757338263" lon="7.056490697594038"><ele>773.5</ele><time>2026-04-26T16:43:15.999Z</time></trkpt><trkpt lat="43.73163033438823" lon="7.056523483980519"><ele>770.6666666666667</ele><time>2026-04-26T16:43:16.999Z</time></trkpt><trkpt lat="43.73156453670933" lon="7.056573638587039"><ele>767.8333333333334</ele><time>2026-04-26T16:43:17.999Z</time></trkpt><trkpt lat="43.73149793980982" lon="7.056629314070097"><ele>765.0</ele><time>2026-04-26T16:43:18.999Z</time></trkpt><trkpt lat="43.73143016656131" lon="7.056693411586848"><ele>765.0</ele><time>2026-04-26T16:43:19.999Z</time></trkpt><trkpt lat="43.73137094987429" lon="7.056754658171946"><ele>765.0</ele><time>2026-04-26T16:43:20.999Z</time></trkpt><trkpt lat="43.73131036483791" lon="7.056817823280208"><ele>765.0</ele><time>2026-04-26T16:43:21.999Z</time></trkpt><trkpt lat="43.73125024814436" lon="7.05688814606458"><ele>765.0</ele><time>2026-04-26T16:43:22.999Z</time></trkpt><trkpt lat="43.731198069240214" lon="7.05696496903569"><ele>765.0</ele><time>2026-04-26T16:43:23.999Z</time></trkpt><trkpt lat="43.73114827967212" lon="7.0570375849714075"><ele>765.0</ele><time>2026-04-26T16:43:24.999Z</time></trkpt><trkpt lat="43.731097939309024" lon="7.0571107098621635"><ele>762.5</ele><time>2026-04-26T16:43:25.999Z</time></trkpt><trkpt lat="43.73104409520407" lon="7.0571787734227085"><ele>760.0</ele><time>2026-04-26T16:43:26.999Z</time></trkpt><trkpt lat="43.73098876061225" lon="7.057245580344486"><ele>757.5</ele><time>2026-04-26T16:43:27.999Z</time></trkpt><trkpt lat="43.73092881438702" lon="7.057316101385283"><ele>755.0</ele><time>2026-04-26T16:43:28.999Z</time></trkpt><trkpt lat="43.730873301819656" lon="7.057385104680276"><ele>752.5</ele><time>2026-04-26T16:43:29.999Z</time></trkpt><trkpt lat="43.73081835890945" lon="7.057460136953195"><ele>750.0</ele><time>2026-04-26T16:43:30.999Z</time></trkpt><trkpt lat="43.73074525323673" lon="7.057505373778535"><ele>750.0</ele><time>2026-04-26T16:43:31.999Z</time></trkpt><trkpt lat="43.73067007288176" lon="7.0575913304580284"><ele>750.0</ele><time>2026-04-26T16:43:33.999Z</time></trkpt><trkpt lat="43.73063064775605" lon="7.057519241404629"><ele>750.0</ele><time>2026-04-26T16:43:34.999Z</time></trkpt><trkpt lat="43.73067464436014" lon="7.057386114783816"><ele>750.0</ele><time>2026-04-26T16:43:36.999Z</time></trkpt><trkpt lat="43.730725192269986" lon="7.057329881008442"><ele>750.0</ele><time>2026-04-26T16:43:37.999Z</time></trkpt><trkpt lat="43.73075189208546" lon="7.057248578726762"><ele>750.0</ele><time>2026-04-26T16:43:38.999Z</time></trkpt><trkpt lat="43.73079698687204" lon="7.05712242659796"><ele>747.1666666666666</ele><time>2026-04-26T16:43:40.999Z</time></trkpt><trkpt lat="43.73071700827274" lon="7.057046689410705"><ele>744.3333333333334</ele><time>2026-04-26T16:43:42.999Z</time></trkpt><trkpt lat="43.730662107962544" lon="7.0571032907544655"><ele>741.5</ele><time>2026-04-26T16:43:43.999Z</time></trkpt><trkpt lat="43.73062308363548" lon="7.057198929452799"><ele>738.6666666666667</ele><time>2026-04-26T16:43:44.999Z</time></trkpt><trkpt lat="43.73059419931682" lon="7.057287166008268"><ele>735.8333333333334</ele><time>2026-04-26T16:43:45.999Z</time></trkpt><trkpt lat="43.73054400561689" lon="7.057365485847264"><ele>733.0</ele><time>2026-04-26T16:43:46.999Z</time></trkpt><trkpt lat="43.730477551649635" lon="7.0574376918972455"><ele>733.0</ele><time>2026-04-26T16:43:47.999Z</time></trkpt><trkpt lat="43.73041334643276" lon="7.057500205012137"><ele>733.0</ele><time>2026-04-26T16:43:49Z</time></trkpt><trkpt lat="43.73035640987629" lon="7.057553502099174"><ele>733.0</ele><time>2026-04-26T16:43:50Z</time></trkpt><trkpt lat="43.73025013337057" lon="7.057496839412007"><ele>733.0</ele><time>2026-04-26T16:43:52Z</time></trkpt><trkpt lat="43.73023781241717" lon="7.057386320755634"><ele>733.0</ele><time>2026-04-26T16:43:53Z</time></trkpt><trkpt lat="43.73025802037391" lon="7.057279401796297"><ele>733.0</ele><time>2026-04-26T16:43:54Z</time></trkpt><trkpt lat="43.73030391675254" lon="7.057174437645438"><ele>733.0</ele><time>2026-04-26T16:43:55Z</time></trkpt><trkpt lat="43.73035416897035" lon="7.057082929116014"><ele>733.0</ele><time>2026-04-26T16:43:56Z</time></trkpt><trkpt lat="43.73038199583358" lon="7.056986169619017"><ele>733.0</ele><time>2026-04-26T16:43:57Z</time></trkpt><trkpt lat="43.73039926197414" lon="7.056898377004681"><ele>733.0</ele><time>2026-04-26T16:43:58Z</time></trkpt><trkpt lat="43.73040775579793" lon="7.0568048041569424"><ele>733.0</ele><time>2026-04-26T16:43:59Z</time></trkpt><trkpt lat="43.730423059536605" lon="7.05669621040639"><ele>733.0</ele><time>2026-04-26T16:44:00Z</time></trkpt><trkpt lat="43.73045880643112" lon="7.056595114358263"><ele>729.0</ele><time>2026-04-26T16:44:01Z</time></trkpt><trkpt lat="43.73051712599609" lon="7.056522535967563"><ele>725.0</ele><time>2026-04-26T16:44:02Z</time></trkpt><trkpt lat="43.730588126655356" lon="7.0564705308422075"><ele>721.0</ele><time>2026-04-26T16:44:03Z</time></trkpt><trkpt lat="43.730666125810835" lon="7.056436470960826"><ele>717.0</ele><time>2026-04-26T16:44:04Z</time></trkpt><trkpt lat="43.730733884688405" lon="7.056392723607901"><ele>713.0</ele><time>2026-04-26T16:44:05Z</time></trkpt><trkpt lat="43.73079946238866" lon="7.056325191775974"><ele>709.0</ele><time>2026-04-26T16:44:06Z</time></trkpt><trkpt lat="43.7308691777633" lon="7.056237878707883"><ele>709.0</ele><time>2026-04-26T16:44:07Z</time></trkpt><trkpt lat="43.73093619627713" lon="7.056136676567364"><ele>709.0</ele><time>2026-04-26T16:44:08Z</time></trkpt><trkpt lat="43.73100088263706" lon="7.056032771333722"><ele>709.0</ele><time>2026-04-26T16:44:09Z</time></trkpt><trkpt lat="43.73106547738345" lon="7.055927036193585"><ele>709.0</ele><time>2026-04-26T16:44:10Z</time></trkpt><trkpt lat="43.73113118671756" lon="7.055822806546386"><ele>709.0</ele><time>2026-04-26T16:44:11Z</time></trkpt><trkpt lat="43.73120307612875" lon="7.055740066285128"><ele>712.1666666666667</ele><time>2026-04-26T16:44:12Z</time></trkpt><trkpt lat="43.73126077267067" lon="7.055643329079745"><ele>715.3333333333334</ele><time>2026-04-26T16:44:13Z</time></trkpt><trkpt lat="43.731300718770925" lon="7.055551427321407"><ele>718.5</ele><time>2026-04-26T16:44:14Z</time></trkpt><trkpt lat="43.7313190098969" lon="7.055445640933737"><ele>721.6666666666666</ele><time>2026-04-26T16:44:15Z</time></trkpt><trkpt lat="43.731331860354395" lon="7.055333810169358"><ele>724.8333333333333</ele><time>2026-04-26T16:44:16Z</time></trkpt><trkpt lat="43.7313541707617" lon="7.055222973714406"><ele>728.0</ele><time>2026-04-26T16:44:17Z</time></trkpt><trkpt lat="43.73138673458027" lon="7.055121695715762"><ele>728.0</ele><time>2026-04-26T16:44:18Z</time></trkpt><trkpt lat="43.73141935946049" lon="7.055026827634113"><ele>728.0</ele><time>2026-04-26T16:44:19Z</time></trkpt><trkpt lat="43.73145554898323" lon="7.054931401090161"><ele>728.0</ele><time>2026-04-26T16:44:20Z</time></trkpt><trkpt lat="43.73149110689639" lon="7.054858776696743"><ele>728.0</ele><time>2026-04-26T16:44:21Z</time></trkpt><trkpt lat="43.73146320392425" lon="7.054738905299886"><ele>728.0</ele><time>2026-04-26T16:44:23Z</time></trkpt><trkpt lat="43.731364488930375" lon="7.054760134367435"><ele>728.0</ele><time>2026-04-26T16:44:24Z</time></trkpt><trkpt lat="43.73130817166947" lon="7.054906940674278"><ele>728.0</ele><time>2026-04-26T16:44:25Z</time></trkpt><trkpt lat="43.731255453847965" lon="7.054978595707757"><ele>728.0</ele><time>2026-04-26T16:44:26Z</time></trkpt><trkpt lat="43.73120164069574" lon="7.055036140684515"><ele>728.0</ele><time>2026-04-26T16:44:27Z</time></trkpt><trkpt lat="43.731143210897436" lon="7.05508928120812"><ele>728.0</ele><time>2026-04-26T16:44:28Z</time></trkpt><trkpt lat="43.73103930418595" lon="7.055193216799375"><ele>728.0</ele><time>2026-04-26T16:44:30Z</time></trkpt><trkpt lat="43.730992849830315" lon="7.055263130296131"><ele>728.0</ele><time>2026-04-26T16:44:31Z</time></trkpt><trkpt lat="43.73091361364387" lon="7.055301554921215"><ele>724.2</ele><time>2026-04-26T16:44:33Z</time></trkpt><trkpt lat="43.73089719586827" lon="7.055131725627543"><ele>720.4</ele><time>2026-04-26T16:44:35Z</time></trkpt><trkpt lat="43.73095527745555" lon="7.055011326215694"><ele>716.6</ele><time>2026-04-26T16:44:36Z</time></trkpt><trkpt lat="43.73100218106833" lon="7.054899682701717"><ele>712.8000000000001</ele><time>2026-04-26T16:44:37Z</time></trkpt><trkpt lat="43.73103748830971" lon="7.05479406131097"><ele>709.0</ele><time>2026-04-26T16:44:38Z</time></trkpt><trkpt lat="43.73107383094061" lon="7.054693513432087"><ele>709.0</ele><time>2026-04-26T16:44:39Z</time></trkpt><trkpt lat="43.73110688190901" lon="7.054589311491569"><ele>709.0</ele><time>2026-04-26T16:44:40Z</time></trkpt><trkpt lat="43.731155094425006" lon="7.054495648926067"><ele>709.0</ele><time>2026-04-26T16:44:41Z</time></trkpt><trkpt lat="43.7311835051029" lon="7.054401051349547"><ele>709.0</ele><time>2026-04-26T16:44:42Z</time></trkpt><trkpt lat="43.73120717005028" lon="7.054315717580263"><ele>709.0</ele><time>2026-04-26T16:44:43Z</time></trkpt><trkpt lat="43.73118077272914" lon="7.054178270466361"><ele>709.0</ele><time>2026-04-26T16:44:45Z</time></trkpt><trkpt lat="43.73110263425337" lon="7.054190555867996"><ele>702.4000000000001</ele><time>2026-04-26T16:44:46Z</time></trkpt><trkpt lat="43.73101567661865" lon="7.054282470620586"><ele>695.8</ele><time>2026-04-26T16:44:47Z</time></trkpt><trkpt lat="43.73095453068121" lon="7.054412701913146"><ele>689.2</ele><time>2026-04-26T16:44:48Z</time></trkpt><trkpt lat="43.73087909665826" lon="7.054483241697042"><ele>682.5999999999999</ele><time>2026-04-26T16:44:49Z</time></trkpt><trkpt lat="43.73077639846721" lon="7.054539499659155"><ele>676.0</ele><time>2026-04-26T16:44:50Z</time></trkpt><trkpt lat="43.73067035180307" lon="7.054593070620645"><ele>676.0</ele><time>2026-04-26T16:44:51Z</time></trkpt><trkpt lat="43.73057826217267" lon="7.054654377458516"><ele>676.0</ele><time>2026-04-26T16:44:51.999Z</time></trkpt><trkpt lat="43.730485253982195" lon="7.054704206958841"><ele>676.0</ele><time>2026-04-26T16:44:52.999Z</time></trkpt><trkpt lat="43.73038749747346" lon="7.054762869859684"><ele>676.0</ele><time>2026-04-26T16:44:53.999Z</time></trkpt><trkpt lat="43.730296377248" lon="7.054840835514588"><ele>676.0</ele><time>2026-04-26T16:44:54.999Z</time></trkpt><trkpt lat="43.730210658054844" lon="7.054918406125276"><ele>674.3333333333334</ele><time>2026-04-26T16:44:55.999Z</time></trkpt><trkpt lat="43.7301483620304" lon="7.0549897521373595"><ele>672.6666666666667</ele><time>2026-04-26T16:44:56.999Z</time></trkpt><trkpt lat="43.730059898067566" lon="7.0550387228118145"><ele>671.0</ele><time>2026-04-26T16:44:58.999Z</time></trkpt><trkpt lat="43.73004971382528" lon="7.054897143403989"><ele>669.3333333333334</ele><time>2026-04-26T16:45:00.999Z</time></trkpt><trkpt lat="43.73010487848142" lon="7.054821157740401"><ele>667.6666666666666</ele><time>2026-04-26T16:45:01.999Z</time></trkpt><trkpt lat="43.73014169309485" lon="7.054715714969982"><ele>666.0</ele><time>2026-04-26T16:45:03.999Z</time></trkpt><trkpt lat="43.730019740173134" lon="7.0546552078292075"><ele>664.1999999999999</ele><time>2026-04-26T16:45:05.999Z</time></trkpt><trkpt lat="43.72992772429151" lon="7.054711751040474"><ele>662.4</ele><time>2026-04-26T16:45:06.999Z</time></trkpt><trkpt lat="43.72985160307181" lon="7.054774834158833"><ele>660.6</ele><time>2026-04-26T16:45:07.999Z</time></trkpt><trkpt lat="43.729773226708204" lon="7.0548240959001"><ele>658.8</ele><time>2026-04-26T16:45:08.999Z</time></trkpt><trkpt lat="43.729684416175616" lon="7.054870579518937"><ele>657.0</ele><time>2026-04-26T16:45:09.999Z</time></trkpt><trkpt lat="43.72958688781632" lon="7.054902417693853"><ele>657.0</ele><time>2026-04-26T16:45:10.999Z</time></trkpt><trkpt lat="43.72948320044826" lon="7.054946159567624"><ele>657.0</ele><time>2026-04-26T16:45:11.999Z</time></trkpt><trkpt lat="43.729375603223126" lon="7.0549866938326"><ele>657.0</ele><time>2026-04-26T16:45:12.999Z</time></trkpt><trkpt lat="43.72927362228841" lon="7.055010835956891"><ele>657.0</ele><time>2026-04-26T16:45:13.999Z</time></trkpt><trkpt lat="43.72917745863483" lon="7.055016038512432"><ele>657.0</ele><time>2026-04-26T16:45:14.999Z</time></trkpt><trkpt lat="43.72907033654016" lon="7.055026831345286"><ele>655.0</ele><time>2026-04-26T16:45:15.999Z</time></trkpt><trkpt lat="43.72896471586654" lon="7.055046742660662"><ele>653.0</ele><time>2026-04-26T16:45:16.999Z</time></trkpt><trkpt lat="43.72886737995199" lon="7.055066315462966"><ele>651.0</ele><time>2026-04-26T16:45:17.999Z</time></trkpt><trkpt lat="43.72877765378651" lon="7.055092773206859"><ele>649.0</ele><time>2026-04-26T16:45:18.999Z</time></trkpt><trkpt lat="43.728692916957556" lon="7.055136648191258"><ele>647.0</ele><time>2026-04-26T16:45:19.999Z</time></trkpt><trkpt lat="43.72860865344428" lon="7.0552092251568315"><ele>644.2</ele><time>2026-04-26T16:45:20.999Z</time></trkpt><trkpt lat="43.728532954648394" lon="7.055302694832042"><ele>641.4000000000001</ele><time>2026-04-26T16:45:21.999Z</time></trkpt><trkpt lat="43.72846354792793" lon="7.055384941377093"><ele>638.5999999999999</ele><time>2026-04-26T16:45:22.999Z</time></trkpt><trkpt lat="43.72839455449219" lon="7.055461882213395"><ele>635.8</ele><time>2026-04-26T16:45:23.999Z</time></trkpt><trkpt lat="43.728318426506654" lon="7.055538177187521"><ele>633.0</ele><time>2026-04-26T16:45:24.999Z</time></trkpt><trkpt lat="43.72825278958287" lon="7.0556193021001485"><ele>633.0</ele><time>2026-04-26T16:45:25.999Z</time></trkpt><trkpt lat="43.72820688626312" lon="7.055710477987276"><ele>633.0</ele><time>2026-04-26T16:45:26.999Z</time></trkpt><trkpt lat="43.728141287180364" lon="7.055773074492758"><ele>633.0</ele><time>2026-04-26T16:45:28.999Z</time></trkpt><trkpt lat="43.728117381663125" lon="7.055643433337226"><ele>633.0</ele><time>2026-04-26T16:45:30.999Z</time></trkpt><trkpt lat="43.72813362085341" lon="7.055557972854053"><ele>633.0</ele><time>2026-04-26T16:45:31.999Z</time></trkpt><trkpt lat="43.72814727043206" lon="7.055446325290457"><ele>633.0</ele><time>2026-04-26T16:45:32.999Z</time></trkpt><trkpt lat="43.72817155229003" lon="7.055328815632663"><ele>633.0</ele><time>2026-04-26T16:45:33.999Z</time></trkpt><trkpt lat="43.72817841195713" lon="7.05521357233936"><ele>633.0</ele><time>2026-04-26T16:45:34.999Z</time></trkpt><trkpt lat="43.72819231661779" lon="7.055127546395314"><ele>633.0</ele><time>2026-04-26T16:45:35.999Z</time></trkpt><trkpt lat="43.72811843610411" lon="7.055029389135221"><ele>633.0</ele><time>2026-04-26T16:45:37.999Z</time></trkpt><trkpt lat="43.72803564649194" lon="7.055053065936641"><ele>633.0</ele><time>2026-04-26T16:45:38.999Z</time></trkpt><trkpt lat="43.72794994115113" lon="7.055106113453973"><ele>633.0</ele><time>2026-04-26T16:45:39.999Z</time></trkpt><trkpt lat="43.727870839569626" lon="7.0551435073200155"><ele>633.0</ele><time>2026-04-26T16:45:40.999Z</time></trkpt><trkpt lat="43.72779203105091" lon="7.055165031551401"><ele>633.0</ele><time>2026-04-26T16:45:41.999Z</time></trkpt><trkpt lat="43.72771699845894" lon="7.055192388775298"><ele>633.0</ele><time>2026-04-26T16:45:42.999Z</time></trkpt><trkpt lat="43.72764087455418" lon="7.055218020961976"><ele>633.0</ele><time>2026-04-26T16:45:43.999Z</time></trkpt><trkpt lat="43.72754337002996" lon="7.055245238871917"><ele>633.0</ele><time>2026-04-26T16:45:44.999Z</time></trkpt><trkpt lat="43.72743325204929" lon="7.0553074934298685"><ele>630.6</ele><time>2026-04-26T16:45:46.999Z</time></trkpt><trkpt lat="43.727330481743245" lon="7.055261451836666"><ele>628.1999999999999</ele><time>2026-04-26T16:45:48.999Z</time></trkpt><trkpt lat="43.72730978689881" lon="7.055164911520411"><ele>625.8</ele><time>2026-04-26T16:45:49.999Z</time></trkpt><trkpt lat="43.72720349960495" lon="7.055155232866829"><ele>623.4</ele><time>2026-04-26T16:45:51.999Z</time></trkpt><trkpt lat="43.727147270002256" lon="7.055211425164804"><ele>621.0</ele><time>2026-04-26T16:45:52.999Z</time></trkpt><trkpt lat="43.72703006614727" lon="7.0552860484439055"><ele>621.0</ele><time>2026-04-26T16:45:55Z</time></trkpt><trkpt lat="43.72696467351652" lon="7.055340990677251"><ele>621.0</ele><time>2026-04-26T16:45:56Z</time></trkpt><trkpt lat="43.726842509013835" lon="7.055418659295676"><ele>621.0</ele><time>2026-04-26T16:45:58Z</time></trkpt><trkpt lat="43.726772333425544" lon="7.055447134696349"><ele>621.0</ele><time>2026-04-26T16:45:59Z</time></trkpt><trkpt lat="43.72670272616985" lon="7.0554583232432355"><ele>621.0</ele><time>2026-04-26T16:46:00Z</time></trkpt><trkpt lat="43.726636543454575" lon="7.055464890079526"><ele>621.0</ele><time>2026-04-26T16:46:01Z</time></trkpt><trkpt lat="43.72657195669381" lon="7.055480765137236"><ele>621.1428571428571</ele><time>2026-04-26T16:46:02Z</time></trkpt><trkpt lat="43.72649537785857" lon="7.055520146328584"><ele>621.2857142857142</ele><time>2026-04-26T16:46:03Z</time></trkpt><trkpt lat="43.72642812218739" lon="7.055568071466985"><ele>621.4285714285713</ele><time>2026-04-26T16:46:04Z</time></trkpt><trkpt lat="43.72636332201093" lon="7.055625978843596"><ele>621.5714285714286</ele><time>2026-04-26T16:46:05Z</time></trkpt><trkpt lat="43.726305951899164" lon="7.055667892469298"><ele>621.7142857142858</ele><time>2026-04-26T16:46:06Z</time></trkpt><trkpt lat="43.72624279734848" lon="7.055717466554957"><ele>621.8571428571428</ele><time>2026-04-26T16:46:07Z</time></trkpt><trkpt lat="43.72617882508313" lon="7.055763300779282"><ele>622.0</ele><time>2026-04-26T16:46:08Z</time></trkpt><trkpt lat="43.7260604678949" lon="7.05584838214831"><ele>620.1428571428571</ele><time>2026-04-26T16:46:10Z</time></trkpt><trkpt lat="43.72599806866466" lon="7.055896186963984"><ele>618.2857142857143</ele><time>2026-04-26T16:46:11Z</time></trkpt><trkpt lat="43.72593363449303" lon="7.055934619737304"><ele>616.4285714285714</ele><time>2026-04-26T16:46:12Z</time></trkpt><trkpt lat="43.72586488086152" lon="7.055964536707872"><ele>614.5714285714286</ele><time>2026-04-26T16:46:13Z</time></trkpt><trkpt lat="43.725797881823304" lon="7.055999150196245"><ele>612.7142857142858</ele><time>2026-04-26T16:46:14Z</time></trkpt><trkpt lat="43.725733857026896" lon="7.0560405931184205"><ele>610.8571428571429</ele><time>2026-04-26T16:46:15Z</time></trkpt><trkpt lat="43.725673928697006" lon="7.056099542677681"><ele>609.0</ele><time>2026-04-26T16:46:16Z</time></trkpt><trkpt lat="43.72562009570491" lon="7.056171421367134"><ele>609.0</ele><time>2026-04-26T16:46:17Z</time></trkpt><trkpt lat="43.72555090148423" lon="7.056294176001175"><ele>609.0</ele><time>2026-04-26T16:46:19Z</time></trkpt><trkpt lat="43.725486207627455" lon="7.05636390761935"><ele>609.0</ele><time>2026-04-26T16:46:21Z</time></trkpt><trkpt lat="43.725432717226234" lon="7.056283527950414"><ele>609.0</ele><time>2026-04-26T16:46:23Z</time></trkpt><trkpt lat="43.72536105545671" lon="7.056216892412149"><ele>609.0</ele><time>2026-04-26T16:46:25Z</time></trkpt><trkpt lat="43.725239596785826" lon="7.056284194413186"><ele>610.4</ele><time>2026-04-26T16:46:27Z</time></trkpt><trkpt lat="43.72516001433587" lon="7.0563356331927825"><ele>611.8</ele><time>2026-04-26T16:46:28Z</time></trkpt><trkpt lat="43.72508031904563" lon="7.056412372079615"><ele>613.2</ele><time>2026-04-26T16:46:29Z</time></trkpt><trkpt lat="43.724997518505205" lon="7.056480224633127"><ele>614.6</ele><time>2026-04-26T16:46:30Z</time></trkpt><trkpt lat="43.724915082191416" lon="7.0565486316235155"><ele>616.0</ele><time>2026-04-26T16:46:31Z</time></trkpt><trkpt lat="43.72483531066473" lon="7.056623699539997"><ele>612.1666666666667</ele><time>2026-04-26T16:46:32Z</time></trkpt><trkpt lat="43.7247630287514" lon="7.056695673084246"><ele>608.3333333333334</ele><time>2026-04-26T16:46:33Z</time></trkpt><trkpt lat="43.724696689978494" lon="7.05675268125215"><ele>604.5</ele><time>2026-04-26T16:46:34Z</time></trkpt><trkpt lat="43.72463122224485" lon="7.056806266292635"><ele>600.6666666666666</ele><time>2026-04-26T16:46:35Z</time></trkpt><trkpt lat="43.72456758421555" lon="7.0568636570935315"><ele>596.8333333333333</ele><time>2026-04-26T16:46:36Z</time></trkpt><trkpt lat="43.724508415761285" lon="7.056938681157014"><ele>593.0</ele><time>2026-04-26T16:46:37Z</time></trkpt><trkpt lat="43.724472237775366" lon="7.057041658981449"><ele>592.9999999999999</ele><time>2026-04-26T16:46:38Z</time></trkpt><trkpt lat="43.724413760075066" lon="7.057097227180114"><ele>593.0</ele><time>2026-04-26T16:46:39Z</time></trkpt><trkpt lat="43.72436266680398" lon="7.057172246471611"><ele>593.0</ele><time>2026-04-26T16:46:40Z</time></trkpt><trkpt lat="43.724306447993236" lon="7.0572525089814135"><ele>593.0</ele><time>2026-04-26T16:46:41Z</time></trkpt><trkpt lat="43.72425807010238" lon="7.057332704860811"><ele>593.0</ele><time>2026-04-26T16:46:42Z</time></trkpt><trkpt lat="43.7241955123385" lon="7.0573823569350855"><ele>592.9999999999999</ele><time>2026-04-26T16:46:43Z</time></trkpt><trkpt lat="43.724130873635794" lon="7.057423516580664"><ele>593.0</ele><time>2026-04-26T16:46:44Z</time></trkpt><trkpt lat="43.72402937197791" lon="7.057499650877927"><ele>588.1999999999999</ele><time>2026-04-26T16:46:46Z</time></trkpt><trkpt lat="43.72403796618951" lon="7.057618193809371"><ele>583.4</ele><time>2026-04-26T16:46:48Z</time></trkpt><trkpt lat="43.72414523677515" lon="7.057599092154734"><ele>578.5999999999999</ele><time>2026-04-26T16:46:49Z</time></trkpt><trkpt lat="43.72424511281544" lon="7.057548397526037"><ele>573.8</ele><time>2026-04-26T16:46:51Z</time></trkpt><trkpt lat="43.7243398137847" lon="7.057547824993616"><ele>569.0</ele><time>2026-04-26T16:46:53Z</time></trkpt><trkpt lat="43.72433146830509" lon="7.057655673827849"><ele>569.0</ele><time>2026-04-26T16:46:57Z</time></trkpt><trkpt lat="43.72420840832703" lon="7.057748683295482"><ele>569.0</ele><time>2026-04-26T16:46:59Z</time></trkpt><trkpt lat="43.72414686205373" lon="7.057814583293714"><ele>569.0</ele><time>2026-04-26T16:46:59.999Z</time></trkpt><trkpt lat="43.72408385212611" lon="7.057880756550248"><ele>569.0</ele><time>2026-04-26T16:47:00.999Z</time></trkpt><trkpt lat="43.72402102895734" lon="7.057928033102117"><ele>569.0</ele><time>2026-04-26T16:47:01.999Z</time></trkpt><trkpt lat="43.723923639263404" lon="7.057991198495339"><ele>569.0</ele><time>2026-04-26T16:47:02.999Z</time></trkpt><trkpt lat="43.72383721716596" lon="7.05805024761756"><ele>569.0</ele><time>2026-04-26T16:47:03.999Z</time></trkpt><trkpt lat="43.723750904352514" lon="7.058110537834114"><ele>569.0</ele><time>2026-04-26T16:47:04.999Z</time></trkpt><trkpt lat="43.72365411095196" lon="7.058159110539757"><ele>569.0</ele><time>2026-04-26T16:47:05.999Z</time></trkpt><trkpt lat="43.72355351331759" lon="7.058186654853947"><ele>569.0</ele><time>2026-04-26T16:47:06.999Z</time></trkpt><trkpt lat="43.723457484573174" lon="7.05819109066866"><ele>568.2</ele><time>2026-04-26T16:47:07.999Z</time></trkpt><trkpt lat="43.72336140243084" lon="7.058185842309656"><ele>567.4</ele><time>2026-04-26T16:47:08.999Z</time></trkpt><trkpt lat="43.72326781770907" lon="7.058172075217003"><ele>566.6</ele><time>2026-04-26T16:47:09.999Z</time></trkpt><trkpt lat="43.723181043072195" lon="7.058150314406409"><ele>565.8</ele><time>2026-04-26T16:47:10.999Z</time></trkpt><trkpt lat="43.72309303657421" lon="7.05814405851147"><ele>565.0</ele><time>2026-04-26T16:47:11.999Z</time></trkpt><trkpt lat="43.7230088992414" lon="7.0581526240227275"><ele>565.0</ele><time>2026-04-26T16:47:12.999Z</time></trkpt><trkpt lat="43.722944181781834" lon="7.05808988659962"><ele>565.0</ele><time>2026-04-26T16:47:13.999Z</time></trkpt><trkpt lat="43.72287848585946" lon="7.058078048389209"><ele>565.0</ele><time>2026-04-26T16:47:14.999Z</time></trkpt><trkpt lat="43.72275122171589" lon="7.058056506189985"><ele>565.0</ele><time>2026-04-26T16:47:16.999Z</time></trkpt><trkpt lat="43.722682111608634" lon="7.058028706971111"><ele>565.0</ele><time>2026-04-26T16:47:17.999Z</time></trkpt><trkpt lat="43.722618873596815" lon="7.057981830947151"><ele>565.0</ele><time>2026-04-26T16:47:18.999Z</time></trkpt><trkpt lat="43.72255632687837" lon="7.057930806216637"><ele>560.0</ele><time>2026-04-26T16:47:19.999Z</time></trkpt><trkpt lat="43.72248159404593" lon="7.057890537595038"><ele>555.0</ele><time>2026-04-26T16:47:20.999Z</time></trkpt><trkpt lat="43.72239984825603" lon="7.057852943066754"><ele>550.0</ele><time>2026-04-26T16:47:21.999Z</time></trkpt><trkpt lat="43.722312057703526" lon="7.05781814155505"><ele>545.0</ele><time>2026-04-26T16:47:22.999Z</time></trkpt><trkpt lat="43.72222721044857" lon="7.057767593743439"><ele>540.0</ele><time>2026-04-26T16:47:23.999Z</time></trkpt><trkpt lat="43.72212909561317" lon="7.057743508664891"><ele>540.0</ele><time>2026-04-26T16:47:24.999Z</time></trkpt><trkpt lat="43.72202974606629" lon="7.057733378746245"><ele>540.0</ele><time>2026-04-26T16:47:25.999Z</time></trkpt><trkpt lat="43.7219382056186" lon="7.0577201789332875"><ele>540.0</ele><time>2026-04-26T16:47:26.999Z</time></trkpt><trkpt lat="43.721853267078586" lon="7.05769140996274"><ele>540.0</ele><time>2026-04-26T16:47:27.999Z</time></trkpt><trkpt lat="43.721759686762255" lon="7.057660762844231"><ele>540.0</ele><time>2026-04-26T16:47:28.999Z</time></trkpt><trkpt lat="43.721665875253514" lon="7.057634307154794"><ele>533.6</ele><time>2026-04-26T16:47:29.999Z</time></trkpt><trkpt lat="43.72156808406803" lon="7.05760502180079"><ele>527.2</ele><time>2026-04-26T16:47:30.999Z</time></trkpt><trkpt lat="43.721481106999526" lon="7.057572029026451"><ele>520.8</ele><time>2026-04-26T16:47:31.999Z</time></trkpt><trkpt lat="43.72137055387242" lon="7.057583193898768"><ele>514.4</ele><time>2026-04-26T16:47:32.999Z</time></trkpt><trkpt lat="43.72126757527323" lon="7.057601590595052"><ele>508.0</ele><time>2026-04-26T16:47:33.999Z</time></trkpt><trkpt lat="43.72116107218128" lon="7.057620463880954"><ele>501.75</ele><time>2026-04-26T16:47:34.999Z</time></trkpt><trkpt lat="43.72104787498721" lon="7.057654653381898"><ele>495.5</ele><time>2026-04-26T16:47:35.999Z</time></trkpt><trkpt lat="43.72093679492922" lon="7.057705699655633"><ele>489.25</ele><time>2026-04-26T16:47:36.999Z</time></trkpt><trkpt lat="43.72083029747632" lon="7.057750971457421"><ele>483.0</ele><time>2026-04-26T16:47:37.999Z</time></trkpt><trkpt lat="43.720718338062596" lon="7.057749570968153"><ele>483.0</ele><time>2026-04-26T16:47:38.999Z</time></trkpt><trkpt lat="43.72060139874547" lon="7.05773625170452"><ele>483.0</ele><time>2026-04-26T16:47:39.999Z</time></trkpt><trkpt lat="43.72048651598757" lon="7.057712708578222"><ele>483.0</ele><time>2026-04-26T16:47:40.999Z</time></trkpt><trkpt lat="43.7203702896115" lon="7.05769439190099"><ele>483.0</ele><time>2026-04-26T16:47:41.999Z</time></trkpt><trkpt lat="43.72026411055228" lon="7.057660999756514"><ele>479.2</ele><time>2026-04-26T16:47:42.999Z</time></trkpt><trkpt lat="43.72016381360717" lon="7.057619008531446"><ele>475.4</ele><time>2026-04-26T16:47:43.999Z</time></trkpt><trkpt lat="43.720071883787035" lon="7.057574369071071"><ele>471.59999999999997</ele><time>2026-04-26T16:47:44.999Z</time></trkpt><trkpt lat="43.719985049269106" lon="7.057536227122173"><ele>467.79999999999995</ele><time>2026-04-26T16:47:45.999Z</time></trkpt><trkpt lat="43.71989179391635" lon="7.05750339346694"><ele>464.0</ele><time>2026-04-26T16:47:46.999Z</time></trkpt><trkpt lat="43.7197967632676" lon="7.05746132773009"><ele>465.4</ele><time>2026-04-26T16:47:47.999Z</time></trkpt><trkpt lat="43.71969737862491" lon="7.057411828717349"><ele>466.79999999999995</ele><time>2026-04-26T16:47:48.999Z</time></trkpt><trkpt lat="43.71960168216231" lon="7.057371421690883"><ele>468.20000000000005</ele><time>2026-04-26T16:47:49.999Z</time></trkpt><trkpt lat="43.71950279504816" lon="7.057353240751791"><ele>469.6</ele><time>2026-04-26T16:47:50.999Z</time></trkpt><trkpt lat="43.719410601680536" lon="7.057334006787383"><ele>471.0</ele><time>2026-04-26T16:47:51.999Z</time></trkpt><trkpt lat="43.71931847872919" lon="7.057307971567151"><ele>466.6</ele><time>2026-04-26T16:47:52.999Z</time></trkpt><trkpt lat="43.71922644717971" lon="7.057295761610463"><ele>462.20000000000005</ele><time>2026-04-26T16:47:53.999Z</time></trkpt><trkpt lat="43.71914406141913" lon="7.057319320526852"><ele>457.79999999999995</ele><time>2026-04-26T16:47:54.999Z</time></trkpt><trkpt lat="43.71905949123066" lon="7.057367944640749"><ele>453.4</ele><time>2026-04-26T16:47:55.999Z</time></trkpt><trkpt lat="43.71896927684877" lon="7.057390609837316"><ele>449.0</ele><time>2026-04-26T16:47:56.999Z</time></trkpt><trkpt lat="43.718872823936806" lon="7.0573565059134475"><ele>449.0</ele><time>2026-04-26T16:47:57.999Z</time></trkpt><trkpt lat="43.718778127284985" lon="7.057346315466158"><ele>449.0</ele><time>2026-04-26T16:47:58.999Z</time></trkpt><trkpt lat="43.718679849592526" lon="7.057338046498352"><ele>449.0</ele><time>2026-04-26T16:48:00Z</time></trkpt><trkpt lat="43.71858200974624" lon="7.057344036670908"><ele>449.0</ele><time>2026-04-26T16:48:01Z</time></trkpt><trkpt lat="43.718487556545526" lon="7.057347689993642"><ele>449.0</ele><time>2026-04-26T16:48:02Z</time></trkpt><trkpt lat="43.71840504357345" lon="7.057351600827738"><ele>445.2</ele><time>2026-04-26T16:48:03Z</time></trkpt><trkpt lat="43.71833796517084" lon="7.057352363279334"><ele>441.4</ele><time>2026-04-26T16:48:04Z</time></trkpt><trkpt lat="43.71827072642909" lon="7.057324883206796"><ele>437.6</ele><time>2026-04-26T16:48:05Z</time></trkpt><trkpt lat="43.7182005853023" lon="7.057241869086108"><ele>433.8</ele><time>2026-04-26T16:48:06Z</time></trkpt><trkpt lat="43.718139072991356" lon="7.057109300473171"><ele>430.0</ele><time>2026-04-26T16:48:07Z</time></trkpt><trkpt lat="43.71809866614115" lon="7.05697243517858"><ele>430.00000000000006</ele><time>2026-04-26T16:48:08Z</time></trkpt><trkpt lat="43.7180540134677" lon="7.056865204938203"><ele>430.0</ele><time>2026-04-26T16:48:09Z</time></trkpt><trkpt lat="43.71798586648574" lon="7.056791462998508"><ele>430.0</ele><time>2026-04-26T16:48:10Z</time></trkpt><trkpt lat="43.717904402203786" lon="7.056745312503251"><ele>430.0</ele><time>2026-04-26T16:48:11Z</time></trkpt><trkpt lat="43.71781310035674" lon="7.0567190436666785"><ele>430.00000000000006</ele><time>2026-04-26T16:48:12Z</time></trkpt><trkpt lat="43.71772476806697" lon="7.056711412344157"><ele>430.0</ele><time>2026-04-26T16:48:13Z</time></trkpt><trkpt lat="43.71765108412154" lon="7.056696048997367"><ele>427.0</ele><time>2026-04-26T16:48:14Z</time></trkpt><trkpt lat="43.71755351708445" lon="7.056641951144973"><ele>424.0</ele><time>2026-04-26T16:48:16Z</time></trkpt><trkpt lat="43.71748140464445" lon="7.056606187173525"><ele>421.0</ele><time>2026-04-26T16:48:19Z</time></trkpt><trkpt lat="43.717416488336944" lon="7.0567782966087345"><ele>418.0</ele><time>2026-04-26T16:48:20Z</time></trkpt><trkpt lat="43.71740280028423" lon="7.056881258536931"><ele>415.0</ele><time>2026-04-26T16:48:21Z</time></trkpt><trkpt lat="43.717424120855746" lon="7.056990968266384"><ele>415.0</ele><time>2026-04-26T16:48:22Z</time></trkpt><trkpt lat="43.71739966689845" lon="7.057090005283395"><ele>415.0</ele><time>2026-04-26T16:48:23Z</time></trkpt><trkpt lat="43.71730861749118" lon="7.057242857128659"><ele>415.0</ele><time>2026-04-26T16:48:25Z</time></trkpt><trkpt lat="43.71724459258415" lon="7.057328357211234"><ele>415.0</ele><time>2026-04-26T16:48:26Z</time></trkpt><trkpt lat="43.717173273729934" lon="7.057433182797861"><ele>415.0</ele><time>2026-04-26T16:48:27Z</time></trkpt><trkpt lat="43.71711258352656" lon="7.057537982846933"><ele>415.50000000000006</ele><time>2026-04-26T16:48:28Z</time></trkpt><trkpt lat="43.717051120212666" lon="7.057652400156589"><ele>416.0</ele><time>2026-04-26T16:48:29Z</time></trkpt><trkpt lat="43.717008357416745" lon="7.057775156120392"><ele>416.5</ele><time>2026-04-26T16:48:30Z</time></trkpt><trkpt lat="43.71697704048981" lon="7.05788601261182"><ele>417.0</ele><time>2026-04-26T16:48:31Z</time></trkpt><trkpt lat="43.716942543866665" lon="7.057969702239767"><ele>417.50000000000006</ele><time>2026-04-26T16:48:32Z</time></trkpt><trkpt lat="43.71690952742816" lon="7.0580805077999464"><ele>418.0</ele><time>2026-04-26T16:48:34Z</time></trkpt><trkpt lat="43.71683841877052" lon="7.058185294255999"><ele>416.79999999999995</ele><time>2026-04-26T16:48:38Z</time></trkpt><trkpt lat="43.7168310553191" lon="7.058305465004579"><ele>415.6</ele><time>2026-04-26T16:48:39Z</time></trkpt><trkpt lat="43.71685232930392" lon="7.058453386942964"><ele>414.4</ele><time>2026-04-26T16:48:40Z</time></trkpt><trkpt lat="43.716867664974835" lon="7.0586011455539435"><ele>413.20000000000005</ele><time>2026-04-26T16:48:41Z</time></trkpt><trkpt lat="43.716869661811096" lon="7.058706567110967"><ele>412.0</ele><time>2026-04-26T16:48:42Z</time></trkpt><trkpt lat="43.71685900020161" lon="7.058819176774473"><ele>412.00000000000006</ele><time>2026-04-26T16:48:44Z</time></trkpt><trkpt lat="43.71684947626738" lon="7.058909907983271"><ele>412.0</ele><time>2026-04-26T16:48:51Z</time></trkpt><trkpt lat="43.71690131613663" lon="7.058824229942542"><ele>412.0</ele><time>2026-04-26T16:49:17.999Z</time></trkpt><trkpt lat="43.71694077575845" lon="7.058755225418576"><ele>412.0</ele><time>2026-04-26T16:49:22.999Z</time></trkpt><trkpt lat="43.71682547977752" lon="7.058834438149727"><ele>412.00000000000006</ele><time>2026-04-26T16:52:07.032Z</time></trkpt><trkpt lat="43.716756970872424" lon="7.058856547579793"><ele>412.0</ele><time>2026-04-26T16:52:26.029Z</time></trkpt><trkpt lat="43.716824248109965" lon="7.058807712960932"><ele>412.0</ele><time>2026-04-26T16:52:44Z</time></trkpt><trkpt lat="43.71688511878374" lon="7.058755895260487"><ele>412.0</ele><time>2026-04-26T17:24:15Z</time></trkpt><trkpt lat="43.71696112973402" lon="7.058589727237163"><ele>412.0</ele><time>2026-04-26T17:24:34.028Z</time></trkpt><trkpt lat="43.71695939139147" lon="7.058725732618058"><ele>412.0</ele><time>2026-04-26T17:24:42.024Z</time></trkpt><trkpt lat="43.71696267278266" lon="7.058838407153108"><ele>412.0</ele><time>2026-04-26T17:24:44.022Z</time></trkpt><trkpt lat="43.716893050988226" lon="7.058838796421263"><ele>412.00000000000006</ele><time>2026-04-26T17:24:52.023Z</time></trkpt><trkpt lat="43.716869644767236" lon="7.058961343651972"><ele>412.0</ele><time>2026-04-26T17:28:25Z</time></trkpt><trkpt lat="43.71685304634758" lon="7.059045545644566"><ele>412.0</ele><time>2026-04-26T17:28:30Z</time></trkpt><trkpt lat="43.71685218490372" lon="7.059186014645043"><ele>412.0</ele><time>2026-04-26T17:28:32Z</time></trkpt><trkpt lat="43.716836533663276" lon="7.05927454913868"><ele>412.00000000000006</ele><time>2026-04-26T17:28:33Z</time></trkpt><trkpt lat="43.71684141734997" lon="7.059432063256405"><ele>412.0</ele><time>2026-04-26T17:28:35Z</time></trkpt><trkpt lat="43.71690256770528" lon="7.059553765361384"><ele>412.8</ele><time>2026-04-26T17:28:37Z</time></trkpt><trkpt lat="43.71696604658876" lon="7.059670711306437"><ele>413.6</ele><time>2026-04-26T17:28:39Z</time></trkpt><trkpt lat="43.71702809345508" lon="7.059794932985119"><ele>414.40000000000003</ele><time>2026-04-26T17:28:41Z</time></trkpt><trkpt lat="43.71705975501276" lon="7.059878198582652"><ele>415.20000000000005</ele><time>2026-04-26T17:28:42Z</time></trkpt><trkpt lat="43.717121165028" lon="7.05997545116816"><ele>416.0</ele><time>2026-04-26T17:28:43Z</time></trkpt><trkpt lat="43.71718387815129" lon="7.0601328629064275"><ele>416.0</ele><time>2026-04-26T17:28:44Z</time></trkpt><trkpt lat="43.717251078736375" lon="7.060316716753478"><ele>416.0</ele><time>2026-04-26T17:28:45Z</time></trkpt><trkpt lat="43.71731423191163" lon="7.060494108674669"><ele>416.0</ele><time>2026-04-26T17:28:46Z</time></trkpt><trkpt lat="43.717339589596406" lon="7.060647964720815"><ele>416.0</ele><time>2026-04-26T17:28:47Z</time></trkpt><trkpt lat="43.71738060829228" lon="7.060773680096782"><ele>414.20000000000005</ele><time>2026-04-26T17:28:48Z</time></trkpt><trkpt lat="43.71742811617077" lon="7.060843309258473"><ele>412.40000000000003</ele><time>2026-04-26T17:28:49Z</time></trkpt><trkpt lat="43.71748754717935" lon="7.060924394049216"><ele>410.6</ele><time>2026-04-26T17:28:51Z</time></trkpt><trkpt lat="43.717549113136776" lon="7.0610272631182704"><ele>408.8</ele><time>2026-04-26T17:28:53Z</time></trkpt><trkpt lat="43.717624297607095" lon="7.061200967044521"><ele>407.0</ele><time>2026-04-26T17:28:55Z</time></trkpt><trkpt lat="43.71766654145614" lon="7.061301957333566"><ele>406.99999999999994</ele><time>2026-04-26T17:28:56Z</time></trkpt><trkpt lat="43.71769974582909" lon="7.061403506826102"><ele>407.0</ele><time>2026-04-26T17:28:57Z</time></trkpt><trkpt lat="43.717730649938204" lon="7.0614979854842606"><ele>407.0</ele><time>2026-04-26T17:28:58Z</time></trkpt><trkpt lat="43.717744768973695" lon="7.061600321416822"><ele>407.0</ele><time>2026-04-26T17:28:59Z</time></trkpt><trkpt lat="43.71774701759289" lon="7.061691260927118"><ele>406.99999999999994</ele><time>2026-04-26T17:29:00Z</time></trkpt><trkpt lat="43.717736832927514" lon="7.061805604761065"><ele>407.0</ele><time>2026-04-26T17:29:01Z</time></trkpt><trkpt lat="43.71775380372744" lon="7.06195529837164"><ele>406.5</ele><time>2026-04-26T17:29:02Z</time></trkpt><trkpt lat="43.71776538378959" lon="7.062106617043579"><ele>406.0</ele><time>2026-04-26T17:29:03Z</time></trkpt><trkpt lat="43.71778353350963" lon="7.062232411365435"><ele>405.5</ele><time>2026-04-26T17:29:04Z</time></trkpt><trkpt lat="43.71788010598809" lon="7.062344441279924"><ele>405.0</ele><time>2026-04-26T17:29:05Z</time></trkpt><trkpt lat="43.71796202922648" lon="7.062498763527399"><ele>405.0</ele><time>2026-04-26T17:29:06Z</time></trkpt><trkpt lat="43.71806262735228" lon="7.06263624021138"><ele>405.0</ele><time>2026-04-26T17:29:07Z</time></trkpt><trkpt lat="43.71814234824459" lon="7.062748122918163"><ele>405.0</ele><time>2026-04-26T17:29:08Z</time></trkpt><trkpt lat="43.7181924093241" lon="7.062825903468887"><ele>405.0</ele><time>2026-04-26T17:29:09Z</time></trkpt><trkpt lat="43.718213496373714" lon="7.062943800339835"><ele>405.0</ele><time>2026-04-26T17:29:11Z</time></trkpt><trkpt lat="43.718156120044284" lon="7.06298783292712"><ele>405.0</ele><time>2026-04-26T17:29:12Z</time></trkpt><trkpt lat="43.71809531323411" lon="7.063058721165254"><ele>405.0</ele><time>2026-04-26T17:29:13Z</time></trkpt><trkpt lat="43.71801764559034" lon="7.063131509479073"><ele>405.0</ele><time>2026-04-26T17:29:14Z</time></trkpt><trkpt lat="43.71790321742798" lon="7.063154891444083"><ele>405.0</ele><time>2026-04-26T17:29:15Z</time></trkpt><trkpt lat="43.71779753636458" lon="7.063226735439302"><ele>405.0</ele><time>2026-04-26T17:29:16Z</time></trkpt><trkpt lat="43.717732200033296" lon="7.063284275455761"><ele>404.0</ele><time>2026-04-26T17:29:17Z</time></trkpt><trkpt lat="43.717635112818684" lon="7.0633462907356686"><ele>403.0</ele><time>2026-04-26T17:29:24Z</time></trkpt><trkpt lat="43.717618934240264" lon="7.063505444442217"><ele>402.0</ele><time>2026-04-26T17:29:25Z</time></trkpt><trkpt lat="43.717558206690406" lon="7.063618219903905"><ele>401.0</ele><time>2026-04-26T17:29:25.999Z</time></trkpt><trkpt lat="43.71749025012357" lon="7.063722229007988"><ele>400.0</ele><time>2026-04-26T17:29:26.999Z</time></trkpt><trkpt lat="43.717415323122246" lon="7.063827367219054"><ele>400.0</ele><time>2026-04-26T17:29:27.999Z</time></trkpt><trkpt lat="43.71733532821186" lon="7.063933124748493"><ele>400.0</ele><time>2026-04-26T17:29:28.999Z</time></trkpt><trkpt lat="43.7172746642554" lon="7.064038293301806"><ele>400.0</ele><time>2026-04-26T17:29:29.999Z</time></trkpt><trkpt lat="43.717221718615924" lon="7.064162445681233"><ele>400.0</ele><time>2026-04-26T17:29:30.999Z</time></trkpt><trkpt lat="43.717170719018156" lon="7.064283421957014"><ele>400.0</ele><time>2026-04-26T17:29:31.999Z</time></trkpt><trkpt lat="43.71713969537312" lon="7.064384554826441"><ele>400.33333333333337</ele><time>2026-04-26T17:29:32.999Z</time></trkpt><trkpt lat="43.717094817082774" lon="7.064476510399584"><ele>400.6666666666667</ele><time>2026-04-26T17:29:33.999Z</time></trkpt><trkpt lat="43.717069061492786" lon="7.064579181194473"><ele>401.0</ele><time>2026-04-26T17:29:34.999Z</time></trkpt><trkpt lat="43.71703697111418" lon="7.064679253724008"><ele>401.33333333333337</ele><time>2026-04-26T17:29:35.999Z</time></trkpt><trkpt lat="43.716981294033936" lon="7.064757180091836"><ele>401.6666666666667</ele><time>2026-04-26T17:29:36.999Z</time></trkpt><trkpt lat="43.71689674140483" lon="7.064810641735671"><ele>402.0</ele><time>2026-04-26T17:29:37.999Z</time></trkpt><trkpt lat="43.71681021028289" lon="7.064869828445133"><ele>400.3333333333333</ele><time>2026-04-26T17:29:38.999Z</time></trkpt><trkpt lat="43.71672461437874" lon="7.064941001861085"><ele>398.66666666666663</ele><time>2026-04-26T17:29:39.999Z</time></trkpt><trkpt lat="43.716636440373726" lon="7.065014484899075"><ele>397.0</ele><time>2026-04-26T17:29:40.999Z</time></trkpt><trkpt lat="43.71655298736763" lon="7.065072287260597"><ele>395.3333333333333</ele><time>2026-04-26T17:29:41.999Z</time></trkpt><trkpt lat="43.71648044976517" lon="7.065127802048225"><ele>393.66666666666663</ele><time>2026-04-26T17:29:42.999Z</time></trkpt><trkpt lat="43.716435018758396" lon="7.065191071206507"><ele>392.0</ele><time>2026-04-26T17:29:43.999Z</time></trkpt><trkpt lat="43.716379488814" lon="7.065260884853139"><ele>392.0</ele><time>2026-04-26T17:29:44.999Z</time></trkpt><trkpt lat="43.71639280076969" lon="7.065385063503635"><ele>392.0</ele><time>2026-04-26T17:29:45.999Z</time></trkpt><trkpt lat="43.71642473427574" lon="7.06553700265813"><ele>392.0</ele><time>2026-04-26T17:29:46.999Z</time></trkpt><trkpt lat="43.71644085017734" lon="7.065687180522325"><ele>392.0</ele><time>2026-04-26T17:29:47.999Z</time></trkpt><trkpt lat="43.71645972586337" lon="7.065830830329104"><ele>392.0</ele><time>2026-04-26T17:29:48.999Z</time></trkpt><trkpt lat="43.71648081421813" lon="7.0659825190025405"><ele>390.25</ele><time>2026-04-26T17:29:49.999Z</time></trkpt><trkpt lat="43.716507245905035" lon="7.06613807622002"><ele>388.5</ele><time>2026-04-26T17:29:50.999Z</time></trkpt><trkpt lat="43.71653840580292" lon="7.06629725553027"><ele>386.75</ele><time>2026-04-26T17:29:51.999Z</time></trkpt><trkpt lat="43.71656310278178" lon="7.066462801507226"><ele>385.0</ele><time>2026-04-26T17:29:52.999Z</time></trkpt><trkpt lat="43.71658564951507" lon="7.066645380278646"><ele>382.75</ele><time>2026-04-26T17:29:53.999Z</time></trkpt><trkpt lat="43.7166124535341" lon="7.066830713677205"><ele>380.5</ele><time>2026-04-26T17:29:54.999Z</time></trkpt><trkpt lat="43.716638015260024" lon="7.06699462533697"><ele>378.25</ele><time>2026-04-26T17:29:55.999Z</time></trkpt><trkpt lat="43.716642650311016" lon="7.067156549997165"><ele>376.0</ele><time>2026-04-26T17:29:56.999Z</time></trkpt><trkpt lat="43.716510359448044" lon="7.067280390646347"><ele>376.0</ele><time>2026-04-26T17:29:57.999Z</time></trkpt><trkpt lat="43.71646042453058" lon="7.067425277637591"><ele>376.0</ele><time>2026-04-26T17:29:58.999Z</time></trkpt><trkpt lat="43.71640553509563" lon="7.067564581192305"><ele>376.0</ele><time>2026-04-26T17:29:59.999Z</time></trkpt><trkpt lat="43.71635341307471" lon="7.067710407935937"><ele>376.0</ele><time>2026-04-26T17:30:00.999Z</time></trkpt><trkpt lat="43.716295020793915" lon="7.0678291857375255"><ele>375.4</ele><time>2026-04-26T17:30:01.999Z</time></trkpt><trkpt lat="43.7162320356922" lon="7.0679429801986355"><ele>374.8</ele><time>2026-04-26T17:30:02.999Z</time></trkpt><trkpt lat="43.716165914559504" lon="7.0680558729386"><ele>374.2</ele><time>2026-04-26T17:30:03.999Z</time></trkpt><trkpt lat="43.71605403110631" lon="7.068112370530643"><ele>373.59999999999997</ele><time>2026-04-26T17:30:04.999Z</time></trkpt><trkpt lat="43.71595435010322" lon="7.068195975177922"><ele>373.0</ele><time>2026-04-26T17:30:05.999Z</time></trkpt><trkpt lat="43.71589610270343" lon="7.068392569147858"><ele>368.0</ele><time>2026-04-26T17:30:06.999Z</time></trkpt><trkpt lat="43.715842761660326" lon="7.068618801445853"><ele>363.0</ele><time>2026-04-26T17:30:07.999Z</time></trkpt><trkpt lat="43.71581212457501" lon="7.0688620640839"><ele>358.0</ele><time>2026-04-26T17:30:08.999Z</time></trkpt><trkpt lat="43.71574448213161" lon="7.069066756483956"><ele>357.75</ele><time>2026-04-26T17:30:09.999Z</time></trkpt><trkpt lat="43.7156919768433" lon="7.069267775385966"><ele>357.5</ele><time>2026-04-26T17:30:10.999Z</time></trkpt><trkpt lat="43.71568007351477" lon="7.069441973900895"><ele>357.25</ele><time>2026-04-26T17:30:11.999Z</time></trkpt><trkpt lat="43.71566846831032" lon="7.069630706973241"><ele>357.0</ele><time>2026-04-26T17:30:12.999Z</time></trkpt><trkpt lat="43.71564853835452" lon="7.069816922658391"><ele>356.6</ele><time>2026-04-26T17:30:13.999Z</time></trkpt><trkpt lat="43.71564411075232" lon="7.069981969168608"><ele>356.20000000000005</ele><time>2026-04-26T17:30:14.999Z</time></trkpt><trkpt lat="43.71567351483705" lon="7.070105256430946"><ele>355.8</ele><time>2026-04-26T17:30:15.999Z</time></trkpt><trkpt lat="43.71567173026507" lon="7.070212161990527"><ele>355.4</ele><time>2026-04-26T17:30:16.999Z</time></trkpt><trkpt lat="43.71560487451256" lon="7.070339448637181"><ele>355.0</ele><time>2026-04-26T17:30:18.999Z</time></trkpt><trkpt lat="43.715507462138966" lon="7.070403586895207"><ele>355.0</ele><time>2026-04-26T17:30:19.999Z</time></trkpt><trkpt lat="43.7153938215146" lon="7.070511471445853"><ele>355.0</ele><time>2026-04-26T17:30:20.999Z</time></trkpt><trkpt lat="43.71526516529704" lon="7.070633611079733"><ele>355.0</ele><time>2026-04-26T17:30:21.999Z</time></trkpt><trkpt lat="43.715134731849226" lon="7.070761514708303"><ele>352.6</ele><time>2026-04-26T17:30:22.999Z</time></trkpt><trkpt lat="43.715001409369805" lon="7.070812576738451"><ele>350.2</ele><time>2026-04-26T17:30:23.999Z</time></trkpt><trkpt lat="43.714900515896396" lon="7.070898796941848"><ele>347.79999999999995</ele><time>2026-04-26T17:30:25Z</time></trkpt><trkpt lat="43.714806752079376" lon="7.07093725875335"><ele>345.4</ele><time>2026-04-26T17:30:26Z</time></trkpt><trkpt lat="43.71471331534019" lon="7.07095746198895"><ele>343.0</ele><time>2026-04-26T17:30:27Z</time></trkpt><trkpt lat="43.71461064346887" lon="7.070939740847971"><ele>343.0</ele><time>2026-04-26T17:30:28Z</time></trkpt><trkpt lat="43.71450001909603" lon="7.070913310136223"><ele>343.0</ele><time>2026-04-26T17:30:29Z</time></trkpt><trkpt lat="43.714378699917376" lon="7.070889739308709"><ele>343.0</ele><time>2026-04-26T17:30:30Z</time></trkpt><trkpt lat="43.7142644373887" lon="7.0708687408955795"><ele>343.0</ele><time>2026-04-26T17:30:31Z</time></trkpt><trkpt lat="43.714160782044374" lon="7.0708397297168455"><ele>341.3333333333333</ele><time>2026-04-26T17:30:32Z</time></trkpt><trkpt lat="43.71407701183696" lon="7.070793018112895"><ele>339.66666666666663</ele><time>2026-04-26T17:30:33Z</time></trkpt><trkpt lat="43.7139897789018" lon="7.070775057652873"><ele>338.0</ele><time>2026-04-26T17:30:34Z</time></trkpt><trkpt lat="43.71391179290646" lon="7.070771681631749"><ele>336.3333333333333</ele><time>2026-04-26T17:30:35Z</time></trkpt><trkpt lat="43.71384659394934" lon="7.070762071699482"><ele>334.6666666666667</ele><time>2026-04-26T17:30:36Z</time></trkpt><trkpt lat="43.71378161866355" lon="7.070781511098866"><ele>333.0</ele><time>2026-04-26T17:30:42Z</time></trkpt><trkpt lat="43.71374729608336" lon="7.0709132659903045"><ele>333.0</ele><time>2026-04-26T17:30:44Z</time></trkpt><trkpt lat="43.71375243115969" lon="7.071012136140841"><ele>333.0</ele><time>2026-04-26T17:30:45Z</time></trkpt><trkpt lat="43.71375286287356" lon="7.07111761121318"><ele>333.0</ele><time>2026-04-26T17:30:46Z</time></trkpt><trkpt lat="43.713758067197034" lon="7.071292379038851"><ele>333.0</ele><time>2026-04-26T17:30:48Z</time></trkpt><trkpt lat="43.71376920388781" lon="7.071389550305855"><ele>333.0</ele><time>2026-04-26T17:30:49Z</time></trkpt><trkpt lat="43.713772620906056" lon="7.071521430190409"><ele>333.0</ele><time>2026-04-26T17:30:50Z</time></trkpt><trkpt lat="43.713801541158745" lon="7.071620472532433"><ele>332.79999999999995</ele><time>2026-04-26T17:30:51Z</time></trkpt><trkpt lat="43.71383928870983" lon="7.071792560394349"><ele>332.6</ele><time>2026-04-26T17:30:53Z</time></trkpt><trkpt lat="43.713848491472774" lon="7.071898624908701"><ele>332.4</ele><time>2026-04-26T17:30:54Z</time></trkpt><trkpt lat="43.71387978428879" lon="7.072007307449383"><ele>332.20000000000005</ele><time>2026-04-26T17:30:55Z</time></trkpt><trkpt lat="43.71391205585418" lon="7.072109773630129"><ele>332.0</ele><time>2026-04-26T17:30:56Z</time></trkpt><trkpt lat="43.71395467003411" lon="7.072230233803206"><ele>332.0</ele><time>2026-04-26T17:30:57Z</time></trkpt><trkpt lat="43.713999398927655" lon="7.072352456071417"><ele>332.0</ele><time>2026-04-26T17:30:58Z</time></trkpt><trkpt lat="43.71404521191592" lon="7.072453815132249"><ele>332.0</ele><time>2026-04-26T17:30:59Z</time></trkpt><trkpt lat="43.71407541994274" lon="7.072537271274341"><ele>332.0</ele><time>2026-04-26T17:31:00Z</time></trkpt><trkpt lat="43.714120309560506" lon="7.072617597392588"><ele>332.0</ele><time>2026-04-26T17:31:01Z</time></trkpt><trkpt lat="43.71417824957331" lon="7.072756512977732"><ele>332.0</ele><time>2026-04-26T17:31:03Z</time></trkpt><trkpt lat="43.71421444715041" lon="7.0728292873070435"><ele>332.0</ele><time>2026-04-26T17:31:04Z</time></trkpt><trkpt lat="43.71417892516017" lon="7.072952256268604"><ele>332.0</ele><time>2026-04-26T17:31:05Z</time></trkpt><trkpt lat="43.7140877122151" lon="7.073000662454588"><ele>332.0</ele><time>2026-04-26T17:31:06Z</time></trkpt><trkpt lat="43.71400145603417" lon="7.073120645226835"><ele>332.0</ele><time>2026-04-26T17:31:07Z</time></trkpt><trkpt lat="43.71392483270762" lon="7.073245754641649"><ele>332.0</ele><time>2026-04-26T17:31:08Z</time></trkpt><trkpt lat="43.713843429342205" lon="7.073328211026926"><ele>331.40000000000003</ele><time>2026-04-26T17:31:09Z</time></trkpt><trkpt lat="43.71375403091025" lon="7.073400120833998"><ele>330.8</ele><time>2026-04-26T17:31:10Z</time></trkpt><trkpt lat="43.713660381954845" lon="7.07348044598149"><ele>330.2</ele><time>2026-04-26T17:31:11Z</time></trkpt><trkpt lat="43.71357402580922" lon="7.07356366051753"><ele>329.6</ele><time>2026-04-26T17:31:12Z</time></trkpt><trkpt lat="43.71347272491726" lon="7.073656240128687"><ele>329.0</ele><time>2026-04-26T17:31:13Z</time></trkpt><trkpt lat="43.713373512576034" lon="7.073747401311268"><ele>326.59999999999997</ele><time>2026-04-26T17:31:14Z</time></trkpt><trkpt lat="43.713290915954964" lon="7.073850875172062"><ele>324.2</ele><time>2026-04-26T17:31:15Z</time></trkpt><trkpt lat="43.71321234837422" lon="7.0739528524369195"><ele>321.79999999999995</ele><time>2026-04-26T17:31:16Z</time></trkpt><trkpt lat="43.713136114799575" lon="7.074069888722594"><ele>319.4</ele><time>2026-04-26T17:31:17Z</time></trkpt><trkpt lat="43.713084110719926" lon="7.074178545064706"><ele>317.0</ele><time>2026-04-26T17:31:18Z</time></trkpt><trkpt lat="43.71303038025573" lon="7.074267412515958"><ele>317.0</ele><time>2026-04-26T17:31:19Z</time></trkpt><trkpt lat="43.71298205305853" lon="7.074385623625664"><ele>317.0</ele><time>2026-04-26T17:31:21Z</time></trkpt><trkpt lat="43.71305297147681" lon="7.07447497526645"><ele>317.0</ele><time>2026-04-26T17:31:36.999Z</time></trkpt><trkpt lat="43.713074404016304" lon="7.0745609822415325"><ele>317.0</ele><time>2026-04-26T17:31:48.999Z</time></trkpt><trkpt lat="43.71309467947096" lon="7.0746443839983995"><ele>317.0</ele><time>2026-04-26T17:31:49.999Z</time></trkpt><trkpt lat="43.713094859768525" lon="7.074745557483501"><ele>317.0</ele><time>2026-04-26T17:31:51.999Z</time></trkpt><trkpt lat="43.71303266836549" lon="7.074808146685067"><ele>317.0</ele><time>2026-04-26T17:31:55.999Z</time></trkpt><trkpt lat="43.71296564044598" lon="7.0748312872086805"><ele>317.0</ele><time>2026-04-26T17:31:58.999Z</time></trkpt><trkpt lat="43.71290820075294" lon="7.074869046778037"><ele>317.0</ele><time>2026-04-26T17:32:00.999Z</time></trkpt><trkpt lat="43.712845256950835" lon="7.074949026617581"><ele>313.0</ele><time>2026-04-26T17:32:02.999Z</time></trkpt></trkseg></trk></gpx>